# Wetter Temperatur Luftdruck Luftfeuchtigkeit Sichtweite Windgeschwindigkeit Windrichtung Zeit
1 Clear 17 1019 68 10000 4.6 70 19:59 17.10.2019
2 Clear 17 1019 68 10000 4.6 70 19:39 17.10.2019
3 Clear 18 1019 68 10000 4.6 70 19:19 17.10.2019
4 Clear 18 1019 68 10000 4.6 70 19:19 17.10.2019
5 Clear 18 1019 68 10000 4.6 70 18:58 17.10.2019
6 Clear 18 1019 64 10000 4.6 70 18:38 17.10.2019
7 Clear 19 1019 64 10000 4.6 60 18:19 17.10.2019
8 Clouds 20 1019 64 10000 4.6 40 17:42 17.10.2019
9 Clouds 21 1019 64 10000 4.1 30 17:23 17.10.2019
10 Clouds 21 1019 64 10000 4.6 20 16:57 17.10.2019
11 Clouds 22 1019 64 10000 4.6 20 16:38 17.10.2019
12 Clouds 22 1019 64 10000 4.6 360 16:18 17.10.2019
13 Clouds 22 1019 64 10000 4.1 10 15:55 17.10.2019
14 Clouds 22 1019 64 10000 4.1 10 15:37 17.10.2019
15 Clear 22 1019 60 10000 3.6 10 15:19 17.10.2019
16 Clouds 22 1019 64 10000 3.1 10 14:43 17.10.2019
17 Clouds 22 1019 64 10000 3.1 10 14:24 17.10.2019
18 Clouds 22 1019 64 10000 3.1 10 14:24 17.10.2019
19 -273 0 0 0 0 0 14:24 17.10.2019
20 Clouds 22 1020 56 10000 3.6 350 13:57 17.10.2019
21 Clouds 22 1020 60 10000 3.1 350 13:39 17.10.2019
22 Clouds 21 1020 64 10000 3.1 330 13:19 17.10.2019
23 Clouds 21 1021 64 10000 2.6 330 12:41 17.10.2019
24 Clouds 20 1021 64 10000 2.1 310 12:21 17.10.2019
25 Clouds 20 1021 64 10000 2.1 310 11:59 17.10.2019
26 Clear 20 1021 64 10000 2.1 280 11:41 17.10.2019
27 Clear 20 1021 64 10000 2.1 280 11:41 17.10.2019
28 Clear 19 1021 64 10000 2.1 260 11:20 17.10.2019
29 Clear 19 1021 64 10000 2.1 260 10:57 17.10.2019
30 Clear 19 1021 64 10000 2.1 260 10:39 17.10.2019
31 Clear 19 1020 64 10000 1 0 10:19 17.10.2019
32 Clear 18 1020 64 10000 1 0 09:55 17.10.2019
33 Clear 18 1020 63 10000 1 0 09:36 17.10.2019
34 Clear 17 1020 72 10000 1.5 170 09:18 17.10.2019
35 Clear 17 1020 72 10000 1.5 170 09:18 17.10.2019
36 Clear 16 1020 72 10000 2.1 170 08:46 17.10.2019
37 Clear 15 1020 72 10000 2.1 170 08:26 17.10.2019
38 Clear 14 1019 77 10000 2.6 150 07:56 17.10.2019
39 Clear 14 1019 77 10000 2.6 150 07:38 17.10.2019
40 Clear 13 1019 77 10000 1.5 170 07:19 17.10.2019
41 Clear 13 1019 77 10000 2.1 180 06:40 17.10.2019
42 Clouds 13 1019 72 10000 2.1 170 06:21 17.10.2019
43 Clouds 13 1019 72 10000 2.1 170 06:21 17.10.2019
44 Clouds 13 1019 72 10000 2.1 170 05:58 17.10.2019
45 Clouds 13 1019 77 10000 2.6 160 05:32 17.10.2019
46 Clouds 15 1019 77 10000 2.1 180 04:57 17.10.2019
47 Clouds 15 1019 72 10000 2.1 170 03:55 17.10.2019
48 Clouds 15 1020 72 10000 2.1 160 02:53 17.10.2019
49 Clouds 15 1020 72 10000 2.6 160 01:55 17.10.2019
50 Clouds 15 1020 67 10000 3.1 160 00:41 17.10.2019
51 Clouds 15 1020 67 10000 2.6 150 00:20 17.10.2019
52 Clouds 15 1020 67 10000 2.6 150 00:20 17.10.2019
53 Clear 15 1020 67 10000 2.1 150 23:42 16.10.2019
54 Clouds 15 1020 63 10000 2.1 150 23:21 16.10.2019
55 Clouds 15 1020 63 10000 2.1 150 22:57 16.10.2019
56 Clouds 16 1020 63 10000 2.1 160 22:38 16.10.2019
57 Clouds 16 1020 63 10000 2.1 160 22:20 16.10.2019
58 Clouds 16 1020 63 10000 2.1 160 21:58 16.10.2019
59 Clouds 16 1020 59 10000 1.5 160 21:38 16.10.2019
60 Clouds 16 1019 63 10000 2.1 160 21:20 16.10.2019
61 Clouds 16 1019 63 10000 2.1 160 20:58 16.10.2019
62 Clouds 16 1019 63 10000 2.1 160 20:58 16.10.2019
63 Clouds 16 1019 59 10000 1.5 0 20:40 16.10.2019
64 Clouds 17 1019 60 10000 1.5 290 20:21 16.10.2019
65 Clouds 17 1019 60 10000 1.5 290 19:59 16.10.2019
66 Clouds 17 1019 56 10000 3.1 270 19:40 16.10.2019
67 Clouds 17 1019 56 10000 4.6 280 19:21 16.10.2019
68 -273 0 0 0 0 0 18:56 16.10.2019
69 Clouds 18 1019 56 10000 4.6 280 18:56 16.10.2019
70 Clouds 18 1019 56 10000 5.7 290 18:37 16.10.2019
71 Clouds 19 1019 60 10000 6.2 290 18:18 16.10.2019
72 Clouds 19 1019 60 10000 6.2 290 18:18 16.10.2019
73 Clouds 19 1019 60 10000 6.2 290 18:18 16.10.2019
74 Clouds 19 1019 60 10000 6.2 290 17:55 16.10.2019
75 Clouds 19 1019 60 10000 6.2 290 17:54 16.10.2019
76 Clouds 20 1019 64 10000 6.7 290 17:36 16.10.2019
77 Clouds 20 1019 64 10000 7.7 290 17:18 16.10.2019
78 Clouds 21 1019 64 10000 7.7 300 16:43 16.10.2019
79 Clouds 21 1019 60 10000 7.2 290 16:22 16.10.2019
80 Clouds 21 1019 60 10000 7.2 290 15:59 16.10.2019
81 Clouds 22 1019 60 10000 7.2 290 15:39 16.10.2019
82 Clouds 22 1019 64 10000 6.2 290 15:19 16.10.2019
83 Clouds 22 1019 64 10000 6.2 290 14:58 16.10.2019
84 Clouds 22 1019 64 10000 6.2 290 14:39 16.10.2019
85 Clouds 22 1019 68 10000 6.2 290 14:20 16.10.2019
86 Clouds 22 1019 68 10000 6.2 290 13:57 16.10.2019
87 Clouds 22 1019 68 10000 6.2 300 13:39 16.10.2019
88 Clouds 22 1020 73 10000 5.1 290 13:21 16.10.2019
89 Clouds 22 1020 73 10000 5.1 270 12:42 16.10.2019
90 Clouds 22 1020 73 10000 4.6 280 12:20 16.10.2019
91 Clouds 22 1020 73 10000 5.1 280 11:55 16.10.2019
92 Clouds 21 1020 73 10000 5.1 280 11:36 16.10.2019
93 Clouds 21 1020 73 10000 4.6 270 11:18 16.10.2019
94 Clouds 21 1020 68 10000 4.1 210 10:36 16.10.2019
95 Clouds 21 1020 68 10000 4.1 210 10:36 16.10.2019
96 Clouds 21 1020 73 10000 3.6 230 10:18 16.10.2019
97 Clouds 21 1019 73 10000 5.1 250 09:40 16.10.2019
98 Clouds 20 1019 73 10000 5.7 260 09:22 16.10.2019
99 Clouds 20 1019 73 10000 5.7 260 08:57 16.10.2019
100 Clouds 19 1019 73 10000 5.1 270 08:39 16.10.2019
101 Clouds 19 1019 73 10000 5.1 270 08:39 16.10.2019
102 Clouds 19 1018 78 10000 5.1 260 08:20 16.10.2019
103 Clouds 18 1018 78 10000 5.1 270 07:43 16.10.2019
104 Clouds 18 1018 78 10000 4.1 250 07:24 16.10.2019
105 Clouds 18 1018 78 10000 4.1 250 06:51 16.10.2019
106 Clouds 18 1018 83 10000 3.1 200 06:30 16.10.2019
107 Clouds 18 1018 83 10000 5.1 250 05:22 16.10.2019
108 Clouds 19 1018 77 10000 4.1 200 02:53 16.10.2019
109 Clouds 19 1018 77 10000 4.1 200 01:38 16.10.2019
110 Clouds 19 1018 78 10000 5.1 210 01:18 16.10.2019
111 Clouds 20 1018 78 10000 4.6 220 00:42 16.10.2019
112 Clouds 20 1018 73 10000 4.6 210 23:59 15.10.2019
113 Clouds 20 1017 78 10000 5.1 200 23:39 15.10.2019
114 Clouds 19 1017 78 10000 4.6 230 23:21 15.10.2019
115 Clouds 20 1017 83 10000 4.1 210 22:55 15.10.2019
116 Clouds 20 1017 83 10000 4.1 210 22:55 15.10.2019
117 Clouds 20 1017 83 10000 4.1 210 22:37 15.10.2019
118 Clouds 20 1017 83 10000 5.1 210 22:19 15.10.2019
119 Clouds 20 1017 83 10000 5.1 210 22:19 15.10.2019
120 Clouds 20 1017 83 10000 5.1 210 21:55 15.10.2019
121 Rain 20 1017 83 10000 5.7 220 21:37 15.10.2019
122 Clouds 20 1017 73 10000 3.6 200 21:19 15.10.2019
123 Clouds 20 1017 73 10000 3.6 200 21:19 15.10.2019
124 Clouds 21 1017 73 10000 3.6 200 20:56 15.10.2019
125 Clouds 21 1017 83 10000 4.6 240 20:37 15.10.2019
126 Clouds 21 1017 78 10000 4.1 220 20:19 15.10.2019
127 Clouds 21 1017 78 10000 4.1 220 19:56 15.10.2019
128 Clouds 21 1017 73 10000 5.7 230 19:37 15.10.2019
129 Clouds 21 1016 73 10000 7.7 230 19:19 15.10.2019
130 Clouds 22 1016 73 10000 7.2 220 18:44 15.10.2019
131 -273 0 0 0 0 0 18:26 15.10.2019
132 Clouds 23 1016 69 10000 7.2 220 17:57 15.10.2019
133 Clouds 23 1015 65 10000 6.7 210 17:38 15.10.2019
134 Clouds 23 1015 61 10000 7.2 210 17:19 15.10.2019
135 Clouds 23 1015 57 10000 7.7 210 16:46 15.10.2019
136 Clouds 23 1015 57 10000 7.7 210 16:23 15.10.2019
137 Clouds 23 1015 57 10000 8.2 210 15:59 15.10.2019
138 Clouds 23 1015 54 10000 8.2 210 15:40 15.10.2019
139 Clouds 24 1015 54 10000 7.7 220 15:20 15.10.2019
140 Clouds 24 1016 51 10000 6.7 210 14:57 15.10.2019
141 Clouds 24 1016 51 10000 6.7 210 14:38 15.10.2019
142 Clouds 24 1016 51 10000 6.7 210 14:38 15.10.2019
143 Clouds 24 1016 51 10000 6.7 210 14:19 15.10.2019
144 Clouds 24 1016 51 10000 6.7 200 13:44 15.10.2019
145 Clouds 24 1017 57 10000 7.2 200 13:21 15.10.2019
146 Clouds 24 1017 57 10000 7.2 200 12:59 15.10.2019
147 Clouds 24 1017 61 10000 6.7 210 12:39 15.10.2019
148 Clouds 24 1017 57 10000 7.7 210 12:20 15.10.2019
149 Clouds 24 1017 57 10000 7.7 210 11:55 15.10.2019
150 Clouds 24 1017 54 10000 4.1 180 11:37 15.10.2019
151 Clouds 23 1017 57 10000 3.1 140 11:18 15.10.2019
152 Clouds 22 1017 57 10000 5.1 180 10:42 15.10.2019
153 Clouds 22 1017 69 10000 1.5 0 10:19 15.10.2019
154 Clouds 21 1017 69 10000 1.5 0 09:57 15.10.2019
155 Clouds 21 1017 83 10000 2.1 0 09:37 15.10.2019
156 Clouds 20 1017 83 10000 1 0 09:19 15.10.2019
157 Clouds 20 1017 82 10000 0.5 0 08:42 15.10.2019
158 Clouds 19 1017 77 10000 1 0 08:22 15.10.2019
159 Clouds 18 1017 77 10000 1 0 07:56 15.10.2019
160 -273 0 0 0 0 0 07:56 15.10.2019
161 Clear 18 1017 82 10000 0.5 0 07:38 15.10.2019
162 Clear 18 1017 82 10000 1.5 100 07:19 15.10.2019
163 Clear 19 1017 82 10000 2.6 60 06:44 15.10.2019
164 Clear 18 1017 82 10000 2.6 60 06:26 15.10.2019
165 Clear 19 1017 77 10000 3.1 70 05:41 15.10.2019
166 Clear 19 1017 73 10000 1.5 0 05:23 15.10.2019
167 Clear 19 1017 77 10000 2.1 150 04:32 15.10.2019
168 Clear 19 1017 73 10000 1 0 03:37 15.10.2019
169 Clear 18 1018 72 10000 1.5 180 02:29 15.10.2019
170 Clouds 19 1018 72 10000 2.6 200 01:48 15.10.2019
171 Clouds 19 1018 73 10000 1 150 01:19 15.10.2019
172 Clouds 19 1018 77 10000 1.5 220 00:49 15.10.2019
173 Clouds 19 1018 73 10000 0.5 0 00:21 15.10.2019
174 Clouds 19 1018 73 10000 2.1 60 23:44 14.10.2019
175 Clouds 19 1019 73 10000 2.1 210 23:20 14.10.2019
176 Clouds 19 1019 73 10000 2.1 210 22:57 14.10.2019
177 Clouds 19 1019 73 10000 2.6 220 22:38 14.10.2019
178 Clouds 19 1019 68 10000 2.1 200 22:18 14.10.2019
179 Clouds 20 1019 68 10000 1.5 160 21:41 14.10.2019
180 Clouds 20 1019 68 10000 1 0 21:22 14.10.2019
181 Clouds 20 1019 68 10000 1 0 20:59 14.10.2019
182 Clouds 20 1019 68 10000 2.1 200 20:40 14.10.2019
183 Clouds 20 1019 73 10000 2.1 170 20:22 14.10.2019
184 Clouds 20 1019 73 10000 2.1 170 19:59 14.10.2019
185 -273 0 0 0 0 0 19:41 14.10.2019
186 Clouds 20 1019 73 10000 3.1 220 19:41 14.10.2019
187 Clouds 20 1019 73 10000 3.1 220 19:23 14.10.2019
188 Clouds 21 1019 69 10000 1.5 60 18:58 14.10.2019
189 Clouds 21 1018 64 10000 2.6 80 18:38 14.10.2019
190 Clouds 21 1018 69 10000 5.1 70 18:19 14.10.2019
191 Clouds 22 1018 69 10000 5.1 70 17:56 14.10.2019
192 Clouds 22 1018 69 10000 5.7 70 17:37 14.10.2019
193 Clouds 22 1018 69 10000 5.7 70 17:19 14.10.2019
194 Clouds 22 1019 73 10000 6.2 60 16:43 14.10.2019
195 Clouds 23 1019 65 10000 6.7 70 16:21 14.10.2019
196 Clouds 23 1019 57 10000 6.7 60 15:42 14.10.2019
197 Clouds 24 1019 61 10000 6.7 70 15:23 14.10.2019
198 Clouds 24 1019 61 10000 6.7 70 14:57 14.10.2019
199 Clouds 24 1019 61 10000 6.7 70 14:57 14.10.2019
200 Clouds 24 1019 57 10000 6.2 60 14:39 14.10.2019
201 Clouds 25 1020 57 10000 4.6 50 14:20 14.10.2019
202 Clouds 24 1020 69 10000 4.1 40 13:44 14.10.2019
203 Clouds 24 1021 69 10000 2.6 10 13:21 14.10.2019
204 Clouds 24 1021 69 10000 2.6 10 12:55 14.10.2019
205 Clouds 24 1021 78 10000 3.6 20 12:37 14.10.2019
206 Clear 23 1021 78 10000 3.1 30 12:18 14.10.2019
207 Clear 23 1021 78 10000 2.1 20 11:44 14.10.2019
208 Clear 23 1021 78 10000 2.1 20 11:26 14.10.2019
209 Clear 23 1021 78 10000 1.5 300 10:57 14.10.2019
210 Clear 22 1021 78 10000 1 260 10:38 14.10.2019
211 Clear 22 1021 77 10000 1 270 10:19 14.10.2019
212 Clear 21 1021 77 10000 0.5 0 09:42 14.10.2019
213 Clear 20 1021 82 10000 1.5 160 09:21 14.10.2019
214 Clear 19 1021 82 10000 1.5 220 08:51 14.10.2019
215 Clear 19 1021 82 10000 1 0 08:23 14.10.2019
216 Clear 18 1021 82 10000 1 0 07:59 14.10.2019
217 Clear 18 1020 82 10000 1 0 07:39 14.10.2019
218 Clear 18 1021 82 10000 1.5 160 07:18 14.10.2019
219 Clear 18 1021 77 10000 0.5 190 06:29 14.10.2019
220 Clear 18 1021 77 10000 1.5 130 05:57 14.10.2019
221 Clear 18 1021 77 10000 1.5 220 05:29 14.10.2019
222 Clear 17 1021 77 10000 1 0 04:42 14.10.2019
223 Clear 18 1021 77 10000 1.5 210 03:27 14.10.2019
224 Clear 18 1022 82 10000 2.1 200 02:36 14.10.2019
225 Clear 18 1022 77 10000 1 180 01:22 14.10.2019
226 Clear 18 1022 82 10000 1.5 190 00:53 14.10.2019
227 Clear 18 1022 82 10000 1.5 160 00:19 14.10.2019
228 Clear 19 1022 83 10000 0.5 280 23:44 13.10.2019
229 Clear 19 1022 83 10000 1.5 290 23:20 13.10.2019
230 Clear 19 1022 83 10000 1.5 290 22:58 13.10.2019
231 Clear 19 1022 73 10000 1.5 70 22:40 13.10.2019
232 Clouds 19 1022 73 10000 1 0 22:21 13.10.2019
233 Clouds 19 1022 73 10000 3.1 190 21:58 13.10.2019
234 Clouds 19 1022 73 10000 3.1 190 21:37 13.10.2019
235 Clouds 20 1022 73 10000 2.6 190 21:19 13.10.2019
236 Clouds 20 1022 73 10000 2.6 190 21:19 13.10.2019
237 Clouds 20 1022 73 10000 2.6 190 20:57 13.10.2019
238 Clouds 20 1022 73 10000 2.6 180 20:38 13.10.2019
239 Clouds 20 1022 73 10000 4.1 220 20:20 13.10.2019
240 Clouds 20 1022 73 10000 4.1 220 19:58 13.10.2019
241 Clouds 20 1021 73 10000 4.1 210 19:39 13.10.2019
242 Clouds 20 1021 73 10000 4.1 210 19:39 13.10.2019
243 Clouds 21 1021 69 10000 3.6 200 19:21 13.10.2019
244 -273 0 0 0 0 0 18:57 13.10.2019
245 Clouds 21 1021 69 10000 3.6 200 18:56 13.10.2019
246 Clouds 21 1021 64 10000 4.1 200 18:36 13.10.2019
247 Clouds 22 1021 61 10000 2.6 0 18:18 13.10.2019
248 Clouds 22 1021 65 10000 4.6 70 17:44 13.10.2019
249 Clouds 22 1021 65 10000 4.6 70 17:44 13.10.2019
250 Clouds 23 1021 69 10000 6.2 70 17:26 13.10.2019
251 Clouds 23 1021 69 10000 6.2 70 16:58 13.10.2019
252 Clouds 24 1021 65 10000 6.7 70 16:40 13.10.2019
253 Clouds 23 1021 69 10000 7.7 70 16:18 13.10.2019
254 Clouds 23 1021 69 10000 7.7 70 15:56 13.10.2019
255 -273 0 0 0 0 0 15:56 13.10.2019
256 Clouds 23 1021 69 10000 7.7 60 15:37 13.10.2019
257 Clouds 24 1021 73 10000 7.7 60 15:18 13.10.2019
258 Clouds 24 1021 73 10000 7.7 60 14:56 13.10.2019
259 Clouds 24 1021 65 10000 7.7 60 14:38 13.10.2019
260 Clouds 24 1022 65 10000 6.7 60 14:18 13.10.2019
261 Clouds 24 1022 69 10000 5.1 40 13:39 13.10.2019
262 Clouds 24 1023 73 10000 4.1 30 13:21 13.10.2019
263 Clouds 24 1023 73 10000 4.1 30 12:59 13.10.2019
264 Clouds 24 1023 78 10000 3.1 20 12:39 13.10.2019
265 Clear 24 1023 78 10000 3.1 30 12:20 13.10.2019
266 Clear 23 1023 78 10000 3.1 30 11:58 13.10.2019
267 Clear 23 1023 78 10000 2.6 20 11:39 13.10.2019
268 Clear 23 1023 78 10000 2.1 360 11:20 13.10.2019
269 Clear 22 1023 73 10000 1 350 10:43 13.10.2019
270 Clear 22 1023 73 10000 1 350 10:24 13.10.2019
271 Clear 21 1023 77 10000 1 270 09:59 13.10.2019
272 Clear 21 1023 73 10000 0.5 0 09:39 13.10.2019
273 -273 0 0 0 0 0 09:21 13.10.2019
274 Clear 19 1022 88 10000 2.6 150 08:43 13.10.2019
275 Clear 18 1022 88 10000 2.6 150 08:25 13.10.2019
276 Clear 18 1022 82 10000 1 0 07:51 13.10.2019
277 Clear 18 1022 82 10000 1 0 07:33 13.10.2019
278 Clear 18 1022 77 10000 0.5 0 06:53 13.10.2019
279 Clear 18 1022 77 10000 0.5 0 06:23 13.10.2019
280 Clear 18 1022 77 10000 0.5 0 05:19 13.10.2019
281 Clear 18 1022 72 10000 1 0 04:34 13.10.2019
282 Clear 18 1022 72 10000 1 0 04:34 13.10.2019
283 Clear 18 1023 82 10000 2.6 190 03:24 13.10.2019
284 Clear 18 1023 88 10000 2.6 200 02:30 13.10.2019
285 Clear 18 1023 77 10000 1 0 01:36 13.10.2019
286 Clear 18 1023 77 10000 1 0 01:36 13.10.2019
287 Clear 18 1022 88 10000 1.5 130 00:56 13.10.2019
288 Clear 18 1023 88 10000 1.5 140 00:37 13.10.2019
289 Clear 18 1023 88 10000 1.5 140 00:37 13.10.2019
290 Clear 18 1023 82 10000 1.5 150 00:18 13.10.2019
291 Clear 18 1023 82 10000 1.5 200 23:41 12.10.2019
292 Clear 18 1023 88 10000 1 0 23:23 12.10.2019
293 Clear 18 1023 88 10000 1 0 22:58 12.10.2019
294 Clear 19 1023 83 10000 1 0 22:40 12.10.2019
295 Clear 19 1023 83 10000 1 0 22:22 12.10.2019
296 Clear 19 1023 83 10000 1 0 22:22 12.10.2019
297 Clear 19 1023 83 10000 1 0 21:58 12.10.2019
298 Clear 19 1023 83 10000 1 0 21:58 12.10.2019
299 Clear 19 1023 83 10000 1.5 190 21:39 12.10.2019
300 Clear 19 1023 83 10000 2.6 250 21:21 12.10.2019
301 Clear 19 1023 83 10000 2.6 250 20:54 12.10.2019
302 Clear 20 1022 78 10000 1 0 20:36 12.10.2019
303 Clear 20 1022 78 10000 2.1 220 20:18 12.10.2019
304 Clouds 20 1022 78 10000 1.5 90 19:36 12.10.2019
305 Clouds 21 1022 78 10000 3.6 70 19:18 12.10.2019
306 Clouds 21 1022 78 10000 4.6 60 18:42 12.10.2019
307 Clouds 22 1022 73 10000 5.7 60 18:24 12.10.2019
308 Clouds 22 1022 73 10000 5.7 50 17:46 12.10.2019
309 Clouds 22 1022 73 10000 5.7 50 17:21 12.10.2019
310 Clouds 23 1022 73 10000 5.7 50 16:58 12.10.2019
311 Clouds 23 1022 73 10000 6.2 50 16:40 12.10.2019
312 Clouds 23 1022 73 10000 6.2 50 16:20 12.10.2019
313 Clouds 24 1022 73 10000 6.2 50 15:56 12.10.2019
314 Clouds 24 1022 73 10000 6.2 60 15:37 12.10.2019
315 Clouds 24 1022 65 10000 6.2 60 15:18 12.10.2019
316 Clouds 24 1022 65 10000 5.7 70 14:39 12.10.2019
317 Clouds 24 1022 64 10000 5.7 50 14:20 12.10.2019
318 Clouds 24 1023 64 10000 5.1 40 13:50 12.10.2019
319 Clouds 24 1023 64 10000 5.1 40 13:32 12.10.2019
320 Clouds 24 1023 73 10000 4.1 40 12:55 12.10.2019
321 Clouds 23 1023 73 10000 4.1 40 12:37 12.10.2019
322 Clouds 23 1023 73 10000 4.1 40 12:19 12.10.2019
323 Clear 23 1023 78 10000 2.6 20 11:43 12.10.2019
324 Clear 23 1023 78 10000 2.6 20 11:43 12.10.2019
325 Clear 22 1023 78 10000 2.1 360 11:22 12.10.2019
326 Clear 22 1023 78 10000 2.1 360 10:58 12.10.2019
327 Clear 22 1023 78 10000 1.5 340 10:39 12.10.2019
328 Clear 22 1023 78 10000 0.5 0 10:20 12.10.2019
329 Clear 21 1023 77 10000 1 0 09:57 12.10.2019
330 -273 0 0 0 0 0 09:57 12.10.2019
331 Clear 20 1023 77 10000 1 0 09:37 12.10.2019
332 Clear 20 1022 82 10000 1.5 180 09:19 12.10.2019
333 Clear 18 1022 88 10000 1 180 08:43 12.10.2019
334 Clear 18 1022 82 10000 1 0 08:23 12.10.2019
335 Clear 18 1022 82 10000 0.5 150 07:49 12.10.2019
336 Clouds 18 1022 82 10000 0.5 0 07:30 12.10.2019
337 Clear 18 1022 82 10000 1 170 06:27 12.10.2019
338 Clear 18 1022 88 10000 1.5 170 05:42 12.10.2019
339 Clear 18 1022 82 10000 1.5 150 04:34 12.10.2019
340 Clouds 18 1022 88 10000 1 0 03:53 12.10.2019
341 Clouds 18 1022 82 10000 1 140 02:45 12.10.2019
342 Clear 18 1022 88 10000 2.1 170 01:32 12.10.2019
343 Clear 18 1022 88 10000 2.1 170 01:32 12.10.2019
344 Clear 19 1022 82 10000 1.5 150 00:55 12.10.2019
345 Clear 19 1022 82 10000 1.5 150 00:37 12.10.2019
346 Clear 19 1022 82 10000 1 0 23:55 11.10.2019
347 Clear 19 1021 82 10000 0.5 0 23:36 11.10.2019
348 Clear 19 1021 77 10000 1 0 23:18 11.10.2019
349 Clear 19 1021 77 10000 1 0 23:18 11.10.2019
350 Clear 19 1021 77 10000 1.5 100 22:37 11.10.2019
351 Clear 19 1021 77 10000 2.1 130 22:18 11.10.2019
352 Clear 19 1021 73 10000 3.6 90 21:42 11.10.2019
353 Clear 20 1021 73 10000 5.1 60 21:21 11.10.2019
354 Clear 20 1021 73 10000 5.1 60 20:57 11.10.2019
355 Clear 20 1020 73 10000 5.7 70 20:38 11.10.2019
356 Clear 20 1020 73 10000 6.2 60 20:19 11.10.2019
357 Clear 20 1020 73 10000 6.2 60 19:55 11.10.2019
358 Clear 20 1020 73 10000 6.2 60 19:36 11.10.2019
359 Clear 21 1020 69 10000 6.7 70 19:18 11.10.2019
360 Clear 21 1020 69 10000 6.7 70 19:18 11.10.2019
361 Clear 21 1020 69 10000 6.7 70 19:18 11.10.2019
362 Clear 21 1020 69 10000 7.2 70 18:54 11.10.2019
363 Clear 22 1020 69 10000 7.2 70 18:36 11.10.2019
364 Clear 22 1020 69 10000 7.2 70 18:36 11.10.2019
365 Clear 22 1020 64 10000 8.2 70 18:18 11.10.2019
366 Clear 23 1020 64 10000 8.2 70 17:54 11.10.2019
367 Clear 23 1020 64 10000 7.7 70 17:36 11.10.2019
368 Clear 23 1020 64 10000 8.7 70 17:18 11.10.2019
369 Clear 23 1020 64 10000 8.7 70 17:18 11.10.2019
370 Clear 23 1020 64 10000 9.3 70 16:39 11.10.2019
371 Clouds 23 1020 69 10000 9.3 60 16:19 11.10.2019
372 Clouds 23 1020 69 10000 9.3 60 15:58 11.10.2019
373 Clouds 24 1020 64 10000 9.3 60 15:38 11.10.2019
374 Clouds 24 1020 64 10000 9.3 60 15:18 11.10.2019
375 Clouds 24 1021 64 10000 8.7 70 14:46 11.10.2019
376 Clouds 24 1021 64 10000 9.3 70 14:28 11.10.2019
377 Clouds 23 1021 64 10000 8.7 60 13:56 11.10.2019
378 Clouds 24 1021 64 10000 8.7 60 13:37 11.10.2019
379 Clouds 24 1021 64 10000 8.7 70 13:18 11.10.2019
380 Clouds 24 1021 64 10000 7.7 70 12:42 11.10.2019
381 Clouds 23 1021 64 10000 7.7 70 12:22 11.10.2019
382 Clouds 23 1021 64 10000 7.7 70 12:00 11.10.2019
383 Clouds 22 1021 69 10000 6.7 60 11:40 11.10.2019
384 Clouds 22 1021 69 10000 6.7 60 11:21 11.10.2019
385 Clouds 22 1021 69 10000 6.7 70 10:56 11.10.2019
386 Clouds 22 1021 69 10000 6.7 70 10:38 11.10.2019
387 Clouds 21 1021 73 10000 5.1 70 10:20 11.10.2019
388 Clouds 21 1021 73 10000 5.1 70 10:20 11.10.2019
389 Clouds 21 1021 73 10000 5.1 70 09:55 11.10.2019
390 Clouds 21 1020 73 10000 4.1 70 09:37 11.10.2019
391 Clouds 20 1020 77 10000 4.6 70 09:18 11.10.2019
392 Clouds 20 1020 77 10000 4.6 70 09:18 11.10.2019
393 Clouds 19 1020 77 10000 4.6 70 08:54 11.10.2019
394 Clouds 19 1020 77 10000 4.6 70 08:36 11.10.2019
395 Clouds 19 1019 77 10000 4.6 70 08:18 11.10.2019
396 Clouds 19 1019 82 10000 4.6 70 07:41 11.10.2019
397 Clouds 19 1020 82 10000 4.1 70 07:22 11.10.2019
398 Clouds 19 1019 82 10000 4.1 70 06:47 11.10.2019
399 Clouds 19 1019 88 10000 3.6 60 06:22 11.10.2019
400 Clouds 18 1019 88 10000 4.1 70 05:37 11.10.2019
401 Clouds 19 1019 88 10000 3.6 60 04:59 11.10.2019
402 Clouds 19 1019 88 10000 4.6 80 04:24 11.10.2019
403 Clouds 19 1019 83 10000 4.1 50 02:19 11.10.2019
404 Clouds 19 1019 83 10000 4.1 50 00:47 11.10.2019
405 Clouds 19 1019 83 10000 4.1 50 00:27 11.10.2019
406 Clouds 20 1019 83 10000 4.1 40 23:44 10.10.2019
407 Clouds 19 1018 83 10000 4.1 40 23:22 10.10.2019
408 Clouds 19 1018 83 10000 3.6 50 22:57 10.10.2019
409 Clouds 19 1018 83 10000 3.6 50 22:39 10.10.2019
410 Clouds 20 1018 83 10000 4.1 40 22:20 10.10.2019
411 Clouds 20 1018 83 10000 4.1 40 21:57 10.10.2019
412 Clouds 20 1018 83 10000 4.1 40 21:39 10.10.2019
413 Clouds 20 1018 83 10000 3.6 40 21:20 10.10.2019
414 Clouds 20 1017 83 10000 3.1 50 20:43 10.10.2019
415 Clouds 20 1017 83 10000 3.6 50 20:22 10.10.2019
416 Clouds 21 1017 83 10000 3.6 50 19:59 10.10.2019
417 Clouds 21 1017 83 10000 3.6 50 19:41 10.10.2019
418 Clouds 20 1017 83 10000 3.6 50 19:41 10.10.2019
419 Clouds 21 1017 78 10000 3.6 30 19:21 10.10.2019
420 Clouds 21 1017 78 10000 3.6 30 18:59 10.10.2019
421 Clouds 21 1017 83 10000 4.6 10 18:39 10.10.2019
422 Clouds 22 1017 83 10000 5.1 20 18:20 10.10.2019
423 Clouds 22 1017 83 10000 5.1 20 17:55 10.10.2019
424 Clouds 22 1017 83 10000 5.7 10 17:36 10.10.2019
425 Clouds 23 1017 83 10000 5.7 10 17:18 10.10.2019
426 Clouds 23 1017 83 10000 5.1 20 16:44 10.10.2019
427 Clouds 23 1017 83 10000 5.1 20 16:26 10.10.2019
428 Clouds 23 1016 83 10000 4.1 20 15:57 10.10.2019
429 Clouds 23 1016 83 10000 4.1 20 15:37 10.10.2019
430 Clouds 23 1016 78 10000 4.1 30 15:19 10.10.2019
431 Clouds 24 1016 78 10000 4.1 30 14:54 10.10.2019
432 Clouds 24 1016 78 10000 4.1 20 14:36 10.10.2019
433 Clouds 24 1016 78 10000 4.1 20 14:18 10.10.2019
434 Clouds 24 1016 78 10000 4.1 20 13:41 10.10.2019
435 Clouds 24 1017 83 10000 3.6 20 13:23 10.10.2019
436 Clouds 24 1017 78 10000 3.6 40 12:57 10.10.2019
437 Clouds 23 1017 78 10000 3.6 40 12:39 10.10.2019
438 Clouds 23 1017 78 10000 4.1 40 12:20 10.10.2019
439 Clouds 23 1017 78 10000 4.1 40 11:56 10.10.2019
440 Clouds 23 1017 78 10000 4.1 40 11:38 10.10.2019
441 Clouds 23 1017 78 10000 3.1 50 11:19 10.10.2019
442 Clouds 22 1017 83 10000 1 0 10:44 10.10.2019
443 Clouds 23 1017 83 10000 1 0 10:26 10.10.2019
444 Clouds 22 1017 83 10000 2.1 250 09:56 10.10.2019
445 Clouds 22 1016 88 10000 1.5 230 09:38 10.10.2019
446 Clouds 20 1016 88 10000 1 180 09:20 10.10.2019
447 Clouds 20 1016 88 10000 1 180 08:57 10.10.2019
448 Clouds 19 1016 94 10000 2.1 160 08:37 10.10.2019
449 Clouds 19 1016 88 10000 1 200 08:18 10.10.2019
450 Clouds 18 1015 88 10000 1 200 07:44 10.10.2019
451 Clouds 18 1015 94 10000 1.5 140 07:21 10.10.2019
452 Clouds 19 1015 88 10000 1.5 170 06:48 10.10.2019
453 Clouds 19 1015 88 10000 1.5 170 06:29 10.10.2019
454 Clouds 18 1015 88 10000 1.5 170 05:28 10.10.2019
455 Clouds 18 1015 82 10000 1.5 160 04:47 10.10.2019
456 Clouds 18 1015 88 10000 1 0 04:26 10.10.2019
457 Clouds 18 1015 88 10000 1 0 04:26 10.10.2019
458 Clear 19 1016 82 10000 2.1 130 01:44 10.10.2019
459 Clear 19 1016 82 10000 2.1 130 01:25 10.10.2019
460 Clear 19 1016 88 10000 2.1 180 00:54 10.10.2019
461 Clear 19 1016 88 10000 2.1 180 00:54 10.10.2019
462 Clear 19 1016 88 10000 1 0 00:23 10.10.2019
463 Clear 20 1016 83 10000 2.1 80 23:40 09.10.2019
464 Clear 20 1016 78 10000 0.5 0 23:21 09.10.2019
465 Clear 20 1016 78 10000 0.5 0 22:56 09.10.2019
466 Clear 19 1016 83 10000 1 0 22:38 09.10.2019
467 Clear 19 1016 82 10000 3.1 120 22:20 09.10.2019
468 Clear 20 1016 83 10000 2.6 80 21:41 09.10.2019
469 Clear 20 1016 83 10000 4.1 80 21:21 09.10.2019
470 Clear 20 1016 83 10000 4.1 80 20:56 09.10.2019
471 Clear 20 1016 83 10000 5.1 60 20:38 09.10.2019
472 Clear 21 1016 69 10000 4.6 80 20:19 09.10.2019
473 Clear 21 1016 69 10000 4.6 80 20:19 09.10.2019
474 Clear 21 1016 69 10000 4.6 80 19:58 09.10.2019
475 Clear 21 1015 73 10000 5.7 50 19:40 09.10.2019
476 Clear 21 1015 69 10000 4.6 60 19:21 09.10.2019
477 Clouds 21 1015 73 10000 7.2 70 18:38 09.10.2019
478 Clouds 23 1015 78 10000 7.7 60 18:20 09.10.2019
479 Clouds 22 1015 78 10000 7.7 60 17:57 09.10.2019
480 Clouds 23 1015 73 10000 8.2 60 17:37 09.10.2019
481 Clouds 23 1015 69 10000 8.2 70 17:19 09.10.2019
482 Clouds 23 1015 69 10000 8.2 70 16:56 09.10.2019
483 Clouds 23 1015 69 10000 8.7 70 16:37 09.10.2019
484 Clouds 23 1015 73 10000 7.7 70 16:18 09.10.2019
485 Clouds 23 1015 73 10000 7.7 70 16:18 09.10.2019
486 Clouds 23 1015 73 10000 7.7 70 15:55 09.10.2019
487 Clouds 24 1016 73 10000 8.2 60 15:36 09.10.2019
488 Clouds 24 1016 69 10000 7.2 60 15:18 09.10.2019
489 Clouds 24 1016 69 10000 6.7 50 14:44 09.10.2019
490 Clear 24 1016 73 10000 6.2 40 14:19 09.10.2019
491 Clear 24 1016 73 10000 6.2 40 13:58 09.10.2019
492 Clear 24 1017 73 10000 7.2 40 13:36 09.10.2019
493 Clear 24 1017 73 10000 6.2 40 13:18 09.10.2019
494 Clear 23 1018 65 10000 1.5 0 12:42 09.10.2019
495 Clear 22 1018 69 10000 2.6 0 12:22 09.10.2019
496 Clear 23 1018 69 10000 2.6 0 11:58 09.10.2019
497 Clear 22 1018 69 10000 1.5 290 11:39 09.10.2019
498 Clear 23 1018 69 10000 2.6 250 11:20 09.10.2019
499 Clear 23 1018 69 10000 2.6 250 10:58 09.10.2019
500 Clear 22 1018 73 10000 3.1 240 10:40 09.10.2019
501 Clear 21 1018 68 10000 3.1 240 10:18 09.10.2019
502 Clear 21 1017 68 10000 2.1 220 09:43 09.10.2019
503 Clear 20 1017 73 10000 1.5 0 09:20 09.10.2019
504 Clear 20 1017 73 10000 1.5 0 08:57 09.10.2019
505 Clear 19 1017 68 10000 5.7 70 08:37 09.10.2019
506 Clear 19 1017 68 10000 5.7 80 08:18 09.10.2019
507 Clear 18 1017 73 10000 5.7 70 07:46 09.10.2019
508 Clear 18 1017 73 10000 4.1 60 07:24 09.10.2019
509 Clear 18 1017 73 10000 4.1 60 07:24 09.10.2019
510 Clear 18 994 96 0 1.49 150.25 06:56 09.10.2019
511 Clear 18 994 95 0 0.71 125.707 06:25 09.10.2019
512 Clear 18 1017 72 10000 4.1 60 05:47 09.10.2019
513 Clear 18 1022 90 0 0.89 45 04:41 09.10.2019
514 Clear 18 1017 68 10000 4.1 70 03:43 09.10.2019
515 Clear 18 1017 68 10000 4.1 70 03:43 09.10.2019
516 Clear 18 1018 72 10000 1 0 01:55 09.10.2019
517 Clear 18 1018 72 10000 2.1 110 01:22 09.10.2019
518 Clear 18 1018 72 10000 2.1 110 01:22 09.10.2019
519 Clear 18 1018 72 10000 2.1 110 00:59 09.10.2019
520 Clear 18 1017 72 10000 2.6 80 00:40 09.10.2019
521 Clouds 18 1017 68 10000 3.6 80 00:22 09.10.2019
522 Clouds 18 1017 68 10000 3.6 80 23:58 08.10.2019
523 Clouds 19 1017 64 10000 5.1 70 23:37 08.10.2019
524 Clear 18 1017 60 10000 6.2 60 23:18 08.10.2019
525 Clear 19 1017 60 10000 6.2 60 22:41 08.10.2019
526 Clear 19 1017 60 10000 6.2 60 22:41 08.10.2019
527 Clear 19 1016 68 10000 6.2 50 22:21 08.10.2019
528 Clear 19 1016 68 10000 6.2 50 21:58 08.10.2019
529 Clear 19 1016 68 10000 6.2 50 21:39 08.10.2019
530 Clear 19 1016 68 10000 6.2 50 21:39 08.10.2019
531 Clear 19 1016 64 10000 5.7 60 21:20 08.10.2019
532 Clear 19 1016 64 10000 5.7 60 20:58 08.10.2019
533 Clear 19 1016 64 10000 6.7 60 20:39 08.10.2019
534 Clear 19 1016 64 10000 6.7 60 20:21 08.10.2019
535 Clear 19 1016 64 10000 6.7 60 19:59 08.10.2019
536 Clear 19 1015 64 10000 6.7 60 19:41 08.10.2019
537 Clear 19 1015 64 10000 7.7 70 19:23 08.10.2019
538 Clear 20 1015 60 10000 8.2 60 18:57 08.10.2019
539 Clear 20 1015 60 10000 8.2 60 18:39 08.10.2019
540 Clear 20 1014 64 10000 8.2 60 18:19 08.10.2019
541 Clear 21 1014 64 10000 8.2 60 17:55 08.10.2019
542 Clear 20 1014 64 10000 9.3 60 17:36 08.10.2019
543 Clear 20 1014 60 10000 9.3 60 17:18 08.10.2019
544 Clear 21 1014 56 10000 9.8 60 16:41 08.10.2019
545 Clear 22 1014 56 10000 10.8 70 16:22 08.10.2019
546 Clear 20 1014 56 10000 10.8 70 15:57 08.10.2019
547 Clouds 20 1013 56 10000 10.8 60 15:37 08.10.2019
548 Clouds 21 1013 56 10000 11.3 60 15:19 08.10.2019
549 Clouds 22 1013 56 10000 11.3 60 15:19 08.10.2019
550 Clouds 22 1013 56 10000 11.3 60 14:42 08.10.2019
551 Clouds 21 1013 56 10000 11.8 50 14:21 08.10.2019
552 Clouds 21 1013 56 10000 11.8 50 13:59 08.10.2019
553 Clouds 22 1013 50 10000 10.8 60 13:39 08.10.2019
554 Clouds 21 1014 56 10000 10.3 50 13:21 08.10.2019
555 Clouds 21 1014 56 10000 10.3 50 12:59 08.10.2019
556 Clouds 21 1014 53 10000 10.3 60 12:40 08.10.2019
557 Clouds 21 1014 53 10000 10.8 70 12:20 08.10.2019
558 Clouds 21 1014 53 10000 10.8 70 11:56 08.10.2019
559 Clouds 21 1014 56 10000 10.3 50 11:37 08.10.2019
560 Clouds 20 1013 64 10000 10.3 50 11:19 08.10.2019
561 Clouds 20 1013 56 10000 10.3 60 10:40 08.10.2019
562 Clouds 20 1013 60 10000 10.8 50 10:22 08.10.2019
563 Clouds 20 1013 60 10000 10.8 50 09:58 08.10.2019
564 Clouds 21 1012 60 10000 9.3 50 09:40 08.10.2019
565 Clouds 19 1011 64 10000 9.8 50 09:20 08.10.2019
566 Clouds 19 1011 60 10000 10.3 60 08:44 08.10.2019
567 Clouds 19 1010 64 10000 9.3 60 08:25 08.10.2019
568 Clouds 18 1009 60 10000 9.3 60 07:47 08.10.2019
569 Clouds 18 1009 64 10000 9.8 50 07:23 08.10.2019
570 Clouds 18 1009 64 10000 9.8 50 06:57 08.10.2019
571 Clouds 18 1009 68 10000 10.3 50 06:35 08.10.2019
572 Clouds 18 1009 68 10000 10.3 50 05:59 08.10.2019
573 Clouds 18 1008 68 10000 11.3 50 05:40 08.10.2019
574 Clouds 17 1007 68 10000 12.3 50 04:55 08.10.2019
575 Clouds 16 1007 72 10000 10.8 60 03:30 08.10.2019
576 Clouds 16 1007 72 10000 10.8 60 03:30 08.10.2019
577 Rain 16 1007 88 10000 5.7 70 02:40 08.10.2019
578 Rain 16 1007 88 10000 4.6 70 01:56 08.10.2019
579 Clouds 16 1006 82 10000 4.6 70 01:38 08.10.2019
580 Rain 15 1005 93 10000 2.1 120 00:55 08.10.2019
581 Clouds 15 1006 93 10000 1 0 00:23 08.10.2019
582 Rain 15 1005 93 7000 0.5 0 23:44 07.10.2019
583 Rain 15 1005 93 6000 1.5 110 23:21 07.10.2019
584 Rain 15 1005 93 6000 1.5 110 23:21 07.10.2019
585 Rain 15 1005 93 6000 1.5 110 22:59 07.10.2019
586 Rain 15 1005 93 3000 3.6 70 22:40 07.10.2019
587 Rain 15 1005 88 7000 3.6 50 22:21 07.10.2019
588 Rain 15 1005 88 7000 3.6 50 21:59 07.10.2019
589 Clouds 14 1004 82 10000 4.1 70 21:40 07.10.2019
590 Clouds 15 1004 77 10000 3.6 80 21:21 07.10.2019
591 Clouds 15 1004 77 10000 3.6 80 20:59 07.10.2019
592 Rain 15 1003 82 10000 5.7 70 20:39 07.10.2019
593 Clouds 15 1003 82 10000 5.1 70 20:21 07.10.2019
594 Clouds 15 1003 82 10000 5.1 70 19:59 07.10.2019
595 Rain 15 1003 88 8000 4.6 90 19:41 07.10.2019
596 Rain 15 1003 82 8000 4.6 50 19:20 07.10.2019
597 Rain 15 1003 82 8000 4.6 50 18:59 07.10.2019
598 Rain 15 1003 82 7000 6.7 30 18:40 07.10.2019
599 Rain 15 1003 88 5000 7.7 20 18:19 07.10.2019
600 Rain 15 1003 88 5000 7.7 20 18:19 07.10.2019
601 Rain 16 1003 72 8000 6.7 260 17:55 07.10.2019
602 Rain 16 1003 72 8000 6.7 260 17:37 07.10.2019
603 Rain 15 1003 77 7000 5.1 240 17:18 07.10.2019
604 Rain 16 1003 68 8000 8.2 260 16:43 07.10.2019
605 Rain 17 1003 72 7000 7.7 290 16:25 07.10.2019
606 Rain 17 1003 72 7000 7.7 290 15:57 07.10.2019
607 Rain 17 1003 77 5000 6.2 270 15:38 07.10.2019
608 Rain 18 1003 77 10000 5.1 310 15:20 07.10.2019
609 Rain 18 1003 77 5000 7.7 300 14:41 07.10.2019
610 Rain 19 1003 77 10000 7.2 290 14:22 07.10.2019
611 Rain 21 1003 68 10000 4.6 220 13:44 07.10.2019
612 Clouds 21 1004 77 10000 4.1 200 13:21 07.10.2019
613 Clouds 21 1004 77 10000 4.1 200 12:57 07.10.2019
614 Rain 21 1005 64 10000 3.1 200 12:39 07.10.2019
615 Clouds 21 1005 56 10000 1 0 12:20 07.10.2019
616 Clouds 21 1005 56 10000 1 0 12:20 07.10.2019
617 Rain 19 1005 64 10000 4.6 360 11:59 07.10.2019
618 Rain 19 1005 64 10000 4.6 360 11:39 07.10.2019
619 Rain 19 1006 68 10000 7.7 270 11:20 07.10.2019
620 Rain 19 1006 68 10000 8.2 260 10:43 07.10.2019
621 Clouds 19 1006 73 10000 9.3 250 10:23 07.10.2019
622 Clouds 19 1006 73 10000 9.3 250 09:58 07.10.2019
623 Clouds 19 1006 68 10000 9.3 250 09:38 07.10.2019
624 Clouds 19 1006 68 10000 7.7 250 09:20 07.10.2019
625 Clouds 19 1006 73 10000 9.8 260 08:43 07.10.2019
626 Clouds 19 1006 68 10000 10.8 270 08:20 07.10.2019
627 Clouds 19 1006 68 10000 9.3 270 07:49 07.10.2019
628 Clouds 18 1006 68 10000 9.3 270 07:28 07.10.2019
629 Clouds 18 1006 73 10000 9.3 260 06:58 07.10.2019
630 Clouds 18 1007 68 10000 5.7 200 06:39 07.10.2019
631 Clouds 18 1007 68 10000 5.7 200 06:19 07.10.2019
632 Clouds 19 1007 68 10000 5.1 210 05:26 07.10.2019
633 Clouds 19 1008 68 10000 4.1 190 04:50 07.10.2019
634 Clouds 19 1009 72 10000 4.6 200 03:48 07.10.2019
635 Clouds 19 1009 72 10000 4.6 200 03:30 07.10.2019
636 Clouds 19 1009 72 10000 4.6 200 03:30 07.10.2019
637 Clouds 19 1010 68 10000 5.1 200 02:39 07.10.2019
638 Clouds 19 1011 72 10000 3.1 190 02:19 07.10.2019
639 Clouds 19 1011 64 10000 4.1 230 01:24 07.10.2019
640 Clouds 19 1012 64 10000 5.7 260 00:53 07.10.2019
641 Clouds 19 1012 64 10000 5.7 260 00:26 07.10.2019
642 Clouds 18 1012 68 10000 5.1 270 23:59 06.10.2019
643 Clouds 18 1012 68 10000 3.6 270 23:40 06.10.2019
644 Clouds 18 1012 64 10000 4.1 290 23:20 06.10.2019
645 Clouds 19 1012 68 10000 4.1 280 22:56 06.10.2019
646 Clouds 19 1012 68 10000 4.1 280 22:37 06.10.2019
647 Clouds 19 1012 64 10000 4.1 260 22:19 06.10.2019
648 Clouds 20 1012 64 10000 3.1 290 21:55 06.10.2019
649 Clouds 20 1012 64 10000 3.1 290 21:37 06.10.2019
650 Clouds 20 1012 64 10000 2.6 280 21:18 06.10.2019
651 Clouds 20 1012 64 10000 2.6 280 21:18 06.10.2019
652 Clouds 20 1012 64 10000 3.6 280 20:55 06.10.2019
653 Clouds 20 1012 64 10000 3.6 280 20:36 06.10.2019
654 Clouds 20 1012 64 10000 3.6 280 20:18 06.10.2019
655 Clouds 20 1012 64 10000 3.6 280 19:55 06.10.2019
656 Clouds 20 1012 68 10000 4.1 280 19:36 06.10.2019
657 Clouds 21 1012 68 10000 5.1 280 19:18 06.10.2019
658 Clouds 21 1012 60 10000 5.7 280 18:55 06.10.2019
659 Clouds 21 1012 60 10000 5.7 280 18:36 06.10.2019
660 Clouds 21 1012 60 10000 5.7 280 18:18 06.10.2019
661 Clouds 21 1012 60 10000 5.7 280 18:18 06.10.2019
662 Clouds 21 1012 60 10000 5.7 280 18:18 06.10.2019
663 Clouds 22 1012 64 10000 5.7 290 17:42 06.10.2019
664 Clouds 22 1012 60 10000 5.7 290 17:20 06.10.2019
665 Clouds 22 1012 60 10000 5.7 290 17:20 06.10.2019
666 Clouds 22 1013 64 10000 6.2 280 16:55 06.10.2019
667 Clouds 22 1013 64 10000 6.2 280 16:37 06.10.2019
668 Clouds 22 1013 64 10000 6.2 280 16:37 06.10.2019
669 Clouds 22 1013 64 10000 6.2 280 16:18 06.10.2019
670 Clouds 22 1013 64 10000 5.7 280 15:43 06.10.2019
671 Clouds 23 1013 64 10000 6.7 270 15:21 06.10.2019
672 Clouds 23 1013 64 10000 6.7 270 14:56 06.10.2019
673 Clouds 23 1013 64 10000 7.2 280 14:38 06.10.2019
674 Clouds 23 1013 64 10000 7.2 280 14:19 06.10.2019
675 Clouds 23 1013 68 10000 7.2 280 13:42 06.10.2019
676 Clouds 23 1013 68 10000 7.2 280 13:24 06.10.2019
677 Clouds 23 1013 68 10000 6.2 280 12:59 06.10.2019
678 Clouds 22 1014 68 10000 6.7 270 12:40 06.10.2019
679 Clouds 22 1014 73 10000 5.1 250 12:21 06.10.2019
680 Clouds 22 1014 73 10000 5.1 250 11:59 06.10.2019
681 Clouds 22 1014 73 10000 5.7 310 11:40 06.10.2019
682 Clouds 22 1013 68 10000 7.7 260 11:21 06.10.2019
683 Clouds 22 1013 64 10000 7.7 260 10:55 06.10.2019
684 Clouds 22 1013 64 10000 7.7 260 10:37 06.10.2019
685 Clouds 22 1013 68 10000 8.2 260 10:19 06.10.2019
686 Clouds 21 1013 64 10000 8.7 260 09:41 06.10.2019
687 Clouds 21 1013 68 10000 8.7 260 09:19 06.10.2019
688 Clouds 20 1013 68 10000 8.7 260 09:19 06.10.2019
689 Clouds 19 1013 68 10000 8.7 260 08:48 06.10.2019
690 Clouds 19 1013 68 10000 8.7 260 08:48 06.10.2019
691 Rain 19 1012 68 10000 9.3 260 08:22 06.10.2019
692 Rain 19 1012 68 10000 9.3 260 07:58 06.10.2019
693 Rain 19 1012 73 10000 8.7 250 07:39 06.10.2019
694 Clouds 19 1012 78 10000 8.2 260 06:49 06.10.2019
695 Clouds 19 1012 68 10000 10.3 270 05:40 06.10.2019
696 Clouds 19 1012 64 10000 9.3 270 04:32 06.10.2019
697 Clouds 20 1013 69 10000 9.8 270 02:52 06.10.2019
698 Clouds 20 1013 69 10000 9.8 270 02:29 06.10.2019
699 Clouds 20 1013 73 10000 9.8 260 01:46 06.10.2019
700 Clouds 20 1013 73 10000 9.8 260 01:28 06.10.2019
701 Clouds 20 1013 73 10000 8.2 250 00:59 06.10.2019
702 Clouds 20 1013 73 10000 8.7 260 00:31 06.10.2019
703 Clouds 20 1013 73 10000 5.1 200 23:54 05.10.2019
704 Clouds 20 1013 73 10000 5.1 200 23:36 05.10.2019
705 Clouds 20 1013 69 10000 5.1 200 23:18 05.10.2019
706 Clouds 20 1013 68 10000 5.1 200 22:54 05.10.2019
707 Clouds 20 1013 68 10000 5.1 200 22:54 05.10.2019
708 Clouds 20 1013 68 10000 5.1 200 22:36 05.10.2019
709 Clouds 20 1013 69 10000 3.6 230 22:18 05.10.2019
710 Clouds 20 1013 68 10000 4.6 210 21:40 05.10.2019
711 Clouds 20 1013 73 10000 7.2 250 21:21 05.10.2019
712 Clouds 20 1013 69 10000 6.7 240 20:57 05.10.2019
713 Clouds 20 1013 69 10000 6.7 240 20:39 05.10.2019
714 Clouds 20 1013 64 10000 6.7 240 20:19 05.10.2019
715 Clouds 20 1013 64 10000 6.7 240 20:19 05.10.2019
716 Clouds 21 1013 69 10000 7.2 250 19:41 05.10.2019
717 Clouds 21 1013 69 10000 7.7 260 19:22 05.10.2019
718 Clouds 21 1013 69 10000 7.7 260 18:58 05.10.2019
719 Clouds 22 1013 69 10000 7.2 240 18:39 05.10.2019
720 Clouds 22 1012 73 10000 7.7 260 18:21 05.10.2019
721 Clouds 22 1012 73 10000 7.7 260 17:59 05.10.2019
722 Clouds 22 1012 73 10000 9.8 270 17:40 05.10.2019
723 Clouds 23 1012 73 10000 9.8 270 17:21 05.10.2019
724 Clouds 23 1013 73 10000 10.3 270 16:42 05.10.2019
725 Clouds 23 1013 73 10000 10.3 270 16:23 05.10.2019
726 Clouds 23 1013 73 10000 10.3 270 15:59 05.10.2019
727 Clouds 23 1013 73 10000 10.3 280 15:40 05.10.2019
728 Clouds 24 1013 78 10000 9.8 280 15:21 05.10.2019
729 Clouds 23 1013 78 10000 9.8 280 14:59 05.10.2019
730 Clouds 24 1013 78 10000 9.3 280 14:41 05.10.2019
731 Clouds 24 1013 78 10000 9.3 280 14:41 05.10.2019
732 Clouds 24 1013 78 10000 9.3 280 14:41 05.10.2019
733 Clouds 24 1013 73 10000 8.2 280 14:20 05.10.2019
734 Clouds 24 1013 69 10000 6.7 270 13:43 05.10.2019
735 Clouds 24 1013 69 10000 6.7 270 13:24 05.10.2019
736 Clouds 24 1013 69 10000 6.2 260 12:57 05.10.2019
737 Clouds 23 1013 69 10000 5.7 240 12:39 05.10.2019
738 Clouds 23 1013 69 10000 5.7 240 12:39 05.10.2019
739 Clouds 23 1013 69 10000 5.7 240 12:39 05.10.2019
740 Clouds 23 1014 57 10000 5.7 220 12:18 05.10.2019
741 Clouds 24 1014 57 10000 4.6 210 11:39 05.10.2019
742 Clouds 23 1013 57 10000 4.6 210 11:19 05.10.2019
743 Clouds 23 1013 57 10000 4.6 210 10:45 05.10.2019
744 Clouds 21 1013 57 10000 4.6 210 10:26 05.10.2019
745 Clouds 21 1013 60 10000 5.1 190 09:59 05.10.2019
746 Clouds 21 1013 64 10000 4.1 180 09:39 05.10.2019
747 Clouds 20 1013 68 10000 3.6 180 09:20 05.10.2019
748 Clouds 19 1012 68 10000 5.7 180 08:40 05.10.2019
749 Clouds 18 1013 68 10000 5.1 200 08:20 05.10.2019
750 Clouds 18 1013 68 10000 5.1 200 07:58 05.10.2019
751 Clouds 18 1013 68 10000 5.1 200 07:37 05.10.2019
752 Clouds 18 1012 68 10000 5.7 200 07:19 05.10.2019
753 Clouds 18 1012 68 10000 5.7 200 06:28 05.10.2019
754 Clear 17 1013 68 10000 5.7 190 05:52 05.10.2019
755 Clouds 17 1013 68 10000 5.1 190 04:33 05.10.2019
756 Clear 17 1013 59 10000 4.1 180 03:29 05.10.2019
757 Clouds 17 1014 68 10000 3.6 190 01:52 05.10.2019
758 Clouds 16 1014 64 10000 3.6 240 01:23 05.10.2019
759 Clouds 16 991 77 0 2.58 179.401 00:44 05.10.2019
760 Clouds 16 991 76 0 1.27 246.754 00:25 05.10.2019
761 Clouds 17 1015 56 10000 4.6 280 23:45 04.10.2019
762 Clouds 17 1015 56 10000 4.1 280 23:26 04.10.2019
763 Clouds 17 1015 56 10000 4.6 280 23:26 04.10.2019
764 Clouds 17 1015 56 10000 4.1 280 22:59 04.10.2019
765 Clouds 17 1015 60 10000 3.6 290 22:40 04.10.2019
766 Clouds 17 1014 60 10000 3.6 290 22:22 04.10.2019
767 Clouds 17 1014 60 10000 3.6 290 21:57 04.10.2019
768 Clouds 17 1014 60 10000 3.6 290 21:39 04.10.2019
769 Clouds 17 1014 60 10000 4.6 300 21:20 04.10.2019
770 Clouds 18 1014 64 10000 4.6 300 20:57 04.10.2019
771 Clouds 18 1014 64 10000 4.6 300 20:39 04.10.2019
772 Clouds 18 1014 60 10000 5.1 300 20:20 04.10.2019
773 Clouds 18 1014 60 10000 5.1 300 20:20 04.10.2019
774 Clouds 18 1014 60 10000 4.6 310 19:49 04.10.2019
775 Clouds 18 1014 60 10000 4.6 310 19:30 04.10.2019
776 Clouds 18 1013 60 10000 5.1 310 18:59 04.10.2019
777 Clouds 19 1013 60 10000 5.1 310 18:39 04.10.2019
778 Clouds 20 1013 64 10000 6.2 310 18:19 04.10.2019
779 Clouds 20 1013 64 10000 6.2 310 17:57 04.10.2019
780 Clouds 20 1013 64 10000 6.2 310 17:38 04.10.2019
781 Clouds 20 1013 68 10000 5.7 300 17:19 04.10.2019
782 Clouds 20 1013 68 10000 5.7 300 16:54 04.10.2019
783 Clouds 21 1013 60 10000 6.2 290 16:36 04.10.2019
784 Clouds 21 1013 60 10000 6.2 290 16:36 04.10.2019
785 Clouds 21 1013 60 10000 6.2 290 16:36 04.10.2019
786 Clouds 21 1013 60 10000 6.2 300 16:18 04.10.2019
787 Clouds 21 1013 60 10000 6.2 300 15:55 04.10.2019
788 Clouds 20 1013 64 10000 5.1 300 15:36 04.10.2019
789 Clouds 21 1013 60 10000 4.6 310 15:18 04.10.2019
790 Clouds 21 1013 64 10000 5.7 310 14:42 04.10.2019
791 Clouds 21 1013 64 10000 5.1 330 14:22 04.10.2019
792 Clouds 21 1013 64 10000 6.2 330 13:59 04.10.2019
793 Clouds 21 1013 64 10000 6.2 330 13:40 04.10.2019
794 Clouds 21 1013 64 10000 6.2 330 13:19 04.10.2019
795 Clouds 21 1013 68 10000 6.2 330 12:45 04.10.2019
796 Clouds 20 1013 64 10000 6.7 340 12:27 04.10.2019
797 Clouds 20 1012 68 10000 8.2 330 11:55 04.10.2019
798 Clouds 19 1012 68 10000 8.2 330 11:37 04.10.2019
799 Clouds 19 1012 73 10000 8.2 330 11:18 04.10.2019
800 Rain 19 1012 68 10000 8.7 320 10:39 04.10.2019
801 Rain 19 1012 68 10000 8.7 320 10:20 04.10.2019
802 Rain 19 1011 68 10000 8.7 320 09:44 04.10.2019
803 Clouds 18 1011 68 10000 8.2 320 09:26 04.10.2019
804 Clouds 18 1011 68 10000 8.2 320 09:26 04.10.2019
805 Clouds 18 1011 68 10000 8.2 320 08:55 04.10.2019
806 Clouds 17 1011 68 10000 8.2 320 08:37 04.10.2019
807 Clouds 17 1011 64 10000 8.7 320 08:18 04.10.2019
808 Clouds 17 1010 60 10000 8.7 320 07:42 04.10.2019
809 Clouds 17 1010 60 10000 8.7 320 07:20 04.10.2019
810 Clouds 17 1010 60 10000 9.8 320 06:41 04.10.2019
811 Clouds 17 1010 64 10000 9.3 320 06:23 04.10.2019
812 Clouds 18 1010 64 10000 8.7 330 05:23 04.10.2019
813 Clouds 18 1010 68 10000 8.7 320 04:54 04.10.2019
814 Clouds 18 1010 64 10000 8.2 340 03:43 04.10.2019
815 Clouds 18 1010 60 10000 8.2 330 02:53 04.10.2019
816 Clouds 18 1010 60 10000 8.2 330 02:53 04.10.2019
817 Clouds 18 1010 60 10000 9.8 340 01:55 04.10.2019
818 Clouds 19 1010 60 10000 9.8 340 01:29 04.10.2019
819 Clouds 18 1009 64 10000 7.7 330 00:50 04.10.2019
820 Clouds 18 1009 69 10000 7.2 350 23:55 03.10.2019
821 Clouds 18 1009 69 10000 7.2 350 23:36 03.10.2019
822 Clouds 19 1009 69 10000 6.2 340 23:18 03.10.2019
823 Rain 18 1009 69 10000 6.2 330 22:55 03.10.2019
824 Rain 19 1009 69 10000 6.2 330 22:36 03.10.2019
825 Rain 18 1014 81 0 4.62 331.717 22:18 03.10.2019
826 Rain 18 1014 80 0 4.62 331.717 21:54 03.10.2019
827 Rain 19 1008 69 10000 5.7 310 21:36 03.10.2019
828 Rain 19 1008 69 10000 6.2 320 21:18 03.10.2019
829 Rain 19 1008 78 10000 3.6 0 20:41 03.10.2019
830 Rain 19 1008 68 10000 2.6 60 20:23 03.10.2019
831 Rain 19 1008 68 10000 2.6 60 19:59 03.10.2019
832 Rain 20 1008 68 10000 9.8 330 19:41 03.10.2019
833 Clouds 20 1007 64 10000 5.7 330 19:22 03.10.2019
834 Clouds 20 1007 64 10000 5.7 330 18:58 03.10.2019
835 Clouds 20 1007 64 10000 3.6 330 18:38 03.10.2019
836 Clouds 21 1007 64 10000 3.1 360 18:19 03.10.2019
837 Clouds 21 1007 64 10000 3.1 360 18:19 03.10.2019
838 Clouds 21 1007 69 10000 5.7 360 17:43 03.10.2019
839 Clouds 22 1007 73 10000 8.2 330 17:23 03.10.2019
840 Clouds 22 1007 73 10000 8.2 330 17:23 03.10.2019
841 Clouds 22 1007 73 10000 8.2 330 16:59 03.10.2019
842 Clouds 23 1007 64 10000 6.2 290 16:40 03.10.2019
843 Clouds 23 1007 64 10000 6.2 280 16:22 03.10.2019
844 Clouds 22 1007 64 10000 6.2 280 15:55 03.10.2019
845 Clouds 21 1007 64 10000 6.2 280 15:37 03.10.2019
846 Clouds 22 1007 69 10000 7.2 280 15:18 03.10.2019
847 Clouds 23 1007 69 10000 6.7 280 14:39 03.10.2019
848 Clouds 23 1007 69 10000 6.2 270 14:20 03.10.2019
849 Clouds 23 1007 69 10000 7.2 280 13:56 03.10.2019
850 Clouds 23 1007 69 10000 7.2 280 13:56 03.10.2019
851 Clouds 24 1007 69 10000 7.2 280 13:38 03.10.2019
852 Clouds 24 1007 69 10000 7.2 280 13:38 03.10.2019
853 Clouds 23 1007 69 10000 6.2 270 13:19 03.10.2019
854 Clouds 23 1007 64 10000 7.7 270 12:54 03.10.2019
855 Clouds 23 1007 64 10000 7.7 270 12:36 03.10.2019
856 Clouds 23 1007 64 10000 7.7 270 12:18 03.10.2019
857 Clouds 23 1007 69 10000 9.3 270 11:40 03.10.2019
858 Clouds 23 1007 69 10000 9.3 270 11:40 03.10.2019
859 Clouds 23 1007 69 10000 9.8 270 11:22 03.10.2019
860 Clouds 23 1007 69 10000 9.8 270 10:58 03.10.2019
861 Clouds 22 1007 69 10000 7.2 260 10:39 03.10.2019
862 Clouds 22 1007 69 10000 7.2 260 10:39 03.10.2019
863 Rain 22 1007 78 10000 6.7 220 10:18 03.10.2019
864 Rain 21 1007 78 10000 6.7 220 09:56 03.10.2019
865 Clouds 21 1006 73 10000 6.7 210 09:38 03.10.2019
866 Clouds 20 1006 68 10000 5.7 190 09:19 03.10.2019
867 Clouds 19 1006 68 10000 6.7 190 08:43 03.10.2019
868 Clouds 19 1006 77 10000 6.7 200 08:25 03.10.2019
869 Clouds 18 1006 68 10000 5.1 180 07:55 03.10.2019
870 Clouds 18 1006 68 10000 5.1 180 07:37 03.10.2019
871 Clouds 17 1006 72 10000 5.1 180 07:19 03.10.2019
872 Rain 17 1006 77 10000 4.6 200 06:27 03.10.2019
873 Rain 18 1006 72 8000 4.6 180 05:50 03.10.2019
874 Rain 19 1005 77 7000 7.7 190 05:31 03.10.2019
875 Rain 20 1006 73 10000 6.7 200 04:48 03.10.2019
876 Clouds 20 1004 60 10000 8.7 190 04:24 03.10.2019
877 Clouds 20 1005 69 10000 7.2 200 03:19 03.10.2019
878 Clouds 20 1006 69 10000 8.2 190 02:33 03.10.2019
879 Thunderstorm 20 1006 69 10000 7.7 210 01:41 03.10.2019
880 Clouds 21 1005 64 10000 8.2 200 01:20 03.10.2019
881 Thunderstorm 21 1005 69 10000 7.2 200 00:41 03.10.2019
882 Thunderstorm 22 1006 65 10000 5.7 190 23:58 02.10.2019
883 Thunderstorm 21 1006 65 10000 4.1 200 23:38 02.10.2019
884 Thunderstorm 22 1006 65 10000 5.7 190 23:19 02.10.2019
885 Clouds 22 1006 61 10000 5.1 190 22:43 02.10.2019
886 Clouds 22 1006 61 10000 3.6 180 22:21 02.10.2019
887 Clouds 22 1006 65 10000 4.1 180 21:56 02.10.2019
888 Clouds 22 1006 65 10000 4.1 180 21:38 02.10.2019
889 Clouds 22 1007 65 10000 6.2 190 21:19 02.10.2019
890 Clouds 23 1007 69 10000 5.1 210 20:56 02.10.2019
891 Clouds 23 1007 69 10000 5.1 210 20:37 02.10.2019
892 Clouds 23 1007 65 10000 5.1 210 20:19 02.10.2019
893 Clouds 23 1007 61 10000 4.6 210 19:46 02.10.2019
894 Clear 23 1007 69 10000 2.1 60 19:23 02.10.2019
895 Clear 23 1007 69 10000 2.1 60 18:59 02.10.2019
896 Clouds 23 1006 69 10000 3.6 40 18:40 02.10.2019
897 Clouds 24 1007 69 10000 3.1 50 18:21 02.10.2019
898 Clouds 24 1007 69 10000 3.1 50 17:59 02.10.2019
899 Clouds 25 1007 69 10000 2.6 40 17:40 02.10.2019
900 Clouds 25 1007 65 10000 2.6 40 17:21 02.10.2019
901 Clouds 25 1007 65 10000 2.6 40 16:57 02.10.2019
902 Clouds 25 1007 65 10000 2.6 40 16:57 02.10.2019
903 Clouds 25 1007 65 10000 2.6 40 16:38 02.10.2019
904 Clouds 25 1007 65 10000 2.6 40 16:20 02.10.2019
905 Clouds 25 1007 65 10000 3.6 40 15:55 02.10.2019
906 Clouds 26 1007 65 10000 4.1 40 15:37 02.10.2019
907 Clouds 26 1007 65 10000 4.1 40 15:18 02.10.2019
908 Clouds 27 1008 57 10000 2.1 30 14:43 02.10.2019
909 Clouds 26 1008 57 10000 2.1 30 14:23 02.10.2019
910 Clouds 26 1008 65 10000 2.1 280 13:57 02.10.2019
911 Clear 26 1009 65 10000 3.1 260 13:38 02.10.2019
912 Clear 26 1009 65 10000 3.1 260 13:20 02.10.2019
913 Clear 26 1009 57 10000 5.1 220 12:40 02.10.2019
914 Clear 25 1009 57 10000 5.1 220 12:22 02.10.2019
915 Clear 25 1009 51 10000 4.6 200 11:58 02.10.2019
916 Clear 25 1009 57 10000 4.6 190 11:40 02.10.2019
917 Clear 25 1009 57 10000 4.6 190 11:18 02.10.2019
918 Clear 24 1009 60 10000 1.5 30 10:38 02.10.2019
919 Clear 23 1009 60 10000 1.5 30 10:19 02.10.2019
920 Clear 23 1009 57 10000 1 0 09:40 02.10.2019
921 Clear 22 1008 53 10000 2.6 150 09:20 02.10.2019
922 Clear 21 1008 68 10000 2.6 190 08:56 02.10.2019
923 Clear 20 1008 73 10000 3.6 150 08:37 02.10.2019
924 Clear 19 1008 73 10000 3.6 150 08:19 02.10.2019
925 Clear 19 1008 73 10000 4.1 180 07:39 02.10.2019
926 Clear 18 1008 73 10000 4.1 180 07:21 02.10.2019
927 -273 0 0 0 0 0 06:54 02.10.2019
928 Clear 19 1009 77 10000 3.6 180 05:56 02.10.2019
929 Clear 19 1009 77 10000 3.6 190 05:25 02.10.2019
930 Clear 19 1009 78 10000 5.7 200 04:58 02.10.2019
931 Clear 19 1009 83 10000 2.1 210 03:53 02.10.2019
932 Clear 19 1010 78 10000 2.6 250 03:19 02.10.2019
933 Clear 19 1010 77 10000 2.1 170 02:25 02.10.2019
934 Clear 19 1010 77 10000 2.1 170 02:25 02.10.2019
935 Clear 19 1010 77 10000 1.5 220 01:52 02.10.2019
936 Clear 19 1011 77 10000 2.1 180 00:52 02.10.2019
937 Clear 20 1011 73 10000 2.1 200 00:29 02.10.2019
938 Clear 20 1011 73 10000 2.1 190 23:54 01.10.2019
939 Clear 20 1011 73 10000 2.1 200 23:36 01.10.2019
940 Clear 20 1011 73 10000 2.1 200 23:18 01.10.2019
941 Clear 20 1011 73 10000 2.1 180 22:57 01.10.2019
942 Clear 20 1011 73 10000 2.1 170 22:36 01.10.2019
943 Clear 20 1011 73 10000 2.1 170 22:18 01.10.2019
944 Clear 21 1011 69 10000 2.1 180 21:42 01.10.2019
945 Clear 21 1011 69 10000 2.1 180 21:22 01.10.2019
946 Clouds 21 1011 69 10000 1.5 170 20:57 01.10.2019
947 Clouds 21 1011 64 10000 0.5 0 20:38 01.10.2019
948 Clouds 22 1011 64 10000 0.5 0 20:20 01.10.2019
949 Clouds 22 1011 61 10000 1 0 19:57 01.10.2019
950 Clear 22 1011 69 10000 1.5 10 19:38 01.10.2019
951 Clear 22 1011 69 10000 1.5 10 19:20 01.10.2019
952 -273 0 0 0 0 0 18:54 01.10.2019
953 Clear 23 1011 73 10000 4.1 40 18:36 01.10.2019
954 Clear 23 1011 73 10000 4.1 40 18:18 01.10.2019
955 Clear 26 1011 65 10000 4.6 60 17:42 01.10.2019
956 Clear 26 1011 65 10000 4.6 60 17:42 01.10.2019
957 Clear 25 1011 65 10000 4.6 60 17:20 01.10.2019
958 Clear 24 1011 61 10000 5.1 60 16:58 01.10.2019
959 Clear 25 1011 61 10000 6.2 70 16:40 01.10.2019
960 Clear 25 1011 61 10000 6.2 70 16:21 01.10.2019
961 Clear 25 1011 57 10000 5.1 60 15:48 01.10.2019
962 Clear 26 1012 57 10000 5.1 50 15:24 01.10.2019
963 Clear 26 1012 61 10000 4.6 40 14:58 01.10.2019
964 Clear 26 1012 65 10000 4.1 30 14:38 01.10.2019
965 Clear 27 1012 65 10000 4.1 30 14:19 01.10.2019
966 Clear 26 1013 73 10000 2.1 320 13:55 01.10.2019
967 Clear 26 1013 73 10000 2.1 320 13:37 01.10.2019
968 Clear 25 1013 73 10000 2.1 320 13:18 01.10.2019
969 Clear 26 1014 73 10000 2.1 320 12:54 01.10.2019
970 Clear 25 1014 73 10000 1.5 320 12:36 01.10.2019
971 Clear 25 1014 73 10000 1.5 320 12:18 01.10.2019
972 Clear 24 1014 73 10000 1.5 280 11:54 01.10.2019
973 Clear 24 1014 73 10000 2.1 270 11:36 01.10.2019
974 Clear 24 1014 73 10000 2.1 270 11:18 01.10.2019
975 Clear 24 1014 78 10000 2.6 250 10:43 01.10.2019
976 Clear 22 1014 73 10000 3.1 240 10:24 01.10.2019
977 Clear 23 1014 78 10000 1 250 09:44 01.10.2019
978 Clear 21 1013 78 10000 1 0 09:25 01.10.2019
979 Clear 21 1013 78 10000 1 0 09:25 01.10.2019
980 Clear 21 1013 82 10000 2.1 140 08:44 01.10.2019
981 Clear 19 1013 82 10000 2.6 150 08:25 01.10.2019
982 Clear 18 1013 88 10000 2.1 140 07:49 01.10.2019
983 Clear 18 1013 82 10000 2.1 160 07:26 01.10.2019
984 Clear 18 1013 82 10000 2.1 160 06:51 01.10.2019
985 Clear 18 1013 82 10000 2.1 160 06:51 01.10.2019
986 Clear 19 1013 82 10000 2.1 180 06:25 01.10.2019
987 Clear 19 1014 82 10000 2.1 150 05:59 01.10.2019
988 Clear 19 1014 77 10000 1 170 05:38 01.10.2019
989 Clear 19 1014 77 10000 0.5 0 04:40 01.10.2019
990 Clear 19 1014 77 10000 2.1 180 03:34 01.10.2019
991 Clear 19 1015 82 10000 2.1 140 02:19 01.10.2019
992 Clear 19 1015 82 10000 2.6 130 01:51 01.10.2019
993 Clear 19 1015 82 10000 2.6 140 00:44 01.10.2019
994 Clear 19 1015 77 10000 2.1 130 00:24 01.10.2019
995 Clear 19 1015 77 10000 2.1 130 00:24 01.10.2019
996 Clear 19 1015 77 10000 2.1 130 00:24 01.10.2019
997 Clear 20 1015 83 10000 1.5 130 23:42 30.09.2019
998 Clear 20 1015 83 10000 1.5 130 23:22 30.09.2019
999 Clear 21 1015 78 10000 1.5 120 22:55 30.09.2019
1000 Clear 20 1015 78 10000 2.1 120 22:37 30.09.2019
1001 Clear 20 1015 78 10000 2.1 120 22:19 30.09.2019
1002 Clear 21 1015 73 10000 1.5 70 21:55 30.09.2019
1003 Clouds 21 1014 78 10000 2.1 80 21:36 30.09.2019
1004 Clouds 21 1014 78 10000 2.1 80 21:18 30.09.2019
1005 Clouds 21 1014 83 10000 2.6 70 20:54 30.09.2019
1006 Clear 22 1014 78 10000 2.1 60 20:36 30.09.2019
1007 Clear 22 1014 78 10000 2.1 60 20:36 30.09.2019
1008 Clear 22 1014 78 10000 2.1 60 20:18 30.09.2019
1009 Clear 22 1014 78 10000 2.1 60 20:18 30.09.2019
1010 Clouds 22 1014 73 10000 2.6 30 19:42 30.09.2019
1011 Clouds 22 1014 73 10000 2.6 30 19:20 30.09.2019
1012 Clouds 23 1014 78 10000 2.6 10 18:59 30.09.2019
1013 Clouds 23 1014 73 10000 2.1 10 18:41 30.09.2019
1014 Clouds 24 1014 73 10000 2.1 10 18:20 30.09.2019
1015 Clouds 24 1015 78 10000 3.1 360 17:56 30.09.2019
1016 Clear 25 1015 73 10000 3.1 350 17:38 30.09.2019
1017 Clear 25 1015 69 10000 2.1 350 17:19 30.09.2019
1018 Clouds 25 1015 73 10000 2.6 350 16:42 30.09.2019
1019 Clouds 25 1015 73 10000 2.6 350 16:20 30.09.2019
1020 Clouds 25 1015 73 10000 2.6 350 16:20 30.09.2019
1021 Clouds 26 1016 69 10000 3.6 350 15:59 30.09.2019
1022 Clear 25 1015 73 10000 2.6 350 15:39 30.09.2019
1023 Clear 26 1015 73 10000 2.6 350 15:20 30.09.2019
1024 Clear 26 1016 73 10000 3.1 350 14:58 30.09.2019
1025 Clouds 26 1016 73 10000 3.1 350 14:38 30.09.2019
1026 Clouds 26 1016 73 10000 3.1 350 14:19 30.09.2019
1027 Clear 26 1016 73 10000 2.1 320 13:59 30.09.2019
1028 Clouds 26 1016 73 10000 2.6 320 13:41 30.09.2019
1029 Clouds 26 1016 73 10000 2.6 320 13:21 30.09.2019
1030 Clouds 25 1016 73 10000 2.6 300 12:54 30.09.2019
1031 Clouds 25 1016 73 10000 3.1 310 12:36 30.09.2019
1032 Clouds 25 1016 73 10000 3.1 310 12:18 30.09.2019
1033 Clouds 24 1017 78 10000 1.5 280 11:41 30.09.2019
1034 Clouds 24 1017 78 10000 1.5 280 11:21 30.09.2019
1035 Clouds 24 1017 83 10000 2.6 270 10:57 30.09.2019
1036 Clouds 24 1016 73 10000 1 0 10:37 30.09.2019
1037 Clouds 23 1016 73 10000 1 0 10:18 30.09.2019
1038 Clouds 23 1016 73 10000 1 0 10:18 30.09.2019
1039 Clouds 22 1016 78 10000 1.5 190 09:55 30.09.2019
1040 Clouds 23 1016 83 10000 1 190 09:36 30.09.2019
1041 Clouds 21 1016 83 10000 1 190 09:18 30.09.2019
1042 Clouds 21 1016 83 10000 1.5 170 08:45 30.09.2019
1043 Clouds 20 1016 88 10000 2.1 170 08:27 30.09.2019
1044 -273 0 0 0 0 0 07:40 30.09.2019
1045 Clouds 20 1015 83 10000 1 0 07:20 30.09.2019
1046 Clouds 19 1015 83 10000 2.1 150 06:50 30.09.2019
1047 Clouds 19 1015 88 10000 2.1 160 06:31 30.09.2019
1048 Clear 19 1015 77 10000 1.5 160 05:41 30.09.2019
1049 Clear 19 1016 83 10000 1.5 150 02:54 30.09.2019
1050 Clear 19 1016 83 10000 1 140 02:36 30.09.2019
1051 Clouds 20 1016 83 10000 1.5 150 01:31 30.09.2019
1052 Clear 20 1016 73 10000 1 0 00:38 30.09.2019
1053 Clear 21 1016 73 10000 1 0 00:19 30.09.2019
1054 Clear 21 1017 73 10000 1.5 110 23:43 29.09.2019
1055 Clouds 22 1017 78 10000 2.6 90 23:21 29.09.2019
1056 Clouds 22 1017 78 10000 2.6 90 23:21 29.09.2019
1057 Clouds 22 1017 78 10000 4.1 80 22:55 29.09.2019
1058 Clouds 22 1017 73 10000 4.1 60 22:36 29.09.2019
1059 Clouds 22 1017 73 10000 4.1 60 22:36 29.09.2019
1060 Clouds 22 1017 73 10000 4.1 60 22:18 29.09.2019
1061 Clouds 22 1017 73 10000 4.6 60 21:56 29.09.2019
1062 Clouds 22 1016 73 10000 5.1 50 21:36 29.09.2019
1063 Clouds 22 1016 73 10000 5.1 50 21:18 29.09.2019
1064 Clouds 22 1016 73 10000 5.1 50 20:43 29.09.2019
1065 Clouds 22 1016 73 10000 5.1 50 20:20 29.09.2019
1066 Clouds 22 1016 73 10000 5.1 50 20:20 29.09.2019
1067 Clouds 22 1016 73 10000 5.1 50 19:58 29.09.2019
1068 Clouds 22 1016 78 10000 5.7 40 19:37 29.09.2019
1069 Clouds 22 1016 78 10000 5.7 40 19:19 29.09.2019
1070 Clouds 23 1016 78 10000 6.2 40 18:55 29.09.2019
1071 Clouds 23 1016 73 10000 6.2 40 18:37 29.09.2019
1072 Clouds 24 1016 73 10000 6.2 40 18:19 29.09.2019
1073 Clouds 24 1016 69 10000 6.2 40 17:56 29.09.2019
1074 Clouds 24 1016 73 10000 6.2 40 17:38 29.09.2019
1075 Clouds 25 1016 73 10000 6.2 40 17:19 29.09.2019
1076 Clouds 25 1017 73 10000 5.7 40 16:57 29.09.2019
1077 Clouds 25 1017 73 10000 5.7 40 16:57 29.09.2019
1078 Clouds 25 1017 73 10000 5.7 40 16:39 29.09.2019
1079 Clouds 25 1017 73 10000 5.7 40 16:19 29.09.2019
1080 Clouds 26 1017 73 10000 5.7 40 15:41 29.09.2019
1081 Clouds 26 1017 73 10000 4.6 30 15:20 29.09.2019
1082 Clouds 26 1017 69 10000 4.6 30 15:00 29.09.2019
1083 Clouds 26 1018 73 10000 4.6 30 14:40 29.09.2019
1084 Clouds 25 1018 73 10000 4.6 30 14:21 29.09.2019
1085 Clouds 26 1018 73 10000 4.1 20 13:58 29.09.2019
1086 Clouds 26 1018 78 10000 3.6 20 13:40 29.09.2019
1087 Clouds 26 1018 78 10000 3.6 20 13:19 29.09.2019
1088 Clouds 26 1018 73 10000 3.1 350 12:58 29.09.2019
1089 Clouds 25 1019 78 10000 2.1 330 12:39 29.09.2019
1090 Clouds 24 1019 78 10000 2.1 330 12:21 29.09.2019
1091 Clouds 24 1019 78 10000 2.1 300 11:57 29.09.2019
1092 Clouds 24 1019 78 10000 2.6 260 11:38 29.09.2019
1093 Clouds 24 1019 78 10000 2.6 260 11:18 29.09.2019
1094 Clouds 23 1019 78 10000 2.6 250 10:57 29.09.2019
1095 Clouds 23 1018 78 10000 3.6 240 10:36 29.09.2019
1096 Clouds 23 1018 78 10000 3.6 240 10:18 29.09.2019
1097 Clouds 23 1018 78 10000 1.5 140 09:44 29.09.2019
1098 Clouds 22 1018 78 10000 1.5 140 09:21 29.09.2019
1099 Clouds 21 1018 83 10000 1.5 150 08:58 29.09.2019
1100 Clouds 21 1018 82 10000 1.5 160 08:37 29.09.2019
1101 Clouds 19 1018 82 10000 1.5 160 08:18 29.09.2019
1102 Clouds 19 1018 88 10000 1.5 170 07:41 29.09.2019
1103 Clouds 19 1018 88 10000 1.5 170 07:41 29.09.2019
1104 Clouds 19 1018 88 10000 1.5 170 07:23 29.09.2019
1105 Clear 19 1017 88 10000 2.1 140 06:42 29.09.2019
1106 Clear 19 994 98 0 0.97 207.015 05:23 29.09.2019
1107 Clouds 19 1018 83 10000 1 150 04:25 29.09.2019
1108 Clouds 20 1018 83 10000 1 150 03:56 29.09.2019
1109 Clouds 21 1018 83 10000 1 150 02:45 29.09.2019
1110 Clouds 21 1018 83 10000 1.5 140 02:18 29.09.2019
1111 Clouds 21 1019 78 10000 2.1 190 01:31 29.09.2019
1112 Clouds 21 1019 83 10000 2.6 190 00:48 29.09.2019
1113 Clouds 21 1019 78 10000 1.5 180 00:20 29.09.2019
1114 Clouds 21 1019 83 10000 3.6 200 23:43 28.09.2019
1115 Clouds 20 1019 83 10000 3.6 200 23:23 28.09.2019
1116 Clouds 20 1019 83 10000 3.6 200 23:23 28.09.2019
1117 Clouds 21 1019 73 10000 3.6 200 22:57 28.09.2019
1118 Clouds 21 1019 73 10000 3.1 200 22:38 28.09.2019
1119 Clouds 21 1019 73 10000 3.1 200 22:20 28.09.2019
1120 Clouds 21 1019 78 10000 2.6 180 21:56 28.09.2019
1121 Clear 22 1018 73 10000 2.1 180 21:38 28.09.2019
1122 Clear 22 1018 73 10000 2.1 180 21:20 28.09.2019
1123 Clear 22 1018 73 10000 2.6 100 20:57 28.09.2019
1124 Clear 22 1018 73 10000 3.1 80 20:38 28.09.2019
1125 Clear 22 1018 73 10000 3.1 80 20:18 28.09.2019
1126 Clear 23 1018 73 10000 4.6 70 19:55 28.09.2019
1127 Clear 23 1018 69 10000 5.7 70 19:37 28.09.2019
1128 Clear 23 1018 69 10000 5.7 70 19:18 28.09.2019
1129 Clouds 24 1018 69 10000 6.2 60 18:42 28.09.2019
1130 Clouds 24 1018 69 10000 6.2 60 18:22 28.09.2019
1131 Clouds 25 1018 69 10000 6.7 50 17:59 28.09.2019
1132 Clouds 25 1018 73 10000 6.7 40 17:40 28.09.2019
1133 Clouds 25 1018 73 10000 6.7 40 17:21 28.09.2019
1134 Clouds 25 1018 73 10000 6.7 40 16:55 28.09.2019
1135 Clouds 25 1018 73 10000 6.7 40 16:55 28.09.2019
1136 Clouds 26 1018 73 10000 6.7 40 16:37 28.09.2019
1137 Clouds 26 1019 69 10000 6.2 40 16:18 28.09.2019
1138 Clouds 25 1019 69 10000 5.7 40 15:40 28.09.2019
1139 Clouds 25 1019 69 10000 5.7 40 15:22 28.09.2019
1140 Clouds 25 1019 69 10000 4.6 30 14:55 28.09.2019
1141 Clouds 25 1019 69 10000 4.6 30 14:55 28.09.2019
1142 Clouds 25 1020 73 10000 4.1 30 14:37 28.09.2019
1143 Clouds 25 1020 73 10000 4.1 30 14:19 28.09.2019
1144 Clouds 25 1020 73 10000 3.6 20 13:43 28.09.2019
1145 Clouds 25 1020 73 10000 2.6 360 13:20 28.09.2019
1146 Clouds 25 1020 73 10000 2.6 360 13:20 28.09.2019
1147 Clouds 25 1020 73 10000 2.1 360 12:58 28.09.2019
1148 Clouds 25 1020 69 10000 1.5 330 12:39 28.09.2019
1149 Clouds 25 1020 69 10000 1.5 330 12:18 28.09.2019
1150 Clear 24 1020 73 10000 2.1 300 11:41 28.09.2019
1151 Clear 24 1020 73 10000 2.1 300 11:20 28.09.2019
1152 Clear 24 1020 78 10000 2.6 290 10:59 28.09.2019
1153 Clear 23 1020 73 10000 2.1 280 10:39 28.09.2019
1154 Clear 23 1020 73 10000 2.1 280 10:19 28.09.2019
1155 Clear 23 1019 69 10000 1 150 09:41 28.09.2019
1156 Clear 22 1019 69 10000 1 150 09:22 28.09.2019
1157 Clear 21 1019 77 10000 1 160 08:48 28.09.2019
1158 Clear 21 1019 82 10000 1.5 160 08:30 28.09.2019
1159 Clear 20 1019 82 10000 1.5 150 07:59 28.09.2019
1160 Clear 20 1018 88 10000 2.1 150 07:41 28.09.2019
1161 Clear 20 1018 88 10000 2.1 150 07:19 28.09.2019
1162 Clear 19 1018 82 10000 1.5 150 06:45 28.09.2019
1163 Clear 20 1018 82 10000 0.5 150 06:25 28.09.2019
1164 Clear 20 1018 82 10000 1 170 05:41 28.09.2019
1165 Clear 20 1018 82 10000 1 170 05:19 28.09.2019
1166 Clear 20 1018 77 10000 1.5 190 04:36 28.09.2019
1167 Clear 20 1019 82 10000 2.1 160 03:45 28.09.2019
1168 Clear 20 1019 82 10000 1.5 180 03:20 28.09.2019
1169 Clear 20 1019 77 10000 1 0 02:42 28.09.2019
1170 Clear 20 1019 77 10000 1 0 02:23 28.09.2019
1171 Clear 20 1019 77 10000 2.1 140 01:45 28.09.2019
1172 Clear 21 1019 78 10000 3.6 80 01:24 28.09.2019
1173 Clear 20 1019 73 10000 3.6 80 00:49 28.09.2019
1174 Clear 20 1019 78 10000 3.6 70 00:30 28.09.2019
1175 Clear 21 1019 73 10000 3.6 70 23:41 27.09.2019
1176 Clear 21 1019 73 10000 3.6 70 23:41 27.09.2019
1177 Clear 21 1019 73 10000 3.6 70 23:22 27.09.2019
1178 Clouds 21 1019 73 10000 3.6 80 22:58 27.09.2019
1179 Clouds 21 1019 73 10000 3.6 70 22:40 27.09.2019
1180 Clouds 21 1019 73 10000 3.6 70 22:18 27.09.2019
1181 Clouds 21 1019 73 10000 4.1 50 21:55 27.09.2019
1182 Clouds 22 1018 69 10000 3.6 50 21:36 27.09.2019
1183 Clouds 22 1018 69 10000 3.6 50 21:18 27.09.2019
1184 Clouds 22 1018 69 10000 4.1 50 20:41 27.09.2019
1185 Clouds 22 1018 73 10000 3.6 40 20:20 27.09.2019
1186 Clouds 22 1018 73 10000 3.6 40 19:59 27.09.2019
1187 Clouds 22 1018 73 10000 4.1 40 19:41 27.09.2019
1188 Clouds 23 1018 73 10000 4.1 40 19:23 27.09.2019
1189 Clouds 23 1018 69 10000 4.1 40 18:55 27.09.2019
1190 Clouds 23 1018 69 10000 4.6 30 18:37 27.09.2019
1191 Clouds 24 1018 69 10000 4.6 30 18:19 27.09.2019
1192 Clouds 24 1017 69 10000 5.1 30 17:40 27.09.2019
1193 Clouds 24 1017 69 10000 5.1 30 17:22 27.09.2019
1194 Clouds 25 1017 69 10000 4.6 30 16:59 27.09.2019
1195 Clouds 25 1017 69 10000 4.6 30 16:41 27.09.2019
1196 Clouds 25 1017 69 10000 4.1 20 16:20 27.09.2019
1197 Clouds 25 1017 69 10000 3.1 20 15:55 27.09.2019
1198 Clouds 25 1018 69 10000 3.1 10 15:37 27.09.2019
1199 Clouds 25 1018 69 10000 3.1 10 15:19 27.09.2019
1200 Clouds 25 1018 65 10000 2.6 350 14:56 27.09.2019
1201 Clouds 25 1018 65 10000 3.1 20 14:37 27.09.2019
1202 Clouds 25 1018 65 10000 3.1 20 14:18 27.09.2019
1203 Clouds 25 1018 65 10000 3.6 30 13:42 27.09.2019
1204 Clouds 25 1018 65 10000 3.6 30 13:22 27.09.2019
1205 Clouds 25 1018 61 10000 3.1 40 12:59 27.09.2019
1206 Clouds 24 1018 65 10000 3.6 40 12:41 27.09.2019
1207 Clouds 24 1018 65 10000 3.6 40 12:20 27.09.2019
1208 Clouds 24 1018 65 10000 4.1 30 11:39 27.09.2019
1209 Clouds 24 1018 65 10000 4.1 30 11:21 27.09.2019
1210 Clouds 23 1018 73 10000 3.6 20 10:57 27.09.2019
1211 Clouds 24 1018 69 10000 4.1 20 10:39 27.09.2019
1212 Clouds 24 1018 69 10000 4.1 20 10:20 27.09.2019
1213 Clouds 23 1017 69 10000 4.6 10 09:42 27.09.2019
1214 Clouds 22 1017 69 10000 4.6 20 09:22 27.09.2019
1215 Clouds 22 1017 73 10000 4.1 20 08:58 27.09.2019
1216 Clouds 22 1017 78 10000 5.1 10 08:39 27.09.2019
1217 Clouds 21 1017 78 10000 5.1 10 08:20 27.09.2019
1218 Clouds 20 1017 78 10000 3.6 360 07:46 27.09.2019
1219 Clouds 20 1017 78 10000 3.6 360 07:23 27.09.2019
1220 Clouds 20 1017 73 10000 3.1 340 06:43 27.09.2019
1221 Clouds 20 1017 73 10000 3.1 340 06:24 27.09.2019
1222 Clouds 20 1016 73 10000 4.1 350 05:51 27.09.2019
1223 Clouds 20 1016 73 10000 4.1 350 05:32 27.09.2019
1224 Clouds 20 1016 73 10000 5.1 340 03:56 27.09.2019
1225 Rain 21 1017 73 10000 5.1 290 02:59 27.09.2019
1226 Rain 20 1017 73 10000 5.1 300 01:52 27.09.2019
1227 Rain 21 1017 73 10000 4.6 300 01:28 27.09.2019
1228 Clouds 21 1017 69 10000 2.6 320 00:22 27.09.2019
1229 Clouds 21 1017 69 10000 2.6 320 23:56 26.09.2019
1230 Clouds 22 1017 64 10000 2.6 330 23:38 26.09.2019
1231 Clouds 22 1017 64 10000 2.6 330 23:18 26.09.2019
1232 Clouds 22 1017 64 10000 3.1 320 22:57 26.09.2019
1233 Clouds 21 1017 69 10000 3.1 320 22:39 26.09.2019
1234 Clouds 21 1017 69 10000 3.1 320 22:18 26.09.2019
1235 Clouds 21 1017 69 10000 3.1 320 22:18 26.09.2019
1236 Clouds 21 1016 69 10000 4.1 320 21:56 26.09.2019
1237 Clouds 21 1016 64 10000 3.6 320 21:37 26.09.2019
1238 Clouds 21 1016 64 10000 3.6 320 21:18 26.09.2019
1239 Clouds 22 1016 69 10000 2.6 320 20:57 26.09.2019
1240 Clouds 22 1016 69 10000 4.6 330 20:39 26.09.2019
1241 Clouds 22 1016 69 10000 4.6 330 20:21 26.09.2019
1242 Clouds 23 1016 69 10000 3.1 350 19:41 26.09.2019
1243 Clouds 23 1016 69 10000 3.1 350 19:20 26.09.2019
1244 Clouds 23 1015 69 10000 3.6 350 18:59 26.09.2019
1245 Clouds 23 1015 69 10000 2.6 350 18:40 26.09.2019
1246 Clouds 23 1015 69 10000 2.6 350 18:22 26.09.2019
1247 Clouds 23 1015 69 10000 2.6 350 18:22 26.09.2019
1248 Clouds 24 1015 65 10000 3.6 350 17:58 26.09.2019
1249 Clouds 24 1015 65 10000 3.6 340 17:37 26.09.2019
1250 Clouds 24 1015 65 10000 3.6 340 17:18 26.09.2019
1251 Clouds 24 1015 69 10000 3.6 350 16:55 26.09.2019
1252 Clouds 24 1015 73 10000 4.1 280 16:37 26.09.2019
1253 Clouds 24 1015 73 10000 4.1 280 16:18 26.09.2019
1254 Clouds 25 1015 73 10000 5.1 280 15:41 26.09.2019
1255 Clouds 25 1015 73 10000 5.1 280 15:22 26.09.2019
1256 Clouds 26 1015 73 10000 5.1 280 14:58 26.09.2019
1257 Clouds 26 1015 73 10000 5.1 280 14:58 26.09.2019
1258 Clouds 25 1016 73 10000 5.7 290 14:39 26.09.2019
1259 Clouds 25 1016 73 10000 5.7 290 14:21 26.09.2019
1260 Clouds 26 1016 73 10000 6.2 280 13:57 26.09.2019
1261 Clouds 25 1016 78 10000 7.7 270 13:39 26.09.2019
1262 Clouds 25 1016 78 10000 7.7 270 13:19 26.09.2019
1263 Clouds 26 1016 78 10000 8.2 270 12:41 26.09.2019
1264 Clouds 26 1016 78 10000 8.2 270 12:22 26.09.2019
1265 Clouds 26 1015 78 10000 6.2 250 11:57 26.09.2019
1266 Clouds 25 1015 73 10000 4.6 220 11:38 26.09.2019
1267 Clouds 25 1015 73 10000 4.6 220 11:19 26.09.2019
1268 Clouds 25 1015 69 10000 5.7 220 10:42 26.09.2019
1269 Clouds 25 1015 69 10000 5.7 210 10:23 26.09.2019
1270 Clouds 23 1015 69 10000 5.7 210 09:58 26.09.2019
1271 Clouds 24 1014 69 10000 5.7 210 09:39 26.09.2019
1272 Clouds 22 1014 69 10000 5.7 210 09:19 26.09.2019
1273 Clouds 22 1014 69 10000 5.1 200 08:51 26.09.2019
1274 Clouds 21 1014 69 10000 5.1 200 08:31 26.09.2019
1275 Clouds 21 1014 73 10000 4.6 180 07:47 26.09.2019
1276 Clouds 20 1014 73 10000 5.7 180 07:22 26.09.2019
1277 Clouds 20 1014 73 10000 5.1 180 06:53 26.09.2019
1278 Clouds 20 1014 73 10000 5.1 180 06:28 26.09.2019
1279 Clear 20 1014 73 10000 4.6 180 05:59 26.09.2019
1280 Clear 20 1014 73 10000 4.1 180 05:29 26.09.2019
1281 Clear 20 1014 73 10000 5.7 200 04:33 26.09.2019
1282 Clear 20 1014 78 10000 3.6 210 02:33 26.09.2019
1283 Clear 20 1014 72 10000 1 0 01:48 26.09.2019
1284 Clear 20 1014 73 10000 2.1 180 01:22 26.09.2019
1285 Clear 20 1014 73 10000 1.5 200 00:46 26.09.2019
1286 Clear 20 1014 77 10000 2.6 180 00:25 26.09.2019
1287 Clear 21 1014 73 10000 1 140 23:44 25.09.2019
1288 Clear 21 1014 73 10000 1 140 23:23 25.09.2019
1289 Clear 21 1014 83 10000 3.1 150 22:56 25.09.2019
1290 Clear 21 1014 78 10000 2.1 180 22:37 25.09.2019
1291 Clear 21 1014 78 10000 2.1 180 22:37 25.09.2019
1292 Clear 22 1014 78 10000 2.1 180 22:18 25.09.2019
1293 Clear 22 1014 78 10000 2.1 180 22:18 25.09.2019
1294 Clear 21 1014 78 10000 4.1 290 21:56 25.09.2019
1295 Clear 21 1014 78 10000 4.1 290 21:56 25.09.2019
1296 Clear 22 1014 78 10000 5.1 290 21:37 25.09.2019
1297 Clear 22 1014 78 10000 5.1 290 21:18 25.09.2019
1298 Clear 22 1014 78 10000 5.7 290 20:56 25.09.2019
1299 Clear 22 1014 78 10000 5.7 290 20:56 25.09.2019
1300 Clear 22 1014 78 10000 4.1 280 20:37 25.09.2019
1301 Clear 22 1014 78 10000 4.1 280 20:19 25.09.2019
1302 Clear 23 1013 78 10000 5.1 290 19:40 25.09.2019
1303 Clear 23 1013 78 10000 5.1 290 19:40 25.09.2019
1304 Clear 23 1013 78 10000 5.1 290 19:40 25.09.2019
1305 Clear 23 1013 78 10000 5.1 290 19:21 25.09.2019
1306 Clear 23 1013 78 10000 5.7 290 18:57 25.09.2019
1307 Clouds 24 1013 78 10000 5.7 290 18:38 25.09.2019
1308 Clouds 24 1013 78 10000 5.7 290 18:20 25.09.2019
1309 -273 0 0 0 0 0 17:55 25.09.2019
1310 Clouds 25 1013 78 10000 7.2 280 17:36 25.09.2019
1311 Clouds 25 1013 78 10000 7.2 280 17:18 25.09.2019
1312 Clouds 25 1013 78 10000 7.7 290 16:42 25.09.2019
1313 Clouds 25 1013 78 10000 7.7 290 16:24 25.09.2019
1314 Clouds 25 1013 78 10000 7.2 290 15:57 25.09.2019
1315 Clouds 25 1013 78 10000 6.2 290 15:39 25.09.2019
1316 Clouds 26 1013 78 10000 6.2 290 15:20 25.09.2019
1317 Clouds 26 1013 78 10000 6.2 290 15:20 25.09.2019
1318 Clouds 26 1014 78 10000 6.2 280 14:43 25.09.2019
1319 Clouds 26 1014 73 10000 6.2 290 14:25 25.09.2019
1320 Clouds 26 1014 78 10000 6.2 290 13:59 25.09.2019
1321 Clear 26 1014 73 10000 6.2 290 13:40 25.09.2019
1322 Clear 26 1014 73 10000 4.1 290 13:20 25.09.2019
1323 Clear 25 1014 73 10000 4.1 290 12:58 25.09.2019
1324 Clear 25 1014 69 10000 4.6 260 12:38 25.09.2019
1325 Clear 25 1014 69 10000 4.6 260 12:20 25.09.2019
1326 Clear 25 1014 69 10000 5.1 240 11:41 25.09.2019
1327 Clear 25 1014 69 10000 5.1 240 11:21 25.09.2019
1328 Clear 24 1014 57 10000 5.1 230 10:56 25.09.2019
1329 Clear 24 1014 64 10000 4.1 230 10:38 25.09.2019
1330 Clear 23 1014 64 10000 4.1 230 10:19 25.09.2019
1331 Clear 23 1014 61 10000 3.6 220 09:43 25.09.2019
1332 Clear 22 1014 60 10000 3.6 210 09:23 25.09.2019
1333 Clear 22 1013 64 10000 3.1 200 08:59 25.09.2019
1334 Clear 22 1013 64 10000 3.6 220 08:41 25.09.2019
1335 Clear 22 1013 64 10000 3.6 220 08:20 25.09.2019
1336 Clear 21 1013 73 10000 3.1 190 07:55 25.09.2019
1337 -273 0 0 0 0 0 07:54 25.09.2019
1338 Clear 20 1013 73 10000 3.1 160 07:36 25.09.2019
1339 Clear 20 1013 73 10000 3.1 160 07:18 25.09.2019
1340 Clear 20 1013 73 10000 3.1 210 06:37 25.09.2019
1341 Clear 19 1014 72 10000 2.1 190 05:52 25.09.2019
1342 Clear 19 1014 68 10000 2.1 200 05:26 25.09.2019
1343 Clear 20 1014 68 10000 1.5 160 04:45 25.09.2019
1344 Clouds 20 1015 68 10000 2.1 230 01:44 25.09.2019
1345 Clouds 20 1015 64 10000 2.6 280 00:42 25.09.2019
1346 Clouds 20 1015 64 10000 2.6 280 00:23 25.09.2019
1347 Clouds 20 1015 64 10000 2.1 250 23:54 24.09.2019
1348 Clouds 20 1015 64 10000 2.1 250 23:54 24.09.2019
1349 Clouds 20 1015 57 10000 2.6 290 23:36 24.09.2019
1350 Clouds 20 1015 57 10000 2.6 290 23:18 24.09.2019
1351 Clouds 20 1015 60 10000 2.6 300 22:38 24.09.2019
1352 Clouds 20 1015 60 10000 2.6 300 22:20 24.09.2019
1353 Clouds 20 1015 60 10000 3.1 330 21:56 24.09.2019
1354 Clouds 20 1015 60 10000 4.1 330 21:37 24.09.2019
1355 Clouds 20 1015 60 10000 4.1 330 21:19 24.09.2019
1356 Clouds 21 1015 60 10000 4.1 320 20:57 24.09.2019
1357 Clouds 21 1014 64 10000 4.1 300 20:38 24.09.2019
1358 Clouds 21 1014 64 10000 4.1 300 20:20 24.09.2019
1359 Clouds 21 1014 57 10000 3.6 310 19:43 24.09.2019
1360 Clouds 22 1014 57 10000 4.1 320 19:21 24.09.2019
1361 Clouds 22 1014 57 10000 4.1 320 18:59 24.09.2019
1362 Clouds 22 1015 60 10000 5.7 320 18:40 24.09.2019
1363 -273 0 0 0 0 0 18:22 24.09.2019
1364 Clouds 23 1015 60 10000 5.7 320 18:22 24.09.2019
1365 Clouds 23 1015 57 10000 4.1 320 17:58 24.09.2019
1366 Clouds 23 1015 57 10000 4.1 320 17:58 24.09.2019
1367 Clouds 23 1015 57 10000 5.1 310 17:38 24.09.2019
1368 Clouds 23 1015 57 10000 5.1 310 17:20 24.09.2019
1369 Clouds 24 1015 57 10000 4.6 300 16:57 24.09.2019
1370 Clouds 24 1015 50 10000 5.1 300 16:39 24.09.2019
1371 Clouds 24 1014 53 10000 3.6 300 16:18 24.09.2019
1372 Clouds 24 1014 53 10000 3.6 300 16:18 24.09.2019
1373 Clouds 24 1014 53 10000 3.6 300 15:41 24.09.2019
1374 Clouds 24 1015 61 10000 3.6 310 15:23 24.09.2019
1375 Clouds 25 1015 61 10000 4.6 320 14:45 24.09.2019
1376 Clouds 25 1015 57 10000 3.6 330 14:20 24.09.2019
1377 Clouds 25 1015 57 10000 3.6 330 14:20 24.09.2019
1378 Clouds 25 1015 57 10000 4.1 320 13:57 24.09.2019
1379 Clouds 25 1015 57 10000 3.1 340 13:38 24.09.2019
1380 Clouds 25 1015 57 10000 3.1 340 13:20 24.09.2019
1381 Clouds 24 1015 65 10000 5.1 290 12:40 24.09.2019
1382 Clouds 24 1015 65 10000 5.1 290 12:21 24.09.2019
1383 Clouds 25 1015 69 10000 5.7 290 11:56 24.09.2019
1384 Clouds 25 1015 69 10000 5.7 290 11:55 24.09.2019
1385 Clouds 25 1015 64 10000 6.2 290 11:37 24.09.2019
1386 Clouds 24 1015 64 10000 6.2 290 11:18 24.09.2019
1387 Clouds 24 1015 64 10000 7.2 280 10:39 24.09.2019
1388 Clouds 23 1015 64 10000 7.2 280 10:21 24.09.2019
1389 -273 0 0 0 0 0 09:56 24.09.2019
1390 Clouds 24 1014 64 10000 7.2 280 09:37 24.09.2019
1391 Clouds 23 1014 64 10000 7.2 280 09:18 24.09.2019
1392 Clouds 23 1014 64 10000 7.7 290 08:41 24.09.2019
1393 Clouds 22 1014 64 10000 7.7 290 08:23 24.09.2019
1394 Clouds 22 1014 60 10000 8.2 280 07:58 24.09.2019
1395 Clouds 21 1014 73 10000 8.2 270 07:40 24.09.2019
1396 Clouds 22 1014 73 10000 8.2 270 07:22 24.09.2019
1397 Clear 22 1014 69 10000 7.7 280 06:40 24.09.2019
1398 Clear 23 1014 69 10000 7.7 280 06:19 24.09.2019
1399 Clouds 22 1013 78 10000 8.2 260 05:23 24.09.2019
1400 Clouds 23 1014 83 10000 7.7 270 03:46 24.09.2019
1401 Clouds 23 1014 83 10000 7.7 270 03:26 24.09.2019
1402 Clouds 23 1015 83 10000 7.2 260 02:45 24.09.2019
1403 Clouds 24 1015 83 10000 8.7 250 01:42 24.09.2019
1404 Clear 23 1015 69 10000 6.2 210 00:42 24.09.2019
1405 Clear 23 1015 69 10000 6.2 210 00:23 24.09.2019
1406 Clouds 23 1015 73 10000 4.6 210 23:43 23.09.2019
1407 Clouds 23 1015 73 10000 4.6 210 23:23 23.09.2019
1408 Clouds 24 1015 78 10000 6.7 250 22:57 23.09.2019
1409 Clouds 24 1015 78 10000 7.2 260 22:37 23.09.2019
1410 Clouds 24 1015 78 10000 7.2 260 22:19 23.09.2019
1411 Clouds 23 1015 78 10000 4.1 230 21:56 23.09.2019
1412 Clouds 24 1015 78 10000 6.2 260 21:37 23.09.2019
1413 Clouds 24 1015 78 10000 6.2 260 21:18 23.09.2019
1414 Clouds 24 1015 73 10000 6.2 250 20:40 23.09.2019
1415 Clouds 24 1015 73 10000 6.2 250 20:19 23.09.2019
1416 Clouds 24 1014 78 10000 7.7 260 19:55 23.09.2019
1417 Clouds 24 1014 78 10000 7.7 260 19:55 23.09.2019
1418 Clouds 25 1014 78 10000 8.7 270 19:37 23.09.2019
1419 Clouds 24 1014 78 10000 8.7 270 19:19 23.09.2019
1420 Clouds 25 1014 78 10000 8.7 270 19:19 23.09.2019
1421 Clouds 25 1014 74 10000 8.7 280 18:42 23.09.2019
1422 Clouds 25 1014 74 10000 8.7 280 18:42 23.09.2019
1423 Clouds 26 1014 74 10000 7.7 270 18:21 23.09.2019
1424 Clouds 26 1014 74 10000 7.7 270 17:59 23.09.2019
1425 Clouds 26 1014 83 10000 9.8 270 17:39 23.09.2019
1426 Clouds 26 1014 83 10000 9.8 270 17:20 23.09.2019
1427 Clouds 27 1014 83 10000 10.3 280 16:58 23.09.2019
1428 Clouds 28 1014 83 9000 10.3 280 16:37 23.09.2019
1429 Clouds 28 1014 83 9000 10.3 280 16:19 23.09.2019
1430 Clouds 28 1014 88 7000 11.3 280 15:57 23.09.2019
1431 Clouds 28 1014 83 6000 11.8 280 15:38 23.09.2019
1432 Clouds 28 1014 83 6000 11.8 280 15:19 23.09.2019
1433 Clouds 28 1014 83 10000 6.2 280 15:19 23.09.2019
1434 Clouds 27 1014 74 10000 6.2 250 14:40 23.09.2019
1435 Clouds 27 1014 74 10000 6.2 250 14:40 23.09.2019
1436 Clouds 27 1014 74 10000 6.2 250 14:40 23.09.2019
1437 Clouds 28 1014 74 10000 6.2 250 14:21 23.09.2019
1438 Clouds 28 1014 74 10000 6.2 240 13:59 23.09.2019
1439 Clouds 29 1015 62 10000 6.2 230 13:39 23.09.2019
1440 Clouds 29 1015 62 10000 6.2 230 13:19 23.09.2019
1441 Clouds 29 1015 58 10000 7.2 210 12:56 23.09.2019
1442 Clear 29 1015 58 10000 7.2 210 12:37 23.09.2019
1443 Clear 29 1015 58 10000 7.2 210 12:19 23.09.2019
1444 Clear 29 1015 58 10000 6.7 210 11:45 23.09.2019
1445 Clear 29 1015 58 10000 6.7 190 11:45 23.09.2019
1446 Clear 29 1015 58 10000 6.7 210 11:26 23.09.2019
1447 Clear 29 1015 58 10000 6.7 210 11:26 23.09.2019
1448 Clear 28 1016 58 10000 6.7 200 10:57 23.09.2019
1449 Clear 27 1015 62 10000 8.2 190 10:39 23.09.2019
1450 Clear 26 1015 62 10000 8.2 190 10:20 23.09.2019
1451 Clear 26 1015 62 10000 8.2 190 10:20 23.09.2019
1452 Clouds 26 1015 61 10000 6.2 190 09:40 23.09.2019
1453 Clouds 26 1015 61 10000 6.2 190 09:40 23.09.2019
1454 Clouds 25 1015 61 10000 6.2 190 09:21 23.09.2019
1455 Clouds 25 1015 65 10000 5.1 180 08:58 23.09.2019
1456 Clouds 24 1016 69 10000 6.2 200 08:38 23.09.2019
1457 Clouds 24 1016 69 10000 6.2 200 08:18 23.09.2019
1458 Clear 24 1016 61 10000 3.6 180 07:33 23.09.2019
1459 Clear 24 1015 65 10000 5.7 200 06:52 23.09.2019
1460 Clear 24 1015 61 10000 5.1 180 06:20 23.09.2019
1461 Clear 24 1014 54 10000 4.1 190 05:23 23.09.2019
1462 Clear 24 1014 54 10000 6.7 180 04:56 23.09.2019
1463 Clear 25 1013 54 10000 8.2 190 03:56 23.09.2019
1464 Clear 25 1013 58 10000 12.3 190 01:25 23.09.2019
1465 Clear 24 1014 54 10000 9.8 180 00:24 23.09.2019
1466 Clear 24 1015 57 10000 8.2 200 23:58 22.09.2019
1467 Clear 24 1015 57 10000 8.2 200 23:58 22.09.2019
1468 Clear 23 1016 57 10000 7.7 190 23:39 22.09.2019
1469 Clear 24 1016 54 10000 7.7 200 23:21 22.09.2019
1470 Clear 24 1016 54 10000 7.7 200 22:54 22.09.2019
1471 Clear 24 1015 54 10000 7.7 190 22:36 22.09.2019
1472 Clear 25 1015 54 10000 7.7 190 22:18 22.09.2019
1473 Clear 24 1016 54 10000 6.7 210 21:42 22.09.2019
1474 Clear 24 1016 54 10000 6.7 210 21:20 22.09.2019
1475 Clear 24 1016 54 10000 7.7 210 20:44 22.09.2019
1476 Clear 24 1016 57 10000 6.2 220 20:26 22.09.2019
1477 Clear 25 1016 57 10000 6.7 210 19:57 22.09.2019
1478 Clear 25 1015 54 10000 8.2 220 19:39 22.09.2019
1479 Clear 25 1015 54 10000 8.2 220 19:39 22.09.2019
1480 Clear 25 1015 54 10000 8.2 220 19:20 22.09.2019
1481 Clear 25 1015 54 10000 7.2 230 18:57 22.09.2019
1482 Clear 26 1015 45 10000 7.7 220 18:37 22.09.2019
1483 Clear 26 1015 45 10000 7.7 220 18:18 22.09.2019
1484 Clear 26 1015 65 10000 8.2 240 17:45 22.09.2019
1485 Clouds 25 1012 57 0 3.58 276 17:26 22.09.2019
1486 Clear 27 1014 55 10000 5.7 230 16:57 22.09.2019
1487 Clear 27 1014 48 10000 5.1 220 16:39 22.09.2019
1488 Clear 27 1014 48 10000 5.1 220 16:20 22.09.2019
1489 Clear 27 1014 51 10000 6.7 220 15:45 22.09.2019
1490 Clear 27 1014 45 10000 7.7 210 15:26 22.09.2019
1491 Clear 27 1015 38 10000 6.7 200 14:55 22.09.2019
1492 Clear 27 1015 38 10000 4.6 190 14:37 22.09.2019
1493 Clear 27 1015 38 10000 4.6 190 14:18 22.09.2019
1494 Clear 27 1016 35 10000 5.1 190 13:42 22.09.2019
1495 Clear 26 1016 35 10000 5.1 190 13:24 22.09.2019
1496 Clear 26 1016 38 10000 5.7 160 12:57 22.09.2019
1497 Clear 26 1016 38 10000 5.7 160 12:57 22.09.2019
1498 Clear 26 1016 35 10000 4.6 180 12:39 22.09.2019
1499 Clear 25 1016 35 10000 4.6 180 12:19 22.09.2019
1500 Clear 25 1016 42 10000 7.2 190 11:56 22.09.2019
1501 Clear 25 1017 42 10000 5.1 160 11:37 22.09.2019
1502 Clear 25 1017 42 10000 5.1 160 11:18 22.09.2019
1503 Clear 24 1017 48 10000 6.7 180 10:42 22.09.2019
1504 Clear 24 1017 48 10000 6.7 180 10:20 22.09.2019
1505 Clouds 23 1017 69 10000 2.6 50 09:43 22.09.2019
1506 Clouds 23 1017 69 10000 2.6 50 09:22 22.09.2019
1507 Clouds 23 1018 73 10000 2.1 70 08:58 22.09.2019
1508 Clouds 23 1018 61 10000 3.6 100 08:40 22.09.2019
1509 Clouds 22 1018 61 10000 3.6 100 08:22 22.09.2019
1510 Clouds 22 1017 54 10000 3.6 190 07:46 22.09.2019
1511 Clear 22 1018 61 10000 5.7 210 07:26 22.09.2019
1512 Clear 22 1018 61 10000 2.1 160 06:58 22.09.2019
1513 Clear 22 1018 61 10000 5.7 220 06:34 22.09.2019
1514 Clear 22 1017 65 10000 2.1 100 05:18 22.09.2019
1515 Clear 22 1018 65 10000 4.6 170 02:45 22.09.2019
1516 Clear 22 1019 65 10000 5.7 170 02:24 22.09.2019
1517 Clear 22 1020 73 10000 4.6 180 01:43 22.09.2019
1518 Clear 22 1021 69 10000 5.1 210 00:53 22.09.2019
1519 Clear 22 1020 73 10000 6.2 230 00:32 22.09.2019
1520 Clear 22 1020 69 10000 3.1 190 23:54 21.09.2019
1521 Clouds 22 1020 73 10000 3.6 180 23:36 21.09.2019
1522 Clouds 22 1020 73 10000 3.1 190 22:47 21.09.2019
1523 Clouds 22 1021 73 10000 4.6 220 22:26 21.09.2019
1524 Clouds 23 1020 69 10000 4.6 230 21:59 21.09.2019
1525 Clouds 23 1020 74 10000 4.1 230 21:41 21.09.2019
1526 Clouds 23 1020 74 10000 4.1 230 21:19 21.09.2019
1527 Clouds 23 1020 74 10000 3.6 210 20:56 21.09.2019
1528 Clouds 23 1020 65 10000 2.6 190 20:37 21.09.2019
1529 Clouds 23 1020 65 10000 2.6 190 20:18 21.09.2019
1530 Clouds 23 1020 65 10000 2.6 190 20:18 21.09.2019
1531 Clouds 23 1019 65 10000 3.6 70 19:46 21.09.2019
1532 Clouds 23 1019 65 10000 5.1 70 19:21 21.09.2019
1533 Clouds 24 1019 69 10000 6.7 70 18:41 21.09.2019
1534 Clouds 24 1019 69 10000 6.7 70 18:22 21.09.2019
1535 Clouds 25 1019 65 10000 7.7 60 17:43 21.09.2019
1536 Clouds 25 1019 65 10000 7.7 60 17:24 21.09.2019
1537 Clouds 25 1019 65 10000 7.7 60 16:58 21.09.2019
1538 Clouds 25 1019 65 10000 7.2 40 16:40 21.09.2019
1539 Clouds 25 1019 65 10000 7.2 40 16:20 21.09.2019
1540 Clouds 25 1020 65 10000 7.2 50 15:45 21.09.2019
1541 Clouds 26 1020 61 10000 6.2 40 15:23 21.09.2019
1542 Clouds 26 1020 61 10000 6.2 40 14:50 21.09.2019
1543 Clouds 25 1020 69 10000 5.7 40 14:32 21.09.2019
1544 Clouds 26 1020 74 10000 5.1 40 13:55 21.09.2019
1545 Clouds 27 1020 69 10000 5.7 40 13:37 21.09.2019
1546 Clouds 27 1020 69 10000 5.7 40 13:18 21.09.2019
1547 Clouds 27 1020 74 10000 5.1 40 12:55 21.09.2019
1548 Clouds 26 1020 69 10000 4.6 30 12:37 21.09.2019
1549 Clouds 26 1020 69 10000 3.6 30 12:19 21.09.2019
1550 Clouds 26 1021 69 10000 2.1 20 11:43 21.09.2019
1551 Clouds 26 1021 69 10000 2.1 20 11:24 21.09.2019
1552 Clouds 25 1021 69 10000 1 0 10:45 21.09.2019
1553 Clouds 25 1020 73 10000 1.5 10 10:25 21.09.2019
1554 Clouds 24 1020 78 10000 1.5 270 09:59 21.09.2019
1555 Clear 24 1020 73 10000 0.5 0 09:39 21.09.2019
1556 Clear 23 1020 73 10000 0.5 0 09:20 21.09.2019
1557 Clear 23 1020 78 10000 2.1 210 08:52 21.09.2019
1558 Clear 22 1019 83 10000 2.1 210 08:28 21.09.2019
1559 Clouds 21 1019 88 10000 1.5 170 07:42 21.09.2019
1560 Clouds 21 1019 88 10000 1.5 170 07:24 21.09.2019
1561 Clouds 20 1019 83 10000 1 180 06:58 21.09.2019
1562 Clouds 21 1019 83 10000 1.5 190 06:33 21.09.2019
1563 Clear 20 1019 83 10000 1.5 170 05:36 21.09.2019
1564 Clear 20 1019 83 10000 1.5 170 05:36 21.09.2019
1565 Clear 21 1019 83 10000 1.5 190 04:37 21.09.2019
1566 Clouds 21 1019 83 10000 1 0 03:22 21.09.2019
1567 Clouds 21 1019 83 10000 1.5 170 02:21 21.09.2019
1568 Clouds 21 1019 78 10000 1.5 240 01:46 21.09.2019
1569 Clouds 21 1019 78 10000 2.1 250 00:52 21.09.2019
1570 Clouds 22 1019 78 10000 0.5 0 00:20 21.09.2019
1571 Clouds 21 1019 78 10000 1 0 23:48 20.09.2019
1572 Clouds 22 1019 78 10000 1.5 200 23:28 20.09.2019
1573 Clouds 22 1019 78 10000 2.6 220 22:43 20.09.2019
1574 Clouds 22 1019 78 10000 5.1 80 22:24 20.09.2019
1575 Rain 22 1019 78 10000 6.7 70 21:57 20.09.2019
1576 Rain 22 1018 78 10000 6.7 60 21:39 20.09.2019
1577 Rain 22 1018 78 10000 6.7 60 21:20 20.09.2019
1578 Clouds 23 1018 78 10000 6.2 70 20:58 20.09.2019
1579 Clouds 23 1018 78 10000 6.7 60 20:39 20.09.2019
1580 Clouds 23 1018 78 10000 6.7 60 20:19 20.09.2019
1581 Clouds 23 1018 78 10000 7.2 60 20:19 20.09.2019
1582 Clouds 23 1018 78 10000 7.2 60 19:55 20.09.2019
1583 Clouds 23 1017 78 10000 7.7 60 19:36 20.09.2019
1584 Clouds 23 1017 78 10000 7.7 60 19:18 20.09.2019
1585 Clouds 23 1017 74 10000 5.7 60 18:38 20.09.2019
1586 Clouds 24 1017 74 10000 5.7 60 18:18 20.09.2019
1587 Clouds 24 1017 74 10000 6.2 50 17:47 20.09.2019
1588 Clouds 24 1017 74 10000 4.6 40 17:27 20.09.2019
1589 Clouds 24 1017 69 10000 4.6 50 16:57 20.09.2019
1590 Rain 24 1016 65 10000 7.2 60 16:37 20.09.2019
1591 Rain 23 1016 65 10000 7.2 60 16:18 20.09.2019
1592 Clouds 25 1017 65 10000 8.2 60 15:41 20.09.2019
1593 Clouds 25 1017 65 10000 8.2 60 15:41 20.09.2019
1594 Clouds 26 1017 65 10000 8.2 60 15:22 20.09.2019
1595 Clouds 27 1017 65 10000 8.2 60 14:55 20.09.2019
1596 Clouds 27 1017 65 10000 8.2 60 14:36 20.09.2019
1597 Clouds 27 1017 69 10000 7.7 60 14:18 20.09.2019
1598 Clouds 27 1017 74 10000 7.7 40 13:41 20.09.2019
1599 Clouds 27 1017 74 10000 7.7 40 13:22 20.09.2019
1600 Clouds 27 1017 74 10000 7.2 40 12:41 20.09.2019
1601 Clouds 27 1017 74 10000 7.2 40 12:22 20.09.2019
1602 Clouds 27 1017 78 10000 6.2 40 11:52 20.09.2019
1603 Clouds 27 1017 78 10000 5.7 40 11:27 20.09.2019
1604 Clouds 26 1017 74 10000 5.1 40 10:59 20.09.2019
1605 Clear 26 1017 78 10000 3.1 30 10:41 20.09.2019
1606 Clear 25 1017 78 10000 3.1 30 10:22 20.09.2019
1607 Clear 25 1017 78 10000 3.1 30 10:22 20.09.2019
1608 Clear 25 1016 78 10000 0.5 0 09:38 20.09.2019
1609 Clear 24 1016 78 10000 0.5 0 09:19 20.09.2019
1610 Clouds 22 1016 88 10000 1 170 08:48 20.09.2019
1611 Clouds 21 1016 88 10000 1 170 08:29 20.09.2019
1612 Clouds 21 1016 88 10000 2.1 130 07:59 20.09.2019
1613 Clear 20 1016 88 10000 1 130 07:40 20.09.2019
1614 Clouds 20 1015 78 10000 1.5 50 07:22 20.09.2019
1615 Clouds 20 1015 83 10000 2.1 80 06:42 20.09.2019
1616 Clouds 20 1016 88 10000 2.1 80 06:18 20.09.2019
1617 Clouds 21 1016 88 10000 1.5 110 04:32 20.09.2019
1618 Clouds 21 1016 83 10000 2.1 150 03:29 20.09.2019
1619 Clouds 22 1016 78 10000 2.1 180 02:22 20.09.2019
1620 Clouds 22 1016 83 10000 2.1 180 01:43 20.09.2019
1621 Clouds 22 1016 83 10000 1.5 180 01:43 20.09.2019
1622 Clouds 22 1016 83 10000 1.5 170 00:43 20.09.2019
1623 Clouds 22 1016 78 10000 1 0 23:50 19.09.2019
1624 Clouds 22 1016 78 10000 1 0 23:50 19.09.2019
1625 Clouds 22 1016 78 10000 0.5 0 23:29 19.09.2019
1626 Clouds 22 1016 78 10000 1.5 350 22:59 19.09.2019
1627 Clouds 22 1016 83 10000 2.6 360 22:40 19.09.2019
1628 Clouds 22 1016 83 10000 2.6 360 22:22 19.09.2019
1629 Clouds 23 1016 83 10000 4.1 350 21:57 19.09.2019
1630 Clouds 23 1015 83 10000 5.1 330 21:39 19.09.2019
1631 Clouds 23 1015 83 10000 5.1 330 21:39 19.09.2019
1632 Clouds 23 1015 83 10000 5.1 330 21:19 19.09.2019
1633 Clouds 23 1015 88 10000 4.6 320 20:57 19.09.2019
1634 Clouds 23 1015 88 10000 4.6 320 20:57 19.09.2019
1635 Clouds 23 1014 83 10000 5.1 320 20:38 19.09.2019
1636 Clouds 23 1014 83 10000 5.1 320 20:19 19.09.2019
1637 Clouds 23 1014 83 10000 1 0 19:54 19.09.2019
1638 Clouds 24 1014 69 10000 0.5 0 19:36 19.09.2019
1639 Clouds 24 1014 69 10000 1 0 19:18 19.09.2019
1640 Clouds 25 1014 69 10000 2.1 30 18:41 19.09.2019
1641 Clouds 25 1014 69 10000 2.1 30 18:22 19.09.2019
1642 Clouds 25 1014 69 10000 6.2 50 17:43 19.09.2019
1643 Clouds 26 1014 69 10000 6.2 50 17:24 19.09.2019
1644 Clouds 27 1014 65 10000 6.2 70 16:59 19.09.2019
1645 Clouds 27 1014 65 10000 6.2 70 16:59 19.09.2019
1646 Clouds 27 1014 65 10000 5.7 60 16:40 19.09.2019
1647 Clouds 27 1014 65 10000 5.7 60 16:40 19.09.2019
1648 Clouds 27 1014 65 10000 5.7 60 16:20 19.09.2019
1649 Clouds 27 1014 65 10000 4.6 60 15:41 19.09.2019
1650 Clear 28 1014 69 10000 4.1 50 15:22 19.09.2019
1651 Clear 28 1014 74 10000 3.6 30 14:58 19.09.2019
1652 Clear 28 1015 74 10000 4.1 330 14:39 19.09.2019
1653 Clear 28 1015 74 10000 4.1 330 14:20 19.09.2019
1654 Clear 28 1015 58 10000 4.1 240 13:40 19.09.2019
1655 Clear 28 1015 58 10000 4.1 240 13:22 19.09.2019
1656 Clear 27 1015 69 10000 1.5 10 12:59 19.09.2019
1657 Clouds 27 1015 55 10000 3.1 210 12:36 19.09.2019
1658 Clouds 27 1015 55 10000 3.1 210 12:18 19.09.2019
1659 Clouds 27 1015 61 10000 4.1 200 11:41 19.09.2019
1660 Clouds 26 1015 61 10000 4.1 200 11:22 19.09.2019
1661 Clouds 27 1015 61 10000 5.1 200 10:58 19.09.2019
1662 Clear 27 1015 61 10000 4.6 200 10:39 19.09.2019
1663 Clear 26 1015 61 10000 4.6 200 10:21 19.09.2019
1664 Clear 25 1015 65 10000 4.1 200 09:56 19.09.2019
1665 Clear 25 1015 78 10000 3.6 230 09:38 19.09.2019
1666 Clear 23 1014 83 10000 1.5 110 09:19 19.09.2019
1667 Clear 23 1014 83 10000 1.5 110 08:49 19.09.2019
1668 Clear 22 1014 88 10000 1 0 08:23 19.09.2019
1669 Clear 21 1014 88 10000 1 0 07:44 19.09.2019
1670 Clear 21 1014 88 10000 1 0 07:22 19.09.2019
1671 Clear 21 1014 88 10000 1.5 150 06:51 19.09.2019
1672 Clear 21 1014 83 10000 1.5 100 06:32 19.09.2019
1673 Clear 21 1014 78 10000 2.1 120 05:53 19.09.2019
1674 Clear 21 1014 78 10000 3.1 160 05:34 19.09.2019
1675 Clouds 21 992 94 0 3.51 174.526 03:55 19.09.2019
1676 Clear 21 1015 83 10000 2.1 220 03:19 19.09.2019
1677 Clear 22 1015 83 10000 1.5 200 01:35 19.09.2019
1678 Clear 22 1016 88 10000 2.1 200 00:53 19.09.2019
1679 Clear 22 1016 83 10000 1 0 00:26 19.09.2019
1680 Clear 22 1016 83 10000 1 0 00:26 19.09.2019
1681 Clouds 23 1016 78 10000 0.5 0 23:57 18.09.2019
1682 Clouds 23 1015 78 10000 1.5 150 23:36 18.09.2019
1683 Clouds 23 1015 78 10000 1.5 150 23:18 18.09.2019
1684 Clouds 23 1016 78 10000 1.5 200 22:37 18.09.2019
1685 Clouds 23 1016 78 10000 1.5 200 22:19 18.09.2019
1686 Clouds 23 1016 73 10000 2.1 80 21:57 18.09.2019
1687 Clouds 23 1015 73 10000 3.6 70 21:38 18.09.2019
1688 Clouds 23 1015 73 10000 3.6 70 21:18 18.09.2019
1689 Clouds 23 1015 73 10000 4.1 80 20:56 18.09.2019
1690 Clouds 23 1015 73 10000 4.1 80 20:56 18.09.2019
1691 Clouds 23 1015 73 10000 3.1 80 20:38 18.09.2019
1692 Clouds 23 1015 73 10000 3.1 80 20:20 18.09.2019
1693 Clouds 24 1015 73 10000 2.1 50 19:55 18.09.2019
1694 Clear 24 1015 78 10000 2.6 40 19:37 18.09.2019
1695 Clear 24 1015 78 10000 2.6 40 19:18 18.09.2019
1696 Clouds 24 1015 73 10000 2.1 40 18:54 18.09.2019
1697 Clouds 24 1015 73 10000 2.1 40 18:54 18.09.2019
1698 Clouds 25 1015 65 10000 2.1 40 18:36 18.09.2019
1699 Clouds 25 1015 65 10000 2.1 40 18:18 18.09.2019
1700 Clear 26 1015 65 10000 1.5 360 17:41 18.09.2019
1701 Clear 26 1015 65 10000 1 0 17:19 18.09.2019
1702 Clear 26 1015 65 10000 1 0 16:59 18.09.2019
1703 Clear 26 1016 69 10000 2.1 20 16:41 18.09.2019
1704 Clear 26 1016 69 10000 2.1 20 16:22 18.09.2019
1705 Clear 26 1016 69 10000 2.1 30 15:56 18.09.2019
1706 Clear 26 1016 69 10000 2.1 30 15:56 18.09.2019
1707 Clear 26 1015 69 10000 3.1 30 15:38 18.09.2019
1708 Clear 26 1015 69 10000 3.1 30 15:20 18.09.2019
1709 Clear 26 1015 69 10000 4.6 40 14:58 18.09.2019
1710 Clear 27 1015 69 10000 4.6 30 14:40 18.09.2019
1711 Clear 26 1015 69 10000 4.6 30 14:21 18.09.2019
1712 Clear 27 1015 69 10000 4.6 40 13:58 18.09.2019
1713 Clear 27 1015 65 10000 6.2 40 13:37 18.09.2019
1714 Clear 27 1015 65 10000 6.2 40 13:18 18.09.2019
1715 Clear 27 1016 73 10000 5.1 40 12:42 18.09.2019
1716 Clear 26 1016 73 10000 5.1 40 12:22 18.09.2019
1717 Clear 26 1016 73 10000 2.1 270 11:40 18.09.2019
1718 Clear 26 1016 73 10000 2.1 270 11:40 18.09.2019
1719 Clear 25 1016 73 10000 2.1 270 11:20 18.09.2019
1720 Clear 25 1016 69 10000 2.6 230 10:58 18.09.2019
1721 Clear 26 1016 69 10000 3.1 220 10:39 18.09.2019
1722 Clear 24 1016 69 10000 3.1 220 10:20 18.09.2019
1723 Clear 24 1016 73 10000 4.1 220 09:55 18.09.2019
1724 Clear 23 1016 78 10000 2.1 200 09:37 18.09.2019
1725 Clear 22 1016 78 10000 2.1 200 09:18 18.09.2019
1726 Clear 21 1016 83 10000 1 200 08:41 18.09.2019
1727 Clear 21 1016 83 10000 1 200 08:21 18.09.2019
1728 Clear 21 1015 83 10000 0.5 0 07:45 18.09.2019
1729 Clear 20 1015 83 10000 0.5 0 07:23 18.09.2019
1730 Clear 20 1015 83 10000 1.5 30 06:55 18.09.2019
1731 Clear 20 1015 83 10000 1 120 06:29 18.09.2019
1732 Clear 20 1015 83 10000 2.1 100 05:39 18.09.2019
1733 Clear 20 1015 78 10000 2.1 160 04:20 18.09.2019
1734 Clear 20 1016 78 10000 2.1 200 02:41 18.09.2019
1735 Clear 20 1016 78 10000 2.6 210 01:50 18.09.2019
1736 Clear 20 1016 78 10000 3.1 190 00:58 18.09.2019
1737 Clear 20 1016 78 10000 2.6 190 00:34 18.09.2019
1738 Clear 21 1016 73 10000 3.1 190 23:59 17.09.2019
1739 Clear 21 1016 73 10000 2.6 200 23:40 17.09.2019
1740 Clear 21 1016 73 10000 2.6 200 23:21 17.09.2019
1741 Clear 21 1016 69 10000 0.5 0 22:42 17.09.2019
1742 Clear 21 1016 69 10000 0.5 0 22:42 17.09.2019
1743 Clear 21 1016 69 10000 1 90 22:23 17.09.2019
1744 Clear 22 1016 69 10000 2.1 120 21:54 17.09.2019
1745 Clear 22 1015 73 10000 4.6 70 21:36 17.09.2019
1746 Clear 22 1015 73 10000 4.6 70 21:18 17.09.2019
1747 Clear 22 1015 73 10000 4.6 80 20:57 17.09.2019
1748 Clear 22 1015 69 10000 5.1 80 20:39 17.09.2019
1749 Clear 22 1015 69 10000 5.1 80 20:21 17.09.2019
1750 Clear 23 1015 69 10000 5.1 70 19:58 17.09.2019
1751 Clear 23 1015 65 10000 5.1 70 19:39 17.09.2019
1752 Clear 23 1015 65 10000 5.1 70 19:19 17.09.2019
1753 -273 0 0 0 0 0 18:54 17.09.2019
1754 Clear 24 1016 65 10000 4.6 40 18:36 17.09.2019
1755 Clear 25 1016 65 10000 4.6 40 18:18 17.09.2019
1756 Clear 25 1016 69 10000 5.1 30 17:44 17.09.2019
1757 Clear 25 1016 69 10000 5.1 30 17:19 17.09.2019
1758 -273 0 0 0 0 0 16:54 17.09.2019
1759 Clouds 26 1016 69 10000 4.6 40 16:36 17.09.2019
1760 Clouds 25 1016 69 10000 4.6 40 16:18 17.09.2019
1761 Clear 26 1017 69 10000 4.6 40 15:39 17.09.2019
1762 Clear 26 1017 69 10000 4.6 40 15:20 17.09.2019
1763 Clear 26 1017 69 10000 5.1 40 14:56 17.09.2019
1764 Clear 26 1017 65 10000 4.1 30 14:37 17.09.2019
1765 Clear 26 1017 65 10000 4.1 30 14:19 17.09.2019
1766 Clear 26 1017 73 10000 3.1 30 13:43 17.09.2019
1767 Clear 26 1018 73 10000 2.6 20 13:25 17.09.2019
1768 Clear 26 1018 69 10000 2.1 10 12:59 17.09.2019
1769 Clear 26 1018 69 10000 1.5 320 12:38 17.09.2019
1770 Clear 25 1018 69 10000 1.5 320 12:19 17.09.2019
1771 Clear 25 1018 69 10000 1.5 320 12:19 17.09.2019
1772 Clear 25 1018 78 10000 3.1 250 11:44 17.09.2019
1773 Clear 24 1018 78 10000 3.1 250 11:25 17.09.2019
1774 Clear 25 1018 73 10000 3.6 250 10:57 17.09.2019
1775 Clear 25 1018 73 10000 3.1 250 10:39 17.09.2019
1776 Clear 24 1018 73 10000 3.1 250 10:20 17.09.2019
1777 Clear 24 1017 73 10000 2.1 230 09:43 17.09.2019
1778 Clear 23 1017 78 10000 1.5 210 09:23 17.09.2019
1779 Clear 22 1017 78 10000 1 0 08:57 17.09.2019
1780 Clear 22 1017 83 10000 1.5 180 08:38 17.09.2019
1781 Clear 20 1017 88 10000 1.5 160 08:19 17.09.2019
1782 Clear 20 1017 83 10000 1.5 160 07:42 17.09.2019
1783 Clear 19 1017 83 10000 1.5 160 07:24 17.09.2019
1784 Clouds 19 1017 83 10000 1 0 06:51 17.09.2019
1785 Clouds 19 1017 88 10000 2.1 180 06:25 17.09.2019
1786 Clouds 19 1017 88 10000 2.6 160 05:51 17.09.2019
1787 Clouds 19 1017 77 10000 1.5 180 04:32 17.09.2019
1788 Clouds 20 1018 78 10000 1.5 160 03:34 17.09.2019
1789 Clouds 20 1018 78 10000 1.5 200 02:39 17.09.2019
1790 Clouds 20 1018 78 10000 1.5 200 02:39 17.09.2019
1791 Clouds 20 1018 78 10000 1 150 01:34 17.09.2019
1792 Clouds 21 1018 73 10000 1 110 00:45 17.09.2019
1793 Clouds 21 1018 73 10000 1 0 23:41 16.09.2019
1794 Clouds 21 1018 73 10000 1 0 23:19 16.09.2019
1795 Clouds 21 1018 73 10000 1 0 23:19 16.09.2019
1796 Clouds 21 1018 73 10000 1 0 22:57 16.09.2019
1797 Clouds 21 1018 73 10000 3.1 70 22:39 16.09.2019
1798 Clouds 22 1018 73 10000 3.1 70 22:21 16.09.2019
1799 Clouds 21 1018 73 10000 3.6 70 21:55 16.09.2019
1800 Clouds 22 1018 73 10000 3.6 70 21:37 16.09.2019
1801 Clouds 22 1018 73 10000 3.6 70 21:18 16.09.2019
1802 Clouds 22 1018 73 10000 3.1 50 20:41 16.09.2019
1803 Clouds 22 1018 73 10000 3.1 50 20:22 16.09.2019
1804 Clouds 23 1017 73 10000 3.1 40 19:57 16.09.2019
1805 Clouds 23 1018 73 10000 2.6 40 19:39 16.09.2019
1806 Clouds 24 1018 73 10000 2.6 40 19:19 16.09.2019
1807 Clouds 24 1018 73 10000 2.6 40 18:48 16.09.2019
1808 Clouds 25 1018 69 10000 2.1 30 18:30 16.09.2019
1809 Clouds 25 1018 73 10000 2.1 20 17:59 16.09.2019
1810 Clouds 25 1018 69 10000 2.1 10 17:41 16.09.2019
1811 Clouds 25 1018 69 10000 2.1 10 17:22 16.09.2019
1812 Clear 26 1018 65 10000 2.6 360 16:55 16.09.2019
1813 Clear 25 1019 65 10000 2.6 10 16:37 16.09.2019
1814 Clear 25 1019 65 10000 2.6 10 16:18 16.09.2019
1815 Clear 26 1019 69 10000 2.6 10 15:55 16.09.2019
1816 Clear 26 1019 65 10000 2.6 350 15:37 16.09.2019
1817 Clear 26 1019 65 10000 2.6 350 15:18 16.09.2019
1818 Clear 26 1019 65 10000 2.6 340 14:43 16.09.2019
1819 Clear 26 1019 65 10000 3.6 330 14:23 16.09.2019
1820 Clear 26 1019 69 10000 5.7 310 13:58 16.09.2019
1821 Clear 26 1019 69 10000 4.6 290 13:38 16.09.2019
1822 Clear 26 1019 69 10000 4.6 290 13:20 16.09.2019
1823 Clear 26 1020 65 10000 4.6 260 12:43 16.09.2019
1824 Clear 26 1020 65 10000 4.6 260 12:24 16.09.2019
1825 Clear 25 1020 61 10000 5.1 250 11:55 16.09.2019
1826 -273 0 0 0 0 0 11:55 16.09.2019
1827 Clear 26 1020 57 10000 5.1 240 11:37 16.09.2019
1828 Clear 25 1020 57 10000 5.1 240 11:19 16.09.2019
1829 Clear 25 1020 64 10000 3.6 240 10:38 16.09.2019
1830 Clear 25 1020 64 10000 3.6 240 10:19 16.09.2019
1831 Clear 25 1020 64 10000 3.6 240 10:19 16.09.2019
1832 Clear 24 1020 64 10000 3.1 220 09:57 16.09.2019
1833 Clear 24 1020 60 10000 2.6 200 09:38 16.09.2019
1834 Clear 23 1020 60 10000 2.6 200 09:19 16.09.2019
1835 Clear 22 1019 60 10000 2.6 190 08:44 16.09.2019
1836 Clear 22 1019 68 10000 3.1 200 08:25 16.09.2019
1837 Clear 20 1019 68 10000 3.1 180 07:56 16.09.2019
1838 Clear 20 1019 73 10000 2.6 210 07:37 16.09.2019
1839 Clear 20 1019 73 10000 2.6 210 07:18 16.09.2019
1840 Clear 20 1019 77 10000 1.5 180 06:43 16.09.2019
1841 Clear 20 1019 77 10000 1.5 180 06:25 16.09.2019
1842 Clear 20 1019 88 10000 2.6 160 05:44 16.09.2019
1843 Clear 20 1019 88 10000 2.6 160 05:25 16.09.2019
1844 Clear 20 1019 83 10000 1.5 200 03:52 16.09.2019
1845 Clear 20 1019 83 10000 1.5 200 03:52 16.09.2019
1846 Clear 21 1020 78 10000 1 0 01:57 16.09.2019
1847 Clear 21 1020 73 10000 3.6 200 00:40 16.09.2019
1848 Clear 21 1020 73 10000 3.6 200 00:22 16.09.2019
1849 Clear 21 1021 78 10000 3.1 190 23:41 15.09.2019
1850 Clear 21 1021 78 10000 3.1 190 23:21 15.09.2019
1851 Clear 22 1021 73 10000 3.1 190 22:43 15.09.2019
1852 Clear 22 1021 73 10000 1.5 160 22:23 15.09.2019
1853 Clear 22 1021 73 10000 1.5 190 21:58 15.09.2019
1854 Clear 23 1020 69 10000 2.6 80 21:40 15.09.2019
1855 Clear 23 1020 69 10000 2.6 80 21:22 15.09.2019
1856 Clear 23 1020 69 10000 4.1 80 20:59 15.09.2019
1857 Clear 22 1020 69 10000 4.1 80 20:41 15.09.2019
1858 Clear 22 1020 69 10000 4.6 70 20:23 15.09.2019
1859 Clear 23 1020 69 10000 5.1 60 19:45 15.09.2019
1860 Clear 24 1020 65 10000 6.2 50 19:23 15.09.2019
1861 Clear 24 1020 65 10000 7.2 50 18:55 15.09.2019
1862 Clear 25 1020 65 10000 7.2 50 18:36 15.09.2019
1863 Clear 25 1020 65 10000 7.2 50 18:18 15.09.2019
1864 Clear 26 1020 69 10000 7.7 40 17:40 15.09.2019
1865 Clear 26 1020 69 10000 7.7 40 17:21 15.09.2019
1866 Clear 26 1020 69 10000 7.7 40 16:44 15.09.2019
1867 Clear 26 1020 65 10000 7.7 50 16:26 15.09.2019
1868 Clear 27 1021 61 10000 7.2 50 15:59 15.09.2019
1869 Clear 26 1021 69 10000 6.2 40 15:41 15.09.2019
1870 Clear 27 1021 69 10000 6.2 40 15:21 15.09.2019
1871 Clear 27 1022 65 10000 4.6 40 14:58 15.09.2019
1872 Clear 27 1022 65 10000 3.6 30 14:40 15.09.2019
1873 Clear 27 1022 65 10000 3.6 30 14:20 15.09.2019
1874 Clear 27 1023 61 10000 3.6 30 13:47 15.09.2019
1875 Clear 26 1023 69 10000 2.6 10 13:24 15.09.2019
1876 Clear 26 1023 69 10000 2.1 340 12:56 15.09.2019
1877 Clear 26 1023 69 10000 2.1 340 12:38 15.09.2019
1878 Clear 26 1023 69 10000 2.1 340 12:18 15.09.2019
1879 Clear 26 1023 65 10000 1.5 320 11:42 15.09.2019
1880 Clear 25 1023 65 10000 1.5 310 11:22 15.09.2019
1881 Clear 25 1023 65 10000 1.5 310 11:22 15.09.2019
1882 Clear 25 1023 69 10000 2.1 260 10:58 15.09.2019
1883 Clear 25 1023 69 10000 3.1 260 10:40 15.09.2019
1884 Clear 24 1023 69 10000 3.1 260 10:21 15.09.2019
1885 Clear 23 1023 69 10000 1.5 200 09:42 15.09.2019
1886 Clear 23 1023 69 10000 1.5 200 09:20 15.09.2019
1887 Clear 22 1023 77 10000 2.1 190 08:53 15.09.2019
1888 Clear 21 1023 77 10000 1 0 08:30 15.09.2019
1889 Clear 20 1022 82 10000 2.1 180 07:57 15.09.2019
1890 Clear 19 1022 82 10000 1 180 07:39 15.09.2019
1891 Clear 19 1022 82 10000 1 0 06:43 15.09.2019
1892 Clear 19 1022 77 10000 2.1 180 04:38 15.09.2019
1893 Clear 20 1022 78 10000 3.1 70 03:18 15.09.2019
1894 Clear 20 1022 69 10000 3.1 100 01:58 15.09.2019
1895 Clear 20 1022 69 10000 3.1 100 01:58 15.09.2019
1896 Clear 21 1022 73 10000 5.1 70 01:35 15.09.2019
1897 Clear 21 1022 73 10000 4.6 70 00:56 15.09.2019
1898 Clear 21 1023 73 10000 3.6 70 00:36 15.09.2019
1899 Clear 21 1023 73 10000 3.6 70 00:18 15.09.2019
1900 Clear 21 1023 73 10000 3.6 70 23:54 14.09.2019
1901 Clear 21 1023 73 10000 3.6 70 23:54 14.09.2019
1902 Clear 21 1023 73 10000 3.6 70 23:36 14.09.2019
1903 Clear 21 1023 73 10000 3.6 70 23:18 14.09.2019
1904 Clear 22 1023 73 10000 3.6 70 22:55 14.09.2019
1905 Clear 22 1023 73 10000 3.6 60 22:36 14.09.2019
1906 Clear 22 1023 73 10000 3.6 60 22:18 14.09.2019
1907 Clear 22 1023 78 10000 4.1 70 21:40 14.09.2019
1908 Clear 22 1023 78 10000 4.1 70 21:20 14.09.2019
1909 Clear 22 1023 73 10000 4.1 50 20:57 14.09.2019
1910 Clear 22 1022 73 10000 4.1 50 20:38 14.09.2019
1911 Clear 23 1022 73 10000 4.1 50 20:20 14.09.2019
1912 Clear 23 1022 73 10000 4.1 50 19:46 14.09.2019
1913 Clear 24 1022 69 10000 5.1 50 19:22 14.09.2019
1914 Clear 25 1022 61 10000 5.7 50 18:57 14.09.2019
1915 Clear 25 1022 65 10000 5.1 40 18:38 14.09.2019
1916 Clear 25 1022 65 10000 5.1 40 18:19 14.09.2019
1917 Clear 26 1022 65 10000 4.6 40 17:44 14.09.2019
1918 Clear 26 1023 65 10000 4.6 30 17:24 14.09.2019
1919 Clear 27 1023 65 10000 4.1 30 16:50 14.09.2019
1920 Clear 27 1023 65 10000 4.6 20 16:29 14.09.2019
1921 Clear 27 1023 65 10000 4.6 20 15:59 14.09.2019
1922 Clear 27 1023 74 10000 4.6 20 15:40 14.09.2019
1923 Clear 27 1023 74 10000 4.6 20 15:22 14.09.2019
1924 Clear 27 1023 74 10000 4.6 20 15:22 14.09.2019
1925 Clear 27 1023 74 10000 4.6 20 15:22 14.09.2019
1926 Clear 27 1024 69 10000 4.1 20 14:45 14.09.2019
1927 Clear 27 1024 74 10000 3.6 10 14:19 14.09.2019
1928 Clear 27 1024 78 10000 3.6 360 13:56 14.09.2019
1929 Clear 27 1024 69 10000 3.6 360 13:37 14.09.2019
1930 Clear 27 1024 69 10000 3.6 360 13:19 14.09.2019
1931 Clear 27 1024 74 10000 3.1 10 12:43 14.09.2019
1932 Clear 26 1024 74 10000 3.1 10 12:20 14.09.2019
1933 Clear 26 1024 73 10000 2.1 260 11:41 14.09.2019
1934 Clear 26 1024 73 10000 2.1 260 11:20 14.09.2019
1935 Clear 25 1024 69 10000 2.1 330 10:40 14.09.2019
1936 Clear 25 1024 69 10000 2.1 330 10:21 14.09.2019
1937 Clear 25 1024 69 10000 1 310 09:58 14.09.2019
1938 Clear 25 1024 69 10000 0.5 0 09:40 14.09.2019
1939 Clear 24 1024 69 10000 0.5 0 09:20 14.09.2019
1940 Clear 23 1024 78 10000 0.5 0 08:48 14.09.2019
1941 Clear 22 1024 77 10000 1 180 08:26 14.09.2019
1942 Clear 21 1023 77 10000 1.5 250 07:49 14.09.2019
1943 Clear 20 1023 77 10000 2.1 180 07:29 14.09.2019
1944 Clear 20 1023 83 10000 2.6 210 06:54 14.09.2019
1945 Clear 20 1023 88 10000 2.6 200 06:31 14.09.2019
1946 Clear 21 1023 64 10000 1 0 05:27 14.09.2019
1947 Clear 21 1023 73 10000 3.1 80 03:53 14.09.2019
1948 Clear 21 1024 73 10000 1.5 110 02:57 14.09.2019
1949 Clear 21 1024 68 10000 2.1 110 02:30 14.09.2019
1950 Clear 22 1024 73 10000 2.6 70 01:44 14.09.2019
1951 Clear 22 1024 69 10000 2.1 80 01:19 14.09.2019
1952 Clear 22 1024 60 10000 4.1 70 00:40 14.09.2019
1953 Clear 22 1024 60 10000 4.1 70 00:21 14.09.2019
1954 Clear 22 1024 60 10000 3.6 70 23:55 13.09.2019
1955 Clear 22 1024 64 10000 3.6 60 23:36 13.09.2019
1956 Clear 22 1024 64 10000 3.6 60 23:18 13.09.2019
1957 Clear 23 1024 69 10000 5.7 70 22:40 13.09.2019
1958 Clear 23 1024 69 10000 5.7 70 22:22 13.09.2019
1959 Clear 23 1024 69 10000 6.7 70 21:58 13.09.2019
1960 Clear 23 1023 65 10000 6.7 70 21:38 13.09.2019
1961 Clear 23 1023 65 10000 6.7 70 21:19 13.09.2019
1962 Clear 23 1023 69 10000 7.2 70 20:57 13.09.2019
1963 Clear 23 1023 69 10000 6.2 60 20:37 13.09.2019
1964 Clear 23 1023 69 10000 6.2 60 20:19 13.09.2019
1965 Clear 24 1023 69 10000 6.7 50 19:44 13.09.2019
1966 Clear 24 1023 65 10000 7.7 50 19:23 13.09.2019
1967 Clear 25 1023 61 10000 8.2 60 18:59 13.09.2019
1968 Clear 25 1023 61 10000 8.2 50 18:38 13.09.2019
1969 Clear 26 1023 61 10000 8.2 50 18:19 13.09.2019
1970 Clear 26 1023 65 10000 8.2 50 17:44 13.09.2019
1971 Clear 26 1023 65 10000 8.2 50 17:22 13.09.2019
1972 Clear 26 1023 69 10000 7.7 50 16:59 13.09.2019
1973 Clear 26 1023 69 10000 8.2 50 16:40 13.09.2019
1974 Clear 26 1023 69 10000 8.2 50 16:19 13.09.2019
1975 Clear 27 1024 69 10000 7.2 40 15:43 13.09.2019
1976 Clear 27 1024 69 10000 7.2 40 15:24 13.09.2019
1977 Clear 27 1024 69 10000 6.7 40 14:56 13.09.2019
1978 Clear 27 1024 74 10000 6.2 40 14:37 13.09.2019
1979 Clear 27 1024 74 10000 6.2 40 14:37 13.09.2019
1980 Clear 27 1024 74 10000 6.2 40 14:37 13.09.2019
1981 Clear 27 1024 74 10000 6.2 40 14:19 13.09.2019
1982 Clear 27 1024 74 10000 5.7 40 13:44 13.09.2019
1983 Clear 27 1024 69 10000 6.2 40 13:22 13.09.2019
1984 Clear 27 1024 69 10000 5.7 40 12:46 13.09.2019
1985 Clear 27 1024 69 10000 6.7 50 12:26 13.09.2019
1986 Clear 26 1024 61 10000 7.2 50 11:57 13.09.2019
1987 Clear 26 1024 65 10000 8.2 60 11:21 13.09.2019
1988 Clear 26 1024 65 10000 7.2 60 10:59 13.09.2019
1989 Clear 26 1024 65 10000 7.7 70 10:37 13.09.2019
1990 Clear 25 1024 65 10000 7.7 70 10:18 13.09.2019
1991 Clear 24 1024 69 10000 5.1 60 09:43 13.09.2019
1992 Clear 24 1024 69 10000 5.1 60 09:23 13.09.2019
1993 Clear 23 1024 69 10000 4.6 70 08:58 13.09.2019
1994 Clear 23 1025 73 10000 3.6 70 08:39 13.09.2019
1995 Clear 22 1025 73 10000 3.6 70 08:20 13.09.2019
1996 Clear 21 1024 73 10000 3.6 80 07:43 13.09.2019
1997 Clouds 21 1024 73 10000 4.6 80 07:24 13.09.2019
1998 Clear 21 1024 83 10000 4.1 70 06:39 13.09.2019
1999 Clear 23 1024 78 10000 3.6 70 05:39 13.09.2019
2000 Clear 22 1024 83 10000 3.1 80 04:39 13.09.2019
2001 Clear 21 1024 78 10000 2.6 60 03:37 13.09.2019
2002 Clear 21 1024 73 10000 4.1 70 02:20 13.09.2019
2003 Clear 21 1024 78 10000 3.1 70 01:38 13.09.2019
2004 Clear 21 1024 78 10000 3.1 70 01:18 13.09.2019
2005 Clear 21 1025 78 10000 2.1 60 00:36 13.09.2019
2006 Clear 22 1025 73 10000 3.1 50 23:54 12.09.2019
2007 Clear 22 1025 73 10000 3.6 60 23:35 12.09.2019
2008 Clear 22 1024 73 10000 4.1 70 22:59 12.09.2019
2009 Clear 22 1025 73 10000 4.1 70 22:40 12.09.2019
2010 Clear 22 1025 73 10000 4.1 70 22:40 12.09.2019
2011 Clear 22 1025 73 10000 4.1 70 22:22 12.09.2019
2012 Clear 22 1024 73 10000 5.1 70 21:56 12.09.2019
2013 Clear 23 1024 73 10000 5.1 70 21:56 12.09.2019
2014 Clear 23 1024 73 10000 6.2 60 21:37 12.09.2019
2015 Clear 23 1024 73 10000 6.2 60 21:19 12.09.2019
2016 Clouds 23 1024 73 10000 5.1 60 20:54 12.09.2019
2017 Clouds 23 1024 73 10000 5.7 60 20:36 12.09.2019
2018 Clouds 23 1024 73 10000 5.7 60 20:18 12.09.2019
2019 Clouds 24 1023 69 10000 5.7 50 19:41 12.09.2019
2020 Clouds 24 1023 69 10000 5.7 50 19:20 12.09.2019
2021 Clouds 24 1024 69 10000 6.2 50 18:57 12.09.2019
2022 Clouds 25 1024 74 10000 6.2 50 18:36 12.09.2019
2023 Clouds 25 1024 74 10000 6.2 50 18:18 12.09.2019
2024 Clouds 25 1024 69 10000 6.2 50 17:41 12.09.2019
2025 Clouds 26 1024 69 10000 6.2 50 17:21 12.09.2019
2026 Clouds 26 1024 65 10000 6.2 40 16:58 12.09.2019
2027 Clouds 26 1024 65 10000 6.2 40 16:40 12.09.2019
2028 Clouds 26 1024 65 10000 6.2 40 16:20 12.09.2019
2029 Clear 26 1024 74 10000 5.1 30 15:42 12.09.2019
2030 Clear 26 1024 74 10000 5.1 30 15:23 12.09.2019
2031 Clear 26 1024 74 10000 5.1 30 15:23 12.09.2019
2032 Clouds 26 1025 69 10000 3.6 20 14:48 12.09.2019
2033 Clouds 27 1025 69 10000 3.6 10 14:23 12.09.2019
2034 Clouds 26 1025 65 10000 3.1 350 13:59 12.09.2019
2035 Clear 26 1025 69 10000 2.6 310 13:39 12.09.2019
2036 Clear 26 1025 69 10000 2.6 310 13:20 12.09.2019
2037 Clouds 26 1025 65 10000 2.6 270 12:48 12.09.2019
2038 Clouds 26 1025 65 10000 2.6 270 12:19 12.09.2019
2039 Clear 26 1025 65 10000 3.1 270 11:58 12.09.2019
2040 Clear 25 1025 65 10000 2.6 260 11:39 12.09.2019
2041 Clear 25 1025 65 10000 2.6 260 11:21 12.09.2019
2042 Clear 25 1025 65 10000 2.6 250 10:48 12.09.2019
2043 Clear 24 1024 69 10000 2.1 250 10:26 12.09.2019
2044 Clear 24 1023 69 10000 3.1 210 09:56 12.09.2019
2045 Clear 24 1023 69 10000 3.1 210 09:38 12.09.2019
2046 Clear 23 1023 69 10000 2.6 210 09:18 12.09.2019
2047 Clear 24 1023 69 10000 3.1 210 09:18 12.09.2019
2048 Clear 23 1023 69 10000 2.6 210 08:43 12.09.2019
2049 Clear 22 1023 73 10000 2.6 190 08:23 12.09.2019
2050 Clear 21 1023 77 10000 2.6 190 07:46 12.09.2019
2051 Clear 20 1022 77 10000 2.1 180 07:20 12.09.2019
2052 Clear 20 1022 77 10000 2.6 200 06:52 12.09.2019
2053 Clear 20 1021 68 10000 0.5 0 06:32 12.09.2019
2054 Clear 20 1021 73 10000 1 180 05:53 12.09.2019
2055 Clear 20 1021 77 10000 1 130 05:35 12.09.2019
2056 Clear 20 1020 73 10000 0.5 0 04:42 12.09.2019
2057 Clear 21 1020 73 10000 1.5 110 03:23 12.09.2019
2058 Clear 21 1020 73 10000 1.5 140 01:43 12.09.2019
2059 Clear 21 1020 73 10000 1.5 140 01:21 12.09.2019
2060 Clear 21 1020 64 10000 1 0 00:45 12.09.2019
2061 Clear 21 1020 73 10000 1 0 00:27 12.09.2019
2062 Clear 22 1019 69 10000 3.6 60 23:43 11.09.2019
2063 Clear 22 1019 69 10000 3.6 60 23:25 11.09.2019
2064 Clear 22 1019 69 10000 4.1 70 22:57 11.09.2019
2065 Clouds 22 1019 73 10000 3.6 70 22:38 11.09.2019
2066 Clouds 22 1019 73 10000 3.6 70 22:19 11.09.2019
2067 Clouds 22 1019 69 10000 5.1 80 21:57 11.09.2019
2068 Clouds 22 1019 73 10000 5.7 60 21:38 11.09.2019
2069 Clouds 22 1019 73 10000 5.7 60 21:38 11.09.2019
2070 Clouds 22 1019 73 10000 5.7 60 21:19 11.09.2019
2071 Clear 22 1018 69 10000 5.1 60 20:54 11.09.2019
2072 Clouds 22 1018 73 10000 4.6 50 20:36 11.09.2019
2073 Clouds 23 1018 73 10000 4.6 50 20:18 11.09.2019
2074 Clouds 23 1018 69 10000 4.6 50 19:54 11.09.2019
2075 Clouds 23 1018 65 10000 4.6 50 19:36 11.09.2019
2076 Clouds 24 1018 65 10000 4.6 50 19:18 11.09.2019
2077 Clouds 25 1018 69 10000 4.6 30 18:41 11.09.2019
2078 Clouds 25 1018 69 10000 4.6 30 18:22 11.09.2019
2079 Clouds 25 1018 65 10000 4.1 20 17:58 11.09.2019
2080 Clouds 25 1018 65 10000 4.1 20 17:58 11.09.2019
2081 Clouds 25 1018 61 10000 4.6 20 17:39 11.09.2019
2082 Clouds 25 1018 61 10000 4.6 20 17:20 11.09.2019
2083 Clouds 24 1017 65 10000 4.1 20 16:54 11.09.2019
2084 Clouds 24 1017 65 10000 4.1 20 16:54 11.09.2019
2085 Clouds 24 1017 65 10000 4.1 30 16:36 11.09.2019
2086 Clouds 25 1017 65 10000 4.1 30 16:18 11.09.2019
2087 Clouds 25 1017 65 10000 3.1 340 15:43 11.09.2019
2088 Clouds 25 1017 65 10000 3.1 340 15:20 11.09.2019
2089 Clouds 25 1017 61 10000 3.1 360 14:57 11.09.2019
2090 Clouds 25 1017 69 10000 3.1 340 14:37 11.09.2019
2091 Clouds 26 1017 69 10000 3.1 340 14:18 11.09.2019
2092 Clouds 26 1016 69 10000 3.1 350 13:40 11.09.2019
2093 Clouds 26 1016 69 10000 2.6 360 13:22 11.09.2019
2094 Clouds 26 1016 69 10000 2.6 360 12:59 11.09.2019
2095 Clouds 26 1016 73 10000 2.6 320 12:40 11.09.2019
2096 Clear 26 1016 69 10000 2.1 310 12:20 11.09.2019
2097 Clear 25 1016 69 10000 1 0 11:41 11.09.2019
2098 Clear 25 1016 69 10000 1 0 11:22 11.09.2019
2099 Clear 25 1016 69 10000 1.5 270 10:59 11.09.2019
2100 Clear 25 1015 69 10000 2.6 250 10:40 11.09.2019
2101 Clear 25 1015 69 10000 2.6 250 10:21 11.09.2019
2102 Clear 24 1014 78 10000 2.1 210 09:40 11.09.2019
2103 Clear 23 1014 78 10000 2.1 210 09:20 11.09.2019
2104 Clear 22 1014 83 10000 2.6 180 08:59 11.09.2019
2105 Clear 22 1014 83 10000 1.5 180 08:39 11.09.2019
2106 Clear 22 1014 83 10000 1.5 180 08:20 11.09.2019
2107 Clear 20 1013 77 10000 2.1 100 07:43 11.09.2019
2108 Clouds 20 1013 77 10000 2.6 90 07:23 11.09.2019
2109 Clouds 20 1013 77 10000 2.6 90 06:50 11.09.2019
2110 Clouds 20 1013 77 10000 2.6 90 06:50 11.09.2019
2111 Clouds 20 1012 83 10000 2.1 70 06:32 11.09.2019
2112 Clouds 20 1012 83 10000 1 0 05:46 11.09.2019
2113 Clouds 21 1012 83 10000 1 0 05:28 11.09.2019
2114 Clouds 20 1012 83 10000 0.5 0 04:46 11.09.2019
2115 Clouds 20 1013 83 10000 3.1 210 03:33 11.09.2019
2116 Clouds 20 1012 83 10000 2.1 200 02:49 11.09.2019
2117 Rain 20 1013 83 10000 2.1 170 02:20 11.09.2019
2118 Clouds 20 1012 83 10000 2.1 130 00:52 11.09.2019
2119 Clouds 20 1012 78 10000 3.6 60 00:26 11.09.2019
2120 Clouds 20 1012 78 10000 3.6 60 23:56 10.09.2019
2121 Clouds 20 1012 88 10000 1.5 100 23:38 10.09.2019
2122 Clouds 20 1012 88 10000 1.5 100 23:20 10.09.2019
2123 Clouds 20 1012 83 10000 1.5 210 22:41 10.09.2019
2124 Clouds 20 1012 83 10000 1.5 210 22:20 10.09.2019
2125 Clouds 20 1012 73 10000 1 0 21:56 10.09.2019
2126 Clouds 20 1012 83 10000 2.1 180 21:38 10.09.2019
2127 Clouds 20 1012 83 10000 2.1 180 21:20 10.09.2019
2128 Thunderstorm 21 1012 88 10000 2.1 180 20:58 10.09.2019
2129 Thunderstorm 21 1011 88 10000 1 0 20:40 10.09.2019
2130 Thunderstorm 21 1011 88 10000 1 0 20:22 10.09.2019
2131 Thunderstorm 20 1011 88 10000 3.1 210 19:57 10.09.2019
2132 Thunderstorm 20 1011 83 10000 2.6 250 19:38 10.09.2019
2133 Thunderstorm 20 1011 83 10000 2.6 250 19:19 10.09.2019
2134 Thunderstorm 21 1011 78 10000 3.1 40 18:58 10.09.2019
2135 Thunderstorm 21 1011 78 10000 6.2 220 18:39 10.09.2019
2136 Thunderstorm 21 1011 78 10000 6.2 220 18:21 10.09.2019
2137 Thunderstorm 21 1010 69 10000 5.7 80 17:54 10.09.2019
2138 Thunderstorm 21 1011 65 10000 7.2 100 17:36 10.09.2019
2139 Thunderstorm 21 1011 65 10000 7.2 100 17:18 10.09.2019
2140 Rain 22 1011 65 10000 6.7 100 16:55 10.09.2019
2141 Rain 22 1011 73 10000 5.1 90 16:36 10.09.2019
2142 Clouds 23 1011 73 10000 5.1 90 16:18 10.09.2019
2143 Thunderstorm 23 1011 65 10000 8.7 80 15:42 10.09.2019
2144 Thunderstorm 24 1011 65 10000 8.7 80 15:21 10.09.2019
2145 Rain 24 1011 65 10000 9.3 70 14:42 10.09.2019
2146 Rain 25 1011 57 10000 8.2 60 14:24 10.09.2019
2147 Clouds 25 1012 57 10000 8.2 70 13:59 10.09.2019
2148 Clouds 25 1012 57 10000 6.2 60 13:40 10.09.2019
2149 Clouds 25 1012 57 10000 6.2 60 13:22 10.09.2019
2150 Clouds 25 1012 61 10000 6.2 70 12:49 10.09.2019
2151 Clouds 26 1013 61 10000 6.7 70 12:27 10.09.2019
2152 Clouds 25 1013 57 10000 5.1 60 11:57 10.09.2019
2153 Clouds 24 1013 69 10000 2.1 280 11:39 10.09.2019
2154 Clouds 24 1013 69 10000 2.1 280 11:20 10.09.2019
2155 Clouds 24 1014 69 10000 1.5 250 10:42 10.09.2019
2156 Clouds 23 1014 69 10000 2.1 260 10:19 10.09.2019
2157 Clouds 23 1014 69 10000 2.1 260 09:56 10.09.2019
2158 Clouds 23 1013 69 10000 2.1 220 09:38 10.09.2019
2159 Clouds 22 1014 73 10000 1.5 260 09:19 10.09.2019
2160 Clouds 22 1014 73 10000 1.5 260 09:19 10.09.2019
2161 Clouds 22 1013 73 10000 1 0 08:45 10.09.2019
2162 Clouds 21 1013 73 10000 1 0 08:26 10.09.2019
2163 Clouds 21 1013 73 10000 3.6 220 07:46 10.09.2019
2164 Clear 21 1013 78 10000 1.5 0 07:27 10.09.2019
2165 Clear 21 1013 78 10000 1.5 0 06:56 10.09.2019
2166 Clear 21 1013 69 10000 2.6 0 06:36 10.09.2019
2167 Clear 20 1014 69 10000 4.1 100 05:48 10.09.2019
2168 Clear 20 1014 69 10000 1 0 03:58 10.09.2019
2169 Clear 21 1015 64 10000 0.5 0 02:24 10.09.2019
2170 Clear 21 1015 64 10000 0.5 0 02:24 10.09.2019
2171 Clear 21 1016 64 10000 3.1 130 01:59 10.09.2019
2172 Clear 21 1016 64 10000 3.1 130 01:59 10.09.2019
2173 Clear 21 1016 64 10000 3.1 130 01:59 10.09.2019
2174 Clear 21 1015 69 10000 4.6 70 01:41 10.09.2019
2175 Clear 21 1015 69 10000 4.6 70 01:21 10.09.2019
2176 Clear 21 1016 64 10000 4.1 80 00:28 10.09.2019
2177 Clear 21 1016 64 10000 4.1 80 23:48 09.09.2019
2178 Clear 21 1016 60 10000 4.6 90 23:20 09.09.2019
2179 Clear 21 1016 60 10000 4.6 90 23:20 09.09.2019
2180 Clear 21 1016 60 10000 4.1 80 22:57 09.09.2019
2181 Clear 21 1016 60 10000 4.6 80 22:39 09.09.2019
2182 Clear 21 1016 60 10000 4.6 80 22:21 09.09.2019
2183 Clear 21 1016 60 10000 4.6 80 21:58 09.09.2019
2184 Clear 21 1016 60 10000 4.6 70 21:40 09.09.2019
2185 Clear 21 1016 60 10000 4.6 70 21:21 09.09.2019
2186 Clouds 22 1015 60 10000 5.1 60 20:57 09.09.2019
2187 Clouds 22 1015 60 10000 5.1 60 20:37 09.09.2019
2188 Clouds 22 1015 57 10000 5.7 50 20:19 09.09.2019
2189 Clouds 22 1015 57 10000 5.7 50 19:59 09.09.2019
2190 Clouds 22 1015 61 10000 5.7 50 19:39 09.09.2019
2191 Clouds 23 1015 61 10000 5.7 40 19:20 09.09.2019
2192 Clouds 23 1015 61 10000 5.7 40 18:58 09.09.2019
2193 Clouds 23 1015 57 10000 4.6 40 18:40 09.09.2019
2194 Clouds 24 1015 57 10000 4.1 40 18:22 09.09.2019
2195 Clouds 24 1015 57 10000 4.1 40 17:59 09.09.2019
2196 Clouds 24 1015 57 10000 4.1 40 17:59 09.09.2019
2197 Clouds 24 1015 57 10000 3.6 40 17:40 09.09.2019
2198 Clouds 24 1015 57 10000 3.6 40 17:21 09.09.2019
2199 Clouds 24 1016 61 10000 3.6 30 16:57 09.09.2019
2200 Clouds 24 1016 61 10000 3.1 10 16:38 09.09.2019
2201 Clouds 24 1016 61 10000 3.1 10 16:38 09.09.2019
2202 Clouds 24 1016 57 10000 2.6 360 16:20 09.09.2019
2203 Clouds 25 1016 57 10000 2.6 360 15:56 09.09.2019
2204 Clouds 25 1016 57 10000 2.6 360 15:56 09.09.2019
2205 Clouds 25 1016 65 10000 2.6 350 15:37 09.09.2019
2206 Clouds 25 1016 65 10000 2.6 350 15:18 09.09.2019
2207 Clouds 25 1016 65 10000 4.1 310 14:57 09.09.2019
2208 Clouds 25 1016 65 10000 3.1 290 14:38 09.09.2019
2209 Clouds 25 1016 65 10000 3.1 290 14:19 09.09.2019
2210 Rain 25 1016 65 10000 3.6 260 13:44 09.09.2019
2211 Rain 25 1016 65 10000 3.6 260 13:21 09.09.2019
2212 Rain 25 1016 61 10000 4.6 220 12:58 09.09.2019
2213 Rain 25 1016 61 10000 4.6 220 12:58 09.09.2019
2214 Clouds 25 1016 61 10000 4.1 220 12:40 09.09.2019
2215 Clouds 25 1016 61 10000 4.6 220 12:20 09.09.2019
2216 Clouds 25 1016 61 10000 4.6 220 11:48 09.09.2019
2217 Clouds 24 1016 61 10000 4.6 220 11:23 09.09.2019
2218 Clouds 24 1016 61 10000 4.6 210 10:59 09.09.2019
2219 Clouds 23 1016 64 10000 4.6 210 10:41 09.09.2019
2220 Clouds 23 1016 64 10000 4.6 210 10:21 09.09.2019
2221 Clouds 23 1015 69 10000 3.1 180 09:57 09.09.2019
2222 Clouds 22 1016 69 10000 3.1 180 09:38 09.09.2019
2223 Clouds 22 1016 69 10000 3.1 180 09:19 09.09.2019
2224 Clouds 21 1016 73 10000 3.6 210 08:39 09.09.2019
2225 Clouds 20 1016 68 10000 2.6 180 08:20 09.09.2019
2226 -273 0 0 0 0 0 08:20 09.09.2019
2227 Clouds 20 1016 68 10000 2.6 180 07:47 09.09.2019
2228 Clouds 20 1015 77 10000 4.1 200 07:23 09.09.2019
2229 Clear 20 1015 78 10000 6.7 230 06:58 09.09.2019
2230 Clear 19 1014 78 10000 5.1 230 06:36 09.09.2019
2231 Clear 19 1015 68 10000 2.1 230 04:56 09.09.2019
2232 Clear 19 1015 68 10000 2.1 230 04:56 09.09.2019
2233 Rain 19 1017 73 10000 8.7 200 02:59 09.09.2019
2234 Rain 20 1017 60 10000 6.7 210 02:38 09.09.2019
2235 Clear 21 1016 44 10000 3.6 210 00:46 09.09.2019
2236 Clear 21 1016 44 10000 3.6 210 00:22 09.09.2019
2237 Clear 20 1016 73 10000 2.6 160 23:46 08.09.2019
2238 Clear 20 1016 73 10000 2.6 160 23:24 08.09.2019
2239 Clear 20 1016 69 10000 3.6 260 22:57 08.09.2019
2240 Clear 21 1016 69 10000 3.1 270 22:38 08.09.2019
2241 Clear 21 1016 69 10000 3.1 270 22:20 08.09.2019
2242 Clear 21 1017 69 10000 5.1 280 21:42 08.09.2019
2243 Clear 21 1017 69 10000 5.1 280 21:23 08.09.2019
2244 Clear 21 1016 69 10000 6.7 270 20:59 08.09.2019
2245 Clear 21 1016 69 10000 5.7 280 20:40 08.09.2019
2246 Clear 21 1016 69 10000 5.7 280 20:22 08.09.2019
2247 Clear 22 1016 69 10000 6.2 290 19:59 08.09.2019
2248 Clear 22 1016 69 10000 6.7 290 19:38 08.09.2019
2249 Clear 22 1016 69 10000 6.7 290 19:20 08.09.2019
2250 Clear 23 1015 69 10000 8.7 290 18:57 08.09.2019
2251 Clear 23 1015 69 10000 9.3 290 18:38 08.09.2019
2252 Clear 23 1015 73 10000 9.3 290 18:19 08.09.2019
2253 Clear 23 1015 73 10000 9.3 290 17:56 08.09.2019
2254 Clear 23 1015 73 10000 9.3 290 17:56 08.09.2019
2255 Clear 24 1015 69 10000 8.2 290 17:36 08.09.2019
2256 Clear 24 1015 69 10000 8.2 290 17:18 08.09.2019
2257 Clear 24 1016 69 10000 8.2 280 16:44 08.09.2019
2258 Clear 24 1016 69 10000 6.7 280 16:22 08.09.2019
2259 Clear 24 1016 69 10000 6.7 280 15:59 08.09.2019
2260 Clear 24 1016 69 10000 7.2 280 15:41 08.09.2019
2261 Clear 25 1016 65 10000 6.7 280 15:21 08.09.2019
2262 Clear 25 1016 65 10000 6.7 280 14:57 08.09.2019
2263 Clear 25 1016 65 10000 6.2 280 14:39 08.09.2019
2264 Clear 25 1016 65 10000 6.2 280 14:20 08.09.2019
2265 Clear 25 1016 61 10000 5.1 290 13:56 08.09.2019
2266 Clear 25 1016 57 10000 4.6 260 13:37 08.09.2019
2267 Clear 25 1016 57 10000 4.1 230 13:19 08.09.2019
2268 Clear 26 1017 53 10000 4.6 220 12:42 08.09.2019
2269 Clear 26 1017 53 10000 4.6 220 12:42 08.09.2019
2270 Clear 24 1017 53 10000 4.6 220 12:23 08.09.2019
2271 Clear 24 1017 57 10000 6.2 240 11:58 08.09.2019
2272 Clouds 24 1017 64 10000 5.7 240 11:40 08.09.2019
2273 Clouds 23 1017 64 10000 5.7 240 11:20 08.09.2019
2274 Clouds 23 1016 60 10000 6.2 210 10:58 08.09.2019
2275 Clear 23 1016 57 10000 5.7 190 10:40 08.09.2019
2276 Clear 23 1016 57 10000 5.7 190 10:21 08.09.2019
2277 Clear 21 1016 60 10000 5.7 200 09:39 08.09.2019
2278 Clear 20 1016 60 10000 5.7 200 09:21 08.09.2019
2279 Clear 20 1016 60 10000 5.1 200 08:57 08.09.2019
2280 Clear 20 1016 64 10000 4.1 190 08:38 08.09.2019
2281 Clear 19 1016 64 10000 4.1 170 08:18 08.09.2019
2282 Clear 20 1016 68 10000 4.1 170 07:40 08.09.2019
2283 Clear 19 1016 68 10000 4.6 190 07:21 08.09.2019
2284 Clear 18 1016 68 10000 4.6 190 06:53 08.09.2019
2285 Clear 18 1016 68 10000 4.6 190 06:53 08.09.2019
2286 Clear 18 1016 68 10000 4.1 190 06:33 08.09.2019
2287 Clear 17 993 81 0 2.74 175.98 05:38 08.09.2019
2288 Clear 18 1016 68 10000 3.6 190 04:26 08.09.2019
2289 Clear 18 1016 68 10000 3.6 180 02:59 08.09.2019
2290 Clear 18 1016 72 10000 3.1 180 02:29 08.09.2019
2291 Clear 18 1017 68 10000 4.1 180 01:52 08.09.2019
2292 Clear 18 1017 68 10000 3.1 170 01:23 08.09.2019
2293 Clouds 18 1016 68 10000 3.1 170 00:46 08.09.2019
2294 Clouds 19 1016 68 10000 3.1 170 00:27 08.09.2019
2295 Clear 19 1017 60 10000 4.6 250 23:39 07.09.2019
2296 Clear 19 1017 60 10000 4.6 250 23:21 07.09.2019
2297 Clouds 19 1017 57 10000 5.1 260 22:58 07.09.2019
2298 Clouds 20 1017 60 10000 6.2 270 22:40 07.09.2019
2299 Clouds 20 1017 60 10000 6.2 270 22:22 07.09.2019
2300 Clouds 21 1016 60 10000 6.2 270 21:45 07.09.2019
2301 Clouds 21 1016 60 10000 6.2 270 21:26 07.09.2019
2302 Clouds 21 1016 60 10000 6.7 270 20:59 07.09.2019
2303 Clouds 21 1016 60 10000 6.2 270 20:39 07.09.2019
2304 Clouds 21 1016 60 10000 6.7 270 20:20 07.09.2019
2305 Clouds 21 1016 60 10000 6.7 270 19:55 07.09.2019
2306 Clouds 22 1016 60 10000 7.2 270 19:37 07.09.2019
2307 Clouds 22 1016 60 10000 7.2 270 19:19 07.09.2019
2308 Clouds 22 1016 60 10000 7.2 280 18:56 07.09.2019
2309 Clouds 23 1016 60 10000 6.7 280 18:37 07.09.2019
2310 Clouds 23 1016 60 10000 7.2 270 18:18 07.09.2019
2311 Clouds 24 1016 60 10000 7.2 270 17:56 07.09.2019
2312 Clouds 24 1016 64 10000 7.7 270 17:38 07.09.2019
2313 Clouds 24 1016 64 10000 7.7 270 17:38 07.09.2019
2314 Clouds 24 1016 64 10000 7.7 270 17:18 07.09.2019
2315 Clouds 24 1016 60 10000 8.2 280 16:43 07.09.2019
2316 Clouds 24 1016 60 10000 8.2 280 16:43 07.09.2019
2317 Clouds 24 1016 60 10000 8.2 280 16:23 07.09.2019
2318 Clouds 24 1016 60 10000 8.2 270 15:58 07.09.2019
2319 Clouds 24 1016 61 10000 7.2 280 15:39 07.09.2019
2320 Clouds 25 1016 61 10000 7.2 280 15:21 07.09.2019
2321 Clouds 25 1016 57 10000 7.2 280 14:55 07.09.2019
2322 Clouds 25 1016 57 10000 7.2 280 14:55 07.09.2019
2323 Clouds 25 1016 57 10000 7.2 280 14:55 07.09.2019
2324 Clouds 25 1016 60 10000 7.7 280 14:36 07.09.2019
2325 Clouds 25 1016 60 10000 7.2 270 14:18 07.09.2019
2326 Clouds 25 1016 60 10000 7.2 270 13:44 07.09.2019
2327 Clouds 25 1016 60 10000 7.2 270 13:25 07.09.2019
2328 Clouds 24 1016 64 10000 5.1 250 12:54 07.09.2019
2329 Clouds 25 1016 53 10000 4.1 220 12:36 07.09.2019
2330 Clouds 24 1016 53 10000 4.1 220 12:18 07.09.2019
2331 Clouds 23 1016 60 10000 4.6 240 11:40 07.09.2019
2332 Clouds 23 1016 60 10000 4.6 240 11:21 07.09.2019
2333 Clouds 23 1016 57 10000 5.7 190 10:41 07.09.2019
2334 Clouds 23 1016 57 10000 5.7 190 10:23 07.09.2019
2335 Clouds 22 1016 56 10000 5.1 190 09:59 07.09.2019
2336 Clouds 23 1016 56 10000 5.1 190 09:40 07.09.2019
2337 Clouds 21 1016 56 10000 5.1 190 09:21 07.09.2019
2338 Clouds 21 1016 60 10000 4.6 180 08:49 07.09.2019
2339 Clouds 21 1015 64 10000 5.7 190 08:30 07.09.2019
2340 Clouds 19 1015 68 10000 4.6 190 07:57 07.09.2019
2341 Clear 19 1015 73 10000 4.6 200 07:38 07.09.2019
2342 Clear 19 1015 73 10000 4.6 200 07:20 07.09.2019
2343 Clouds 19 1015 68 10000 5.1 200 06:42 07.09.2019
2344 Clouds 19 1014 68 10000 5.1 190 05:39 07.09.2019
2345 Clouds 19 1015 77 10000 3.1 170 04:26 07.09.2019
2346 Clouds 19 1015 73 10000 3.6 170 03:31 07.09.2019
2347 Clouds 20 1015 73 10000 3.6 200 02:22 07.09.2019
2348 Clouds 20 1015 78 10000 4.6 200 01:27 07.09.2019
2349 Clouds 20 1015 78 10000 4.6 200 01:27 07.09.2019
2350 Clouds 20 1015 65 10000 5.1 270 00:52 07.09.2019
2351 Clouds 20 1015 65 10000 5.1 270 00:23 07.09.2019
2352 Clouds 21 1015 65 10000 5.1 270 23:57 06.09.2019
2353 Clouds 21 1015 65 10000 5.7 280 23:37 06.09.2019
2354 Clouds 21 1015 65 10000 5.7 270 23:19 06.09.2019
2355 Clouds 21 1015 65 10000 5.7 270 23:19 06.09.2019
2356 Clouds 21 1015 65 10000 5.7 270 22:55 06.09.2019
2357 Clouds 21 1015 69 10000 6.2 280 22:36 06.09.2019
2358 Clouds 22 1015 73 10000 6.2 280 22:18 06.09.2019
2359 Clouds 22 1015 73 10000 6.2 280 21:54 06.09.2019
2360 Clouds 22 1015 73 10000 6.2 290 21:36 06.09.2019
2361 Clouds 22 1015 78 10000 6.2 290 21:18 06.09.2019
2362 Clouds 22 1014 69 10000 4.6 280 20:41 06.09.2019
2363 Clouds 22 1014 69 10000 4.6 280 20:22 06.09.2019
2364 Clouds 23 1014 69 10000 5.1 280 19:59 06.09.2019
2365 Clouds 23 1014 65 10000 4.6 290 19:41 06.09.2019
2366 Clouds 23 1014 65 10000 4.6 290 19:41 06.09.2019
2367 Clouds 23 1014 61 10000 4.1 280 19:21 06.09.2019
2368 Clouds 24 1014 69 10000 3.6 290 18:55 06.09.2019
2369 Clouds 25 1014 69 10000 3.6 290 18:37 06.09.2019
2370 Clouds 25 1014 69 10000 3.6 290 18:37 06.09.2019
2371 Clouds 25 1014 74 10000 3.6 300 18:18 06.09.2019
2372 Clouds 24 1014 69 10000 4.1 300 17:39 06.09.2019
2373 Clouds 24 1014 69 10000 4.1 300 17:20 06.09.2019
2374 Clouds 24 1014 69 10000 3.1 310 16:43 06.09.2019
2375 Clouds 25 1014 69 10000 3.1 310 16:20 06.09.2019
2376 Clouds 24 1014 74 10000 3.6 320 15:59 06.09.2019
2377 Clouds 25 1014 69 10000 3.1 330 15:41 06.09.2019
2378 Clouds 25 1014 69 10000 3.1 330 15:22 06.09.2019
2379 Clouds 26 1014 69 10000 3.1 340 14:47 06.09.2019
2380 Clouds 25 1014 74 10000 2.6 320 14:19 06.09.2019
2381 Clouds 26 1014 74 10000 2.1 320 13:44 06.09.2019
2382 Clouds 26 1014 74 10000 2.1 320 13:44 06.09.2019
2383 Clouds 26 1014 74 10000 2.1 320 13:23 06.09.2019
2384 Clouds 26 1014 74 10000 2.6 320 12:58 06.09.2019
2385 Clouds 26 1014 74 10000 2.1 280 12:37 06.09.2019
2386 Clouds 25 1014 74 10000 2.1 270 12:18 06.09.2019
2387 Clouds 25 1014 78 10000 2.6 250 11:41 06.09.2019
2388 Clouds 25 1014 78 10000 2.6 250 11:23 06.09.2019
2389 Clouds 25 1014 78 10000 3.1 230 10:57 06.09.2019
2390 Clouds 25 1014 78 10000 4.1 250 10:39 06.09.2019
2391 Clouds 25 1013 73 10000 2.1 200 10:18 06.09.2019
2392 Clouds 24 1013 78 10000 2.1 210 09:40 06.09.2019
2393 Clouds 23 1013 78 10000 2.1 210 09:20 06.09.2019
2394 Clouds 22 1013 88 10000 1.5 230 08:56 06.09.2019
2395 Clouds 22 1013 88 10000 2.1 180 08:38 06.09.2019
2396 Clouds 22 1013 88 10000 2.1 180 08:20 06.09.2019
2397 Clouds 21 1012 83 10000 1.5 210 07:45 06.09.2019
2398 Clouds 20 1012 83 10000 1.5 210 07:26 06.09.2019
2399 Clouds 20 1012 94 10000 2.1 190 06:54 06.09.2019
2400 Clear 20 1012 88 10000 2.1 160 05:58 06.09.2019
2401 Clouds 20 1012 88 10000 2.1 160 05:27 06.09.2019
2402 Clouds 20 1012 88 10000 3.1 210 04:41 06.09.2019
2403 Clouds 20 1012 88 10000 2.1 190 03:42 06.09.2019
2404 Rain 21 1012 94 8000 1.5 220 01:51 06.09.2019
2405 Thunderstorm 21 1012 78 9000 3.1 100 00:38 06.09.2019
2406 Thunderstorm 21 1012 73 10000 2.1 150 23:44 05.09.2019
2407 -273 0 0 0 0 0 23:25 05.09.2019
2408 Thunderstorm 21 1012 73 10000 1 0 22:55 05.09.2019
2409 Thunderstorm 21 1012 73 10000 1 0 22:55 05.09.2019
2410 Thunderstorm 22 1012 69 10000 1.5 80 22:37 05.09.2019
2411 Clouds 22 1012 69 10000 1.5 90 22:19 05.09.2019
2412 Clouds 22 1012 69 10000 1.5 90 21:56 05.09.2019
2413 Clouds 22 1012 69 10000 2.6 80 21:37 05.09.2019
2414 Clouds 22 1011 69 10000 3.1 50 21:19 05.09.2019
2415 Clouds 22 1011 69 10000 3.1 50 20:55 05.09.2019
2416 Clouds 22 1011 69 10000 3.6 50 20:36 05.09.2019
2417 Clouds 22 1011 69 10000 3.6 50 20:18 05.09.2019
2418 Clouds 23 1011 69 10000 4.1 40 19:42 05.09.2019
2419 Clouds 23 1011 69 10000 4.1 40 19:23 05.09.2019
2420 Clouds 24 1009 69 10000 4.6 40 18:57 05.09.2019
2421 Clouds 24 1011 69 10000 4.6 30 18:39 05.09.2019
2422 Clouds 24 1011 65 10000 3.6 40 18:19 05.09.2019
2423 Clouds 25 1011 74 10000 4.1 30 17:42 05.09.2019
2424 Clouds 24 1011 74 10000 4.1 30 17:23 05.09.2019
2425 Clouds 24 1011 69 10000 3.1 10 16:58 05.09.2019
2426 Clouds 24 1011 69 10000 3.6 20 16:40 05.09.2019
2427 Clouds 24 1011 69 10000 3.6 20 16:20 05.09.2019
2428 Clouds 25 1011 69 10000 3.6 20 15:57 05.09.2019
2429 Clouds 25 1011 74 10000 3.6 30 15:38 05.09.2019
2430 Clouds 26 1011 74 10000 3.1 10 15:18 05.09.2019
2431 Clouds 26 1011 74 10000 3.1 10 15:18 05.09.2019
2432 Clouds 26 1011 69 10000 3.1 10 14:43 05.09.2019
2433 Clouds 25 1011 69 10000 3.1 10 14:21 05.09.2019
2434 Clouds 25 1011 69 10000 2.1 360 13:44 05.09.2019
2435 Clouds 24 1011 69 10000 2.1 360 13:23 05.09.2019
2436 Clouds 25 1011 69 10000 2.6 300 12:59 05.09.2019
2437 Clouds 24 1011 73 10000 2.1 260 12:40 05.09.2019
2438 Clouds 25 1011 73 10000 2.1 260 12:21 05.09.2019
2439 Clouds 25 1011 78 10000 2.6 180 11:44 05.09.2019
2440 Clouds 25 1011 78 10000 2.6 180 11:20 05.09.2019
2441 Clouds 25 1011 69 10000 3.6 70 10:55 05.09.2019
2442 Rain 24 1011 73 10000 3.6 70 10:36 05.09.2019
2443 Clouds 23 1011 78 10000 4.6 80 10:18 05.09.2019
2444 Clouds 23 1011 73 10000 5.1 80 09:40 05.09.2019
2445 Rain 21 1011 94 8000 8.2 90 09:20 05.09.2019
2446 Rain 21 1011 94 8000 8.2 90 08:55 05.09.2019
2447 Rain 21 1010 88 10000 2.6 190 08:37 05.09.2019
2448 Rain 20 1011 94 10000 2.1 180 08:19 05.09.2019
2449 Rain 20 1011 94 10000 2.1 170 07:42 05.09.2019
2450 Clouds 20 1011 94 10000 2.1 170 07:23 05.09.2019
2451 Clouds 20 1011 94 10000 1.5 160 06:44 05.09.2019
2452 Clouds 20 1011 94 10000 1.5 160 06:22 05.09.2019
2453 Clouds 20 1010 88 10000 1.5 160 05:42 05.09.2019
2454 Clouds 20 1010 88 10000 1.5 160 05:23 05.09.2019
2455 Clouds 20 1011 88 10000 4.6 170 04:30 05.09.2019
2456 Rain 20 1011 88 10000 2.6 170 03:46 05.09.2019
2457 Clouds 20 1011 83 10000 2.6 160 02:57 05.09.2019
2458 Clouds 20 1012 88 10000 2.1 170 02:28 05.09.2019
2459 Clouds 20 1012 88 10000 2.1 180 01:54 05.09.2019
2460 Clouds 21 1012 88 10000 2.6 170 00:56 05.09.2019
2461 Clouds 21 1012 88 10000 3.1 150 00:37 05.09.2019
2462 Rain 21 1013 83 9000 4.1 150 00:18 05.09.2019
2463 Thunderstorm 21 1013 83 10000 3.6 230 23:40 04.09.2019
2464 Rain 21 1013 83 10000 3.6 230 23:22 04.09.2019
2465 Rain 21 1012 78 10000 2.6 300 22:47 04.09.2019
2466 Rain 22 1012 78 10000 2.6 300 22:20 04.09.2019
2467 Clouds 22 1012 69 10000 1.5 310 21:57 04.09.2019
2468 Rain 22 1012 69 10000 1.5 320 21:38 04.09.2019
2469 Clouds 22 1012 69 10000 1.5 320 21:19 04.09.2019
2470 Clouds 22 1012 74 10000 1.5 330 20:55 04.09.2019
2471 Clouds 22 1012 74 10000 2.6 350 20:36 04.09.2019
2472 Clouds 23 1012 74 10000 3.1 350 20:18 04.09.2019
2473 Clouds 23 1012 74 10000 3.6 340 19:40 04.09.2019
2474 Clouds 23 1012 74 10000 3.6 340 19:40 04.09.2019
2475 Clouds 23 1012 74 10000 3.6 340 19:21 04.09.2019
2476 Clouds 24 1012 74 10000 3.6 330 18:55 04.09.2019
2477 Clouds 24 1012 69 10000 3.6 340 18:36 04.09.2019
2478 Clouds 24 1012 69 10000 4.1 340 18:18 04.09.2019
2479 Clouds 26 1012 69 10000 4.6 360 17:40 04.09.2019
2480 Clouds 26 1012 69 10000 4.6 360 17:22 04.09.2019
2481 Clouds 25 1012 69 10000 2.6 20 16:56 04.09.2019
2482 Clouds 25 1013 69 10000 2.6 30 16:38 04.09.2019
2483 Clouds 25 1013 69 10000 2.6 30 16:19 04.09.2019
2484 Clouds 25 1013 74 10000 4.6 60 15:40 04.09.2019
2485 Clouds 26 1013 74 10000 4.6 60 15:22 04.09.2019
2486 Clouds 26 1013 74 10000 4.6 60 15:22 04.09.2019
2487 Thunderstorm 26 1013 74 10000 5.7 10 14:58 04.09.2019
2488 Clouds 26 1013 69 10000 3.6 350 14:38 04.09.2019
2489 Clouds 25 1013 69 10000 3.6 350 14:20 04.09.2019
2490 Clouds 26 1013 74 10000 3.1 350 13:58 04.09.2019
2491 Clouds 27 1013 69 10000 2.6 350 13:39 04.09.2019
2492 Clouds 26 1013 69 10000 2.1 340 13:21 04.09.2019
2493 Clouds 27 1013 74 10000 1.5 310 12:44 04.09.2019
2494 Clouds 26 1013 74 10000 1.5 310 12:26 04.09.2019
2495 Clouds 25 1013 74 10000 1.5 300 11:58 04.09.2019
2496 Clouds 25 1013 74 10000 1.5 290 11:38 04.09.2019
2497 Clouds 25 1013 74 10000 1 0 11:19 04.09.2019
2498 Clouds 24 1013 74 10000 1 260 10:56 04.09.2019
2499 Clouds 24 1013 74 10000 1 260 10:36 04.09.2019
2500 Clouds 24 1013 74 10000 1 260 10:18 04.09.2019
2501 Clouds 24 1013 83 10000 2.1 180 09:44 04.09.2019
2502 Clouds 23 1013 83 10000 2.1 180 09:20 04.09.2019
2503 Rain 22 1013 88 10000 3.1 150 08:42 04.09.2019
2504 Rain 22 1013 88 10000 1.5 180 08:24 04.09.2019
2505 Thunderstorm 21 1013 88 10000 1.5 180 07:58 04.09.2019
2506 Thunderstorm 21 1013 88 2000 2.6 80 07:35 04.09.2019
2507 Thunderstorm 21 1013 88 10000 1.5 190 06:53 04.09.2019
2508 Thunderstorm 21 1013 83 10000 3.1 130 06:33 04.09.2019
2509 Clouds 21 1013 88 10000 2.1 180 04:54 04.09.2019
2510 Thunderstorm 21 1013 88 10000 2.6 170 04:22 04.09.2019
2511 Thunderstorm 21 1014 83 10000 2.1 190 02:46 04.09.2019
2512 Thunderstorm 22 1015 74 10000 3.6 300 01:18 04.09.2019
2513 Thunderstorm 22 1015 74 10000 4.1 310 00:41 04.09.2019
2514 Rain 22 1015 74 10000 4.1 310 00:22 04.09.2019
2515 Thunderstorm 22 1015 74 10000 4.1 310 00:22 04.09.2019
2516 Rain 21 1015 74 10000 4.1 310 23:48 03.09.2019
2517 Rain 22 1015 78 10000 3.6 300 23:26 03.09.2019
2518 Clouds 22 1015 69 10000 4.1 320 22:43 03.09.2019
2519 Clouds 22 1015 69 10000 4.1 320 22:24 03.09.2019
2520 Clouds 23 1015 69 10000 5.1 320 21:59 03.09.2019
2521 Clouds 23 1015 74 10000 5.1 320 21:38 03.09.2019
2522 Clouds 23 1015 74 10000 5.1 320 21:38 03.09.2019
2523 Clouds 23 1015 74 10000 4.6 320 21:20 03.09.2019
2524 Clouds 23 1015 74 10000 3.6 330 20:57 03.09.2019
2525 Clouds 23 1015 74 10000 3.6 330 20:38 03.09.2019
2526 Clouds 23 1014 74 10000 4.6 310 20:20 03.09.2019
2527 Clouds 23 1014 74 10000 4.6 310 19:55 03.09.2019
2528 Clouds 23 1014 74 10000 4.6 310 19:55 03.09.2019
2529 Clouds 23 1014 74 10000 4.1 320 19:36 03.09.2019
2530 Clouds 24 1015 69 10000 4.1 320 19:18 03.09.2019
2531 Clouds 24 1014 69 10000 5.1 310 18:42 03.09.2019
2532 Clouds 25 1014 69 10000 5.1 310 18:24 03.09.2019
2533 Clouds 25 1014 69 10000 2.1 310 17:56 03.09.2019
2534 Clouds 25 1014 69 10000 2.1 310 17:56 03.09.2019
2535 Clouds 25 1015 69 10000 2.1 330 17:38 03.09.2019
2536 Clouds 25 1015 69 10000 2.6 340 17:19 03.09.2019
2537 Clouds 26 1015 69 10000 3.6 340 16:43 03.09.2019
2538 Clouds 26 1015 74 10000 3.6 10 16:23 03.09.2019
2539 Clouds 26 1015 74 10000 3.6 10 15:59 03.09.2019
2540 Clouds 26 1015 74 10000 4.1 10 15:39 03.09.2019
2541 Clouds 26 1015 74 10000 4.1 10 15:20 03.09.2019
2542 Clouds 26 1015 69 10000 4.6 20 14:57 03.09.2019
2543 Clouds 26 1015 69 10000 4.6 20 14:39 03.09.2019
2544 Clouds 26 1015 69 10000 4.6 20 14:20 03.09.2019
2545 Clouds 26 1015 74 10000 4.1 20 13:56 03.09.2019
2546 Clouds 26 1015 74 10000 4.1 20 13:37 03.09.2019
2547 Clouds 26 1015 74 10000 3.1 20 13:19 03.09.2019
2548 Clouds 25 1015 74 10000 4.1 30 12:48 03.09.2019
2549 Clouds 25 1015 74 10000 4.1 30 12:29 03.09.2019
2550 Rain 24 1015 78 10000 5.1 10 11:58 03.09.2019
2551 Rain 24 1015 74 10000 4.6 30 11:38 03.09.2019
2552 Rain 24 1015 74 10000 4.6 30 11:19 03.09.2019
2553 Rain 24 1015 83 10000 3.6 40 10:54 03.09.2019
2554 Clouds 24 1015 78 10000 6.2 10 10:36 03.09.2019
2555 Clouds 24 1014 74 10000 5.7 20 10:18 03.09.2019
2556 Clouds 24 1015 78 10000 6.2 10 10:18 03.09.2019
2557 Rain 24 1014 74 10000 5.7 20 09:41 03.09.2019
2558 Rain 23 1014 74 10000 5.7 20 09:41 03.09.2019
2559 Rain 23 1014 74 10000 5.7 20 09:23 03.09.2019
2560 Clouds 22 1014 78 10000 5.7 360 08:39 03.09.2019
2561 Clouds 22 1014 78 10000 5.7 360 08:21 03.09.2019
2562 Clouds 22 1014 83 10000 4.6 10 07:57 03.09.2019
2563 Clouds 22 1014 78 10000 5.7 360 07:37 03.09.2019
2564 Clouds 22 1014 78 10000 5.7 360 07:37 03.09.2019
2565 Clouds 22 1013 78 10000 6.2 350 07:18 03.09.2019
2566 Clouds 21 1013 78 10000 5.7 350 06:41 03.09.2019
2567 Clouds 22 1013 74 10000 5.7 320 04:41 03.09.2019
2568 Clouds 21 1013 88 8000 2.6 100 03:33 03.09.2019
2569 Rain 21 1013 78 10000 3.1 190 02:40 03.09.2019
2570 Clouds 21 1013 78 10000 3.1 190 02:22 03.09.2019
2571 Clouds 22 1013 78 10000 3.1 170 01:46 03.09.2019
2572 Clouds 21 1013 78 10000 3.1 170 01:25 03.09.2019
2573 Rain 22 1013 78 10000 2.1 190 00:37 03.09.2019
2574 Clouds 22 1014 83 10000 2.1 180 23:59 02.09.2019
2575 Clouds 21 1014 78 10000 2.1 170 23:38 02.09.2019
2576 Clouds 22 1014 78 10000 2.1 170 23:19 02.09.2019
2577 Clouds 22 1014 78 10000 2.1 170 23:19 02.09.2019
2578 Clouds 21 1014 78 10000 2.1 170 22:56 02.09.2019
2579 Clouds 21 1014 78 10000 1 0 22:37 02.09.2019
2580 Clouds 21 1014 78 10000 1 0 22:19 02.09.2019
2581 Clouds 21 1013 73 10000 2.1 340 21:56 02.09.2019
2582 Clouds 21 1013 78 10000 2.1 20 21:38 02.09.2019
2583 Clouds 21 1013 78 10000 1.5 360 21:19 02.09.2019
2584 Clouds 21 1013 78 10000 1.5 360 20:54 02.09.2019
2585 Clouds 21 1013 78 10000 1.5 360 20:54 02.09.2019
2586 Clouds 21 1013 78 10000 2.1 360 20:36 02.09.2019
2587 Clouds 22 1012 73 10000 2.1 10 20:18 02.09.2019
2588 Clouds 22 1012 73 10000 2.1 10 19:54 02.09.2019
2589 Clouds 22 1012 74 10000 2.1 360 19:36 02.09.2019
2590 Clouds 22 1012 74 10000 2.1 350 19:18 02.09.2019
2591 Clouds 22 1012 69 10000 2.1 330 18:38 02.09.2019
2592 Clouds 22 1012 69 10000 2.1 330 18:38 02.09.2019
2593 Clouds 23 1012 69 10000 1.5 360 18:19 02.09.2019
2594 Clouds 23 1012 74 10000 2.1 340 17:56 02.09.2019
2595 Clouds 23 1012 74 10000 2.1 340 17:37 02.09.2019
2596 Clouds 23 1012 74 10000 2.1 340 17:19 02.09.2019
2597 Clouds 23 1012 74 10000 2.6 30 16:41 02.09.2019
2598 Rain 23 1012 74 10000 2.6 30 16:21 02.09.2019
2599 Clouds 22 1012 74 10000 2.6 20 15:55 02.09.2019
2600 Rain 22 1012 78 10000 4.1 30 15:37 02.09.2019
2601 Rain 23 1012 78 8000 4.1 20 15:18 02.09.2019
2602 Rain 23 1012 78 8000 4.1 20 14:55 02.09.2019
2603 Rain 23 1013 83 8000 4.6 20 14:36 02.09.2019
2604 Rain 24 1012 83 10000 4.6 10 14:18 02.09.2019
2605 Rain 24 1012 88 8000 5.7 10 13:43 02.09.2019
2606 Rain 24 1012 88 8000 5.7 10 13:24 02.09.2019
2607 Rain 25 1012 83 10000 5.1 360 12:47 02.09.2019
2608 Clouds 26 1012 83 10000 5.1 360 12:27 02.09.2019
2609 Clouds 26 1012 73 10000 2.6 270 11:59 02.09.2019
2610 Clouds 26 1012 69 10000 2.6 260 11:41 02.09.2019
2611 Clouds 26 1012 69 10000 2.6 260 11:22 02.09.2019
2612 Clouds 26 1012 69 10000 2.6 260 10:58 02.09.2019
2613 Clouds 26 1012 69 10000 2.1 250 10:39 02.09.2019
2614 Clouds 25 1012 69 10000 2.1 250 10:21 02.09.2019
2615 Clouds 25 1011 69 10000 2.1 240 09:58 02.09.2019
2616 Clouds 25 1011 73 10000 1 0 09:38 02.09.2019
2617 Clear 24 1011 83 10000 3.1 200 09:19 02.09.2019
2618 Clouds 23 1011 78 10000 1 0 08:39 02.09.2019
2619 Clouds 22 1011 78 10000 1 0 08:21 02.09.2019
2620 Clouds 21 1011 73 10000 0.5 0 07:54 02.09.2019
2621 Clouds 21 1011 73 10000 0.5 0 07:54 02.09.2019
2622 Clouds 21 1011 83 10000 1 0 07:36 02.09.2019
2623 Clouds 21 1010 83 10000 2.6 140 07:18 02.09.2019
2624 Clouds 21 1010 83 10000 2.1 190 06:39 02.09.2019
2625 Clouds 21 1010 83 10000 2.1 140 05:53 02.09.2019
2626 Clouds 21 1011 83 10000 2.1 150 05:22 02.09.2019
2627 Clear 21 1011 88 10000 1.5 160 04:47 02.09.2019
2628 Clear 21 1011 83 10000 2.6 60 01:59 02.09.2019
2629 Clear 21 1011 88 10000 2.6 70 01:28 02.09.2019
2630 Clear 21 1011 83 10000 0.5 0 00:36 02.09.2019
2631 Clear 21 1012 83 10000 2.1 110 00:18 02.09.2019
2632 Clear 21 1011 88 10000 1 0 23:39 01.09.2019
2633 Clear 21 1011 88 10000 1 0 23:19 01.09.2019
2634 -273 0 0 0 0 0 22:56 01.09.2019
2635 Clouds 21 1012 88 10000 1.5 120 22:38 01.09.2019
2636 Clouds 22 1012 88 10000 2.1 90 22:18 01.09.2019
2637 Clouds 22 1011 88 7000 2.6 80 21:42 01.09.2019
2638 Clouds 22 1011 88 7000 2.6 80 21:23 01.09.2019
2639 Clouds 22 1011 83 7000 1.5 80 20:58 01.09.2019
2640 Rain 22 1011 83 7000 1.5 210 20:39 01.09.2019
2641 Rain 23 1011 83 7000 1.5 210 20:19 01.09.2019
2642 Rain 23 1010 83 8000 0.5 0 19:59 01.09.2019
2643 Rain 23 1010 83 8000 0.5 0 19:59 01.09.2019
2644 Clouds 23 1010 83 8000 1.5 70 19:40 01.09.2019
2645 Clouds 23 1010 83 8000 1.5 70 19:21 01.09.2019
2646 Clouds 23 1010 88 8000 3.6 60 18:45 01.09.2019
2647 Clouds 23 1010 88 8000 3.6 60 18:27 01.09.2019
2648 Clouds 24 1010 88 7000 4.1 30 17:59 01.09.2019
2649 Clouds 24 1011 94 7000 4.1 350 17:39 01.09.2019
2650 Clouds 24 1011 94 7000 4.1 350 17:39 01.09.2019
2651 Clouds 23 1011 94 7000 4.1 350 17:20 01.09.2019
2652 Clouds 24 1011 73 8000 4.6 50 16:41 01.09.2019
2653 Clouds 24 1011 73 8000 4.6 50 16:41 01.09.2019
2654 Clouds 24 1011 73 8000 4.6 50 16:41 01.09.2019
2655 Clouds 25 1011 73 8000 4.6 50 16:21 01.09.2019
2656 Clouds 25 1011 73 8000 4.1 60 15:59 01.09.2019
2657 Clouds 25 1011 73 8000 4.1 40 15:41 01.09.2019
2658 Clouds 25 1011 73 8000 3.1 30 15:22 01.09.2019
2659 Clouds 25 1012 73 10000 1.5 10 14:44 01.09.2019
2660 Clouds 25 1012 73 10000 1.5 10 14:26 01.09.2019
2661 Clouds 25 1012 73 9000 2.6 50 13:59 01.09.2019
2662 Clouds 25 1012 73 8000 2.6 60 13:40 01.09.2019
2663 Clouds 25 1012 73 8000 2.6 60 13:21 01.09.2019
2664 Rain 23 1012 74 7000 6.2 260 12:44 01.09.2019
2665 Rain 24 1012 74 7000 6.2 260 12:26 01.09.2019
2666 Rain 24 1012 74 7000 6.2 260 12:26 01.09.2019
2667 Rain 24 1012 69 7000 6.7 230 11:57 01.09.2019
2668 Rain 23 1012 69 5000 6.2 230 11:38 01.09.2019
2669 Rain 23 1012 69 5000 6.2 230 11:18 01.09.2019
2670 Clouds 24 1011 69 10000 4.1 230 10:45 01.09.2019
2671 Clouds 24 1011 69 10000 4.1 230 10:23 01.09.2019
2672 Clouds 24 1011 69 9000 3.6 240 09:48 01.09.2019
2673 Clouds 23 1011 69 9000 3.6 240 09:26 01.09.2019
2674 Clouds 23 1011 74 9000 1 0 08:56 01.09.2019
2675 Clouds 23 1010 73 9000 1.5 220 08:38 01.09.2019
2676 Clouds 23 1010 78 9000 2.1 220 08:20 01.09.2019
2677 Clouds 23 1011 78 10000 2.6 210 07:41 01.09.2019
2678 Clouds 23 1011 78 10000 2.6 210 07:20 01.09.2019
2679 Clear 23 1011 73 10000 3.6 220 06:38 01.09.2019
2680 Clear 23 1011 73 10000 3.1 220 05:59 01.09.2019
2681 Clear 22 1011 78 10000 3.1 200 04:43 01.09.2019
2682 Clear 23 1011 78 10000 2.6 230 03:49 01.09.2019
2683 Clear 23 1011 73 10000 1 110 03:30 01.09.2019
2684 Clear 23 1012 73 10000 1 0 02:37 01.09.2019
2685 Clear 23 1012 73 10000 1 0 02:19 01.09.2019
2686 Clear 23 1012 73 10000 1 0 01:29 01.09.2019
2687 Clear 23 1013 73 10000 1.5 170 00:57 01.09.2019
2688 Clouds 23 1013 73 10000 3.1 170 00:38 01.09.2019
2689 Clouds 23 1013 73 10000 1.5 50 00:19 01.09.2019
2690 Clouds 23 1013 73 10000 1.5 80 23:41 31.08.2019
2691 Clouds 23 1013 73 10000 1.5 80 23:21 31.08.2019
2692 -273 0 0 0 0 0 22:55 31.08.2019
2693 Clouds 23 1014 73 10000 2.1 130 22:55 31.08.2019
2694 Clouds 23 1014 73 10000 2.1 130 22:37 31.08.2019
2695 Clouds 23 1014 73 10000 2.1 130 22:19 31.08.2019
2696 Clouds 23 1013 78 10000 2.1 170 21:42 31.08.2019
2697 Clouds 23 1013 78 10000 2.1 170 21:22 31.08.2019
2698 Clouds 23 1012 69 10000 2.1 100 20:59 31.08.2019
2699 Clouds 24 1012 74 10000 2.1 80 20:41 31.08.2019
2700 Clouds 24 1012 74 10000 2.1 80 20:22 31.08.2019
2701 Clouds 24 1012 65 10000 1 0 19:41 31.08.2019
2702 Clouds 25 1012 65 10000 1 0 19:22 31.08.2019
2703 Rain 26 1012 69 10000 1.5 250 18:56 31.08.2019
2704 Rain 26 1012 69 10000 2.1 280 18:37 31.08.2019
2705 Rain 26 1012 69 10000 2.1 280 18:37 31.08.2019
2706 Rain 26 1012 74 10000 3.1 290 18:19 31.08.2019
2707 Clouds 26 1012 74 10000 3.1 290 17:55 31.08.2019
2708 Rain 26 1013 69 10000 2.1 260 17:36 31.08.2019
2709 Rain 26 1013 78 10000 2.1 140 17:18 31.08.2019
2710 Rain 26 1013 78 10000 2.1 140 16:54 31.08.2019
2711 Clouds 26 1013 78 10000 4.6 100 16:36 31.08.2019
2712 Thunderstorm 27 1013 65 8000 4.6 90 16:18 31.08.2019
2713 Clouds 27 1013 61 10000 6.7 70 15:41 31.08.2019
2714 Clouds 27 1013 61 10000 6.7 70 15:18 31.08.2019
2715 Clouds 28 1014 62 10000 7.2 70 14:44 31.08.2019
2716 Rain 28 1014 62 10000 7.2 70 14:26 31.08.2019
2717 Rain 28 1014 62 10000 7.2 70 14:26 31.08.2019
2718 Rain 28 1014 69 10000 5.1 40 13:59 31.08.2019
2719 Rain 27 1014 69 10000 4.1 40 13:38 31.08.2019
2720 Clouds 27 1014 69 10000 4.1 40 13:19 31.08.2019
2721 Clouds 27 1015 69 10000 3.1 30 12:56 31.08.2019
2722 Clouds 28 1015 65 10000 3.1 360 12:38 31.08.2019
2723 Clear 28 1015 61 10000 2.6 330 12:18 31.08.2019
2724 Clear 27 1015 65 10000 2.1 270 11:44 31.08.2019
2725 Clear 27 1015 65 10000 1.5 260 11:26 31.08.2019
2726 Clear 28 1015 65 10000 1.5 260 10:57 31.08.2019
2727 Clear 27 1015 69 10000 2.1 250 10:39 31.08.2019
2728 Clear 27 1015 74 10000 2.1 260 10:18 31.08.2019
2729 Clear 26 1015 74 10000 1.5 250 09:40 31.08.2019
2730 Clear 26 1015 74 10000 1.5 250 09:40 31.08.2019
2731 Clear 25 1015 74 10000 1.5 250 09:22 31.08.2019
2732 Clear 25 1014 69 10000 0.5 0 08:58 31.08.2019
2733 Clear 25 1014 69 10000 0.5 0 08:58 31.08.2019
2734 Clear 25 1014 73 10000 1 0 08:39 31.08.2019
2735 Clear 24 1014 73 10000 1 0 08:20 31.08.2019
2736 Clouds 23 992 95 0 2.29 172.465 07:39 31.08.2019
2737 Clear 22 1014 73 10000 2.29 172.465 07:18 31.08.2019
2738 Clear 22 1014 73 10000 1.5 170 06:27 31.08.2019
2739 Clear 22 1014 73 10000 1.5 170 05:55 31.08.2019
2740 Clear 22 1014 78 10000 1.5 190 05:29 31.08.2019
2741 Clear 22 1015 73 10000 1.5 180 04:29 31.08.2019
2742 Clear 22 1015 73 10000 1 160 03:42 31.08.2019
2743 Clear 23 1015 73 10000 2.1 130 02:23 31.08.2019
2744 Clouds 23 1016 73 10000 1.5 140 01:49 31.08.2019
2745 Clouds 23 1016 73 10000 2.1 150 01:49 31.08.2019
2746 Clouds 23 1016 73 10000 1.5 140 01:31 31.08.2019
2747 Clouds 23 1016 73 10000 2.1 200 00:47 31.08.2019
2748 Clouds 23 1016 73 10000 2.1 200 00:27 31.08.2019
2749 Clouds 23 1016 73 10000 2.1 200 00:27 31.08.2019
2750 Clouds 24 1016 74 10000 1.5 260 23:51 30.08.2019
2751 Clouds 24 1016 74 10000 1.5 260 23:20 30.08.2019
2752 Clouds 24 1016 74 10000 1 0 22:59 30.08.2019
2753 Clouds 24 1016 74 10000 1 200 22:39 30.08.2019
2754 Clouds 24 1016 69 10000 2.6 250 22:21 30.08.2019
2755 Clouds 24 1016 69 10000 2.6 250 21:57 30.08.2019
2756 Clouds 24 1016 74 10000 2.6 240 21:37 30.08.2019
2757 Clouds 24 1016 69 10000 3.1 220 21:18 30.08.2019
2758 Clouds 25 1016 69 10000 3.1 220 20:57 30.08.2019
2759 Clouds 25 1016 61 10000 4.1 80 20:38 30.08.2019
2760 Clouds 25 1016 65 10000 5.1 80 20:20 30.08.2019
2761 Clouds 25 1016 65 10000 5.1 80 19:56 30.08.2019
2762 Clouds 25 1015 65 10000 3.6 60 19:38 30.08.2019
2763 Clouds 25 1015 65 10000 3.6 60 19:19 30.08.2019
2764 Clouds 25 1016 69 10000 2.6 340 18:45 30.08.2019
2765 Clouds 26 1016 69 10000 2.6 340 18:24 30.08.2019
2766 Clouds 26 1016 65 10000 3.1 240 17:57 30.08.2019
2767 Clouds 26 1016 62 10000 6.2 80 17:39 30.08.2019
2768 Clouds 27 1015 74 10000 6.7 50 17:19 30.08.2019
2769 Clouds 27 1015 74 10000 6.7 50 16:57 30.08.2019
2770 Clouds 26 1015 69 10000 7.7 50 16:39 30.08.2019
2771 Clouds 26 1015 69 10000 7.7 50 16:20 30.08.2019
2772 Clouds 27 1016 66 10000 7.7 40 15:42 30.08.2019
2773 Clouds 27 1016 66 10000 7.7 40 15:21 30.08.2019
2774 Clouds 28 1017 69 10000 6.7 50 14:45 30.08.2019
2775 Clouds 28 1017 69 10000 6.2 50 14:26 30.08.2019
2776 Clouds 28 1017 69 10000 6.2 50 13:57 30.08.2019
2777 Clouds 28 1017 69 10000 6.7 50 13:39 30.08.2019
2778 Clouds 28 1017 69 10000 6.7 50 13:39 30.08.2019
2779 Clouds 28 1017 69 10000 6.7 50 13:39 30.08.2019
2780 Clouds 29 1017 69 10000 7.2 40 13:21 30.08.2019
2781 Clouds 28 1017 69 10000 7.2 40 12:45 30.08.2019
2782 Clouds 28 1017 69 10000 7.2 40 12:26 30.08.2019
2783 Clouds 28 1017 69 10000 6.7 40 11:58 30.08.2019
2784 Clouds 28 1017 69 10000 6.2 40 11:39 30.08.2019
2785 Clouds 28 1017 69 10000 6.2 40 11:21 30.08.2019
2786 Clouds 28 1017 69 10000 6.2 40 11:21 30.08.2019
2787 Clouds 28 1017 74 10000 5.1 40 10:39 30.08.2019
2788 Clouds 27 1017 78 10000 2.6 340 10:20 30.08.2019
2789 Clouds 27 1017 78 10000 2.6 340 09:56 30.08.2019
2790 Clouds 26 1017 83 10000 1 250 09:36 30.08.2019
2791 Clouds 25 1017 83 10000 1 250 09:18 30.08.2019
2792 Clear 24 1017 83 10000 1.5 200 08:44 30.08.2019
2793 Clear 24 1017 83 10000 1.5 200 08:24 30.08.2019
2794 Clear 23 1017 83 10000 1 250 07:47 30.08.2019
2795 Clear 23 1017 83 10000 1 250 07:27 30.08.2019
2796 Clear 22 1017 83 10000 0.5 0 06:58 30.08.2019
2797 Clear 22 1016 78 10000 1 120 06:40 30.08.2019
2798 Clear 22 1016 78 10000 1.5 140 06:20 30.08.2019
2799 Clear 22 1016 78 10000 1 130 05:32 30.08.2019
2800 Clear 23 1017 73 10000 1 0 03:57 30.08.2019
2801 Clear 23 1017 73 10000 1 0 03:57 30.08.2019
2802 Clear 23 1017 73 10000 1.5 220 03:37 30.08.2019
2803 Clear 23 1017 78 10000 1.5 190 02:44 30.08.2019
2804 Clear 23 1017 78 10000 2.6 200 02:19 30.08.2019
2805 Clear 23 1017 73 10000 1 180 00:57 30.08.2019
2806 Clear 23 1017 78 10000 1 0 00:23 30.08.2019
2807 Clear 24 1017 74 10000 0.5 0 23:49 29.08.2019
2808 Clear 24 1017 74 10000 0.5 0 23:49 29.08.2019
2809 Clear 24 1017 69 10000 1.5 120 23:23 29.08.2019
2810 Clear 24 1017 69 10000 1.5 120 23:23 29.08.2019
2811 Clear 24 1017 74 10000 2.1 90 22:59 29.08.2019
2812 Clear 24 1017 78 10000 2.6 50 22:41 29.08.2019
2813 Clear 24 1017 74 10000 2.6 50 22:22 29.08.2019
2814 Clear 24 1017 78 10000 3.1 50 21:42 29.08.2019
2815 Clear 24 1017 78 10000 3.1 50 21:22 29.08.2019
2816 Clear 24 1017 78 10000 3.1 50 21:22 29.08.2019
2817 Clear 24 1017 78 10000 3.1 50 21:22 29.08.2019
2818 Clear 24 1016 74 10000 3.1 30 20:59 29.08.2019
2819 Clear 24 1016 74 10000 3.1 30 20:41 29.08.2019
2820 Clear 24 1016 74 10000 3.6 30 20:20 29.08.2019
2821 Clouds 25 1016 74 10000 4.1 40 19:57 29.08.2019
2822 Clouds 25 1016 74 10000 4.1 40 19:39 29.08.2019
2823 Clouds 25 1016 69 10000 4.1 60 19:21 29.08.2019
2824 Clouds 25 1016 74 10000 4.6 40 18:41 29.08.2019
2825 Clouds 26 1016 74 10000 5.7 30 18:20 29.08.2019
2826 Clouds 26 1017 69 10000 5.1 30 17:56 29.08.2019
2827 Clouds 27 1017 69 10000 5.1 30 17:37 29.08.2019
2828 Clouds 27 1017 78 10000 4.6 30 17:19 29.08.2019
2829 Clouds 27 1017 74 10000 3.1 30 16:55 29.08.2019
2830 Clouds 27 1017 74 10000 3.1 30 16:36 29.08.2019
2831 Clouds 27 1017 74 10000 1.5 20 16:18 29.08.2019
2832 Clouds 26 1017 74 10000 2.1 30 15:38 29.08.2019
2833 Clouds 26 1017 74 10000 2.1 30 15:20 29.08.2019
2834 Clouds 27 1017 74 10000 2.1 30 14:50 29.08.2019
2835 Clouds 27 1018 74 10000 1 0 14:23 29.08.2019
2836 Clouds 27 1018 74 10000 1 0 13:59 29.08.2019
2837 Clouds 26 1018 74 10000 1 0 13:39 29.08.2019
2838 Clouds 27 1018 69 10000 1 0 13:20 29.08.2019
2839 Clouds 26 1018 69 10000 1 0 12:59 29.08.2019
2840 Clouds 26 1018 69 10000 2.6 320 12:39 29.08.2019
2841 Clouds 26 1018 69 10000 2.6 320 12:21 29.08.2019
2842 Clear 26 1018 69 10000 2.6 270 11:58 29.08.2019
2843 Clouds 26 1017 74 10000 4.6 280 11:38 29.08.2019
2844 Clear 25 1018 74 10000 5.1 290 11:19 29.08.2019
2845 Clear 25 1017 65 10000 2.6 240 10:44 29.08.2019
2846 Clear 26 1017 65 10000 2.6 240 10:25 29.08.2019
2847 Clear 25 1017 61 10000 4.1 210 09:54 29.08.2019
2848 Clear 25 1017 65 10000 4.6 190 09:36 29.08.2019
2849 Clear 25 1017 65 10000 3.6 210 09:18 29.08.2019
2850 Clear 25 1016 69 10000 2.1 230 08:40 29.08.2019
2851 Clear 25 1016 69 10000 2.1 230 08:22 29.08.2019
2852 Clear 24 1016 69 10000 4.1 280 07:50 29.08.2019
2853 Clear 24 1016 69 10000 3.1 300 07:27 29.08.2019
2854 Clear 24 1016 69 10000 3.1 230 06:48 29.08.2019
2855 Clear 24 1016 69 10000 3.1 230 06:30 29.08.2019
2856 Clear 24 1016 65 10000 1 0 05:43 29.08.2019
2857 Clear 24 1016 69 10000 2.1 230 04:51 29.08.2019
2858 Clear 24 1016 65 10000 2.1 160 04:29 29.08.2019
2859 Clear 24 1016 65 10000 2.1 150 03:35 29.08.2019
2860 Clear 25 1016 54 10000 2.6 60 01:50 29.08.2019
2861 Clear 25 1016 54 10000 2.6 60 01:30 29.08.2019
2862 Clear 25 1016 61 10000 4.1 70 00:45 29.08.2019
2863 Clear 25 1016 65 10000 1.5 70 00:21 29.08.2019
2864 Clear 25 1016 65 10000 1.5 70 00:21 29.08.2019
2865 Clear 25 1016 65 10000 1 0 23:44 28.08.2019
2866 Clear 25 1016 65 10000 1 0 23:25 28.08.2019
2867 Clear 25 1016 65 10000 2.1 200 22:59 28.08.2019
2868 Clear 26 1016 61 10000 1.5 190 22:39 28.08.2019
2869 Clear 25 1016 65 10000 2.1 210 22:19 28.08.2019
2870 Clear 26 1016 65 10000 2.1 210 21:59 28.08.2019
2871 Clouds 26 1016 65 10000 2.1 210 21:39 28.08.2019
2872 Clouds 26 1016 69 10000 5.1 270 21:21 28.08.2019
2873 Clouds 26 1016 58 10000 4.1 220 20:45 28.08.2019
2874 Clouds 26 1016 58 10000 4.1 220 20:27 28.08.2019
2875 Clouds 26 1015 62 10000 3.6 240 19:59 28.08.2019
2876 Clouds 27 1014 62 10000 1.5 20 19:40 28.08.2019
2877 Clouds 27 1014 55 10000 7.2 70 19:21 28.08.2019
2878 Clouds 27 1014 58 10000 7.2 70 18:42 28.08.2019
2879 Clouds 28 1014 58 10000 7.2 70 18:22 28.08.2019
2880 Clouds 28 1015 62 10000 5.1 50 17:59 28.08.2019
2881 Clouds 27 1015 48 10000 2.1 0 17:37 28.08.2019
2882 Clouds 27 1015 48 10000 2.1 0 17:19 28.08.2019
2883 Clouds 28 1016 62 10000 2.6 270 16:43 28.08.2019
2884 Clouds 28 1016 62 10000 2.6 270 16:21 28.08.2019
2885 Clouds 29 1016 70 10000 3.1 40 15:59 28.08.2019
2886 Clouds 29 1015 52 10000 5.1 50 15:37 28.08.2019
2887 Clouds 29 1015 55 10000 5.7 60 15:19 28.08.2019
2888 Clouds 30 1015 55 10000 5.7 60 14:56 28.08.2019
2889 Clouds 30 1015 55 10000 5.7 40 14:37 28.08.2019
2890 Clouds 30 1015 55 10000 5.7 40 14:37 28.08.2019
2891 Clouds 30 1015 55 10000 5.7 40 14:19 28.08.2019
2892 Clouds 30 1015 66 10000 5.1 40 13:57 28.08.2019
2893 Clouds 30 1015 58 10000 4.1 60 13:37 28.08.2019
2894 Clear 30 1016 66 10000 4.1 30 13:18 28.08.2019
2895 Clouds 30 1016 70 10000 3.1 30 12:41 28.08.2019
2896 Clouds 29 1016 70 10000 3.1 30 12:23 28.08.2019
2897 Clouds 29 1016 74 10000 2.6 350 11:54 28.08.2019
2898 Clear 29 1016 69 10000 2.1 340 11:36 28.08.2019
2899 Clear 29 1016 65 10000 2.1 340 11:18 28.08.2019
2900 Clear 29 1016 65 10000 1.5 320 10:41 28.08.2019
2901 Clear 29 1016 65 10000 1.5 320 10:21 28.08.2019
2902 Clear 28 1016 61 10000 1 260 09:58 28.08.2019
2903 Clear 28 1016 61 10000 1 240 09:40 28.08.2019
2904 Clear 27 1016 65 10000 2.1 250 09:19 28.08.2019
2905 Clear 26 1016 69 10000 2.1 240 08:39 28.08.2019
2906 Clear 26 1016 69 10000 2.1 240 08:20 28.08.2019
2907 Clear 24 1016 69 10000 1 0 07:42 28.08.2019
2908 Clear 25 1016 69 10000 1 0 07:24 28.08.2019
2909 Clear 24 1015 74 10000 2.6 70 06:55 28.08.2019
2910 Clear 24 1015 74 10000 2.6 70 06:36 28.08.2019
2911 Clear 24 1015 78 10000 1 0 05:43 28.08.2019
2912 Clear 24 1015 74 10000 1.5 120 02:50 28.08.2019
2913 Clear 24 1017 78 10000 2.1 230 01:32 28.08.2019
2914 Clear 24 1017 78 10000 3.6 220 00:59 28.08.2019
2915 Clear 25 1017 78 10000 3.6 210 00:40 28.08.2019
2916 Clear 25 1017 74 10000 3.1 210 23:59 27.08.2019
2917 Clear 25 1016 74 10000 3.1 240 23:39 27.08.2019
2918 Clear 25 1016 74 10000 3.1 240 23:21 27.08.2019
2919 Clear 25 1016 74 10000 1 0 22:54 27.08.2019
2920 Clear 25 1016 74 10000 1 30 22:36 27.08.2019
2921 Clear 25 1016 74 10000 1 30 22:18 27.08.2019
2922 Clear 26 1016 69 10000 0.5 0 21:54 27.08.2019
2923 Clear 26 1015 70 10000 2.6 60 21:36 27.08.2019
2924 Clear 26 1015 70 10000 2.6 60 21:18 27.08.2019
2925 Clear 26 1015 74 10000 5.1 60 20:41 27.08.2019
2926 Clear 26 1015 74 10000 5.1 60 20:21 27.08.2019
2927 Clear 26 1015 66 10000 6.2 60 19:57 27.08.2019
2928 Clear 27 1015 70 10000 6.2 60 19:39 27.08.2019
2929 Clear 27 1015 70 10000 6.2 60 19:39 27.08.2019
2930 Clear 27 1015 70 10000 7.2 60 19:20 27.08.2019
2931 Clouds 28 1015 70 10000 7.2 60 18:42 27.08.2019
2932 Clouds 29 1015 70 10000 8.2 60 18:19 27.08.2019
2933 Clouds 29 1015 70 10000 8.2 60 17:59 27.08.2019
2934 Clouds 29 1015 62 10000 7.7 60 17:41 27.08.2019
2935 Clouds 30 1015 62 10000 7.7 60 17:22 27.08.2019
2936 Clouds 29 1015 66 10000 8.2 60 16:47 27.08.2019
2937 Clouds 30 1015 66 10000 7.7 60 16:28 27.08.2019
2938 Clouds 30 1016 62 10000 7.2 60 15:58 27.08.2019
2939 Clouds 30 1016 55 10000 6.7 60 15:39 27.08.2019
2940 Clouds 30 1016 55 10000 6.7 60 15:20 27.08.2019
2941 Clouds 30 1016 58 10000 6.7 60 14:54 27.08.2019
2942 Clouds 30 1016 55 10000 6.2 60 14:36 27.08.2019
2943 Clear 30 1016 58 10000 6.2 60 14:18 27.08.2019
2944 Clear 30 1016 58 10000 5.7 50 13:41 27.08.2019
2945 Clear 30 1017 66 10000 5.7 40 13:20 27.08.2019
2946 Clear 30 1017 74 10000 3.6 20 12:42 27.08.2019
2947 Clear 29 1017 69 10000 2.6 10 12:21 27.08.2019
2948 Clear 29 1017 69 10000 2.6 10 11:57 27.08.2019
2949 Clear 29 1017 69 10000 2.1 350 11:37 27.08.2019
2950 Clear 28 1017 69 10000 1.5 310 11:19 27.08.2019
2951 Clear 28 1017 69 10000 2.1 260 10:41 27.08.2019
2952 Clear 27 1017 69 10000 2.1 260 10:20 27.08.2019
2953 Clear 28 1017 65 10000 2.1 250 09:56 27.08.2019
2954 Clear 28 1016 69 10000 2.1 220 09:37 27.08.2019
2955 Clear 26 1016 65 10000 2.1 200 09:19 27.08.2019
2956 Clear 26 1016 65 10000 1 140 08:45 27.08.2019
2957 Clear 26 1016 65 10000 1 140 08:24 27.08.2019
2958 Clear 25 1016 69 10000 2.1 80 07:55 27.08.2019
2959 Clear 24 1016 73 10000 1.5 70 07:36 27.08.2019
2960 Clear 24 1016 73 10000 1.5 70 07:36 27.08.2019
2961 Clear 24 1016 73 10000 1.5 40 07:18 27.08.2019
2962 Clear 23 1015 73 10000 1.5 150 06:44 27.08.2019
2963 Clear 23 1015 78 10000 1 0 06:19 27.08.2019
2964 Clear 23 1015 78 10000 1 0 06:19 27.08.2019
2965 Clear 23 1015 73 10000 1 220 05:28 27.08.2019
2966 Clear 23 1015 73 10000 1.5 160 03:43 27.08.2019
2967 Clear 23 1015 73 10000 0.5 0 02:55 27.08.2019
2968 Clear 23 1016 69 10000 2.6 290 01:46 27.08.2019
2969 Clear 24 1016 69 10000 2.6 290 01:25 27.08.2019
2970 Clear 24 1016 73 10000 2.1 150 00:49 27.08.2019
2971 Clear 24 1016 73 10000 2.1 150 00:28 27.08.2019
2972 Clear 24 1016 58 10000 1 0 23:44 26.08.2019
2973 Clear 24 1016 58 10000 1 0 23:25 26.08.2019
2974 Clear 25 1016 58 10000 1.5 100 22:59 26.08.2019
2975 Clear 25 1016 61 10000 4.6 80 22:37 26.08.2019
2976 Clear 25 1016 61 10000 4.6 80 22:19 26.08.2019
2977 Clear 25 1015 69 10000 5.1 70 21:40 26.08.2019
2978 Clear 25 1015 69 10000 4.6 70 21:22 26.08.2019
2979 Clear 25 1015 69 10000 5.7 70 20:59 26.08.2019
2980 Clear 25 1015 69 10000 5.7 70 20:41 26.08.2019
2981 Clouds 26 1015 69 10000 5.7 60 20:20 26.08.2019
2982 Clouds 26 1015 69 10000 5.7 60 19:58 26.08.2019
2983 Clouds 26 1015 69 10000 5.7 60 19:58 26.08.2019
2984 Clouds 26 1015 69 10000 5.7 60 19:40 26.08.2019
2985 Clouds 27 1015 66 10000 6.2 50 19:19 26.08.2019
2986 Clouds 27 1015 66 10000 6.7 50 18:55 26.08.2019
2987 Clouds 28 1015 66 10000 6.7 50 18:37 26.08.2019
2988 Clouds 28 1015 70 10000 6.2 40 18:18 26.08.2019
2989 Clouds 28 1015 70 10000 6.2 40 17:43 26.08.2019
2990 Clouds 29 1015 70 10000 6.7 40 17:19 26.08.2019
2991 Clouds 29 1015 70 10000 6.2 40 16:57 26.08.2019
2992 Clouds 29 1015 70 10000 6.2 40 16:38 26.08.2019
2993 Clouds 29 1015 70 10000 6.7 40 16:18 26.08.2019
2994 Clouds 29 1015 66 10000 6.7 50 15:42 26.08.2019
2995 Clear 29 1015 70 10000 6.7 40 15:22 26.08.2019
2996 Clear 29 1015 70 10000 7.2 40 14:58 26.08.2019
2997 Clear 29 1015 70 10000 7.2 40 14:38 26.08.2019
2998 Clear 29 1016 70 10000 6.7 40 14:19 26.08.2019
2999 Clear 29 1016 70 10000 6.2 40 13:43 26.08.2019
3000 Clear 30 1016 70 10000 4.6 30 13:23 26.08.2019
3001 Clear 30 1016 74 10000 3.1 10 12:56 26.08.2019
3002 Clear 29 1016 74 10000 3.1 10 12:37 26.08.2019
3003 Clear 29 1017 74 10000 2.1 340 12:19 26.08.2019
3004 Clear 28 1017 69 10000 2.1 310 11:38 26.08.2019
3005 Clear 28 1016 74 10000 2.1 310 11:20 26.08.2019
3006 Clear 28 1016 74 10000 2.1 290 10:57 26.08.2019
3007 Clear 28 1016 74 10000 2.1 290 10:39 26.08.2019
3008 Clear 27 1016 78 10000 2.6 260 10:18 26.08.2019
3009 Clear 27 1016 74 10000 3.1 250 09:42 26.08.2019
3010 Clear 26 1016 74 10000 2.1 230 09:23 26.08.2019
3011 Clear 25 1016 74 10000 1.5 200 08:56 26.08.2019
3012 Clear 25 1016 74 10000 1.5 200 08:37 26.08.2019
3013 Clear 25 1016 73 10000 1 180 08:19 26.08.2019
3014 Clouds 24 1016 78 10000 1 0 07:42 26.08.2019
3015 Clouds 23 1016 78 10000 1 180 07:24 26.08.2019
3016 Clear 22 1015 78 10000 1 0 06:57 26.08.2019
3017 Clear 23 1015 78 10000 1 0 06:38 26.08.2019
3018 Clear 23 1015 73 10000 1 150 06:18 26.08.2019
3019 Clear 22 1015 73 10000 0.5 0 04:36 26.08.2019
3020 Clear 22 1015 73 10000 1.5 140 03:48 26.08.2019
3021 Clear 23 1015 69 10000 1.5 210 02:31 26.08.2019
3022 Clear 23 1016 69 10000 1.5 130 01:23 26.08.2019
3023 Clear 23 1016 73 10000 2.1 180 00:44 26.08.2019
3024 Clear 23 1016 73 10000 2.1 180 00:44 26.08.2019
3025 Clear 24 1016 73 10000 1.5 190 00:25 26.08.2019
3026 Clear 24 1016 74 10000 1.5 80 23:44 25.08.2019
3027 Clear 24 1016 74 10000 2.6 70 23:20 25.08.2019
3028 Clear 24 1016 74 10000 2.6 70 22:59 25.08.2019
3029 Clear 25 1016 74 10000 2.6 70 22:40 25.08.2019
3030 Clear 25 1016 69 10000 3.1 60 22:20 25.08.2019
3031 Clear 25 1015 69 10000 3.6 70 21:58 25.08.2019
3032 Clear 25 1015 69 10000 3.6 70 21:58 25.08.2019
3033 Clear 26 1015 69 10000 3.6 70 21:39 25.08.2019
3034 Clear 25 1015 69 10000 4.6 60 21:19 25.08.2019
3035 Clear 25 1015 69 10000 4.6 50 20:55 25.08.2019
3036 Clear 25 1015 69 10000 4.6 50 20:55 25.08.2019
3037 Clear 25 1015 74 10000 5.1 40 20:36 25.08.2019
3038 Clear 25 1015 74 10000 5.1 40 20:18 25.08.2019
3039 Clear 26 1015 65 10000 4.6 40 19:40 25.08.2019
3040 Clear 26 1015 69 10000 5.1 40 19:21 25.08.2019
3041 Clear 26 1015 69 10000 5.1 40 18:58 25.08.2019
3042 Clouds 26 1015 69 10000 4.6 30 18:40 25.08.2019
3043 Clouds 28 1015 69 10000 4.6 30 18:22 25.08.2019
3044 Clear 27 1015 69 10000 4.6 30 17:56 25.08.2019
3045 Clear 28 1015 69 10000 4.6 30 17:38 25.08.2019
3046 Clear 28 1015 69 10000 4.1 30 17:19 25.08.2019
3047 Clear 28 1015 69 10000 3.6 20 16:40 25.08.2019
3048 Clouds 28 1015 70 10000 3.1 20 16:22 25.08.2019
3049 Clouds 29 1015 70 10000 3.1 350 15:47 25.08.2019
3050 Clouds 30 1015 70 10000 3.1 350 15:26 25.08.2019
3051 Clouds 29 1015 74 10000 3.6 360 14:56 25.08.2019
3052 Clouds 29 1015 74 10000 3.6 360 14:38 25.08.2019
3053 Clouds 29 1016 78 10000 3.6 10 14:19 25.08.2019
3054 Clouds 29 1016 74 10000 4.1 10 13:43 25.08.2019
3055 Clouds 29 1016 78 10000 4.1 20 13:21 25.08.2019
3056 Clouds 29 1016 78 10000 3.6 10 12:54 25.08.2019
3057 Clouds 29 1016 78 10000 3.6 10 12:36 25.08.2019
3058 Clouds 29 1016 78 10000 3.6 10 12:36 25.08.2019
3059 Clouds 29 1016 74 10000 3.1 350 12:18 25.08.2019
3060 Clouds 29 1016 74 10000 2.6 310 11:54 25.08.2019
3061 Clouds 28 1016 74 10000 2.6 310 11:36 25.08.2019
3062 Clouds 28 1016 78 10000 2.1 300 11:18 25.08.2019
3063 Clouds 28 1016 74 10000 2.1 290 10:40 25.08.2019
3064 Clouds 27 1016 74 10000 2.1 280 10:20 25.08.2019
3065 Clouds 27 1016 69 10000 1.5 270 09:56 25.08.2019
3066 Clouds 27 1016 69 10000 1.5 270 09:37 25.08.2019
3067 Clear 27 1016 69 10000 1.5 270 09:19 25.08.2019
3068 Clear 26 1016 69 10000 1.5 220 08:42 25.08.2019
3069 Clear 25 1016 73 10000 1.5 180 08:21 25.08.2019
3070 Clear 24 1015 78 10000 1.5 190 07:35 25.08.2019
3071 Clear 24 1015 78 10000 1 170 06:51 25.08.2019
3072 Clear 23 1015 73 10000 1.5 190 05:47 25.08.2019
3073 Clear 23 1015 78 10000 1.5 170 04:41 25.08.2019
3074 Clear 24 1015 78 10000 2.1 210 03:36 25.08.2019
3075 Clear 24 1015 78 10000 2.1 190 02:39 25.08.2019
3076 Clear 24 1016 78 10000 1.5 150 01:28 25.08.2019
3077 Clear 24 1016 83 10000 1.5 220 00:40 25.08.2019
3078 Clear 24 1016 83 10000 2.1 220 00:20 25.08.2019
3079 Clear 24 1016 78 10000 1.5 200 23:51 24.08.2019
3080 Clear 24 1016 74 10000 1.5 160 23:22 24.08.2019
3081 Clear 24 1016 74 10000 1.5 20 22:56 24.08.2019
3082 Clear 24 1016 74 10000 1.5 20 22:38 24.08.2019
3083 Clear 25 1016 74 10000 1.5 30 22:19 24.08.2019
3084 Clear 25 1016 74 10000 1.5 10 21:56 24.08.2019
3085 Clear 25 1016 74 10000 1.5 10 21:37 24.08.2019
3086 Clear 25 1016 74 10000 2.1 10 21:19 24.08.2019
3087 Clear 25 1015 74 10000 1.5 350 20:55 24.08.2019
3088 Clear 26 1015 74 10000 2.1 350 20:37 24.08.2019
3089 Clear 26 1015 74 10000 2.1 350 20:18 24.08.2019
3090 Clear 27 1015 69 10000 1.5 360 19:55 24.08.2019
3091 Clear 27 1015 69 10000 1.5 360 19:37 24.08.2019
3092 Clear 28 1015 69 10000 2.1 360 19:18 24.08.2019
3093 Clouds 28 1015 69 10000 2.1 350 18:41 24.08.2019
3094 Clouds 27 1015 74 10000 2.1 330 18:21 24.08.2019
3095 Clouds 27 1015 74 10000 2.1 330 18:21 24.08.2019
3096 Clouds 28 1015 69 10000 1.5 320 17:44 24.08.2019
3097 Clouds 28 1016 65 10000 1.5 260 17:24 24.08.2019
3098 Clouds 28 1016 69 10000 3.1 260 16:51 24.08.2019
3099 Rain 28 1016 65 10000 3.6 250 16:21 24.08.2019
3100 Clouds 28 1016 69 10000 2.6 260 15:59 24.08.2019
3101 Clouds 28 1016 69 10000 2.6 260 15:59 24.08.2019
3102 Clouds 28 1016 69 10000 2.6 260 15:40 24.08.2019
3103 Rain 29 1016 74 10000 2.6 310 15:22 24.08.2019
3104 Clouds 29 1016 70 10000 3.6 360 14:43 24.08.2019
3105 Clouds 29 1016 74 10000 4.1 10 14:22 24.08.2019
3106 Clouds 29 1016 70 10000 3.1 350 13:59 24.08.2019
3107 Clouds 29 1016 70 10000 3.1 350 13:40 24.08.2019
3108 Clear 29 1017 74 10000 3.1 350 13:21 24.08.2019
3109 Clear 29 1017 74 10000 2.6 350 12:58 24.08.2019
3110 Clear 29 1017 74 10000 2.6 350 12:39 24.08.2019
3111 Clear 28 1017 69 10000 2.6 350 12:20 24.08.2019
3112 Clear 28 1017 69 10000 3.1 350 11:45 24.08.2019
3113 Clear 28 1017 65 10000 3.1 350 11:22 24.08.2019
3114 Clear 28 1017 69 10000 1.5 350 10:52 24.08.2019
3115 Clear 29 1017 61 10000 1 0 10:24 24.08.2019
3116 Clear 28 1017 61 10000 3.1 290 09:45 24.08.2019
3117 Clear 27 1016 61 10000 2.1 270 09:23 24.08.2019
3118 Clear 26 1016 61 10000 2.1 360 08:59 24.08.2019
3119 Clear 26 1016 61 10000 2.1 360 08:40 24.08.2019
3120 Clear 25 1016 57 10000 1.5 140 08:22 24.08.2019
3121 Clear 24 1016 64 10000 1.5 190 07:49 24.08.2019
3122 Clear 24 1016 65 10000 3.1 270 07:27 24.08.2019
3123 Clear 24 1016 65 10000 3.1 270 07:27 24.08.2019
3124 Clear 24 1016 64 10000 2.6 190 06:30 24.08.2019
3125 Clear 24 1016 60 10000 1 0 05:42 24.08.2019
3126 Clear 24 1016 57 10000 0.5 0 04:51 24.08.2019
3127 Clear 24 1015 60 10000 2.1 200 03:37 24.08.2019
3128 Clear 24 1016 65 10000 0.5 0 02:27 24.08.2019
3129 Clear 24 1016 65 10000 1 0 01:38 24.08.2019
3130 Clear 24 1016 61 10000 0.5 0 01:18 24.08.2019
3131 Clear 24 1016 61 10000 1.5 210 00:41 24.08.2019
3132 Clear 24 1016 61 10000 2.1 140 00:18 24.08.2019
3133 Clear 24 1016 65 10000 3.6 80 23:42 23.08.2019
3134 Clear 24 1017 57 10000 1 0 23:19 23.08.2019
3135 Clear 24 1017 69 10000 2.6 60 22:43 23.08.2019
3136 Clear 25 1017 61 10000 2.6 80 22:24 23.08.2019
3137 Clear 25 1017 65 10000 1 70 21:54 23.08.2019
3138 Clear 25 1017 65 10000 1 70 21:36 23.08.2019
3139 Clear 25 1017 61 10000 0.5 0 21:18 23.08.2019
3140 Clear 26 1016 61 10000 0.5 0 20:40 23.08.2019
3141 Clear 26 1016 65 10000 1.5 30 20:22 23.08.2019
3142 Clear 26 1016 69 10000 2.6 40 19:45 23.08.2019
3143 Clear 27 1016 62 10000 2.6 40 19:19 23.08.2019
3144 Clear 28 1016 66 10000 1 0 18:49 23.08.2019
3145 -273 0 0 0 0 0 18:31 23.08.2019
3146 Clear 28 1016 74 10000 2.1 20 17:59 23.08.2019
3147 Clear 27 1016 74 10000 2.1 20 17:40 23.08.2019
3148 Clear 28 1016 74 10000 3.1 30 17:21 23.08.2019
3149 Clear 28 1016 74 10000 4.1 20 16:48 23.08.2019
3150 Clear 27 1016 70 10000 5.7 30 16:29 23.08.2019
3151 Clear 28 1016 74 10000 6.2 40 15:58 23.08.2019
3152 Clear 28 1016 74 10000 6.2 40 15:38 23.08.2019
3153 Clear 30 1016 70 10000 6.7 40 15:20 23.08.2019
3154 Clear 30 1016 69 10000 6.2 30 14:43 23.08.2019
3155 Clear 30 1017 66 10000 6.2 30 14:21 23.08.2019
3156 Clear 30 1017 70 10000 4.6 30 13:58 23.08.2019
3157 Clear 30 1017 70 10000 4.6 30 13:58 23.08.2019
3158 Clear 30 1017 70 10000 4.6 30 13:40 23.08.2019
3159 Clear 30 1017 70 10000 2.6 360 13:22 23.08.2019
3160 Clear 30 1017 74 10000 2.6 300 12:58 23.08.2019
3161 Clear 30 1017 74 10000 2.6 300 12:40 23.08.2019
3162 Clear 30 1017 74 10000 2.1 310 12:21 23.08.2019
3163 Clear 29 1017 83 10000 2.1 310 11:56 23.08.2019
3164 Clear 29 1017 83 10000 2.1 310 11:38 23.08.2019
3165 Clear 29 1017 83 10000 2.1 280 11:18 23.08.2019
3166 Clear 29 1017 83 10000 2.1 280 11:18 23.08.2019
3167 Clear 29 1017 78 10000 1.5 290 10:45 23.08.2019
3168 Clear 28 1017 78 10000 1.5 280 10:23 23.08.2019
3169 Clear 27 1017 83 10000 1.5 240 09:58 23.08.2019
3170 Clear 27 1017 83 10000 1.5 240 09:40 23.08.2019
3171 Clear 27 1017 83 10000 2.1 250 09:20 23.08.2019
3172 Clear 27 1017 74 10000 2.1 190 08:44 23.08.2019
3173 Clear 26 1017 69 10000 1.5 0 08:20 23.08.2019
3174 Clear 25 1016 78 10000 4.1 30 07:44 23.08.2019
3175 Clear 24 1016 78 10000 1.5 30 07:24 23.08.2019
3176 Clear 24 1016 78 10000 2.1 180 06:59 23.08.2019
3177 Clear 24 1016 78 10000 2.1 180 06:40 23.08.2019
3178 Clear 24 1016 83 10000 1 180 06:21 23.08.2019
3179 Clear 24 1016 83 10000 2.1 190 05:43 23.08.2019
3180 Clear 24 1016 83 10000 2.6 140 05:23 23.08.2019
3181 Clear 24 1016 78 10000 2.6 60 03:36 23.08.2019
3182 Clear 24 1017 78 10000 0.5 0 02:37 23.08.2019
3183 Clear 24 1017 78 10000 0.5 0 02:18 23.08.2019
3184 Clear 25 1017 83 10000 3.1 210 00:46 23.08.2019
3185 Clear 25 1017 83 10000 1.5 230 00:23 23.08.2019
3186 Clear 25 1017 83 10000 1.5 360 23:53 22.08.2019
3187 Clear 25 1017 83 10000 1.5 360 23:33 22.08.2019
3188 Clear 25 1017 83 10000 3.1 280 22:59 22.08.2019
3189 Clear 26 1017 83 10000 3.1 280 22:41 22.08.2019
3190 Clear 26 1017 83 10000 2.6 280 22:22 22.08.2019
3191 Clear 26 1017 78 10000 1 0 21:58 22.08.2019
3192 Clear 26 1017 78 10000 1 0 21:40 22.08.2019
3193 Clear 26 1016 74 10000 3.6 70 21:21 22.08.2019
3194 Clear 26 1016 74 10000 4.1 70 20:57 22.08.2019
3195 Clear 27 1016 74 10000 5.7 80 20:39 22.08.2019
3196 Clear 27 1016 74 10000 5.7 80 20:19 22.08.2019
3197 Clear 27 1016 74 10000 6.7 70 19:56 22.08.2019
3198 Clear 27 1016 74 10000 6.7 70 19:37 22.08.2019
3199 Clouds 27 1016 78 10000 7.7 50 19:19 22.08.2019
3200 Clear 27 1016 74 10000 8.7 50 18:56 22.08.2019
3201 Clear 28 1016 74 10000 8.7 50 18:38 22.08.2019
3202 Clear 29 1016 70 10000 8.7 60 18:18 22.08.2019
3203 Clouds 29 1016 78 10000 9.3 40 17:42 22.08.2019
3204 Clouds 29 1016 78 10000 9.3 40 17:23 22.08.2019
3205 Clouds 29 1016 78 10000 9.3 40 17:23 22.08.2019
3206 Clouds 29 1016 70 10000 9.3 40 16:59 22.08.2019
3207 Clouds 28 1016 70 10000 9.3 40 16:40 22.08.2019
3208 Clouds 29 1016 74 10000 9.3 40 16:21 22.08.2019
3209 Clouds 29 1016 74 10000 9.3 40 16:21 22.08.2019
3210 Clear 29 1016 66 10000 9.3 60 15:59 22.08.2019
3211 Clear 29 1016 66 10000 9.3 60 15:59 22.08.2019
3212 Clear 29 1016 66 10000 9.3 60 15:38 22.08.2019
3213 Clear 29 1016 66 10000 9.3 60 15:38 22.08.2019
3214 Clouds 30 1016 70 10000 9.3 50 15:20 22.08.2019
3215 Clouds 30 1016 70 10000 9.3 50 15:20 22.08.2019
3216 Clouds 29 1016 66 10000 8.2 60 14:56 22.08.2019
3217 Clouds 30 1016 66 10000 8.2 60 14:38 22.08.2019
3218 Clouds 30 1016 70 10000 7.7 50 14:18 22.08.2019
3219 Clouds 30 1017 78 10000 6.7 40 13:42 22.08.2019
3220 Clear 30 1017 70 10000 4.6 30 13:24 22.08.2019
3221 Clouds 30 1017 69 10000 2.1 330 12:59 22.08.2019
3222 Clear 30 1017 69 10000 2.1 330 12:39 22.08.2019
3223 Clear 30 1017 69 10000 2.1 330 12:21 22.08.2019
3224 -273 0 0 0 0 0 11:55 22.08.2019
3225 Clear 29 1017 69 10000 1.5 290 11:36 22.08.2019
3226 Clear 29 1017 74 10000 2.1 290 11:18 22.08.2019
3227 Clear 28 1017 74 10000 2.6 280 10:56 22.08.2019
3228 Clear 28 1017 74 10000 2.6 280 10:36 22.08.2019
3229 Clear 28 1017 69 10000 2.1 280 10:18 22.08.2019
3230 Clear 27 1017 74 10000 1.5 280 09:39 22.08.2019
3231 Clear 27 1017 74 10000 2.1 280 09:21 22.08.2019
3232 Clear 26 1017 74 10000 0.5 0 08:58 22.08.2019
3233 Clear 26 1017 69 10000 0.5 0 08:39 22.08.2019
3234 Clear 26 1017 69 10000 0.5 0 08:20 22.08.2019
3235 Clear 24 1017 78 10000 1 140 07:41 22.08.2019
3236 Clear 23 1017 78 10000 1 140 07:23 22.08.2019
3237 Clear 23 1016 73 10000 1 200 06:55 22.08.2019
3238 Clear 23 1016 73 10000 1 170 06:25 22.08.2019
3239 Clear 23 1016 73 10000 2.1 170 05:59 22.08.2019
3240 Clear 23 1016 73 10000 0.5 0 04:39 22.08.2019
3241 Clear 23 1017 73 10000 2.6 130 02:52 22.08.2019
3242 Clear 23 1017 73 10000 2.6 130 02:34 22.08.2019
3243 Clear 23 1017 69 10000 4.1 70 01:25 22.08.2019
3244 Clear 23 1017 69 10000 4.1 70 00:45 22.08.2019
3245 Clear 23 1017 74 10000 4.1 70 00:27 22.08.2019
3246 Clear 24 1017 74 10000 5.1 60 23:55 21.08.2019
3247 Clear 24 1017 74 10000 5.1 60 23:37 21.08.2019
3248 Clear 24 1017 74 10000 4.6 70 23:18 21.08.2019
3249 Clear 25 1017 69 10000 5.7 60 22:55 21.08.2019
3250 Clear 24 1017 69 10000 5.7 60 22:37 21.08.2019
3251 Clear 24 1017 69 10000 5.1 50 22:19 21.08.2019
3252 Clear 25 1017 69 10000 5.7 60 21:55 21.08.2019
3253 Clear 25 1017 69 10000 5.7 60 21:36 21.08.2019
3254 Clear 25 1016 69 10000 6.7 60 21:18 21.08.2019
3255 Clear 25 1016 69 10000 6.2 60 20:42 21.08.2019
3256 Clear 25 1016 69 10000 6.7 50 20:24 21.08.2019
3257 Clear 26 1016 69 10000 7.7 50 19:56 21.08.2019
3258 Clear 26 1016 69 10000 7.7 50 19:38 21.08.2019
3259 Clear 26 1016 65 10000 7.7 50 19:20 21.08.2019
3260 Clouds 27 1016 61 10000 7.7 50 18:43 21.08.2019
3261 Clouds 27 1016 65 10000 8.2 50 18:23 21.08.2019
3262 Clouds 27 1016 65 10000 8.2 40 17:57 21.08.2019
3263 Clouds 27 1016 65 10000 8.2 40 17:38 21.08.2019
3264 Clouds 27 1016 65 10000 8.2 40 17:20 21.08.2019
3265 Clouds 27 1016 65 10000 8.2 40 16:45 21.08.2019
3266 Clouds 27 1016 65 10000 7.2 40 16:24 21.08.2019
3267 Clouds 28 1017 69 10000 6.2 40 15:59 21.08.2019
3268 Clouds 27 1017 69 10000 6.2 40 15:41 21.08.2019
3269 Clouds 28 1017 69 10000 5.1 30 15:22 21.08.2019
3270 Clouds 28 1018 74 10000 4.1 360 14:58 21.08.2019
3271 Clouds 28 1018 74 10000 4.1 360 14:39 21.08.2019
3272 Clouds 28 1018 74 10000 4.1 360 14:21 21.08.2019
3273 Clouds 28 1018 74 10000 4.1 350 13:58 21.08.2019
3274 Clouds 28 1018 74 10000 4.1 350 13:40 21.08.2019
3275 Clouds 28 1018 78 10000 3.6 340 13:19 21.08.2019
3276 Clouds 28 1018 74 10000 4.1 310 12:57 21.08.2019
3277 Clouds 28 1018 69 10000 4.6 320 12:38 21.08.2019
3278 Clouds 28 1018 69 10000 4.6 320 12:18 21.08.2019
3279 Clouds 27 1018 74 10000 2.1 320 11:43 21.08.2019
3280 Clouds 27 1018 74 10000 2.6 300 11:22 21.08.2019
3281 Clouds 27 1018 78 10000 2.6 270 10:58 21.08.2019
3282 Clouds 27 1018 78 10000 2.6 270 10:38 21.08.2019
3283 Clouds 26 1018 78 10000 3.1 250 10:20 21.08.2019
3284 Clouds 27 1018 78 10000 3.6 250 09:57 21.08.2019
3285 Clouds 27 1018 78 10000 3.6 250 09:37 21.08.2019
3286 Clouds 25 1018 78 10000 3.1 240 09:18 21.08.2019
3287 Clouds 25 1018 78 10000 3.1 240 09:18 21.08.2019
3288 Clouds 25 1018 78 10000 3.1 210 08:46 21.08.2019
3289 Clouds 24 1018 83 10000 2.6 230 08:24 21.08.2019
3290 Clouds 23 1017 83 10000 1.5 210 07:44 21.08.2019
3291 Clouds 23 1017 83 10000 2.1 180 07:24 21.08.2019
3292 Clear 22 1017 83 10000 1 150 06:50 21.08.2019
3293 Clear 22 1017 83 10000 1 150 06:32 21.08.2019
3294 Clear 22 1016 83 10000 0.5 220 05:56 21.08.2019
3295 Clear 22 1016 78 10000 0.5 160 05:28 21.08.2019
3296 Clear 22 1016 78 10000 1.5 180 04:26 21.08.2019
3297 Clear 23 1017 78 10000 0.5 0 01:56 21.08.2019
3298 Clear 23 1017 78 10000 0.5 0 01:24 21.08.2019
3299 Clear 23 1017 74 10000 0.5 0 00:39 21.08.2019
3300 Clear 24 1017 74 10000 1.5 270 00:20 21.08.2019
3301 Clear 24 1017 78 10000 1 0 23:44 20.08.2019
3302 Clouds 24 1017 78 10000 1 60 23:20 20.08.2019
3303 Clouds 24 1017 78 10000 2.1 80 22:58 20.08.2019
3304 Clouds 24 1017 78 10000 2.1 80 22:40 20.08.2019
3305 Clouds 25 1017 74 10000 3.6 70 22:21 20.08.2019
3306 Clouds 25 1017 74 10000 3.6 60 21:58 20.08.2019
3307 Clouds 25 1017 74 10000 3.6 60 21:58 20.08.2019
3308 Clouds 25 1017 74 10000 3.6 60 21:39 20.08.2019
3309 Clouds 25 1017 74 10000 4.1 50 21:19 20.08.2019
3310 Clouds 25 1017 78 10000 4.6 50 20:58 20.08.2019
3311 Clouds 25 1017 78 10000 4.6 50 20:39 20.08.2019
3312 Clear 26 1016 78 10000 5.1 40 20:21 20.08.2019
3313 Clouds 26 1016 78 10000 5.1 30 19:39 20.08.2019
3314 Clouds 27 1016 74 10000 5.1 30 19:21 20.08.2019
3315 Clear 27 1016 74 10000 4.6 30 18:56 20.08.2019
3316 Clear 27 1016 74 10000 4.6 30 18:38 20.08.2019
3317 Clear 27 1017 69 10000 4.6 30 18:19 20.08.2019
3318 Clear 27 1017 69 10000 4.6 30 17:55 20.08.2019
3319 Clear 28 1017 69 10000 5.1 40 17:37 20.08.2019
3320 Clear 28 1016 74 10000 5.7 40 17:19 20.08.2019
3321 Clear 28 1016 74 10000 5.7 40 17:19 20.08.2019
3322 Clear 28 1017 66 10000 6.2 40 16:43 20.08.2019
3323 Clear 28 1017 74 10000 5.7 40 16:24 20.08.2019
3324 Clear 28 1017 69 10000 6.2 30 15:43 20.08.2019
3325 Clouds 28 1016 66 10000 6.7 40 15:19 20.08.2019
3326 Clouds 28 1016 66 10000 6.7 40 14:59 20.08.2019
3327 Clouds 28 1016 69 10000 7.2 40 14:41 20.08.2019
3328 Clouds 29 1016 69 10000 7.2 40 14:21 20.08.2019
3329 Clouds 29 1017 69 10000 6.2 40 13:56 20.08.2019
3330 Clouds 29 1017 74 10000 5.7 40 13:37 20.08.2019
3331 Clouds 29 1017 74 10000 5.7 40 13:19 20.08.2019
3332 Clear 28 1017 74 10000 5.1 30 12:50 20.08.2019
3333 Clear 28 1017 69 10000 1.5 0 12:26 20.08.2019
3334 Clear 28 1017 69 10000 5.1 230 11:58 20.08.2019
3335 Clear 28 1017 69 10000 5.1 230 11:58 20.08.2019
3336 Clear 28 1017 69 10000 6.2 40 11:38 20.08.2019
3337 Clear 28 1017 69 10000 6.2 40 11:18 20.08.2019
3338 Clear 28 1016 69 10000 5.1 50 10:56 20.08.2019
3339 Clear 27 1017 69 10000 2.1 310 10:38 20.08.2019
3340 Clear 27 1017 69 10000 2.1 310 10:19 20.08.2019
3341 Clear 27 1016 69 10000 1.5 300 09:43 20.08.2019
3342 Clear 26 1016 73 10000 1 280 09:24 20.08.2019
3343 Clear 25 1016 73 10000 1 280 08:57 20.08.2019
3344 Clear 25 1016 69 10000 1 130 08:39 20.08.2019
3345 Clear 24 1016 78 10000 1 170 08:20 20.08.2019
3346 Clear 24 1016 78 10000 1 170 07:55 20.08.2019
3347 Clear 24 1016 73 10000 1.5 190 07:37 20.08.2019
3348 Clear 22 1016 78 10000 1 0 07:18 20.08.2019
3349 Clear 22 1016 73 10000 0.5 0 06:25 20.08.2019
3350 Clear 22 1016 78 10000 1 140 05:49 20.08.2019
3351 Clear 22 1016 73 10000 1.5 180 05:18 20.08.2019
3352 Clear 22 1016 78 10000 1.5 90 04:18 20.08.2019
3353 Clear 23 1017 73 10000 1.5 100 02:44 20.08.2019
3354 Clear 23 1017 74 10000 2.1 60 01:39 20.08.2019
3355 Clear 23 1017 74 10000 2.6 100 00:57 20.08.2019
3356 Clear 24 1017 74 10000 2.1 120 00:39 20.08.2019
3357 Clear 24 1017 74 10000 2.1 120 00:19 20.08.2019
3358 Clear 24 1016 69 10000 4.6 80 23:40 19.08.2019
3359 Clear 24 1016 65 10000 3.6 90 23:18 19.08.2019
3360 Clear 24 1016 65 10000 3.6 90 22:56 19.08.2019
3361 Clear 24 1016 69 10000 3.1 50 22:38 19.08.2019
3362 Clear 25 1016 69 10000 3.1 50 22:18 19.08.2019
3363 Clear 25 1016 69 10000 5.1 80 21:55 19.08.2019
3364 Clear 25 1016 61 10000 5.7 70 21:36 19.08.2019
3365 Clear 26 1016 61 10000 5.7 70 21:18 19.08.2019
3366 Clear 26 1015 65 10000 7.2 60 20:39 19.08.2019
3367 Clouds 26 1015 65 10000 7.7 60 20:20 19.08.2019
3368 Clouds 26 1015 65 10000 7.7 60 19:58 19.08.2019
3369 Clouds 26 1015 65 10000 8.2 60 19:39 19.08.2019
3370 Clouds 26 1015 65 10000 8.2 60 19:19 19.08.2019
3371 Clouds 27 1015 62 10000 8.7 60 18:46 19.08.2019
3372 Clouds 27 1015 62 10000 8.7 60 18:28 19.08.2019
3373 Clouds 27 1015 62 10000 9.8 60 17:59 19.08.2019
3374 Clouds 28 1015 62 10000 9.8 60 17:41 19.08.2019
3375 Clouds 28 1015 62 10000 9.8 60 17:41 19.08.2019
3376 Clouds 28 1015 62 10000 9.8 60 17:21 19.08.2019
3377 Clouds 28 1015 62 10000 9.3 50 16:58 19.08.2019
3378 Clouds 28 1015 62 10000 9.3 50 16:37 19.08.2019
3379 Clouds 28 1015 66 10000 9.3 60 16:19 19.08.2019
3380 Clouds 28 1015 66 10000 8.7 50 15:55 19.08.2019
3381 Clouds 28 1015 66 10000 8.7 50 15:37 19.08.2019
3382 Clouds 28 1016 69 10000 8.7 40 15:18 19.08.2019
3383 Clouds 28 1016 69 10000 8.2 40 14:41 19.08.2019
3384 Clouds 29 1016 69 10000 7.2 40 14:22 19.08.2019
3385 Clouds 29 1016 65 10000 6.7 40 13:57 19.08.2019
3386 Clouds 29 1016 65 10000 6.7 40 13:38 19.08.2019
3387 Clouds 29 1016 65 10000 6.2 40 13:19 19.08.2019
3388 Clouds 29 1016 65 10000 6.2 40 13:19 19.08.2019
3389 Clouds 29 1016 69 10000 5.7 40 12:45 19.08.2019
3390 Clouds 28 1016 69 10000 5.1 30 12:25 19.08.2019
3391 Clouds 28 1016 69 10000 2.6 350 11:59 19.08.2019
3392 Clouds 28 1016 69 10000 2.6 350 11:39 19.08.2019
3393 Clear 28 1016 65 10000 2.1 310 11:20 19.08.2019
3394 Clouds 28 1016 65 10000 2.1 300 10:55 19.08.2019
3395 Clouds 28 1016 65 10000 2.1 300 10:37 19.08.2019
3396 Clear 27 1016 65 10000 2.1 270 10:18 19.08.2019
3397 Clear 27 1016 61 10000 1.5 300 09:43 19.08.2019
3398 Clear 26 1016 65 10000 1 250 09:23 19.08.2019
3399 Clear 26 1016 65 10000 1 0 08:56 19.08.2019
3400 Clear 25 1016 65 10000 1 0 08:38 19.08.2019
3401 Clear 25 1016 65 10000 1 0 08:18 19.08.2019
3402 Clear 24 1015 69 10000 0.5 0 07:45 19.08.2019
3403 Clear 23 1015 69 10000 0.5 0 07:27 19.08.2019
3404 Clear 22 1015 73 10000 1 0 06:47 19.08.2019
3405 Clear 22 1015 69 10000 1 160 06:26 19.08.2019
3406 Clear 22 1015 69 10000 2.1 150 04:56 19.08.2019
3407 Clear 22 1015 69 10000 1.5 160 04:25 19.08.2019
3408 Clear 22 1015 69 10000 2.1 190 03:21 19.08.2019
3409 Clear 22 1016 73 10000 1.5 80 02:19 19.08.2019
3410 Clear 22 1016 73 10000 1.5 80 01:31 19.08.2019
3411 Clear 23 1016 69 10000 0.5 0 00:43 19.08.2019
3412 Clear 23 1015 74 10000 1 0 00:23 19.08.2019
3413 Clear 23 1015 74 10000 2.1 220 23:42 18.08.2019
3414 Clear 24 1015 69 10000 2.6 200 23:21 18.08.2019
3415 Clear 24 1015 69 10000 3.1 200 22:55 18.08.2019
3416 Clear 24 1015 69 10000 3.1 200 22:37 18.08.2019
3417 Clear 24 1015 69 10000 3.6 200 22:19 18.08.2019
3418 Clear 24 1015 69 10000 4.6 210 21:55 18.08.2019
3419 Clear 27 1015 69 10000 4.6 210 21:37 18.08.2019
3420 Clear 27 1014 69 10000 5.1 210 21:18 18.08.2019
3421 Clear 27 1014 69 10000 5.1 210 21:18 18.08.2019
3422 Clear 27 1014 65 10000 5.1 200 20:42 18.08.2019
3423 Clear 28 1014 61 10000 4.1 210 20:24 18.08.2019
3424 Clear 30 1014 55 10000 2.1 0 19:55 18.08.2019
3425 Clear 30 1014 51 10000 6.7 70 19:37 18.08.2019
3426 Clear 30 1014 51 10000 6.7 70 19:19 18.08.2019
3427 Clear 30 1014 55 10000 7.2 70 18:41 18.08.2019
3428 Clear 29 1014 54 10000 7.2 60 18:23 18.08.2019
3429 Clouds 28 1014 62 10000 7.7 60 17:58 18.08.2019
3430 Clouds 28 1014 62 10000 7.7 60 17:40 18.08.2019
3431 Clouds 28 1014 62 10000 7.7 60 17:19 18.08.2019
3432 Clouds 28 1014 62 10000 7.7 60 16:57 18.08.2019
3433 Clouds 28 1014 62 10000 7.7 60 16:38 18.08.2019
3434 Clouds 28 1014 62 10000 7.7 60 16:20 18.08.2019
3435 Clouds 28 1015 55 10000 8.2 60 15:56 18.08.2019
3436 Clouds 28 1015 55 10000 8.2 60 15:56 18.08.2019
3437 Clouds 28 1015 55 10000 8.2 60 15:38 18.08.2019
3438 Clear 29 1015 58 10000 8.7 60 15:20 18.08.2019
3439 Clear 29 1015 54 10000 8.2 70 14:40 18.08.2019
3440 Clear 29 1015 54 10000 7.2 60 14:21 18.08.2019
3441 Clear 29 1016 58 10000 6.2 50 13:59 18.08.2019
3442 Clear 29 1016 58 10000 6.2 50 13:41 18.08.2019
3443 Clear 28 1016 58 10000 5.7 40 13:22 18.08.2019
3444 Clear 28 1016 65 10000 4.6 30 12:58 18.08.2019
3445 Clear 28 1016 65 10000 4.6 30 12:39 18.08.2019
3446 Clear 27 1016 65 10000 3.1 30 12:20 18.08.2019
3447 Clear 27 1016 65 10000 2.6 10 11:43 18.08.2019
3448 Clear 27 1016 61 10000 2.1 360 11:23 18.08.2019
3449 Clear 26 1016 65 10000 1.5 300 10:59 18.08.2019
3450 Clear 26 1016 65 10000 1.5 300 10:40 18.08.2019
3451 Clear 26 1016 61 10000 2.1 250 10:19 18.08.2019
3452 Clear 26 1016 61 10000 2.6 230 09:43 18.08.2019
3453 Clear 25 1016 57 10000 2.1 230 09:20 18.08.2019
3454 Clear 25 1015 69 10000 1 0 08:44 18.08.2019
3455 Clear 23 1015 60 10000 1.5 200 08:25 18.08.2019
3456 Clear 20 1015 72 10000 1.5 170 07:58 18.08.2019
3457 Clear 20 1015 72 10000 1.5 170 07:30 18.08.2019
3458 Clear 22 1015 73 10000 1.5 190 06:47 18.08.2019
3459 Clear 21 1015 77 10000 1.5 170 05:45 18.08.2019
3460 -273 0 0 0 0 0 04:25 18.08.2019
3461 Clear 23 1015 73 10000 4.1 90 03:20 18.08.2019
3462 Clear 24 1015 73 10000 4.6 60 02:42 18.08.2019
3463 Clear 24 1016 73 10000 4.1 70 02:18 18.08.2019
3464 Clear 24 1016 73 10000 2.1 70 01:28 18.08.2019
3465 Clear 24 1016 73 10000 1.5 110 00:43 18.08.2019
3466 Clear 25 1016 69 10000 3.6 80 00:24 18.08.2019
3467 Clear 25 1016 73 10000 4.1 70 23:58 17.08.2019
3468 Clear 25 1016 73 10000 4.1 70 23:38 17.08.2019
3469 Clear 25 1016 73 10000 4.6 50 23:20 17.08.2019
3470 Clear 25 1016 73 10000 4.6 60 22:58 17.08.2019
3471 Clear 25 1016 73 10000 4.6 60 22:58 17.08.2019
3472 Clear 25 1016 73 10000 4.6 60 22:40 17.08.2019
3473 Clear 26 1016 69 10000 5.1 60 22:21 17.08.2019
3474 Clear 26 1015 69 10000 5.7 50 21:55 17.08.2019
3475 Clear 26 1015 69 10000 5.7 50 21:55 17.08.2019
3476 Clear 26 1015 69 10000 5.7 50 21:37 17.08.2019
3477 Clear 26 1015 69 10000 5.7 50 21:19 17.08.2019
3478 Clear 26 1015 69 10000 5.7 50 20:39 17.08.2019
3479 Clear 26 1015 69 10000 5.7 50 20:20 17.08.2019
3480 Clear 26 1015 69 10000 5.7 50 19:56 17.08.2019
3481 Clear 27 1015 69 10000 5.7 50 19:38 17.08.2019
3482 Clear 26 1015 74 10000 5.1 40 19:19 17.08.2019
3483 Clear 27 1015 65 10000 5.7 40 18:39 17.08.2019
3484 Clear 27 1015 69 10000 5.1 30 18:19 17.08.2019
3485 Clear 27 1015 69 10000 5.1 30 18:19 17.08.2019
3486 Clear 27 1015 69 10000 5.1 30 18:19 17.08.2019
3487 Clear 27 1016 69 10000 4.6 40 17:56 17.08.2019
3488 Clear 27 1016 69 10000 4.6 40 17:38 17.08.2019
3489 Clear 27 1016 65 10000 4.6 20 17:20 17.08.2019
3490 Clear 27 1016 69 10000 4.6 30 16:44 17.08.2019
3491 Clear 28 1016 69 10000 4.6 30 16:26 17.08.2019
3492 Clear 28 1016 69 10000 4.1 30 15:58 17.08.2019
3493 Clear 28 1016 69 10000 4.1 30 15:39 17.08.2019
3494 Clear 28 1017 65 10000 4.1 30 15:20 17.08.2019
3495 Clouds 28 1017 65 10000 4.6 30 14:41 17.08.2019
3496 Clouds 28 1017 65 10000 4.6 30 14:41 17.08.2019
3497 Clouds 28 1017 65 10000 4.6 30 14:41 17.08.2019
3498 Clear 28 1017 65 10000 4.1 10 14:23 17.08.2019
3499 Clear 28 1017 65 10000 3.6 350 13:49 17.08.2019
3500 Clouds 28 1017 61 10000 3.6 340 13:23 17.08.2019
3501 Clouds 28 1017 61 10000 3.6 340 13:23 17.08.2019
3502 Clouds 28 1017 61 10000 3.6 330 12:58 17.08.2019
3503 Clouds 28 1017 61 10000 3.6 330 12:40 17.08.2019
3504 Clouds 27 1017 65 10000 3.1 320 12:19 17.08.2019
3505 Clouds 27 1017 65 10000 2.6 310 11:56 17.08.2019
3506 Clouds 27 1017 65 10000 2.6 310 11:36 17.08.2019
3507 Clouds 27 1017 65 10000 2.6 310 11:18 17.08.2019
3508 Clouds 28 1017 65 10000 2.1 280 10:39 17.08.2019
3509 Clouds 27 1016 69 10000 1 0 10:19 17.08.2019
3510 Clouds 27 1016 69 10000 1 0 09:49 17.08.2019
3511 Clouds 26 1016 65 10000 2.1 260 09:30 17.08.2019
3512 Clouds 24 1016 61 10000 0.5 0 08:54 17.08.2019
3513 Clouds 23 1016 69 10000 1.5 180 08:25 17.08.2019
3514 Clouds 24 1015 69 10000 1.5 140 07:52 17.08.2019
3515 Clouds 22 1015 69 10000 0.5 0 07:22 17.08.2019
3516 Clouds 21 1015 73 10000 2.1 120 06:55 17.08.2019
3517 Clouds 22 1015 65 10000 2.1 350 05:55 17.08.2019
3518 Clouds 22 1015 69 10000 2.1 100 04:30 17.08.2019
3519 Clouds 22 1015 69 10000 2.1 100 03:36 17.08.2019
3520 Clouds 23 1016 69 10000 1.5 100 01:48 17.08.2019
3521 Clouds 23 1016 69 10000 2.1 90 01:29 17.08.2019
3522 Clouds 23 1016 69 10000 1.5 110 00:55 17.08.2019
3523 Clouds 23 1016 65 10000 1.5 90 00:31 17.08.2019
3524 Clear 24 1016 65 10000 1 0 23:57 16.08.2019
3525 Clear 24 1016 65 10000 1 0 23:37 16.08.2019
3526 Clear 23 1016 69 10000 1.5 130 23:18 16.08.2019
3527 Clear 24 1016 65 10000 1.5 60 22:40 16.08.2019
3528 Clear 24 1016 65 10000 1 40 22:19 16.08.2019
3529 Clear 24 1015 65 10000 2.1 20 21:42 16.08.2019
3530 Clear 25 1015 65 10000 2.6 60 21:21 16.08.2019
3531 Clear 25 1015 65 10000 2.6 30 20:58 16.08.2019
3532 Clear 25 1015 65 10000 2.6 30 20:39 16.08.2019
3533 Clear 25 1015 61 10000 3.1 40 20:19 16.08.2019
3534 Clear 26 1015 65 10000 3.1 30 19:44 16.08.2019
3535 Clear 27 1014 65 10000 3.6 20 19:23 16.08.2019
3536 Clear 27 1014 65 10000 4.1 30 18:59 16.08.2019
3537 Clear 27 1014 65 10000 4.1 30 18:41 16.08.2019
3538 Clear 28 1014 61 10000 4.1 30 18:22 16.08.2019
3539 Clear 28 1014 61 10000 3.6 30 17:44 16.08.2019
3540 Clear 28 1015 61 10000 3.6 30 17:25 16.08.2019
3541 Clear 29 1015 65 10000 3.6 30 16:56 16.08.2019
3542 Clear 29 1015 65 10000 3.6 30 16:38 16.08.2019
3543 Clear 29 1015 61 10000 5.1 30 16:18 16.08.2019
3544 Clear 29 1015 65 10000 5.7 30 15:41 16.08.2019
3545 Clear 29 1015 65 10000 5.7 30 15:22 16.08.2019
3546 Clear 28 1015 61 10000 5.7 30 14:58 16.08.2019
3547 Clear 29 1015 61 10000 5.7 30 14:40 16.08.2019
3548 Clear 28 1015 65 10000 5.1 30 14:19 16.08.2019
3549 Clear 28 1015 69 10000 4.6 40 13:58 16.08.2019
3550 Clear 29 1015 69 10000 4.6 40 13:38 16.08.2019
3551 Clear 28 1015 69 10000 4.1 30 13:19 16.08.2019
3552 Clear 28 1016 69 10000 2.6 350 12:39 16.08.2019
3553 Clear 28 1016 65 10000 3.1 340 12:20 16.08.2019
3554 Clear 28 1016 69 10000 2.6 340 11:43 16.08.2019
3555 Clear 27 1016 74 10000 2.6 330 11:24 16.08.2019
3556 Clear 27 1016 69 10000 2.1 330 10:58 16.08.2019
3557 Clear 27 1016 69 10000 2.1 330 10:40 16.08.2019
3558 Clear 27 1016 69 10000 2.1 280 10:18 16.08.2019
3559 Clear 26 1016 73 10000 2.1 250 09:38 16.08.2019
3560 Clear 26 1016 73 10000 3.1 250 09:19 16.08.2019
3561 Clear 25 1015 69 10000 1.5 200 08:56 16.08.2019
3562 Clear 24 1015 69 10000 1.5 200 08:38 16.08.2019
3563 Clear 24 1015 69 10000 2.1 160 08:19 16.08.2019
3564 Clear 22 1015 64 10000 1.5 160 07:44 16.08.2019
3565 Clear 22 1015 73 10000 2.6 150 07:25 16.08.2019
3566 Clear 21 1015 78 10000 2.6 160 06:43 16.08.2019
3567 Clouds 21 1015 78 10000 2.6 160 05:58 16.08.2019
3568 Clouds 21 1015 78 10000 2.6 160 05:33 16.08.2019
3569 Clouds 22 1015 73 10000 1.5 190 03:19 16.08.2019
3570 Clouds 23 1016 73 10000 2.1 190 01:50 16.08.2019
3571 Clouds 23 1016 73 10000 1.5 320 01:25 16.08.2019
3572 Clouds 23 1016 73 10000 1.5 320 01:25 16.08.2019
3573 Clouds 23 1016 65 10000 2.1 310 00:48 16.08.2019
3574 Clouds 23 1016 69 10000 1.5 330 00:23 16.08.2019
3575 Clouds 23 1016 69 10000 2.1 320 23:57 15.08.2019
3576 Clouds 23 1016 69 10000 2.1 320 23:38 15.08.2019
3577 Clouds 23 1016 74 10000 2.1 10 23:18 15.08.2019
3578 Clouds 23 1016 69 10000 2.6 340 22:41 15.08.2019
3579 Clouds 23 1016 69 10000 2.6 340 22:41 15.08.2019
3580 Clouds 24 1016 74 10000 2.6 340 22:22 15.08.2019
3581 Clouds 24 1016 74 10000 3.6 350 21:58 15.08.2019
3582 Clouds 24 1016 74 10000 3.6 350 21:39 15.08.2019
3583 Clouds 24 1016 74 10000 4.1 330 21:19 15.08.2019
3584 Clouds 25 1015 74 10000 3.6 340 20:57 15.08.2019
3585 Clouds 25 1015 74 10000 3.6 340 20:38 15.08.2019
3586 Clouds 25 1015 74 10000 4.6 340 20:20 15.08.2019
3587 Clouds 25 1015 74 10000 4.6 350 19:40 15.08.2019
3588 Clouds 26 1015 69 10000 4.6 330 19:21 15.08.2019
3589 Clouds 26 1015 69 10000 5.1 330 18:55 15.08.2019
3590 Clouds 26 1015 69 10000 5.1 330 18:37 15.08.2019
3591 Clouds 26 1015 69 10000 4.1 320 18:18 15.08.2019
3592 Clouds 26 1015 69 10000 4.6 330 17:54 15.08.2019
3593 Clouds 27 1015 69 10000 4.6 330 17:36 15.08.2019
3594 Clouds 27 1015 69 10000 4.6 320 17:18 15.08.2019
3595 Clouds 27 1015 69 10000 4.1 320 16:42 15.08.2019
3596 Clouds 27 1015 65 10000 4.1 330 16:23 15.08.2019
3597 Clouds 27 1015 61 10000 3.6 330 15:55 15.08.2019
3598 Clouds 27 1015 61 10000 3.6 330 15:36 15.08.2019
3599 Clouds 27 1015 65 10000 3.6 320 15:18 15.08.2019
3600 Clouds 27 1015 65 10000 3.6 320 14:41 15.08.2019
3601 Clouds 28 1015 65 10000 3.1 320 14:22 15.08.2019
3602 Clouds 28 1015 65 10000 3.1 310 13:57 15.08.2019
3603 Clouds 28 1015 65 10000 3.1 310 13:39 15.08.2019
3604 Clouds 27 1015 65 10000 3.6 320 13:20 15.08.2019
3605 Clouds 27 1015 61 10000 3.6 330 12:55 15.08.2019
3606 Clouds 27 1015 61 10000 3.6 330 12:36 15.08.2019
3607 Clouds 27 1015 61 10000 3.6 330 12:18 15.08.2019
3608 Clouds 27 1015 65 10000 4.1 330 11:40 15.08.2019
3609 Clouds 26 1015 65 10000 4.1 350 11:21 15.08.2019
3610 Clouds 26 1015 65 10000 3.6 360 10:59 15.08.2019
3611 Clouds 27 1015 65 10000 3.6 360 10:38 15.08.2019
3612 Clouds 26 1015 65 10000 3.6 360 10:38 15.08.2019
3613 Clouds 26 1015 69 10000 4.6 10 10:20 15.08.2019
3614 Clouds 26 1015 69 10000 5.1 10 09:45 15.08.2019
3615 Clouds 24 1015 73 10000 5.7 360 09:23 15.08.2019
3616 Clouds 24 1014 73 10000 5.7 10 08:56 15.08.2019
3617 Clouds 25 1014 65 10000 4.1 360 08:37 15.08.2019
3618 Clouds 24 1014 65 10000 4.1 360 08:18 15.08.2019
3619 Clouds 23 1014 65 10000 4.6 350 07:42 15.08.2019
3620 Clouds 23 1014 61 10000 4.1 10 07:23 15.08.2019
3621 Clouds 23 1014 61 10000 4.1 10 07:23 15.08.2019
3622 Clouds 22 1014 65 10000 4.1 10 06:53 15.08.2019
3623 Clouds 22 1014 65 10000 4.1 10 06:32 15.08.2019
3624 Clear 22 1013 65 10000 3.6 20 05:48 15.08.2019
3625 Clear 22 1013 65 10000 2.6 20 05:28 15.08.2019
3626 Clear 22 1013 61 10000 3.6 10 04:34 15.08.2019
3627 Clear 22 1014 68 10000 1.5 120 03:39 15.08.2019
3628 Clear 22 1014 69 10000 1.5 130 02:44 15.08.2019
3629 Clear 22 1014 64 10000 1.5 150 01:52 15.08.2019
3630 Clear 22 1014 64 10000 2.1 160 01:31 15.08.2019
3631 Clear 23 1014 60 10000 1.5 130 00:41 15.08.2019
3632 Clear 23 1015 57 10000 1 0 00:21 15.08.2019
3633 Clear 23 1014 57 10000 2.1 340 23:57 14.08.2019
3634 Clear 23 1014 57 10000 2.1 340 23:38 14.08.2019
3635 Clear 23 1014 57 10000 2.6 330 23:19 14.08.2019
3636 Clear 23 1014 57 10000 2.6 340 22:57 14.08.2019
3637 Clear 23 1014 57 10000 2.6 340 22:38 14.08.2019
3638 Clear 23 1014 57 10000 3.6 350 22:19 14.08.2019
3639 Clear 24 1014 61 10000 4.1 330 21:55 14.08.2019
3640 -273 0 0 0 0 0 21:55 14.08.2019
3641 Clear 24 1014 61 10000 4.1 330 21:55 14.08.2019
3642 Clear 24 1014 61 10000 4.1 330 21:37 14.08.2019
3643 Clear 24 1014 61 10000 4.1 330 21:37 14.08.2019
3644 Clouds 24 1014 61 10000 4.1 350 21:18 14.08.2019
3645 Clouds 25 1014 65 10000 4.1 350 20:41 14.08.2019
3646 Clouds 25 1014 61 10000 3.6 350 20:21 14.08.2019
3647 Clear 25 1014 61 10000 5.1 340 19:56 14.08.2019
3648 Clear 26 1014 57 10000 5.1 330 19:38 14.08.2019
3649 Clear 26 1014 57 10000 5.1 330 19:19 14.08.2019
3650 Clear 27 1013 57 10000 5.1 350 18:57 14.08.2019
3651 Clear 27 1013 57 10000 5.1 350 18:38 14.08.2019
3652 Clear 27 1013 57 10000 6.7 350 18:19 14.08.2019
3653 Clear 27 1013 61 10000 6.7 350 17:56 14.08.2019
3654 Clear 27 1013 61 10000 6.7 350 17:37 14.08.2019
3655 Clear 27 1013 61 10000 6.7 350 17:37 14.08.2019
3656 Clear 27 1013 61 10000 6.7 350 17:18 14.08.2019
3657 Clouds 27 1013 61 10000 7.7 350 16:42 14.08.2019
3658 Clouds 27 1013 61 10000 7.7 350 16:20 14.08.2019
3659 Clouds 27 1013 65 10000 7.7 350 15:55 14.08.2019
3660 Clouds 27 1013 65 10000 7.7 350 15:55 14.08.2019
3661 Clouds 27 1013 65 10000 7.7 350 15:36 14.08.2019
3662 Clouds 28 1013 65 10000 7.7 350 15:18 14.08.2019
3663 Clouds 28 1013 69 10000 8.2 350 14:40 14.08.2019
3664 Clouds 28 1013 65 10000 5.7 310 14:19 14.08.2019
3665 Clouds 28 1013 69 10000 6.2 290 13:59 14.08.2019
3666 Clouds 28 1013 69 10000 6.2 290 13:40 14.08.2019
3667 Clouds 28 1013 65 10000 5.7 300 13:22 14.08.2019
3668 Clouds 28 1013 58 10000 5.7 290 12:56 14.08.2019
3669 Clouds 29 1013 70 10000 3.1 270 12:37 14.08.2019
3670 Clouds 29 1013 70 10000 3.1 270 12:19 14.08.2019
3671 Clouds 29 1013 70 10000 2.1 270 11:46 14.08.2019
3672 Clouds 29 1013 66 10000 1 0 11:23 14.08.2019
3673 Clouds 29 1013 66 10000 1 0 10:58 14.08.2019
3674 Clouds 29 1013 66 10000 1 0 10:38 14.08.2019
3675 Clouds 29 1013 66 10000 1 0 10:38 14.08.2019
3676 Clouds 28 1013 69 10000 1 260 10:20 14.08.2019
3677 Clouds 28 1013 69 10000 1.5 300 09:44 14.08.2019
3678 Clouds 28 1013 69 10000 1.5 300 09:44 14.08.2019
3679 Clouds 28 1013 69 10000 1.5 320 09:21 14.08.2019
3680 Clouds 27 1013 74 10000 1.5 310 08:47 14.08.2019
3681 Clear 27 1012 78 10000 1.5 340 08:29 14.08.2019
3682 Clear 27 1012 74 10000 2.1 10 07:57 14.08.2019
3683 Clear 27 1012 74 10000 2.1 10 07:38 14.08.2019
3684 Clear 27 1012 74 10000 3.6 360 07:19 14.08.2019
3685 Clear 28 1012 61 10000 2.6 20 06:43 14.08.2019
3686 Clear 26 1012 74 10000 2.6 80 05:35 14.08.2019
3687 Clear 27 1013 74 10000 3.6 320 04:43 14.08.2019
3688 Clouds 27 1012 83 10000 3.6 50 02:44 14.08.2019
3689 Clouds 27 1012 83 10000 4.1 20 02:25 14.08.2019
3690 Clouds 27 1012 83 10000 4.1 20 01:30 14.08.2019
3691 Clouds 27 1012 83 10000 4.1 10 00:47 14.08.2019
3692 Clouds 27 1011 83 10000 4.1 20 23:46 13.08.2019
3693 Clouds 27 1012 83 10000 3.6 360 23:20 13.08.2019
3694 Clear 27 1011 83 10000 4.1 360 22:57 13.08.2019
3695 Clear 27 1011 83 10000 4.1 10 22:38 13.08.2019
3696 Clear 27 1011 83 10000 4.1 10 22:20 13.08.2019
3697 Clear 27 1011 74 10000 5.1 10 21:56 13.08.2019
3698 Clear 27 1011 74 10000 5.1 10 21:56 13.08.2019
3699 Clear 27 1011 74 10000 5.1 10 21:36 13.08.2019
3700 Clear 28 1010 74 10000 4.6 30 21:18 13.08.2019
3701 Clear 28 1010 66 10000 3.6 50 20:44 13.08.2019
3702 Clear 28 1010 66 10000 4.1 40 20:20 13.08.2019
3703 Clear 29 1010 55 10000 4.6 40 19:57 13.08.2019
3704 Clear 29 1010 55 10000 4.6 40 19:39 13.08.2019
3705 Clear 29 1010 66 10000 4.6 20 19:20 13.08.2019
3706 Clear 29 1010 66 10000 5.1 20 18:42 13.08.2019
3707 Clear 30 1010 74 10000 5.1 40 18:22 13.08.2019
3708 Clear 30 1010 74 10000 5.1 40 18:22 13.08.2019
3709 Clear 30 1011 74 10000 5.1 30 17:57 13.08.2019
3710 Clear 30 1011 74 10000 5.1 30 17:39 13.08.2019
3711 Clear 30 1011 74 10000 4.6 30 17:19 13.08.2019
3712 Clear 30 1011 74 10000 4.6 30 17:19 13.08.2019
3713 Clear 30 1011 70 10000 3.6 30 16:56 13.08.2019
3714 Clear 30 1011 70 10000 3.6 30 16:56 13.08.2019
3715 Clear 31 1011 70 10000 3.6 30 16:37 13.08.2019
3716 Clear 31 1011 74 10000 3.1 20 16:18 13.08.2019
3717 Clear 31 1011 74 10000 4.1 360 15:38 13.08.2019
3718 Clear 31 1011 70 10000 4.1 10 15:20 13.08.2019
3719 Clear 31 1011 70 10000 4.1 10 15:20 13.08.2019
3720 Clear 31 1012 74 10000 3.6 20 14:55 13.08.2019
3721 Clear 31 1012 74 10000 3.6 20 14:37 13.08.2019
3722 Clear 31 1011 70 10000 4.1 20 14:18 13.08.2019
3723 Clear 31 1012 74 10000 3.6 360 13:41 13.08.2019
3724 Clear 31 1012 70 10000 4.1 10 13:21 13.08.2019
3725 Clear 31 1012 74 10000 4.1 20 12:58 13.08.2019
3726 Clear 31 1012 74 10000 4.1 20 12:39 13.08.2019
3727 Clear 30 1012 74 10000 4.1 10 12:21 13.08.2019
3728 Clear 31 1012 74 10000 2.6 360 11:56 13.08.2019
3729 Clear 31 1012 74 10000 2.6 360 11:37 13.08.2019
3730 Clouds 30 1012 78 10000 3.6 340 11:18 13.08.2019
3731 Clouds 30 1012 78 10000 3.6 340 11:18 13.08.2019
3732 Clouds 30 1011 83 10000 3.1 330 10:55 13.08.2019
3733 Clouds 30 1011 83 10000 3.1 330 10:36 13.08.2019
3734 Clear 30 1011 88 10000 2.6 280 10:18 13.08.2019
3735 Clear 30 988 57 0 4.79 344.946 09:41 13.08.2019
3736 Clear 29 1011 83 10000 1.5 250 09:22 13.08.2019
3737 Clear 28 1011 78 10000 1.5 190 08:42 13.08.2019
3738 Clear 28 1011 83 10000 1 0 08:22 13.08.2019
3739 Clear 27 1011 78 10000 1.5 220 07:56 13.08.2019
3740 Clear 26 1011 78 10000 1.5 220 07:32 13.08.2019
3741 Clear 25 1011 83 10000 1.5 150 06:53 13.08.2019
3742 Clear 25 1011 83 10000 1.5 150 06:34 13.08.2019
3743 Clear 25 1011 83 10000 3.1 220 05:34 13.08.2019
3744 Clear 26 1012 88 10000 1.5 290 02:38 13.08.2019
3745 Clear 26 1012 88 10000 1.5 290 01:58 13.08.2019
3746 Clear 27 1012 83 10000 3.1 220 00:55 13.08.2019
3747 Clear 26 1012 83 10000 2.6 240 00:37 13.08.2019
3748 Clear 27 1012 78 10000 1 0 23:49 12.08.2019
3749 Clear 27 1012 61 10000 2.1 100 23:24 12.08.2019
3750 Clear 27 1012 66 10000 0.5 0 22:58 12.08.2019
3751 Clear 27 1012 66 10000 0.5 0 22:39 12.08.2019
3752 Clear 27 1011 65 10000 3.6 80 22:19 12.08.2019
3753 Clear 27 1011 65 10000 4.1 60 21:55 12.08.2019
3754 Clear 27 1011 65 10000 4.1 60 21:37 12.08.2019
3755 Clear 28 1010 58 10000 6.2 70 21:18 12.08.2019
3756 Clear 28 1010 51 10000 6.7 60 20:56 12.08.2019
3757 Clear 28 1010 51 10000 6.7 60 20:56 12.08.2019
3758 Clear 28 1010 51 10000 6.7 60 20:37 12.08.2019
3759 Clear 29 1010 51 10000 6.7 60 20:19 12.08.2019
3760 Clear 29 1010 52 10000 6.2 70 19:55 12.08.2019
3761 Clear 29 1010 52 10000 6.2 70 19:36 12.08.2019
3762 Clear 30 1010 66 10000 7.7 60 19:18 12.08.2019
3763 Clear 30 1010 70 10000 8.2 70 18:54 12.08.2019
3764 Clear 31 1010 70 10000 8.2 70 18:36 12.08.2019
3765 Clear 32 1010 74 10000 7.2 70 18:18 12.08.2019
3766 Clear 31 1010 74 10000 7.7 60 17:46 12.08.2019
3767 Clear 32 1010 70 10000 8.2 60 17:28 12.08.2019
3768 Clear 32 1010 70 10000 7.7 50 16:56 12.08.2019
3769 Clear 32 1010 70 10000 7.7 50 16:56 12.08.2019
3770 Clear 32 1010 70 10000 7.7 50 16:37 12.08.2019
3771 Clear 33 1010 66 10000 7.2 50 16:19 12.08.2019
3772 Clear 33 1011 70 10000 8.2 60 15:54 12.08.2019
3773 Clear 33 1011 62 10000 8.2 60 15:36 12.08.2019
3774 Clear 33 1011 62 10000 8.2 60 15:18 12.08.2019
3775 Clear 33 1011 62 10000 8.7 60 14:42 12.08.2019
3776 Clear 33 1011 66 10000 8.2 50 14:23 12.08.2019
3777 Clear 33 1011 66 10000 8.2 50 14:23 12.08.2019
3778 Clear 32 1012 58 10000 7.7 60 13:58 12.08.2019
3779 Clear 32 1012 58 10000 7.7 60 13:58 12.08.2019
3780 Clear 32 1012 58 10000 7.7 60 13:40 12.08.2019
3781 Clear 32 1012 55 10000 7.2 50 13:21 12.08.2019
3782 Clear 32 1012 70 10000 8.2 40 12:43 12.08.2019
3783 Clear 32 1012 70 10000 8.2 40 12:43 12.08.2019
3784 Clear 31 1012 70 10000 7.7 50 12:22 12.08.2019
3785 Clear 31 1012 58 10000 8.2 60 11:47 12.08.2019
3786 Clear 31 1012 58 10000 8.2 60 11:47 12.08.2019
3787 Clear 31 1012 58 10000 7.7 60 11:29 12.08.2019
3788 Clear 31 1012 55 10000 8.2 50 10:59 12.08.2019
3789 Clear 31 1012 55 10000 8.2 50 10:40 12.08.2019
3790 Clear 31 1012 74 10000 4.1 30 10:22 12.08.2019
3791 Clear 31 1012 74 10000 4.1 30 10:22 12.08.2019
3792 Clear 30 1012 83 10000 1 0 09:56 12.08.2019
3793 Clear 30 1012 83 10000 1 0 09:37 12.08.2019
3794 Clear 29 1012 83 10000 1 0 09:18 12.08.2019
3795 Clear 29 1012 74 10000 2.1 240 08:41 12.08.2019
3796 Clear 28 990 64 0 0.42 270.41 08:23 12.08.2019
3797 Clear 27 990 67 0 0.42 270.41 07:56 12.08.2019
3798 Clear 27 1011 83 10000 2.1 210 07:36 12.08.2019
3799 Clear 26 1011 78 10000 1.5 80 06:58 12.08.2019
3800 Clear 25 1011 78 10000 2.6 70 06:22 12.08.2019
3801 Clear 25 1012 73 10000 1 170 04:40 12.08.2019
3802 Clear 26 1012 83 10000 1 230 02:43 12.08.2019
3803 Clear 26 1013 94 10000 2.6 210 01:49 12.08.2019
3804 Clear 26 1013 88 10000 1.5 210 01:19 12.08.2019
3805 Clear 25 1013 88 10000 1.5 160 00:56 12.08.2019
3806 Clear 26 1013 88 10000 1.5 160 00:37 12.08.2019
3807 Clear 26 1013 88 10000 2.1 230 00:18 12.08.2019
3808 Clear 26 1013 88 10000 1.5 260 23:41 11.08.2019
3809 Clear 26 1014 78 10000 1 0 23:20 11.08.2019
3810 Clear 26 1014 78 10000 4.1 80 22:58 11.08.2019
3811 Clear 26 1014 78 10000 4.1 80 22:39 11.08.2019
3812 Clear 27 1014 78 10000 3.6 70 22:19 11.08.2019
3813 Clear 27 1013 78 10000 4.1 80 21:58 11.08.2019
3814 Clear 27 1013 78 10000 4.1 80 21:39 11.08.2019
3815 Clear 27 1013 78 10000 5.1 80 21:20 11.08.2019
3816 Clear 28 1013 74 10000 7.7 70 20:45 11.08.2019
3817 Clear 28 1012 74 10000 8.2 70 20:26 11.08.2019
3818 Clear 29 1012 74 10000 8.2 70 19:59 11.08.2019
3819 Clear 28 1012 78 10000 7.7 70 19:41 11.08.2019
3820 Clear 30 1012 78 10000 7.7 50 19:18 11.08.2019
3821 Clear 30 1012 70 10000 8.2 60 18:41 11.08.2019
3822 Clear 31 1012 74 10000 8.7 60 18:21 11.08.2019
3823 Clear 31 1012 74 10000 10.3 50 17:57 11.08.2019
3824 Clear 31 1012 74 10000 10.3 50 17:39 11.08.2019
3825 Clear 31 1012 79 10000 9.3 50 17:20 11.08.2019
3826 -273 0 0 0 0 0 16:55 11.08.2019
3827 Clear 31 1012 70 10000 9.3 60 16:37 11.08.2019
3828 Clear 31 1012 70 10000 10.3 60 16:18 11.08.2019
3829 Clear 31 1012 74 10000 10.3 50 15:43 11.08.2019
3830 Clear 32 1012 74 10000 10.3 50 15:43 11.08.2019
3831 Clear 31 1013 70 10000 10.8 60 15:24 11.08.2019
3832 Clear 32 1013 66 10000 10.3 60 14:57 11.08.2019
3833 Clear 32 1013 66 10000 10.3 60 14:38 11.08.2019
3834 Clear 32 1013 66 9000 9.3 60 14:19 11.08.2019
3835 Clear 31 1013 66 9000 8.7 60 13:44 11.08.2019
3836 Clear 32 1014 70 9000 8.7 60 13:24 11.08.2019
3837 Clear 32 1014 70 9000 7.7 60 12:49 11.08.2019
3838 Clear 32 1014 74 9000 8.2 50 12:25 11.08.2019
3839 Clear 31 1014 70 9000 6.2 50 11:57 11.08.2019
3840 Clear 30 1014 70 9000 6.2 50 11:38 11.08.2019
3841 Clear 30 1014 74 9000 5.7 40 11:20 11.08.2019
3842 Clear 29 1014 62 8000 3.6 80 10:55 11.08.2019
3843 Clear 29 1014 62 8000 3.6 80 10:36 11.08.2019
3844 Clear 28 1014 74 8000 5.7 40 10:18 11.08.2019
3845 Clear 28 1015 69 8000 3.6 60 09:40 11.08.2019
3846 Clear 27 1015 83 8000 1.5 260 09:22 11.08.2019
3847 Clear 27 1015 83 8000 1.5 180 08:48 11.08.2019
3848 Clear 26 1015 83 7000 0.5 0 08:28 11.08.2019
3849 Clear 25 1015 88 7000 1.5 140 07:56 11.08.2019
3850 Clear 25 1014 88 7000 1 140 07:27 11.08.2019
3851 Clear 24 1014 88 7000 1.5 110 06:45 11.08.2019
3852 Clear 24 1014 88 7000 1 0 06:21 11.08.2019
3853 Clear 25 1014 83 7000 2.6 90 04:37 11.08.2019
3854 Clear 25 1015 88 9000 0.5 0 02:49 11.08.2019
3855 Clear 25 1015 83 9000 2.1 210 01:51 11.08.2019
3856 Clear 25 1015 88 9000 2.1 210 01:26 11.08.2019
3857 Clear 25 1015 88 10000 1 240 00:53 11.08.2019
3858 Clear 25 1015 88 10000 1 240 00:33 11.08.2019
3859 Clear 26 1015 83 10000 3.6 80 23:49 10.08.2019
3860 Clear 26 1016 83 10000 4.6 80 23:29 10.08.2019
3861 Clear 26 1016 83 10000 5.7 60 22:45 10.08.2019
3862 Clear 26 1016 83 10000 5.7 50 22:26 10.08.2019
3863 Clear 26 1015 83 10000 6.2 40 21:58 10.08.2019
3864 Clear 27 1015 83 10000 6.2 40 21:39 10.08.2019
3865 Clear 27 1015 83 10000 5.7 40 21:21 10.08.2019
3866 Clear 27 1015 83 10000 5.7 50 20:57 10.08.2019
3867 Clear 27 1015 83 10000 5.7 50 20:39 10.08.2019
3868 Clear 28 1015 78 10000 5.7 50 20:18 10.08.2019
3869 Clear 28 1015 74 10000 7.2 50 19:41 10.08.2019
3870 Clear 29 1015 62 10000 7.2 60 19:22 10.08.2019
3871 Clear 29 1014 66 10000 8.2 50 18:42 10.08.2019
3872 Clear 31 1014 66 10000 8.2 50 18:23 10.08.2019
3873 Clear 30 1014 70 10000 9.3 50 17:56 10.08.2019
3874 Clear 31 1014 70 10000 9.3 50 17:38 10.08.2019
3875 Clear 31 1014 74 10000 9.3 50 17:19 10.08.2019
3876 Clear 31 1014 78 10000 9.3 40 16:42 10.08.2019
3877 Clear 31 1015 74 10000 8.7 40 16:22 10.08.2019
3878 Clear 31 1015 78 10000 8.2 40 15:45 10.08.2019
3879 Clear 32 1015 78 10000 8.2 40 15:22 10.08.2019
3880 Clear 31 1015 78 10000 8.7 40 14:44 10.08.2019
3881 Clear 31 1015 78 10000 8.7 40 14:19 10.08.2019
3882 Clear 30 1015 78 10000 8.2 40 13:41 10.08.2019
3883 Clear 30 1015 78 10000 8.2 40 13:20 10.08.2019
3884 Clear 30 1016 78 10000 8.2 40 12:54 10.08.2019
3885 Clear 30 1016 78 10000 8.2 40 12:36 10.08.2019
3886 Clear 30 1015 74 10000 8.2 50 12:18 10.08.2019
3887 Clear 29 1016 74 10000 8.2 50 11:41 10.08.2019
3888 Clear 29 1016 74 10000 8.2 50 11:41 10.08.2019
3889 Clear 29 1016 74 10000 7.7 40 11:22 10.08.2019
3890 Clear 28 1016 78 10000 7.2 40 10:55 10.08.2019
3891 Clear 28 1016 78 10000 7.2 40 10:37 10.08.2019
3892 Clear 28 1015 78 10000 7.2 40 10:18 10.08.2019
3893 Clear 27 1015 78 10000 6.7 50 09:41 10.08.2019
3894 Clear 28 1015 78 10000 6.7 50 09:41 10.08.2019
3895 Clear 27 1015 74 10000 6.7 50 09:23 10.08.2019
3896 Clear 26 1015 74 10000 5.1 60 08:42 10.08.2019
3897 Clear 26 1015 78 10000 4.1 60 08:20 10.08.2019
3898 Clear 25 1015 83 10000 2.6 70 07:54 10.08.2019
3899 Clear 24 1015 83 10000 2.1 70 07:29 10.08.2019
3900 Clear 24 1015 83 10000 2.1 70 07:29 10.08.2019
3901 Clear 24 1014 83 10000 3.1 60 06:49 10.08.2019
3902 Clear 24 1014 88 10000 1.5 80 06:29 10.08.2019
3903 Clear 23 1014 83 10000 1.5 230 05:28 10.08.2019
3904 Clear 23 1014 83 10000 1.5 160 04:53 10.08.2019
3905 Clear 23 1014 88 10000 1 0 03:26 10.08.2019
3906 Clear 24 1014 83 10000 1 0 02:32 10.08.2019
3907 Clear 24 1014 83 10000 1 0 01:43 10.08.2019
3908 Clear 24 1014 83 10000 2.1 100 01:23 10.08.2019
3909 Clear 24 1014 83 10000 4.6 70 00:57 10.08.2019
3910 Clear 24 1014 83 10000 4.6 70 00:39 10.08.2019
3911 Clear 24 1014 83 10000 4.1 60 00:18 10.08.2019
3912 Clear 24 1014 78 10000 4.6 50 23:38 09.08.2019
3913 Clear 25 1014 83 10000 5.1 60 23:20 09.08.2019
3914 Clear 25 1014 83 10000 5.7 50 22:54 09.08.2019
3915 Clear 25 1014 83 10000 6.7 50 22:36 09.08.2019
3916 Clear 25 1014 83 10000 6.7 50 22:18 09.08.2019
3917 Clear 25 1013 78 10000 6.2 50 21:40 09.08.2019
3918 Clear 26 1013 78 10000 5.7 50 21:21 09.08.2019
3919 Clear 26 1013 78 10000 6.2 40 20:57 09.08.2019
3920 Clear 26 1013 78 10000 6.2 40 20:38 09.08.2019
3921 Clear 26 1013 78 10000 6.7 40 20:18 09.08.2019
3922 Clear 27 1013 78 9000 6.7 40 19:43 09.08.2019
3923 Clouds 27 1013 78 8000 7.2 30 19:22 09.08.2019
3924 Clouds 27 1013 78 8000 7.2 30 19:22 09.08.2019
3925 Clouds 28 1013 78 8000 6.7 30 18:56 09.08.2019
3926 Clouds 29 1013 78 8000 6.7 30 18:38 09.08.2019
3927 Clouds 28 1013 78 8000 6.7 30 18:19 09.08.2019
3928 Clouds 29 1013 78 8000 6.7 30 17:42 09.08.2019
3929 Clear 29 1013 78 10000 6.7 40 17:24 09.08.2019
3930 Clear 29 1013 74 10000 6.7 30 16:54 09.08.2019
3931 Clear 29 1013 74 10000 6.7 30 16:36 09.08.2019
3932 Clouds 29 1013 74 10000 6.2 30 16:18 09.08.2019
3933 Clouds 30 1013 74 10000 6.2 30 15:41 09.08.2019
3934 Clouds 30 1013 74 10000 5.7 30 15:21 09.08.2019
3935 Clouds 30 1013 74 10000 5.1 30 14:57 09.08.2019
3936 Clouds 30 1013 74 10000 5.1 30 14:38 09.08.2019
3937 Clouds 30 1013 74 10000 5.1 10 14:20 09.08.2019
3938 Clouds 30 1014 74 10000 4.6 10 13:45 09.08.2019
3939 Clouds 30 1014 74 10000 4.6 360 13:21 09.08.2019
3940 Clouds 29 1014 74 10000 3.6 360 12:56 09.08.2019
3941 Clouds 29 1014 74 10000 3.6 360 12:37 09.08.2019
3942 Clouds 28 1014 74 10000 3.6 360 12:18 09.08.2019
3943 Clouds 28 1014 78 10000 3.1 10 11:41 09.08.2019
3944 Clouds 27 1014 74 10000 2.1 20 11:21 09.08.2019
3945 Clouds 27 1014 78 10000 2.1 20 10:54 09.08.2019
3946 Clouds 28 1014 78 10000 2.1 20 10:36 09.08.2019
3947 Clouds 28 1014 78 10000 2.6 20 10:18 09.08.2019
3948 Clouds 27 1014 83 10000 2.1 20 09:40 09.08.2019
3949 Clouds 26 1014 83 10000 1.5 20 09:19 09.08.2019
3950 Clouds 25 1013 88 10000 2.1 350 08:44 09.08.2019
3951 Clouds 25 1013 83 10000 1.5 360 08:25 09.08.2019
3952 Clouds 25 1013 88 10000 0.5 0 07:56 09.08.2019
3953 Clouds 25 1013 88 10000 0.5 0 07:37 09.08.2019
3954 Clouds 24 1013 88 10000 0.5 0 07:19 09.08.2019
3955 Clouds 24 1013 88 10000 1 0 06:44 09.08.2019
3956 Clouds 24 1013 88 10000 1 0 06:21 09.08.2019
3957 Clear 24 1012 94 10000 1.5 180 05:31 09.08.2019
3958 Clouds 25 1013 94 9000 1 0 02:28 09.08.2019
3959 Clouds 26 1013 88 9000 1 290 01:24 09.08.2019
3960 Clear 26 1013 88 9000 1 270 00:42 09.08.2019
3961 Clear 26 1013 88 9000 1.5 260 00:23 09.08.2019
3962 Clear 26 1013 88 9000 1.5 270 23:57 08.08.2019
3963 Clear 26 1013 88 9000 1.5 270 23:37 08.08.2019
3964 Clear 26 1012 88 9000 1 310 23:19 08.08.2019
3965 Clear 26 1012 88 9000 1 320 22:55 08.08.2019
3966 Clear 26 1012 88 9000 1 320 22:36 08.08.2019
3967 Clear 27 1012 88 9000 2.1 340 22:18 08.08.2019
3968 Clouds 27 1012 88 9000 0.5 0 21:42 08.08.2019
3969 Clouds 27 1012 88 9000 0.5 0 21:42 08.08.2019
3970 Clouds 27 1012 83 9000 0.5 0 21:23 08.08.2019
3971 Clouds 27 1011 83 9000 1 0 20:57 08.08.2019
3972 Clouds 27 1011 83 9000 1 0 20:57 08.08.2019
3973 Clouds 28 1011 83 9000 1 0 20:39 08.08.2019
3974 Clouds 28 1011 88 9000 1 0 20:19 08.08.2019
3975 Clouds 28 1011 88 10000 1 0 19:49 08.08.2019
3976 Clear 29 1011 88 10000 5.1 300 19:29 08.08.2019
3977 Clear 30 1011 83 10000 7.2 300 18:59 08.08.2019
3978 Clear 30 1011 83 10000 7.2 300 18:40 08.08.2019
3979 Clear 30 1011 79 10000 2.1 350 18:19 08.08.2019
3980 Clear 31 1010 79 10000 4.6 30 17:42 08.08.2019
3981 Clear 31 1010 79 10000 6.2 50 17:24 08.08.2019
3982 Clear 31 1010 74 10000 7.2 40 16:58 08.08.2019
3983 Clear 32 1010 74 10000 7.2 40 16:40 08.08.2019
3984 Clear 32 1010 70 10000 7.7 40 16:22 08.08.2019
3985 Clear 32 1011 66 10000 6.7 40 15:57 08.08.2019
3986 Clear 32 1011 66 10000 6.7 40 15:38 08.08.2019
3987 Clear 32 1010 62 10000 6.2 40 15:20 08.08.2019
3988 Clear 32 1011 55 10000 5.1 50 14:38 08.08.2019
3989 Clear 33 1011 66 10000 5.1 40 14:19 08.08.2019
3990 Clear 33 1010 55 10000 5.7 30 13:43 08.08.2019
3991 Clear 33 1010 55 10000 5.7 30 13:24 08.08.2019
3992 Clear 33 1010 55 10000 3.6 40 12:58 08.08.2019
3993 Clear 33 1010 55 10000 3.6 40 12:38 08.08.2019
3994 Clear 32 1010 55 10000 2.6 30 12:18 08.08.2019
3995 Clear 32 1010 62 10000 3.1 30 11:43 08.08.2019
3996 Clear 32 1010 58 10000 2.6 10 11:25 08.08.2019
3997 Clear 32 1010 58 10000 2.1 360 10:56 08.08.2019
3998 Clear 32 1010 58 10000 2.1 360 10:37 08.08.2019
3999 Clear 32 1010 48 10000 2.6 0 10:19 08.08.2019
4000 Clear 31 1010 51 10000 1.5 240 09:40 08.08.2019
4001 Clear 29 1010 78 10000 1.5 280 09:20 08.08.2019
4002 Clear 29 1010 78 10000 1 0 08:42 08.08.2019
4003 Clear 28 1010 78 10000 1.5 30 08:22 08.08.2019
4004 Clear 27 1010 74 10000 0.5 0 07:56 08.08.2019
4005 Clear 27 1010 74 10000 0.5 0 07:37 08.08.2019
4006 Clear 27 1010 74 10000 1.5 50 07:18 08.08.2019
4007 Clear 26 1010 74 10000 2.6 60 06:44 08.08.2019
4008 Clear 26 1010 74 10000 2.1 50 05:58 08.08.2019
4009 Clear 26 1010 74 10000 2.1 50 05:39 08.08.2019
4010 Clear 27 1010 65 10000 3.1 70 04:18 08.08.2019
4011 Clear 26 1010 65 10000 3.6 70 03:41 08.08.2019
4012 Clear 27 1011 33 10000 6.7 220 01:54 08.08.2019
4013 Clear 27 1011 35 10000 6.2 210 01:20 08.08.2019
4014 Clear 27 1011 35 10000 6.2 220 00:25 08.08.2019
4015 Clear 28 1011 35 10000 6.2 220 23:40 07.08.2019
4016 Clear 28 1011 37 10000 3.1 180 23:18 07.08.2019
4017 Clear 28 1011 45 10000 1 0 22:41 07.08.2019
4018 Clear 28 1011 37 10000 4.1 190 22:21 07.08.2019
4019 Clear 28 1011 35 10000 3.1 180 21:59 07.08.2019
4020 Clear 28 1011 35 10000 3.1 180 21:40 07.08.2019
4021 Clear 28 1011 35 10000 3.1 180 21:40 07.08.2019
4022 Clear 28 1011 40 10000 3.6 210 21:21 07.08.2019
4023 Clear 28 1011 40 10000 3.6 210 20:59 07.08.2019
4024 Clear 28 1011 38 10000 5.7 220 20:41 07.08.2019
4025 Clear 28 1011 35 10000 5.7 220 20:22 07.08.2019
4026 Clear 28 1012 55 0 1.79 142 19:56 07.08.2019
4027 Clear 29 1012 60 0 2.24 132 19:38 07.08.2019
4028 Clear 29 1012 58 0 1.79 148 19:19 07.08.2019
4029 Clear 29 1012 59 0 2.68 107 18:41 07.08.2019
4030 Clear 31 1012 22 10000 7.7 210 18:20 07.08.2019
4031 Clear 30 1012 51 0 3.13 116 17:57 07.08.2019
4032 Clear 30 1012 54 0 2.68 123 17:38 07.08.2019
4033 Clear 30 1012 52 0 2.68 90 17:20 07.08.2019
4034 Clear 30 1012 47 0 2.68 125 16:57 07.08.2019
4035 Clear 30 1012 47 0 2.68 125 16:57 07.08.2019
4036 Clear 30 1012 47 0 2.68 125 16:57 07.08.2019
4037 Clear 31 1013 42 0 3.58 101 16:39 07.08.2019
4038 Clear 31 1013 43 0 3.58 88 16:19 07.08.2019
4039 Clear 31 1012 25 10000 8.2 210 15:56 07.08.2019
4040 Clear 32 1012 25 10000 8.2 210 15:37 07.08.2019
4041 Clear 32 1012 25 10000 8.2 210 15:37 07.08.2019
4042 Clear 32 1012 25 10000 8.2 210 15:18 07.08.2019
4043 Clear 33 1012 28 10000 8.2 210 14:45 07.08.2019
4044 Clear 32 1012 28 10000 8.2 210 14:26 07.08.2019
4045 Clear 32 1012 28 10000 8.2 210 13:44 07.08.2019
4046 Clear 32 1012 26 10000 8.7 220 13:19 07.08.2019
4047 Clear 32 1012 19 10000 6.7 200 12:58 07.08.2019
4048 Clear 32 1012 19 10000 6.7 200 12:58 07.08.2019
4049 Clear 32 1012 19 10000 6.7 200 12:58 07.08.2019
4050 Clear 32 1012 19 10000 6.7 200 12:39 07.08.2019
4051 Clear 32 1012 18 10000 8.2 200 12:20 07.08.2019
4052 Clear 32 1012 16 10000 6.7 180 11:59 07.08.2019
4053 Clear 32 1012 16 10000 6.7 180 11:40 07.08.2019
4054 Clear 31 1012 16 10000 6.7 180 11:19 07.08.2019
4055 Clear 32 1012 16 10000 5.1 200 10:55 07.08.2019
4056 Clear 31 1012 16 10000 5.1 200 10:37 07.08.2019
4057 Clear 30 1012 18 10000 5.7 200 10:18 07.08.2019
4058 Clear 30 1012 22 10000 5.1 190 09:44 07.08.2019
4059 Clear 29 1013 58 10000 2.1 360 09:21 07.08.2019
4060 Clear 28 1012 51 10000 1 0 08:45 07.08.2019
4061 Clear 28 1013 47 10000 1.5 200 08:26 07.08.2019
4062 Clear 26 1013 41 10000 2.1 200 07:52 07.08.2019
4063 Clear 26 1013 41 10000 2.1 200 07:34 07.08.2019
4064 Clouds 25 1012 54 10000 2.6 90 06:57 07.08.2019
4065 Clear 25 1012 54 10000 4.1 6 06:29 07.08.2019
4066 Clear 25 1012 51 10000 4.6 80 05:46 07.08.2019
4067 Clear 25 1013 36 10000 2.6 210 04:51 07.08.2019
4068 Clear 25 1014 57 10000 2.6 190 03:21 07.08.2019
4069 Clear 24 1014 60 10000 1 0 02:44 07.08.2019
4070 Clear 25 1015 61 10000 1 0 01:58 07.08.2019
4071 Clear 24 1015 53 10000 1.5 90 01:31 07.08.2019
4072 Clear 25 1015 42 10000 2.1 200 00:39 07.08.2019
4073 Clear 25 1015 42 10000 2.1 210 00:20 07.08.2019
4074 Clear 25 1015 42 10000 2.1 180 23:41 06.08.2019
4075 Clear 25 1015 65 10000 2.1 230 23:21 06.08.2019
4076 Clear 25 1015 57 10000 4.1 220 22:56 06.08.2019
4077 Clear 25 1015 57 10000 4.1 220 22:37 06.08.2019
4078 Clear 26 1015 54 10000 3.1 190 22:18 06.08.2019
4079 Clear 26 1014 69 10000 5.1 200 21:42 06.08.2019
4080 Clear 26 1015 74 10000 5.1 210 21:24 06.08.2019
4081 Clear 26 1014 61 10000 2.6 210 20:57 06.08.2019
4082 Clear 27 1014 61 10000 2.6 210 20:39 06.08.2019
4083 Clear 27 1014 58 10000 2.1 50 20:21 06.08.2019
4084 Clear 28 1014 51 10000 3.6 40 19:43 06.08.2019
4085 Clear 28 1014 51 10000 3.6 40 19:25 06.08.2019
4086 Clear 29 1014 51 10000 3.6 40 18:46 06.08.2019
4087 Clear 29 1015 66 10000 4.1 40 18:27 06.08.2019
4088 Clear 30 1015 70 10000 4.1 40 17:59 06.08.2019
4089 Clear 30 1015 70 10000 4.1 40 17:39 06.08.2019
4090 Clear 30 1015 66 10000 5.1 40 17:21 06.08.2019
4091 Clear 30 1015 66 10000 5.1 40 16:59 06.08.2019
4092 Clear 30 1015 66 10000 5.1 30 16:39 06.08.2019
4093 Clear 30 1016 70 10000 5.1 40 16:20 06.08.2019
4094 Clear 30 1016 42 10000 5.1 40 15:57 06.08.2019
4095 Clear 30 1016 42 10000 5.1 40 15:38 06.08.2019
4096 Clear 30 1016 62 10000 4.1 40 15:19 06.08.2019
4097 Clear 31 1016 62 10000 3.1 10 14:44 06.08.2019
4098 Clear 31 1016 66 10000 3.1 10 14:25 06.08.2019
4099 Clear 30 1017 58 10000 2.6 360 13:58 06.08.2019
4100 Clear 30 1017 62 10000 2.6 330 13:39 06.08.2019
4101 Clear 30 1017 62 10000 2.6 330 13:20 06.08.2019
4102 Clear 30 1017 65 10000 3.1 320 12:57 06.08.2019
4103 Clear 30 1017 65 10000 3.1 320 12:38 06.08.2019
4104 Clear 29 1017 74 10000 3.6 280 12:20 06.08.2019
4105 Clear 30 995 49 0 2.41 344.14 11:41 06.08.2019
4106 Clear 29 995 49 0 2.41 344.14 11:19 06.08.2019
4107 Clear 29 995 46 0 2.41 344.14 10:42 06.08.2019
4108 Clear 29 995 45 0 2.41 344.14 10:23 06.08.2019
4109 Clear 29 994 46 0 2.41 344.14 09:58 06.08.2019
4110 Clear 28 994 47 0 2.41 344.14 09:38 06.08.2019
4111 Clear 27 1016 65 10000 1.5 160 09:19 06.08.2019
4112 Clear 26 1016 65 10000 1.5 160 08:42 06.08.2019
4113 Clear 26 1016 69 10000 1.5 220 08:24 06.08.2019
4114 Clear 25 1016 69 10000 1.5 120 07:36 06.08.2019
4115 Clear 25 1016 73 10000 1.5 30 06:53 06.08.2019
4116 Clear 24 1016 73 10000 1.5 30 06:35 06.08.2019
4117 Clear 23 1016 73 10000 2.6 230 05:52 06.08.2019
4118 Clear 23 1015 64 10000 1 140 04:31 06.08.2019
4119 Clear 23 1016 78 10000 0.5 0 01:53 06.08.2019
4120 Clear 23 1016 78 10000 2.6 200 01:23 06.08.2019
4121 Clear 23 1016 83 10000 4.6 220 00:30 06.08.2019
4122 Clear 24 1016 78 10000 4.6 210 23:46 05.08.2019
4123 Clear 24 1015 78 10000 3.6 210 23:19 05.08.2019
4124 Clear 25 1015 78 10000 3.6 220 22:41 05.08.2019
4125 Clear 24 1015 78 10000 2.6 240 22:23 05.08.2019
4126 Clear 25 1015 74 10000 2.6 230 21:55 05.08.2019
4127 Clear 25 1015 74 10000 2.6 230 21:36 05.08.2019
4128 Clear 26 1015 74 10000 5.1 60 21:18 05.08.2019
4129 Clear 25 1014 74 10000 5.7 50 20:55 05.08.2019
4130 Clear 26 1014 74 10000 5.7 50 20:37 05.08.2019
4131 Clear 26 1014 65 10000 6.2 50 20:18 05.08.2019
4132 Clear 27 1014 69 10000 7.2 50 19:43 05.08.2019
4133 Clear 27 1014 65 10000 7.7 50 19:23 05.08.2019
4134 Clear 28 1014 65 10000 8.2 50 18:57 05.08.2019
4135 Clear 29 1014 65 10000 8.2 50 18:39 05.08.2019
4136 Clear 29 1014 65 10000 9.3 50 18:18 05.08.2019
4137 Clear 29 1014 62 10000 8.7 60 17:41 05.08.2019
4138 Clear 29 1014 65 10000 8.7 60 17:22 05.08.2019
4139 Clear 30 1015 62 10000 8.7 60 16:46 05.08.2019
4140 Clear 29 1015 62 10000 8.2 50 16:25 05.08.2019
4141 Clear 29 1015 65 10000 7.7 40 15:46 05.08.2019
4142 Clear 30 1015 69 10000 6.7 40 15:28 05.08.2019
4143 Clear 30 1015 69 10000 7.2 40 14:59 05.08.2019
4144 Clear 30 1015 69 10000 7.2 40 14:38 05.08.2019
4145 Clear 30 1015 69 10000 7.2 40 14:19 05.08.2019
4146 Clear 30 1016 65 10000 6.7 40 13:43 05.08.2019
4147 Clear 30 1016 69 10000 6.2 40 13:22 05.08.2019
4148 Clear 30 1016 69 10000 6.2 40 12:46 05.08.2019
4149 Clear 29 1016 61 10000 4.6 40 12:20 05.08.2019
4150 Clear 28 1016 74 10000 2.1 350 11:47 05.08.2019
4151 Clear 28 1016 69 10000 2.1 340 11:27 05.08.2019
4152 Clear 28 1016 78 10000 2.1 310 10:59 05.08.2019
4153 Clear 28 1016 78 10000 2.1 310 10:41 05.08.2019
4154 Clear 28 1016 74 10000 3.1 260 10:21 05.08.2019
4155 Clear 27 1016 74 10000 3.6 250 09:43 05.08.2019
4156 Clear 26 1016 69 10000 3.6 230 09:24 05.08.2019
4157 Clear 25 1015 73 10000 3.1 220 08:49 05.08.2019
4158 Clear 25 1015 73 10000 1.5 180 08:28 05.08.2019
4159 Clear 24 1015 78 10000 2.6 190 07:59 05.08.2019
4160 Clear 24 1015 78 10000 2.6 190 07:41 05.08.2019
4161 Clear 23 1015 83 10000 1.5 210 07:20 05.08.2019
4162 Clear 22 1015 73 10000 1.5 110 06:30 05.08.2019
4163 Clear 22 1014 73 10000 5.1 70 05:46 05.08.2019
4164 Clear 22 1015 73 10000 4.6 70 05:19 05.08.2019
4165 Clear 22 1015 78 10000 2.1 130 04:24 05.08.2019
4166 Clear 23 1015 78 10000 2.6 70 03:30 05.08.2019
4167 Clear 23 1015 78 10000 2.1 120 02:34 05.08.2019
4168 Clear 23 1015 73 10000 1 0 01:33 05.08.2019
4169 Clear 23 1015 78 10000 3.1 50 00:41 05.08.2019
4170 Clear 23 1015 73 10000 3.1 60 00:21 05.08.2019
4171 Clear 23 1015 73 10000 3.6 60 23:56 04.08.2019
4172 Clear 23 1015 73 10000 3.6 60 23:36 04.08.2019
4173 Clear 23 1014 78 10000 3.6 80 23:18 04.08.2019
4174 Clear 24 1014 69 10000 4.6 60 22:54 04.08.2019
4175 Clear 24 1014 69 10000 4.6 60 22:36 04.08.2019
4176 Clear 24 1014 69 10000 4.6 60 22:36 04.08.2019
4177 Clear 24 1014 74 10000 4.1 50 22:18 04.08.2019
4178 Clear 24 1014 74 10000 5.7 50 21:42 04.08.2019
4179 Clear 25 1014 69 10000 6.2 50 21:20 04.08.2019
4180 Clear 25 1013 69 10000 6.2 60 20:45 04.08.2019
4181 Clear 25 1013 69 10000 7.2 50 20:20 04.08.2019
4182 Clear 26 1013 69 10000 7.2 50 19:58 04.08.2019
4183 Clear 26 1013 69 10000 7.2 50 19:38 04.08.2019
4184 Clear 27 1013 74 10000 7.2 40 19:20 04.08.2019
4185 Clear 27 1013 74 10000 7.7 40 18:42 04.08.2019
4186 Clear 28 1013 69 10000 7.7 40 18:20 04.08.2019
4187 Clear 28 1013 74 10000 7.7 40 17:45 04.08.2019
4188 Clear 29 1013 69 10000 7.7 40 17:26 04.08.2019
4189 Clear 30 1013 69 10000 7.7 40 16:59 04.08.2019
4190 Clear 30 1013 65 10000 7.2 40 16:39 04.08.2019
4191 Clear 30 1013 65 10000 7.2 40 16:20 04.08.2019
4192 Clear 30 1013 65 10000 7.7 40 15:43 04.08.2019
4193 Clear 30 1013 65 10000 7.7 40 15:22 04.08.2019
4194 Clear 31 1013 65 10000 7.2 40 14:45 04.08.2019
4195 Clear 31 1013 65 10000 6.7 40 14:26 04.08.2019
4196 Clear 30 1013 65 10000 5.7 40 13:47 04.08.2019
4197 Clear 30 1013 65 10000 5.7 40 13:28 04.08.2019
4198 Clear 29 1013 69 10000 5.7 40 12:59 04.08.2019
4199 Clear 30 1013 69 10000 5.7 40 12:40 04.08.2019
4200 Clear 29 1013 69 10000 5.7 40 12:22 04.08.2019
4201 Clear 29 1013 65 10000 4.6 30 11:56 04.08.2019
4202 Clear 29 1013 65 10000 4.6 30 11:37 04.08.2019
4203 Clear 29 1013 65 10000 4.1 30 11:18 04.08.2019
4204 Clear 28 1013 69 10000 1.5 320 10:40 04.08.2019
4205 Clear 28 1013 69 10000 1.5 280 10:19 04.08.2019
4206 Clear 27 1013 69 10000 1.5 0 09:43 04.08.2019
4207 Clear 27 1013 69 10000 2.6 250 09:22 04.08.2019
4208 Clear 26 1013 73 10000 1.5 150 08:43 04.08.2019
4209 Clear 26 1013 78 10000 3.1 90 08:25 04.08.2019
4210 Clear 25 1012 83 10000 3.6 70 07:51 04.08.2019
4211 Clear 24 1012 88 10000 3.1 60 06:51 04.08.2019
4212 Clear 23 1012 83 10000 2.1 80 06:28 04.08.2019
4213 Clear 23 1012 78 10000 1.5 130 03:46 04.08.2019
4214 Clear 24 1012 69 10000 2.6 180 02:24 04.08.2019
4215 Clear 24 1012 69 10000 1.5 180 01:33 04.08.2019
4216 Clear 24 1012 78 10000 1.5 180 00:46 04.08.2019
4217 Clear 24 1012 78 10000 1.5 180 00:26 04.08.2019
4218 Clear 24 1012 78 10000 1.5 180 00:26 04.08.2019
4219 Clear 24 1012 78 10000 0.53 357.202 23:57 03.08.2019
4220 Clear 24 1012 78 10000 0.53 357.202 23:39 03.08.2019
4221 Clear 24 1012 78 10000 1 0 23:18 03.08.2019
4222 Clear 24 1012 78 10000 1 0 23:18 03.08.2019
4223 Clear 25 1012 74 10000 0.5 0 22:44 03.08.2019
4224 Clear 25 1012 74 10000 1 0 22:20 03.08.2019
4225 Clear 25 1012 74 10000 1 330 21:41 03.08.2019
4226 Clear 25 1012 69 10000 0.5 0 21:22 03.08.2019
4227 Clear 25 1012 69 10000 1 0 20:58 03.08.2019
4228 Clear 26 1012 69 10000 1 0 20:40 03.08.2019
4229 Clear 26 1012 65 10000 0.5 0 20:20 03.08.2019
4230 Clear 27 1012 69 10000 1.5 270 19:41 03.08.2019
4231 Clear 28 1012 65 10000 1.5 280 19:23 03.08.2019
4232 Clear 28 1012 65 10000 1.5 290 18:49 03.08.2019
4233 Clear 28 1012 65 10000 1.5 300 18:27 03.08.2019
4234 Clear 29 1012 65 10000 1.5 310 17:48 03.08.2019
4235 Clear 30 1012 69 10000 2.1 320 17:21 03.08.2019
4236 Clear 30 1012 69 10000 2.1 320 16:55 03.08.2019
4237 Clear 30 1012 66 10000 2.1 310 16:37 03.08.2019
4238 Clear 31 1012 66 10000 2.1 310 16:18 03.08.2019
4239 Clear 31 1012 74 10000 2.6 300 15:43 03.08.2019
4240 Clear 31 1012 78 10000 3.1 290 15:21 03.08.2019
4241 Clear 31 1012 78 10000 3.1 290 14:39 03.08.2019
4242 Clear 32 1012 74 10000 4.6 300 14:21 03.08.2019
4243 Clear 32 1012 74 10000 4.6 300 14:21 03.08.2019
4244 Clear 32 1012 74 10000 5.7 310 13:51 03.08.2019
4245 Clear 31 1012 74 10000 4.6 300 13:24 03.08.2019
4246 Clear 31 1011 83 10000 4.6 300 12:57 03.08.2019
4247 Clear 31 1011 83 10000 4.6 300 12:38 03.08.2019
4248 Clear 31 1011 83 10000 4.1 300 12:20 03.08.2019
4249 Clear 31 1011 78 10000 5.1 310 11:47 03.08.2019
4250 Clear 30 1011 78 10000 4.1 320 11:25 03.08.2019
4251 Clear 31 1011 74 10000 3.6 320 10:40 03.08.2019
4252 Clear 31 1011 65 10000 3.6 260 10:22 03.08.2019
4253 Clear 30 1011 69 10000 4.1 260 09:39 03.08.2019
4254 Clear 29 1011 61 10000 4.1 240 09:21 03.08.2019
4255 Clear 29 1011 69 10000 4.1 230 08:46 03.08.2019
4256 Clear 28 1010 61 10000 2.6 230 07:49 03.08.2019
4257 Clear 27 1010 57 10000 3.1 210 07:30 03.08.2019
4258 Clear 27 1010 48 10000 5.1 230 06:23 03.08.2019
4259 Clear 26 1009 38 10000 7.7 200 03:58 03.08.2019
4260 Clear 28 1010 29 10000 10.3 200 02:29 03.08.2019
4261 Clear 26 1010 18 10000 8.7 200 01:36 03.08.2019
4262 Clear 27 1010 15 10000 10.3 200 00:38 03.08.2019
4263 Clear 29 1010 17 10000 9.8 200 23:57 02.08.2019
4264 Clear 29 1010 17 10000 9.8 200 23:38 02.08.2019
4265 Clear 28 1010 25 10000 8.2 210 23:18 02.08.2019
4266 Clear 28 1010 25 10000 7.7 220 22:56 02.08.2019
4267 Clear 29 1010 25 10000 7.7 220 22:37 02.08.2019
4268 Clear 29 1010 27 10000 7.2 210 22:18 02.08.2019
4269 Clear 29 1010 27 10000 7.7 210 21:42 02.08.2019
4270 Clear 30 1009 17 10000 7.7 210 21:22 02.08.2019
4271 Clear 31 1009 22 10000 7.7 210 20:46 02.08.2019
4272 Clear 31 1009 27 10000 6.7 210 20:28 02.08.2019
4273 Clear 30 1010 66 10000 4.6 250 19:56 02.08.2019
4274 Clear 30 1010 66 10000 4.6 250 19:35 02.08.2019
4275 Clear 31 1011 62 10000 4.6 230 18:57 02.08.2019
4276 Clear 31 1011 62 10000 4.6 230 18:39 02.08.2019
4277 Clear 32 1011 62 10000 4.6 230 18:20 02.08.2019
4278 Clear 32 1011 59 10000 5.1 230 17:42 02.08.2019
4279 Clear 33 1011 46 10000 1.5 30 17:24 02.08.2019
4280 Clear 33 1011 46 10000 3.6 40 16:56 02.08.2019
4281 Clear 33 1011 46 10000 3.6 40 16:37 02.08.2019
4282 Clear 33 1011 44 10000 5.1 40 16:18 02.08.2019
4283 Clear 33 1011 46 10000 5.7 50 15:38 02.08.2019
4284 Clear 34 1011 34 10000 7.2 70 15:19 02.08.2019
4285 Clear 34 1012 34 10000 7.2 60 14:45 02.08.2019
4286 Clear 34 1012 34 10000 7.2 60 14:45 02.08.2019
4287 Clear 33 1012 34 10000 7.7 60 14:18 02.08.2019
4288 Clear 33 1012 34 10000 7.2 60 13:47 02.08.2019
4289 Clear 33 1013 28 10000 6.2 50 13:23 02.08.2019
4290 Clear 32 1013 38 10000 5.1 50 12:44 02.08.2019
4291 Clear 32 1014 45 10000 6.2 40 12:21 02.08.2019
4292 Clear 32 1013 55 10000 5.7 40 11:48 02.08.2019
4293 Clear 32 1013 62 10000 5.1 50 11:26 02.08.2019
4294 Clear 32 1013 62 10000 3.6 40 10:55 02.08.2019
4295 Clear 32 1013 62 10000 3.6 40 10:55 02.08.2019
4296 Clear 32 1013 62 10000 3.6 40 10:37 02.08.2019
4297 Clear 32 1019 46 0 0.89 28 10:19 02.08.2019
4298 Clear 31 1013 54 10000 4.1 240 09:48 02.08.2019
4299 Clear 30 1013 54 10000 4.1 230 09:24 02.08.2019
4300 Clear 29 1013 51 10000 4.1 240 08:47 02.08.2019
4301 Clear 28 1013 57 10000 1.5 220 08:21 02.08.2019
4302 Clear 26 1012 54 10000 1.5 200 07:48 02.08.2019
4303 Clear 27 1012 57 10000 2.1 180 07:29 02.08.2019
4304 Clear 25 1012 69 10000 2.1 170 06:44 02.08.2019
4305 Clear 25 1012 65 10000 1.5 140 05:52 02.08.2019
4306 Clear 26 1012 65 10000 1 60 04:19 02.08.2019
4307 Clear 26 1013 73 10000 1.5 240 03:25 02.08.2019
4308 Clear 25 1013 61 10000 4.1 70 02:33 02.08.2019
4309 Clear 26 1014 61 10000 1 200 00:38 02.08.2019
4310 Clear 26 1014 78 10000 3.1 210 23:46 01.08.2019
4311 Clear 26 1014 78 10000 3.6 210 23:28 01.08.2019
4312 Clear 26 1014 74 10000 3.6 240 22:58 01.08.2019
4313 Clear 26 1014 74 10000 3.6 240 22:38 01.08.2019
4314 Clear 27 1014 74 10000 1.5 90 22:19 01.08.2019
4315 Clear 27 1013 74 10000 2.6 100 21:43 01.08.2019
4316 Clear 27 1013 74 10000 2.6 100 21:43 01.08.2019
4317 Clear 27 1013 78 10000 6.2 60 21:24 01.08.2019
4318 Clear 28 1013 74 10000 7.7 70 20:55 01.08.2019
4319 Clear 28 1013 74 10000 7.7 70 20:37 01.08.2019
4320 Clear 28 1013 69 10000 7.2 70 20:19 01.08.2019
4321 Clear 29 1013 69 10000 7.2 60 19:41 01.08.2019
4322 Clear 29 1013 74 10000 6.7 50 19:19 01.08.2019
4323 Clear 30 1013 74 10000 7.2 50 18:44 01.08.2019
4324 Clear 31 1013 62 10000 6.2 60 18:24 01.08.2019
4325 Clear 32 1013 70 10000 6.2 50 17:52 01.08.2019
4326 Clear 32 1013 70 10000 6.2 50 17:33 01.08.2019
4327 Clear 33 1014 66 10000 5.1 40 16:59 01.08.2019
4328 Clear 33 1014 66 10000 5.1 40 16:40 01.08.2019
4329 Clear 33 1014 66 10000 4.6 40 16:20 01.08.2019
4330 Clear 34 1014 41 10000 4.6 40 15:41 01.08.2019
4331 Clear 32 1014 55 10000 4.1 40 15:20 01.08.2019
4332 Clear 32 1014 58 10000 3.6 20 14:43 01.08.2019
4333 Clear 33 1014 70 10000 2.6 250 14:20 01.08.2019
4334 Clear 32 1014 66 10000 2.1 240 13:58 01.08.2019
4335 Clear 32 1014 66 10000 2.1 240 13:40 01.08.2019
4336 Clear 32 1015 74 10000 2.6 270 13:21 01.08.2019
4337 Clear 32 1015 66 10000 1.5 260 12:49 01.08.2019
4338 Clear 31 1015 54 10000 4.1 240 12:28 01.08.2019
4339 Clear 30 1015 43 10000 5.7 50 11:44 01.08.2019
4340 Clear 30 1015 65 10000 2.1 30 11:26 01.08.2019
4341 Clear 29 1015 74 10000 2.1 350 10:59 01.08.2019
4342 Clear 29 1015 74 10000 2.1 350 10:40 01.08.2019
4343 Clear 28 1015 74 10000 2.1 290 10:22 01.08.2019
4344 Clear 28 1015 74 10000 2.1 290 10:22 01.08.2019
4345 Clear 28 1015 78 10000 2.6 260 09:48 01.08.2019
4346 Clear 27 1015 78 10000 2.1 250 09:23 01.08.2019
4347 Clear 27 1015 73 10000 1.5 210 08:50 01.08.2019
4348 Clear 26 1015 73 10000 1.5 190 08:21 01.08.2019
4349 Clear 25 994 64 0 1.08 130.361 07:55 01.08.2019
4350 Clear 25 1015 83 10000 1 0 07:29 01.08.2019
4351 Clear 23 994 72 0 1.08 130.361 06:58 01.08.2019
4352 Clear 23 994 73 0 0.46 98.183 06:36 01.08.2019
4353 Clear 24 993 77 0 0.46 98.183 05:32 01.08.2019
4354 Clear 24 994 75 0 0.22 5.553 02:36 01.08.2019
4355 Clear 24 994 75 0 0.88 23.916 01:33 01.08.2019
4356 Clear 24 1015 78 10000 4.1 250 00:27 01.08.2019
4357 Clear 23 1015 78 10000 2.6 140 23:59 31.07.2019
4358 Clear 24 1015 78 10000 2.6 140 23:40 31.07.2019
4359 Clear 24 1015 73 10000 3.1 80 23:19 31.07.2019
4360 Clear 24 1015 73 10000 5.1 50 22:44 31.07.2019
4361 Clear 24 1014 73 10000 5.7 50 22:25 31.07.2019
4362 Clear 24 1015 74 10000 6.2 40 21:41 31.07.2019
4363 Clear 25 1014 74 10000 6.7 40 21:23 31.07.2019
4364 Clear 25 1014 69 10000 6.7 50 20:49 31.07.2019
4365 Clear 25 1014 69 10000 7.2 40 20:24 31.07.2019
4366 Clear 26 1014 69 10000 6.7 40 19:55 31.07.2019
4367 Clear 26 1014 69 10000 6.7 40 19:37 31.07.2019
4368 Clear 27 1014 74 10000 6.7 40 19:19 31.07.2019
4369 Clear 28 1014 69 10000 6.7 40 18:39 31.07.2019
4370 Clear 28 1014 69 10000 7.2 40 18:19 31.07.2019
4371 Clear 28 1014 69 10000 6.7 40 17:45 31.07.2019
4372 Clear 29 1014 69 10000 7.2 40 17:20 31.07.2019
4373 Clear 29 1014 69 10000 6.7 40 16:54 31.07.2019
4374 Clear 29 1014 69 10000 6.7 40 16:33 31.07.2019
4375 Clear 29 1014 74 10000 7.2 40 15:59 31.07.2019
4376 Clear 29 1014 74 10000 7.2 40 15:40 31.07.2019
4377 Clear 29 1014 74 10000 7.7 40 15:21 31.07.2019
4378 Clear 29 1014 74 10000 8.2 40 14:42 31.07.2019
4379 Clear 29 1014 65 10000 8.2 50 14:20 31.07.2019
4380 Clear 29 1014 69 10000 7.7 40 13:56 31.07.2019
4381 Clear 29 1014 69 10000 7.7 40 13:37 31.07.2019
4382 Clear 29 1014 65 10000 7.7 50 13:19 31.07.2019
4383 Clear 28 1015 69 10000 7.7 50 12:42 31.07.2019
4384 Clear 28 1015 74 10000 7.7 40 12:23 31.07.2019
4385 Clouds 27 1015 74 10000 7.2 40 11:40 31.07.2019
4386 Clouds 27 1015 74 10000 6.7 30 11:21 31.07.2019
4387 Clouds 27 1015 74 10000 5.7 40 10:56 31.07.2019
4388 Clouds 27 1015 74 10000 5.7 40 10:38 31.07.2019
4389 Clouds 26 1015 78 10000 5.1 40 10:19 31.07.2019
4390 Clouds 26 1015 74 10000 4.6 40 09:43 31.07.2019
4391 Clouds 24 1015 78 10000 4.1 40 09:23 31.07.2019
4392 Clouds 24 1014 78 10000 4.1 40 08:44 31.07.2019
4393 Clouds 23 1014 73 10000 3.6 60 08:24 31.07.2019
4394 Clouds 23 1014 78 10000 3.1 70 07:50 31.07.2019
4395 Clouds 22 1014 78 10000 4.1 70 07:31 31.07.2019
4396 Clear 21 1013 78 10000 3.1 70 05:24 31.07.2019
4397 Clear 21 1013 78 10000 3.1 70 04:21 31.07.2019
4398 Clear 22 1014 73 10000 3.6 360 00:41 31.07.2019
4399 Clear 22 1013 69 10000 3.6 360 23:51 30.07.2019
4400 Clear 22 1013 73 10000 3.6 10 23:30 30.07.2019
4401 Clouds 23 1013 69 10000 4.1 10 22:59 30.07.2019
4402 Clouds 23 1013 69 10000 4.1 10 22:40 30.07.2019
4403 Clouds 23 1013 73 10000 4.6 20 22:21 30.07.2019
4404 Clouds 23 1013 78 10000 4.6 30 21:38 30.07.2019
4405 Clouds 23 1012 73 10000 4.1 50 21:19 30.07.2019
4406 Clouds 23 1012 73 10000 4.6 50 20:56 30.07.2019
4407 Clouds 24 1012 74 10000 5.7 40 20:38 30.07.2019
4408 Clouds 25 1012 74 10000 5.7 40 20:19 30.07.2019
4409 Clear 25 1012 69 10000 6.2 40 19:47 30.07.2019
4410 Clear 26 1012 69 10000 6.2 40 19:28 30.07.2019
4411 Clear 27 1012 69 10000 6.2 50 18:48 30.07.2019
4412 Clear 27 1012 65 10000 6.7 50 18:25 30.07.2019
4413 Clear 27 1012 69 10000 6.7 40 17:58 30.07.2019
4414 Clear 27 1012 69 10000 6.7 40 17:40 30.07.2019
4415 Clear 28 1012 69 10000 7.2 40 17:18 30.07.2019
4416 Clear 28 1012 69 10000 7.2 40 16:46 30.07.2019
4417 Clear 27 1012 69 10000 7.2 40 16:46 30.07.2019
4418 Clear 27 1012 69 10000 6.7 40 16:19 30.07.2019
4419 Clear 28 1012 69 10000 6.7 40 15:41 30.07.2019
4420 Clear 28 1012 65 10000 6.7 40 15:22 30.07.2019
4421 -273 0 0 0 0 0 14:46 30.07.2019
4422 Clear 28 1013 69 10000 6.2 40 14:26 30.07.2019
4423 Clear 28 1013 69 10000 6.2 40 13:59 30.07.2019
4424 Clear 28 1013 69 10000 6.2 40 13:39 30.07.2019
4425 Clear 28 1013 61 10000 6.2 40 13:20 30.07.2019
4426 Clear 28 1012 65 10000 5.7 40 12:46 30.07.2019
4427 Clear 27 1012 65 10000 5.7 40 12:28 30.07.2019
4428 Clear 27 1012 65 10000 5.7 30 11:56 30.07.2019
4429 Clear 27 1012 65 10000 5.7 30 11:37 30.07.2019
4430 Clear 27 1012 65 10000 4.1 30 11:18 30.07.2019
4431 Clear 27 1012 73 10000 2.6 10 10:39 30.07.2019
4432 Clear 26 1012 73 10000 1.5 330 10:20 30.07.2019
4433 Clear 26 1012 78 10000 2.1 270 09:48 30.07.2019
4434 Clear 26 1012 73 10000 1.5 270 09:28 30.07.2019
4435 Clear 24 1012 73 10000 1 0 08:43 30.07.2019
4436 Clear 24 1012 78 10000 2.1 230 08:20 30.07.2019
4437 Clear 23 1012 78 10000 1 0 07:46 30.07.2019
4438 Clear 22 1011 78 10000 2.1 190 07:23 30.07.2019
4439 Clear 21 1011 78 10000 1.5 240 06:46 30.07.2019
4440 Clear 21 1011 78 10000 1.5 240 06:46 30.07.2019
4441 Clear 21 1011 78 10000 1.5 90 05:47 30.07.2019
4442 Clear 21 1011 78 10000 2.1 100 05:25 30.07.2019
4443 Clear 21 1011 69 10000 1.5 140 01:38 30.07.2019
4444 Clear 21 1011 69 10000 2.1 150 00:40 30.07.2019
4445 Clear 21 1011 69 10000 2.1 160 00:19 30.07.2019
4446 Clear 22 1011 73 10000 1.5 160 23:44 29.07.2019
4447 Clear 22 1011 69 10000 1 0 23:25 29.07.2019
4448 Clear 22 1011 65 10000 1.5 350 22:57 29.07.2019
4449 Clear 22 1011 65 10000 1.5 330 22:38 29.07.2019
4450 Clear 22 1011 65 10000 1.5 330 22:19 29.07.2019
4451 Clear 23 1011 69 10000 1.5 330 21:46 29.07.2019
4452 Clear 23 1011 69 10000 1.5 330 21:46 29.07.2019
4453 Clear 23 1011 65 10000 1.5 310 21:28 29.07.2019
4454 Clear 23 1011 65 10000 0.5 0 20:58 29.07.2019
4455 Clear 23 1011 65 10000 0.5 0 20:40 29.07.2019
4456 Clear 23 1011 65 10000 0.5 0 20:40 29.07.2019
4457 Clear 24 1011 65 10000 1 0 20:21 29.07.2019
4458 Clouds 25 1011 61 10000 2.1 300 19:54 29.07.2019
4459 Clouds 25 1011 61 10000 2.1 300 19:36 29.07.2019
4460 Clouds 25 1011 65 10000 3.1 290 19:18 29.07.2019
4461 Clouds 25 1011 65 10000 3.1 290 19:18 29.07.2019
4462 Clouds 26 1011 69 10000 3.6 290 18:41 29.07.2019
4463 Clouds 26 1011 69 10000 4.6 280 18:21 29.07.2019
4464 Clouds 26 1011 69 10000 6.2 280 17:49 29.07.2019
4465 Clouds 26 1011 69 10000 7.2 280 17:31 29.07.2019
4466 Clouds 26 1011 69 10000 7.7 290 16:57 29.07.2019
4467 Clouds 26 1011 69 10000 7.7 290 16:38 29.07.2019
4468 Clouds 27 1011 69 10000 7.7 280 16:20 29.07.2019
4469 Clouds 27 1010 69 10000 8.2 290 15:49 29.07.2019
4470 Clouds 27 1010 69 10000 8.2 280 15:30 29.07.2019
4471 Clouds 26 1010 69 10000 8.7 290 14:44 29.07.2019
4472 Clouds 26 1010 69 10000 8.7 290 14:21 29.07.2019
4473 Clouds 26 1011 69 10000 7.7 280 13:57 29.07.2019
4474 Clouds 27 1011 69 10000 7.7 280 13:36 29.07.2019
4475 Clouds 27 1010 69 10000 7.7 280 13:18 29.07.2019
4476 Clouds 26 1010 73 10000 7.7 280 12:41 29.07.2019
4477 Clouds 26 1011 69 10000 7.2 280 12:21 29.07.2019
4478 Clouds 26 1011 65 10000 6.7 280 11:42 29.07.2019
4479 Clouds 26 1010 69 10000 6.7 270 11:21 29.07.2019
4480 Clouds 25 1010 69 10000 6.7 270 10:45 29.07.2019
4481 Clouds 26 1010 69 10000 6.7 270 10:23 29.07.2019
4482 Clouds 24 1010 69 10000 7.2 280 09:45 29.07.2019
4483 Clouds 24 1010 65 10000 6.7 280 09:25 29.07.2019
4484 Clouds 23 1009 73 10000 5.1 250 08:56 29.07.2019
4485 Clouds 23 1009 69 10000 6.2 280 08:27 29.07.2019
4486 Clouds 23 1009 69 10000 6.2 270 07:55 29.07.2019
4487 Clouds 23 1009 69 10000 5.7 270 07:32 29.07.2019
4488 Clouds 21 1009 73 10000 5.1 260 06:43 29.07.2019
4489 Clear 22 1009 73 10000 4.6 280 05:39 29.07.2019
4490 Clear 22 1008 73 10000 5.7 280 04:35 29.07.2019
4491 Clear 22 1008 69 10000 8.7 270 01:55 29.07.2019
4492 Clear 23 1009 61 10000 9.3 270 01:37 29.07.2019
4493 Clear 23 1008 69 10000 9.3 270 00:59 29.07.2019
4494 Clear 23 1009 78 10000 7.7 250 00:32 29.07.2019
4495 Clear 24 1008 78 10000 8.2 260 23:51 28.07.2019
4496 Clear 24 1008 78 10000 8.2 260 23:33 28.07.2019
4497 Clear 24 1008 73 10000 9.3 250 22:58 28.07.2019
4498 Clear 24 1008 73 10000 9.3 250 22:37 28.07.2019
4499 Clear 24 1008 73 10000 8.7 260 22:18 28.07.2019
4500 Clear 24 1008 73 10000 9.3 250 21:42 28.07.2019
4501 Clear 25 1008 69 10000 9.3 250 21:18 28.07.2019
4502 Clear 25 1007 69 10000 9.3 250 20:43 28.07.2019
4503 Clouds 25 1007 69 10000 8.7 250 20:25 28.07.2019
4504 Clouds 26 1007 65 10000 9.3 250 19:42 28.07.2019
4505 Clouds 26 1007 65 10000 9.3 250 19:42 28.07.2019
4506 Clouds 26 1007 61 10000 7.7 250 19:22 28.07.2019
4507 Clouds 26 1007 65 10000 7.2 250 18:50 28.07.2019
4508 Clouds 26 1006 65 10000 7.7 240 18:29 28.07.2019
4509 Clouds 28 1007 65 10000 7.2 240 17:58 28.07.2019
4510 Clouds 28 1007 65 10000 7.2 240 17:40 28.07.2019
4511 Clouds 28 1007 74 10000 6.2 250 17:20 28.07.2019
4512 Clouds 27 1007 74 10000 7.2 260 16:47 28.07.2019
4513 Clouds 28 1007 74 10000 8.2 260 16:28 28.07.2019
4514 Clouds 28 1006 65 10000 7.2 250 15:57 28.07.2019
4515 Clouds 29 1006 65 10000 7.2 250 15:39 28.07.2019
4516 Clouds 28 1006 69 10000 7.7 260 15:20 28.07.2019
4517 Clouds 29 1006 69 10000 7.7 260 14:37 28.07.2019
4518 Clear 29 1006 61 10000 7.2 270 14:18 28.07.2019
4519 Clear 29 1006 74 10000 6.2 260 13:41 28.07.2019
4520 Clear 29 1006 74 10000 7.2 270 13:21 28.07.2019
4521 Clouds 29 1006 74 10000 6.2 260 12:59 28.07.2019
4522 Clouds 28 1006 74 10000 6.2 260 12:39 28.07.2019
4523 Clouds 28 1006 74 10000 7.7 260 12:20 28.07.2019
4524 Clouds 29 1006 69 10000 9.3 270 11:44 28.07.2019
4525 Clouds 29 1005 74 10000 7.7 270 11:26 28.07.2019
4526 Clouds 29 1005 74 10000 7.2 240 10:40 28.07.2019
4527 Clouds 27 1005 69 10000 6.2 230 10:20 28.07.2019
4528 Clouds 27 1005 65 10000 7.7 220 09:41 28.07.2019
4529 Clouds 26 1005 65 10000 7.2 210 09:23 28.07.2019
4530 Clouds 26 1005 65 10000 7.2 190 08:51 28.07.2019
4531 Clouds 26 1004 65 10000 7.2 190 08:28 28.07.2019
4532 Clouds 26 1004 65 10000 7.7 190 07:53 28.07.2019
4533 Clouds 25 1004 65 10000 7.7 190 07:35 28.07.2019
4534 Clear 24 1004 65 10000 6.7 210 06:41 28.07.2019
4535 Clear 25 1003 54 10000 9.3 200 05:26 28.07.2019
4536 Clear 25 1003 51 10000 9.3 200 03:30 28.07.2019
4537 Clear 26 1004 39 10000 8.7 210 02:23 28.07.2019
4538 Clear 26 1004 34 10000 7.7 210 01:19 28.07.2019
4539 Clear 26 1005 42 10000 7.2 220 00:44 28.07.2019
4540 Clear 26 1005 44 10000 6.7 220 00:18 28.07.2019
4541 Clear 26 1004 42 10000 6.7 220 23:46 27.07.2019
4542 Clear 26 1005 39 10000 6.2 220 23:20 27.07.2019
4543 Clear 26 1005 39 10000 6.7 210 22:41 27.07.2019
4544 Clear 27 1005 42 10000 6.7 210 22:20 27.07.2019
4545 Clear 27 1005 42 10000 6.7 210 21:41 27.07.2019
4546 Clear 27 1004 42 10000 7.7 210 21:20 27.07.2019
4547 Clear 27 1004 45 10000 6.2 210 20:51 27.07.2019
4548 Clear 28 1004 35 10000 7.7 200 20:25 27.07.2019
4549 Clear 28 1004 38 10000 7.7 220 19:46 27.07.2019
4550 Clear 28 1004 38 10000 8.2 210 19:27 27.07.2019
4551 Clear 28 1004 33 10000 6.2 200 18:55 27.07.2019
4552 Clear 28 1004 33 10000 6.2 200 18:36 27.07.2019
4553 Clear 29 1005 35 10000 6.7 220 17:57 27.07.2019
4554 Clear 29 1005 35 10000 6.7 220 17:57 27.07.2019
4555 Clear 29 1005 35 10000 6.7 220 17:36 27.07.2019
4556 Clear 29 1005 43 10000 6.2 230 17:18 27.07.2019
4557 Clear 29 1005 43 10000 5.1 240 16:46 27.07.2019
4558 Clear 29 1005 58 10000 2.6 250 16:28 27.07.2019
4559 Clear 29 1006 48 10000 2.6 330 15:53 27.07.2019
4560 Clouds 30 1005 48 10000 4.6 70 15:22 27.07.2019
4561 Clear 30 1006 58 10000 3.6 30 14:51 27.07.2019
4562 Clouds 30 1006 51 10000 4.1 260 14:32 27.07.2019
4563 Clouds 31 1006 25 10000 6.2 210 13:58 27.07.2019
4564 Clouds 32 1006 25 10000 6.2 210 13:39 27.07.2019
4565 Clouds 31 1006 26 10000 6.2 220 13:19 27.07.2019
4566 Clear 31 1007 26 10000 6.2 220 12:42 27.07.2019
4567 Clear 31 1006 28 10000 6.7 200 12:22 27.07.2019
4568 Clear 30 1007 31 10000 7.2 210 11:44 27.07.2019
4569 Clear 30 1007 31 10000 6.2 200 11:25 27.07.2019
4570 Clear 30 1007 33 10000 6.2 200 10:43 27.07.2019
4571 Clear 29 1008 33 10000 5.7 200 10:24 27.07.2019
4572 Clear 29 1008 35 10000 3.6 210 09:59 27.07.2019
4573 Clear 29 1008 35 10000 3.6 210 09:39 27.07.2019
4574 Clear 28 1008 54 10000 1.5 240 09:20 27.07.2019
4575 Clear 27 1008 54 10000 1 0 08:42 27.07.2019
4576 Clear 27 1008 51 10000 2.1 280 08:24 27.07.2019
4577 Clear 25 1008 65 10000 2.6 10 07:42 27.07.2019
4578 Clear 25 1008 54 10000 2.1 210 07:22 27.07.2019
4579 Clear 25 1008 57 10000 4.1 230 06:52 27.07.2019
4580 Clear 24 1008 39 10000 3.1 160 06:25 27.07.2019
4581 Clear 24 1008 54 10000 4.1 210 05:42 27.07.2019
4582 Clear 24 1008 50 10000 4.1 210 04:52 27.07.2019
4583 Clear 24 1009 61 10000 3.6 220 03:55 27.07.2019
4584 Clear 25 1009 57 10000 1.5 180 02:43 27.07.2019
4585 Clear 25 1009 61 10000 2.6 190 02:20 27.07.2019
4586 Clear 24 1010 61 10000 1 0 01:38 27.07.2019
4587 Clear 25 1010 54 10000 1.5 150 00:51 27.07.2019
4588 Clear 25 1010 51 10000 2.1 160 00:31 27.07.2019
4589 Clear 25 1010 74 10000 3.1 210 23:49 26.07.2019
4590 Clear 25 1011 78 10000 4.1 230 23:26 26.07.2019
4591 Clear 25 1011 74 10000 2.1 230 22:45 26.07.2019
4592 Clear 25 1011 78 10000 2.1 210 22:26 26.07.2019
4593 -273 0 0 0 0 0 21:56 26.07.2019
4594 Clear 26 1011 78 10000 2.6 210 21:37 26.07.2019
4595 Clear 26 1010 69 10000 2.6 210 21:18 26.07.2019
4596 Clear 27 1010 48 10000 4.1 60 20:40 26.07.2019
4597 Clear 27 1010 51 10000 5.1 60 20:21 26.07.2019
4598 Clear 28 1010 48 10000 5.1 50 19:41 26.07.2019
4599 Clear 29 1010 42 10000 5.7 50 19:22 26.07.2019
4600 Clear 29 1011 48 10000 5.1 50 18:45 26.07.2019
4601 Clear 29 1011 45 10000 5.1 50 18:22 26.07.2019
4602 Clear 29 1011 45 10000 5.1 50 18:22 26.07.2019
4603 Clear 29 1011 66 10000 5.1 40 17:58 26.07.2019
4604 Clear 29 1011 66 10000 5.1 40 17:39 26.07.2019
4605 Clear 30 1011 51 10000 5.7 40 17:18 26.07.2019
4606 Clear 30 1012 43 10000 5.7 50 16:55 26.07.2019
4607 Clear 30 1012 43 10000 5.7 50 16:37 26.07.2019
4608 Clear 30 1012 45 10000 6.2 40 16:18 26.07.2019
4609 Clear 30 1012 62 10000 6.2 40 15:45 26.07.2019
4610 Clear 30 1012 62 10000 6.2 40 15:22 26.07.2019
4611 Clear 30 1012 54 10000 6.7 40 14:54 26.07.2019
4612 Clear 31 1012 54 10000 6.7 40 14:36 26.07.2019
4613 Clear 31 1012 65 10000 6.7 40 14:18 26.07.2019
4614 Clear 31 1013 62 10000 6.7 40 13:39 26.07.2019
4615 Clear 30 1013 69 10000 6.2 40 13:21 26.07.2019
4616 Clear 30 1013 69 10000 6.2 40 12:43 26.07.2019
4617 Clear 30 1013 69 10000 5.7 40 12:19 26.07.2019
4618 Clear 30 1013 74 10000 5.1 30 11:39 26.07.2019
4619 Clear 30 992 54 0 0.99 257.075 11:19 26.07.2019
4620 Clear 29 1014 78 10000 4.6 30 10:52 26.07.2019
4621 Clear 29 1014 78 10000 4.6 30 10:34 26.07.2019
4622 Clear 28 1014 78 10000 3.6 30 09:55 26.07.2019
4623 Clear 28 1014 78 10000 3.6 30 09:34 26.07.2019
4624 Clear 27 1014 57 10000 0.5 0 08:43 26.07.2019
4625 Clear 27 1014 65 10000 2.1 200 08:22 26.07.2019
4626 Clear 27 993 71 0 2.16 176.763 07:58 26.07.2019
4627 Clear 25 1014 78 10000 2.6 210 07:28 26.07.2019
4628 Clear 24 1014 78 10000 2.6 220 06:52 26.07.2019
4629 Clear 24 1013 83 10000 1 0 05:22 26.07.2019
4630 Clear 24 1013 88 10000 2.1 230 04:22 26.07.2019
4631 Clear 24 1014 88 10000 0.5 0 02:45 26.07.2019
4632 Clear 24 1014 94 10000 2.6 220 01:43 26.07.2019
4633 Clear 24 1015 88 10000 2.6 230 00:45 26.07.2019
4634 Clear 25 1015 83 10000 3.6 220 23:57 25.07.2019
4635 Clear 25 1015 83 10000 2.1 200 23:24 25.07.2019
4636 Clear 25 1015 83 10000 2.1 210 22:56 25.07.2019
4637 Clear 25 1015 83 10000 2.1 210 22:37 25.07.2019
4638 Clear 26 1015 88 10000 3.1 250 22:19 25.07.2019
4639 Clear 26 1014 83 10000 4.1 230 21:44 25.07.2019
4640 Clear 26 1014 74 10000 4.6 70 21:21 25.07.2019
4641 Clear 26 1014 78 10000 5.1 50 20:47 25.07.2019
4642 Clear 27 1014 78 10000 6.2 50 20:23 25.07.2019
4643 Clear 28 1014 74 10000 6.7 50 19:44 25.07.2019
4644 Clear 28 1014 74 10000 6.7 50 19:44 25.07.2019
4645 Clear 28 1014 74 10000 6.7 40 19:26 25.07.2019
4646 Clear 28 1014 66 10000 7.7 50 18:58 25.07.2019
4647 Clear 29 1014 66 10000 7.7 50 18:39 25.07.2019
4648 Clear 29 1014 66 10000 7.7 40 18:20 25.07.2019
4649 Clear 30 1014 66 10000 7.7 50 17:44 25.07.2019
4650 Clear 30 1014 66 10000 8.2 60 17:24 25.07.2019
4651 Clear 30 1014 66 10000 8.2 50 16:45 25.07.2019
4652 Clear 30 1014 62 10000 8.2 60 16:26 25.07.2019
4653 Clear 30 1014 62 10000 7.7 50 15:56 25.07.2019
4654 Clear 30 1015 70 10000 7.2 40 15:21 25.07.2019
4655 Clear 30 1015 66 10000 6.7 40 14:59 25.07.2019
4656 Clear 30 1015 66 10000 6.7 40 14:40 25.07.2019
4657 Clear 31 1015 62 10000 6.7 40 14:21 25.07.2019
4658 Clear 30 1015 65 10000 5.1 40 13:43 25.07.2019
4659 Clear 30 1016 74 10000 4.6 30 13:25 25.07.2019
4660 Clear 30 1016 74 10000 3.1 360 12:46 25.07.2019
4661 Clear 30 1016 74 10000 2.1 310 12:27 25.07.2019
4662 Clear 30 1016 69 10000 1.5 320 11:43 25.07.2019
4663 Clear 29 1016 69 10000 1 0 11:23 25.07.2019
4664 Clear 29 1016 65 10000 1 320 10:46 25.07.2019
4665 Clear 29 1016 69 10000 1 0 10:26 25.07.2019
4666 Clear 28 1016 73 10000 2.6 310 09:57 25.07.2019
4667 Clear 28 1016 73 10000 2.6 310 09:39 25.07.2019
4668 Clear 27 1015 61 10000 2.1 220 08:54 25.07.2019
4669 Clear 27 1015 61 10000 2.1 220 08:36 25.07.2019
4670 Clear 27 1015 61 10000 2.1 220 07:49 25.07.2019
4671 Clear 26 1015 60 10000 2.1 200 07:26 25.07.2019
4672 Clear 25 1015 60 10000 2.1 190 06:40 25.07.2019
4673 Clear 24 1014 64 10000 2.1 190 05:37 25.07.2019
4674 Clear 25 1014 78 10000 1 0 04:56 25.07.2019
4675 Clear 24 1014 73 10000 0.5 0 04:19 25.07.2019
4676 Clear 25 1015 74 10000 4.1 70 01:31 25.07.2019
4677 Clear 25 1015 61 10000 3.6 60 00:42 25.07.2019
4678 Clear 25 1015 74 10000 5.1 40 00:19 25.07.2019
4679 Clear 26 1015 61 10000 3.1 60 23:44 24.07.2019
4680 Clear 25 994 67 0 0.83 350.458 23:25 24.07.2019
4681 Clear 25 1014 69 10000 5.1 40 22:47 24.07.2019
4682 Clear 26 1014 69 10000 4.1 50 22:23 24.07.2019
4683 Clear 26 1014 74 10000 5.1 50 21:59 24.07.2019
4684 Clear 26 1014 74 10000 5.1 50 21:41 24.07.2019
4685 Clear 26 1014 74 10000 5.7 60 21:20 24.07.2019
4686 Clear 26 1014 78 10000 6.7 60 20:48 24.07.2019
4687 Clear 26 1014 74 10000 7.7 60 20:29 24.07.2019
4688 Clear 27 1014 74 10000 7.2 50 19:59 24.07.2019
4689 Clear 27 1014 74 10000 7.2 50 19:41 24.07.2019
4690 Clear 27 1014 74 10000 7.7 50 19:21 24.07.2019
4691 Clear 27 1014 74 10000 7.7 60 18:45 24.07.2019
4692 Clear 28 1014 74 10000 8.2 60 18:24 24.07.2019
4693 Clear 29 1014 74 10000 8.7 50 17:49 24.07.2019
4694 Clear 29 1014 74 10000 7.7 40 17:25 24.07.2019
4695 Clear 30 1014 74 10000 7.2 40 16:59 24.07.2019
4696 Clear 30 1014 74 10000 7.2 40 16:39 24.07.2019
4697 Clear 30 1014 74 10000 7.2 40 16:21 24.07.2019
4698 Clear 30 1014 74 10000 6.7 40 15:38 24.07.2019
4699 Clear 30 1014 78 10000 7.2 40 15:20 24.07.2019
4700 Clear 30 1014 78 10000 7.7 40 14:47 24.07.2019
4701 Clear 30 1015 78 10000 6.2 40 14:22 24.07.2019
4702 Clear 30 1015 78 10000 6.7 40 13:42 24.07.2019
4703 Clear 30 1015 78 10000 6.7 40 13:24 24.07.2019
4704 Clear 30 1015 78 10000 6.7 40 12:55 24.07.2019
4705 Clear 29 1015 78 10000 6.2 40 12:37 24.07.2019
4706 Clear 29 1015 78 10000 6.2 40 12:18 24.07.2019
4707 Clear 29 1015 78 10000 6.2 40 11:37 24.07.2019
4708 Clear 29 1015 78 10000 4.6 30 11:18 24.07.2019
4709 Clear 28 1015 83 10000 2.1 350 10:42 24.07.2019
4710 Clear 29 1015 83 10000 1.5 270 10:24 24.07.2019
4711 Clear 29 1015 83 10000 1.5 260 09:44 24.07.2019
4712 Clear 29 1015 83 10000 1.5 260 09:44 24.07.2019
4713 Clear 27 1015 83 10000 1.5 280 09:23 24.07.2019
4714 Clear 26 1015 83 10000 1 250 08:53 24.07.2019
4715 Clear 26 994 77 0 1.02 331.174 08:27 24.07.2019
4716 Clear 25 1014 88 10000 0.5 0 07:50 24.07.2019
4717 Clear 24 1014 83 10000 1 190 07:23 24.07.2019
4718 Clear 23 1014 88 10000 1.5 190 06:28 24.07.2019
4719 Clear 23 1015 94 10000 1 0 05:26 24.07.2019
4720 Clear 24 1015 94 10000 0.5 0 01:57 24.07.2019
4721 Clear 23 1016 88 10000 1.5 210 01:28 24.07.2019
4722 Clear 24 1016 83 10000 1.5 190 00:54 24.07.2019
4723 Clear 24 1015 78 10000 2.6 80 00:22 24.07.2019
4724 Clear 24 1015 83 10000 3.6 70 23:41 23.07.2019
4725 Clear 24 1016 83 10000 4.1 70 23:22 23.07.2019
4726 Clear 24 1016 83 10000 4.6 60 22:39 23.07.2019
4727 Clear 25 1016 83 10000 4.6 60 22:19 23.07.2019
4728 Clear 25 1016 83 10000 4.6 60 22:19 23.07.2019
4729 Clear 25 1015 78 10000 4.6 50 21:57 23.07.2019
4730 Clear 25 1015 78 10000 4.6 50 21:39 23.07.2019
4731 Clear 25 1015 78 10000 5.7 50 21:21 23.07.2019
4732 Clear 26 1015 74 10000 6.2 50 20:44 23.07.2019
4733 Clear 26 1015 69 10000 6.2 50 20:21 23.07.2019
4734 Clear 27 1015 65 10000 6.2 50 19:41 23.07.2019
4735 Clear 27 1015 69 10000 7.2 50 19:19 23.07.2019
4736 Clear 28 1015 74 10000 7.7 40 18:43 23.07.2019
4737 Clear 28 1015 69 10000 8.2 50 18:23 23.07.2019
4738 Clear 30 1015 74 10000 8.7 40 17:44 23.07.2019
4739 Clear 30 1016 74 10000 8.7 40 17:25 23.07.2019
4740 Clear 30 1016 74 10000 8.2 40 16:57 23.07.2019
4741 Clear 30 1016 74 10000 8.2 40 16:39 23.07.2019
4742 Clear 30 1016 69 10000 8.2 40 16:18 23.07.2019
4743 Clear 30 1016 69 10000 8.2 50 15:43 23.07.2019
4744 Clear 30 1016 74 10000 8.7 40 15:23 23.07.2019
4745 Clear 31 1016 78 10000 8.2 40 14:39 23.07.2019
4746 Clear 31 1016 78 10000 8.2 40 14:20 23.07.2019
4747 Clear 30 1017 78 10000 8.2 40 13:57 23.07.2019
4748 Clear 30 1017 78 10000 8.2 40 13:38 23.07.2019
4749 Clear 30 1017 83 10000 7.2 40 13:20 23.07.2019
4750 Clear 30 1017 83 10000 7.2 40 12:47 23.07.2019
4751 Clear 29 1017 83 10000 7.2 40 12:25 23.07.2019
4752 Clear 29 1017 78 10000 6.7 40 11:47 23.07.2019
4753 Clear 28 1017 83 10000 5.7 40 11:29 23.07.2019
4754 Clear 28 1017 73 10000 5.1 30 10:57 23.07.2019
4755 Clear 28 1017 73 10000 5.1 30 10:38 23.07.2019
4756 Clear 27 1017 78 10000 4.1 20 10:19 23.07.2019
4757 Clear 27 1017 78 10000 1.5 310 09:40 23.07.2019
4758 Clear 26 1017 83 10000 2.1 250 09:18 23.07.2019
4759 Clear 26 1017 78 10000 0.5 280 08:40 23.07.2019
4760 Clear 26 996 49 0 2.05 345.631 08:19 23.07.2019
4761 Clear 26 1017 78 10000 1 0 07:53 23.07.2019
4762 Clear 25 996 48 0 2.05 345.631 07:33 23.07.2019
4763 Clear 24 1017 78 10000 1 0 06:38 23.07.2019
4764 Clear 23 1017 73 10000 1 180 05:57 23.07.2019
4765 Clear 23 1018 78 10000 1.5 80 02:25 23.07.2019
4766 Clear 24 1018 78 10000 2.1 50 01:29 23.07.2019
4767 Clear 24 1019 73 10000 2.6 110 00:30 23.07.2019
4768 Clear 24 1019 78 10000 5.1 70 23:43 22.07.2019
4769 Clear 24 1019 78 10000 6.2 70 23:22 22.07.2019
4770 Clear 24 1019 78 10000 5.7 70 22:59 22.07.2019
4771 Clear 24 1019 78 10000 5.7 70 22:41 22.07.2019
4772 Clear 25 1019 78 10000 7.2 60 22:20 22.07.2019
4773 Clear 25 1018 74 10000 6.7 50 21:42 22.07.2019
4774 Clear 25 1018 74 10000 6.2 50 21:21 22.07.2019
4775 Clear 25 1018 74 10000 6.7 60 20:48 22.07.2019
4776 Clear 25 1018 74 10000 6.7 60 20:30 22.07.2019
4777 Clear 26 1018 65 10000 7.2 50 19:55 22.07.2019
4778 Clear 27 1018 65 10000 7.2 50 19:37 22.07.2019
4779 Clear 27 1018 69 10000 8.2 50 19:18 22.07.2019
4780 Clear 28 1018 65 10000 8.2 50 18:41 22.07.2019
4781 Clear 28 1018 61 10000 8.7 50 18:23 22.07.2019
4782 Clear 28 1019 65 10000 8.2 50 17:43 22.07.2019
4783 Clear 29 1019 58 10000 8.7 50 17:25 22.07.2019
4784 Clear 29 1019 61 10000 9.3 50 16:54 22.07.2019
4785 Clear 29 1019 65 10000 8.7 50 16:36 22.07.2019
4786 Clear 29 1019 65 10000 8.7 50 16:18 22.07.2019
4787 Clear 29 1019 65 10000 8.7 40 15:38 22.07.2019
4788 Clear 29 1020 65 10000 8.7 50 15:19 22.07.2019
4789 Clear 30 1020 69 10000 7.7 50 14:43 22.07.2019
4790 Clear 30 1020 69 10000 7.7 50 14:43 22.07.2019
4791 Clear 30 1020 69 10000 7.7 50 14:22 22.07.2019
4792 Clear 29 1020 78 10000 7.2 40 13:50 22.07.2019
4793 Clear 29 1020 74 10000 7.2 40 13:30 22.07.2019
4794 Clear 29 1020 78 10000 6.7 40 12:47 22.07.2019
4795 Clear 28 1020 83 10000 7.2 40 12:29 22.07.2019
4796 Clouds 28 1021 83 10000 6.2 40 11:46 22.07.2019
4797 Clear 27 1021 83 10000 6.2 40 11:26 22.07.2019
4798 Clear 27 1020 78 10000 5.1 40 10:59 22.07.2019
4799 Clear 28 1020 78 10000 5.1 40 10:33 22.07.2019
4800 Clear 28 1020 78 10000 5.1 40 10:33 22.07.2019
4801 Clear 27 1020 74 10000 5.1 50 09:45 22.07.2019
4802 Clear 26 1020 69 10000 4.6 50 09:26 22.07.2019
4803 Clear 26 1020 69 10000 3.6 40 08:57 22.07.2019
4804 Clear 26 1020 69 10000 3.6 40 08:36 22.07.2019
4805 Clear 25 1020 73 10000 1.5 50 08:18 22.07.2019
4806 Clear 25 1020 73 10000 1.5 50 08:18 22.07.2019
4807 Clear 25 1020 78 10000 1 0 07:43 22.07.2019
4808 Clear 24 1020 78 10000 1.5 20 07:24 22.07.2019
4809 Clear 23 1019 78 10000 1.5 190 04:56 22.07.2019
4810 Clear 23 1020 73 10000 1.5 140 02:58 22.07.2019
4811 Clear 23 1020 83 10000 5.1 60 00:58 22.07.2019
4812 Clear 23 1020 83 10000 5.1 60 00:38 22.07.2019
4813 Clear 23 1020 83 10000 5.7 60 00:20 22.07.2019
4814 Clear 24 1020 83 10000 5.7 50 23:45 21.07.2019
4815 Clear 24 1020 74 10000 5.1 60 22:57 21.07.2019
4816 Clear 24 1020 74 10000 5.1 60 22:38 21.07.2019
4817 Clear 24 1019 74 10000 5.1 60 22:20 21.07.2019
4818 Clear 25 1019 74 10000 5.7 60 21:49 21.07.2019
4819 Clear 25 1019 78 10000 7.2 60 21:26 21.07.2019
4820 Clear 25 1019 78 10000 7.2 50 20:57 21.07.2019
4821 Clear 25 1019 78 10000 7.2 50 20:39 21.07.2019
4822 Clear 25 1019 78 10000 7.2 50 20:21 21.07.2019
4823 Clear 26 1019 74 10000 7.2 60 19:48 21.07.2019
4824 Clear 26 1019 74 10000 7.7 60 19:28 21.07.2019
4825 Clear 27 1019 74 10000 8.2 60 18:49 21.07.2019
4826 Clear 27 1019 74 10000 8.7 50 18:26 21.07.2019
4827 Clear 28 1019 69 10000 9.3 50 17:55 21.07.2019
4828 Clear 28 1019 69 10000 9.3 50 17:36 21.07.2019
4829 Clear 28 1019 69 10000 9.3 50 17:18 21.07.2019
4830 Clear 28 1019 69 10000 9.3 40 16:40 21.07.2019
4831 Clear 29 1019 69 10000 9.3 50 16:22 21.07.2019
4832 Clear 29 1019 69 10000 9.3 50 16:22 21.07.2019
4833 Clear 29 1019 69 10000 9.8 50 15:40 21.07.2019
4834 Clear 29 1019 69 10000 9.3 40 15:20 21.07.2019
4835 Clear 29 1019 69 10000 8.7 50 14:42 21.07.2019
4836 Clear 29 1020 69 10000 8.7 40 14:24 21.07.2019
4837 Clear 29 1020 69 10000 7.2 50 13:53 21.07.2019
4838 Clear 29 1020 69 10000 7.2 50 13:33 21.07.2019
4839 Clear 28 1020 69 10000 7.2 50 12:55 21.07.2019
4840 Clear 28 1020 69 10000 7.2 50 12:37 21.07.2019
4841 Clear 28 1020 74 10000 6.2 30 12:18 21.07.2019
4842 Clear 28 1020 74 10000 3.1 10 11:44 21.07.2019
4843 Clear 27 1020 78 10000 2.1 310 11:25 21.07.2019
4844 Clear 27 1020 78 10000 2.1 290 10:43 21.07.2019
4845 Clear 27 1020 73 10000 3.1 260 10:23 21.07.2019
4846 Clear 26 1020 73 10000 2.6 250 09:52 21.07.2019
4847 Clear 26 1020 73 10000 2.6 250 09:32 21.07.2019
4848 Clear 25 1020 73 10000 2.1 230 08:47 21.07.2019
4849 Clear 25 1020 73 10000 2.1 190 08:27 21.07.2019
4850 Clear 24 1019 69 10000 2.1 180 07:40 21.07.2019
4851 Clear 22 1019 73 10000 2.1 190 06:59 21.07.2019
4852 Clear 22 1019 73 10000 2.1 180 05:55 21.07.2019
4853 Clear 22 1019 73 10000 1 0 02:59 21.07.2019
4854 Clear 22 1019 73 10000 0.5 0 01:50 21.07.2019
4855 Clear 23 1019 73 10000 1.5 210 00:42 21.07.2019
4856 Clear 23 1019 69 10000 2.1 200 00:20 21.07.2019
4857 Clear 23 1019 78 10000 2.1 30 23:44 20.07.2019
4858 Clear 24 1019 73 10000 2.6 200 23:22 20.07.2019
4859 Clear 24 1019 69 10000 4.1 220 22:49 20.07.2019
4860 Clear 24 1018 61 10000 2.6 210 22:23 20.07.2019
4861 Clear 24 1018 61 10000 1.5 240 21:58 20.07.2019
4862 Clear 24 1018 61 10000 1.5 240 21:39 20.07.2019
4863 Clear 24 1018 61 10000 1.5 310 21:21 20.07.2019
4864 Clear 25 1017 61 10000 4.1 90 20:42 20.07.2019
4865 Clear 25 1017 61 10000 4.1 90 20:42 20.07.2019
4866 Clear 25 1017 65 10000 6.7 60 20:21 20.07.2019
4867 Clouds 25 1017 65 10000 7.2 50 19:48 20.07.2019
4868 Clouds 26 1017 65 10000 7.7 60 19:25 20.07.2019
4869 Clouds 26 1017 61 10000 7.7 60 18:45 20.07.2019
4870 Clouds 26 1017 61 10000 7.7 60 18:24 20.07.2019
4871 Clouds 27 1017 61 10000 8.2 60 17:56 20.07.2019
4872 Clouds 27 1017 61 10000 8.7 60 17:26 20.07.2019
4873 Clouds 27 1017 58 10000 9.3 60 16:46 20.07.2019
4874 Clouds 27 1017 61 10000 9.8 60 16:28 20.07.2019
4875 Clouds 28 1017 58 10000 9.3 60 15:59 20.07.2019
4876 Clouds 28 1017 58 10000 9.3 60 15:41 20.07.2019
4877 Clouds 28 1017 65 10000 9.8 60 15:21 20.07.2019
4878 Clouds 28 1018 65 10000 8.7 50 14:49 20.07.2019
4879 Clouds 28 1018 65 10000 7.7 50 14:29 20.07.2019
4880 Clouds 28 1018 65 10000 7.7 50 14:29 20.07.2019
4881 Clouds 28 1018 65 10000 7.2 50 13:57 20.07.2019
4882 Clouds 28 1018 65 10000 7.2 50 13:37 20.07.2019
4883 Clouds 28 1018 61 10000 6.7 50 13:19 20.07.2019
4884 Clear 28 1018 58 10000 5.7 50 12:44 20.07.2019
4885 Clouds 27 1018 61 10000 5.1 30 12:18 20.07.2019
4886 Clear 27 1018 69 10000 3.1 30 11:41 20.07.2019
4887 Clear 27 1018 61 10000 3.1 20 11:20 20.07.2019
4888 Clear 26 1018 57 10000 2.6 360 10:41 20.07.2019
4889 Clear 26 1018 57 10000 1.5 330 10:22 20.07.2019
4890 Clear 25 1018 61 10000 2.1 270 09:48 20.07.2019
4891 Clear 25 1018 65 10000 2.1 260 09:25 20.07.2019
4892 Clear 24 1017 61 10000 1.5 240 08:49 20.07.2019
4893 Clear 23 1017 64 10000 1 0 08:23 20.07.2019
4894 Clear 23 1017 69 10000 1.5 180 07:35 20.07.2019
4895 Clear 21 1016 68 10000 1.5 170 06:46 20.07.2019
4896 Clear 20 1016 73 10000 1.5 180 05:25 20.07.2019
4897 Clear 21 1016 68 10000 1.5 150 04:31 20.07.2019
4898 Clear 22 1016 69 10000 1 0 01:55 20.07.2019
4899 Clear 22 1016 57 10000 4.1 80 00:53 20.07.2019
4900 Clear 22 1016 57 10000 4.1 80 00:33 20.07.2019
4901 Clear 22 1016 65 10000 4.6 60 23:59 19.07.2019
4902 Clear 23 1016 65 10000 4.6 60 23:39 19.07.2019
4903 Clear 23 1016 61 10000 5.1 60 23:20 19.07.2019
4904 Clear 23 1016 69 10000 5.7 70 22:41 19.07.2019
4905 Clear 23 1016 65 10000 5.7 70 22:22 19.07.2019
4906 Clear 23 1015 69 10000 7.2 60 21:44 19.07.2019
4907 Clear 23 1015 73 10000 7.7 60 21:26 19.07.2019
4908 Clear 24 1015 65 10000 7.7 60 20:44 19.07.2019
4909 Clear 25 1015 69 10000 7.7 50 20:26 19.07.2019
4910 Clouds 25 1015 69 10000 8.2 50 19:45 19.07.2019
4911 Clouds 26 1015 61 10000 8.2 50 19:20 19.07.2019
4912 Clouds 26 1015 61 10000 8.2 50 19:20 19.07.2019
4913 Clouds 26 1015 61 10000 9.3 50 18:42 19.07.2019
4914 Clouds 27 1015 61 10000 8.2 50 18:21 19.07.2019
4915 Clouds 27 1015 61 10000 8.2 50 18:21 19.07.2019
4916 Clouds 27 1015 61 10000 9.3 40 17:50 19.07.2019
4917 Clouds 27 1015 57 10000 9.3 50 17:27 19.07.2019
4918 Clouds 27 1015 61 10000 8.7 50 16:48 19.07.2019
4919 Clouds 28 1015 65 10000 9.3 50 16:26 19.07.2019
4920 Clouds 27 1015 65 10000 8.7 40 15:50 19.07.2019
4921 Clouds 27 1015 65 10000 8.7 40 15:31 19.07.2019
4922 Clear 26 1015 61 10000 8.2 40 14:57 19.07.2019
4923 Clear 27 1015 61 10000 8.2 40 14:38 19.07.2019
4924 Clear 27 1016 57 10000 7.7 40 14:20 19.07.2019
4925 Clear 28 1016 54 10000 7.2 40 13:44 19.07.2019
4926 Clear 28 1016 54 10000 7.2 40 13:44 19.07.2019
4927 Clear 28 1016 54 10000 7.2 40 13:44 19.07.2019
4928 Clear 28 1016 54 10000 7.2 40 13:44 19.07.2019
4929 Clear 28 1016 54 10000 7.2 40 13:44 19.07.2019
4930 Clear 28 1016 57 10000 6.2 40 13:25 19.07.2019
4931 Clear 28 1016 57 10000 6.2 40 12:55 19.07.2019
4932 Clear 27 1016 57 10000 5.1 40 12:31 19.07.2019
4933 Clear 26 1016 61 10000 4.1 20 11:58 19.07.2019
4934 Clear 27 1016 61 10000 4.1 20 11:40 19.07.2019
4935 Clear 27 1016 69 10000 1.5 340 11:18 19.07.2019
4936 Clear 26 1016 69 10000 2.1 280 10:41 19.07.2019
4937 Clear 26 1016 73 10000 2.6 280 10:21 19.07.2019
4938 Clear 25 1015 69 10000 2.1 270 09:57 19.07.2019
4939 Clear 25 1015 69 10000 2.1 270 09:39 19.07.2019
4940 Clear 24 1015 64 10000 2.1 250 09:20 19.07.2019
4941 Clear 24 1015 64 10000 0.5 0 08:42 19.07.2019
4942 Clear 23 1015 73 10000 1 160 07:53 19.07.2019
4943 Clear 22 1014 73 10000 1.5 80 07:28 19.07.2019
4944 Clear 20 1014 68 10000 1.5 170 05:55 19.07.2019
4945 Clear 21 1014 69 10000 1.5 60 02:23 19.07.2019
4946 Clear 21 1014 64 10000 2.1 150 01:18 19.07.2019
4947 Clear 21 1014 64 10000 1.5 130 00:38 19.07.2019
4948 Clear 22 1014 64 10000 1 80 23:45 18.07.2019
4949 Clear 22 1014 64 10000 1 140 23:24 18.07.2019
4950 Clear 22 1014 64 10000 1.5 150 22:59 18.07.2019
4951 Clear 22 1014 64 10000 1.5 150 22:40 18.07.2019
4952 Clear 22 1014 61 10000 0.5 0 22:19 18.07.2019
4953 Clear 22 1014 61 10000 1 360 21:44 18.07.2019
4954 Clear 23 1014 61 10000 1 0 21:26 18.07.2019
4955 Clear 23 1013 65 10000 1.5 350 20:51 18.07.2019
4956 Clear 24 1013 61 10000 1.5 360 20:29 18.07.2019
4957 Clear 24 1013 61 10000 2.1 360 19:59 18.07.2019
4958 Clear 25 1013 61 10000 2.1 360 19:40 18.07.2019
4959 Clear 25 1013 65 10000 2.6 360 19:18 18.07.2019
4960 Clear 25 1013 65 10000 3.1 350 18:42 18.07.2019
4961 Clear 25 1013 65 10000 3.6 10 18:20 18.07.2019
4962 Clear 26 1013 65 10000 3.6 10 17:44 18.07.2019
4963 Clear 26 1013 65 10000 3.1 350 17:24 18.07.2019
4964 Clear 26 1013 65 10000 3.6 360 16:57 18.07.2019
4965 Clear 27 1013 65 10000 3.6 360 16:39 18.07.2019
4966 Clouds 27 1013 65 10000 3.1 360 16:18 18.07.2019
4967 Clear 27 1012 65 10000 3.6 340 15:44 18.07.2019
4968 Clouds 27 1013 65 10000 3.6 360 15:25 18.07.2019
4969 Clear 27 1013 65 10000 3.6 20 14:50 18.07.2019
4970 Clear 27 1013 65 10000 3.6 360 14:32 18.07.2019
4971 Clear 28 1013 69 10000 3.6 320 13:50 18.07.2019
4972 Clear 28 1013 69 10000 3.6 320 13:24 18.07.2019
4973 Clear 28 1013 69 10000 3.6 320 12:53 18.07.2019
4974 Clear 26 1013 61 10000 3.6 320 12:22 18.07.2019
4975 Clear 26 1013 61 10000 3.6 320 12:22 18.07.2019
4976 Clear 26 1013 61 10000 3.1 330 11:58 18.07.2019
4977 Clear 26 1013 61 10000 3.1 330 11:39 18.07.2019
4978 Clear 25 1013 65 10000 3.1 290 11:21 18.07.2019
4979 Clear 26 1013 65 10000 3.6 270 10:49 18.07.2019
4980 Clear 25 1012 57 10000 3.6 260 09:50 18.07.2019
4981 Clear 24 1012 50 10000 1.5 180 09:27 18.07.2019
4982 Clear 23 1012 61 10000 2.1 130 08:53 18.07.2019
4983 Clear 22 1012 60 10000 1.5 180 08:25 18.07.2019
4984 Clear 21 1012 68 10000 1.5 140 07:57 18.07.2019
4985 Clear 21 1012 68 10000 2.1 120 07:35 18.07.2019
4986 Clear 20 1012 73 10000 2.1 90 06:48 18.07.2019
4987 Clear 20 1012 77 10000 2.1 110 06:20 18.07.2019
4988 Clear 20 1012 73 10000 2.1 180 03:34 18.07.2019
4989 Clouds 20 1012 78 10000 1.5 90 01:53 18.07.2019
4990 Clouds 21 1012 78 10000 2.1 60 01:34 18.07.2019
4991 Clouds 21 1012 78 10000 1.5 90 23:59 17.07.2019
4992 Clouds 21 1013 78 10000 1 40 23:22 17.07.2019
4993 Clouds 21 1013 78 10000 0.5 40 22:59 17.07.2019
4994 Clouds 21 1013 78 10000 0.5 40 22:41 17.07.2019
4995 Clouds 22 1013 73 10000 1 0 22:22 17.07.2019
4996 Clouds 22 1013 73 10000 1.5 310 21:56 17.07.2019
4997 Clouds 22 1013 73 10000 1.5 310 21:37 17.07.2019
4998 Clouds 22 1012 73 10000 2.6 340 21:19 17.07.2019
4999 Clouds 23 1012 73 10000 2.6 340 20:55 17.07.2019
5000 Clouds 23 1012 73 10000 2.6 340 20:36 17.07.2019
5001 Clouds 23 1013 78 10000 2.6 320 20:18 17.07.2019
5002 Clouds 25 1012 74 10000 3.1 330 19:40 17.07.2019
5003 Clouds 25 1012 74 10000 3.1 330 19:19 17.07.2019
5004 Clouds 25 1013 74 10000 3.1 320 18:43 17.07.2019
5005 Clouds 25 1013 74 10000 2.6 330 18:21 17.07.2019
5006 Clouds 25 1013 74 10000 2.6 330 18:21 17.07.2019
5007 Clouds 25 1013 69 10000 3.6 330 17:56 17.07.2019
5008 Clouds 25 1013 69 10000 3.6 330 17:56 17.07.2019
5009 Clouds 25 1013 69 10000 3.6 330 17:38 17.07.2019
5010 Clouds 26 1013 69 10000 3.6 330 17:19 17.07.2019
5011 Clouds 26 1013 69 10000 3.6 330 16:40 17.07.2019
5012 Clouds 26 1013 69 10000 3.6 330 16:19 17.07.2019
5013 Clouds 26 1013 69 10000 4.1 330 15:51 17.07.2019
5014 Clouds 26 1013 74 10000 3.6 320 15:29 17.07.2019
5015 Clouds 27 1014 69 10000 3.6 310 14:56 17.07.2019
5016 Clouds 27 1014 69 10000 3.6 320 14:37 17.07.2019
5017 Clouds 26 1014 69 10000 3.6 320 14:19 17.07.2019
5018 Clouds 27 1014 69 10000 3.6 310 13:45 17.07.2019
5019 Clouds 27 1014 69 10000 3.6 310 13:25 17.07.2019
5020 Clouds 27 1014 69 10000 2.6 280 12:44 17.07.2019
5021 Clouds 27 1014 69 10000 2.6 280 12:23 17.07.2019
5022 Clouds 26 1013 73 10000 3.1 290 11:57 17.07.2019
5023 Clouds 26 1013 69 10000 2.6 290 11:38 17.07.2019
5024 Clouds 26 1013 69 10000 2.6 290 11:19 17.07.2019
5025 Clouds 26 1013 69 10000 1 0 10:43 17.07.2019
5026 Clouds 26 1013 69 10000 1 0 10:20 17.07.2019
5027 Clouds 25 1013 73 10000 2.6 300 09:44 17.07.2019
5028 Clouds 24 1013 73 10000 2.6 300 09:26 17.07.2019
5029 Clouds 23 1013 69 10000 1 0 08:44 17.07.2019
5030 Clouds 22 1013 69 10000 1 0 08:22 17.07.2019
5031 Clouds 23 1012 69 10000 1.5 160 07:51 17.07.2019
5032 Clouds 22 1012 73 10000 1 0 07:28 17.07.2019
5033 Clouds 21 1012 73 10000 1 0 06:59 17.07.2019
5034 Clear 20 1012 73 10000 3.1 320 06:37 17.07.2019
5035 Clear 20 1012 73 10000 3.1 320 06:18 17.07.2019
5036 Clouds 20 1012 69 10000 3.1 360 05:32 17.07.2019
5037 Clouds 21 1012 69 10000 3.6 340 04:49 17.07.2019
5038 Clouds 21 1012 69 10000 4.6 350 03:50 17.07.2019
5039 Clouds 21 1013 69 10000 4.6 360 02:32 17.07.2019
5040 Clouds 21 1013 69 10000 5.1 350 01:41 17.07.2019
5041 Clouds 21 1013 69 10000 5.7 350 01:20 17.07.2019
5042 Clouds 22 1013 69 10000 5.7 360 00:38 17.07.2019
5043 Clouds 22 1012 69 10000 5.7 360 00:20 17.07.2019
5044 Clouds 22 1012 69 10000 6.2 360 23:44 16.07.2019
5045 Clouds 22 1012 69 10000 6.2 360 23:22 16.07.2019
5046 Clouds 22 1012 69 10000 7.2 10 22:43 16.07.2019
5047 Clouds 22 1012 69 10000 7.2 10 22:25 16.07.2019
5048 Clouds 22 1011 69 10000 7.7 360 21:57 16.07.2019
5049 Clouds 22 1011 73 10000 7.2 360 21:39 16.07.2019
5050 Clouds 22 1011 69 10000 8.2 360 21:19 16.07.2019
5051 Clouds 22 1010 69 10000 7.7 10 20:41 16.07.2019
5052 Clouds 22 1010 69 10000 7.7 10 20:41 16.07.2019
5053 Clouds 22 1010 69 10000 7.7 10 20:23 16.07.2019
5054 Clouds 22 1010 69 10000 7.7 10 20:23 16.07.2019
5055 Clouds 23 1010 69 10000 8.2 10 19:54 16.07.2019
5056 Clouds 23 1010 65 10000 8.7 10 19:30 16.07.2019
5057 Rain 23 1010 69 10000 8.2 360 18:59 16.07.2019
5058 -273 0 0 0 0 0 18:41 16.07.2019
5059 Rain 23 1009 83 10000 4.6 50 18:21 16.07.2019
5060 Rain 23 1009 83 6000 12.3 30 17:49 16.07.2019
5061 Rain 23 1009 83 6000 12.3 30 17:28 16.07.2019
5062 Clouds 24 1008 69 10000 8.2 10 16:51 16.07.2019
5063 Clouds 24 1008 74 10000 8.7 360 16:27 16.07.2019
5064 Clouds 25 1008 69 10000 7.7 360 15:58 16.07.2019
5065 Clouds 24 1008 69 10000 8.2 360 15:39 16.07.2019
5066 Clouds 25 1008 69 10000 8.2 360 15:20 16.07.2019
5067 Clouds 25 1008 69 10000 8.2 360 14:56 16.07.2019
5068 Clouds 25 1008 73 10000 7.7 360 14:38 16.07.2019
5069 Clouds 25 1008 73 10000 7.7 360 14:19 16.07.2019
5070 Clouds 24 1007 69 10000 4.6 360 13:44 16.07.2019
5071 Clouds 24 1007 69 10000 4.6 360 13:19 16.07.2019
5072 Rain 25 1007 78 10000 4.1 10 12:44 16.07.2019
5073 Rain 24 1006 73 9000 7.7 320 12:20 16.07.2019
5074 Rain 23 1006 73 9000 7.7 320 11:55 16.07.2019
5075 Rain 23 1006 64 10000 5.7 290 11:36 16.07.2019
5076 Clouds 24 1006 64 10000 5.7 290 11:18 16.07.2019
5077 Clouds 23 1005 64 10000 4.6 290 10:44 16.07.2019
5078 Clouds 23 1005 64 10000 4.6 290 10:20 16.07.2019
5079 Clouds 21 1006 73 10000 8.7 310 09:44 16.07.2019
5080 Clouds 21 1006 64 10000 9.8 290 09:21 16.07.2019
5081 Clouds 22 1006 64 10000 9.8 290 08:58 16.07.2019
5082 Clouds 22 1005 69 10000 10.3 290 08:40 16.07.2019
5083 Clouds 22 1005 64 10000 8.7 280 08:18 16.07.2019
5084 Clouds 22 1005 69 10000 8.7 270 07:41 16.07.2019
5085 Clouds 21 1005 69 10000 8.7 270 07:22 16.07.2019
5086 Clouds 21 1005 64 10000 10.3 280 06:45 16.07.2019
5087 Clouds 21 1005 64 10000 11.3 280 05:59 16.07.2019
5088 Clouds 21 1005 64 10000 10.3 280 05:32 16.07.2019
5089 Clouds 22 1005 65 10000 11.3 280 04:57 16.07.2019
5090 Clouds 22 1005 65 10000 11.8 270 03:52 16.07.2019
5091 Clouds 22 1006 57 10000 10.8 270 03:18 16.07.2019
5092 Clouds 23 1006 57 10000 10.8 270 02:30 16.07.2019
5093 Clouds 23 1007 69 10000 10.3 260 01:43 16.07.2019
5094 Clouds 23 1007 69 10000 9.3 270 00:42 16.07.2019
5095 Clouds 23 1007 69 10000 9.3 270 00:20 16.07.2019
5096 Clouds 23 1007 69 10000 5.7 230 23:45 15.07.2019
5097 Clouds 23 1007 69 10000 5.7 230 23:27 15.07.2019
5098 Clouds 23 1007 74 10000 5.1 250 22:47 15.07.2019
5099 Clouds 24 1007 74 10000 5.1 250 22:22 15.07.2019
5100 Clouds 24 1007 78 10000 4.6 240 21:59 15.07.2019
5101 Clouds 24 1007 74 10000 4.1 250 21:40 15.07.2019
5102 Clouds 24 1007 74 10000 4.1 250 21:20 15.07.2019
5103 Clouds 24 1007 78 10000 4.6 260 20:56 15.07.2019
5104 Clouds 24 1006 74 10000 5.1 270 20:37 15.07.2019
5105 Clouds 24 1006 74 10000 5.1 270 20:19 15.07.2019
5106 Clouds 25 1006 78 10000 5.1 280 19:40 15.07.2019
5107 Clouds 25 1006 74 10000 6.2 280 19:20 15.07.2019
5108 Clouds 25 1006 74 10000 6.2 280 18:54 15.07.2019
5109 Clouds 26 1006 74 10000 6.7 280 18:36 15.07.2019
5110 Clouds 26 1006 78 10000 7.7 290 18:18 15.07.2019
5111 Clouds 26 1006 74 10000 8.2 280 17:42 15.07.2019
5112 Clouds 26 1006 74 10000 8.2 280 17:23 15.07.2019
5113 Clouds 26 1005 74 10000 8.7 280 16:59 15.07.2019
5114 Clouds 26 1005 74 10000 9.8 280 16:38 15.07.2019
5115 Clouds 26 1005 74 10000 9.8 280 16:20 15.07.2019
5116 Clouds 26 1005 74 10000 10.3 280 15:54 15.07.2019
5117 Clouds 26 1005 74 10000 10.3 280 15:36 15.07.2019
5118 Clouds 26 1005 74 10000 10.3 280 15:18 15.07.2019
5119 Clouds 27 1005 74 10000 9.3 280 14:41 15.07.2019
5120 Clouds 27 1005 74 10000 9.3 280 14:22 15.07.2019
5121 Clouds 27 1005 78 10000 9.8 280 13:49 15.07.2019
5122 Clouds 27 1005 74 10000 9.8 290 13:21 15.07.2019
5123 Clouds 26 1005 69 10000 6.7 280 12:57 15.07.2019
5124 Clouds 26 1005 74 10000 6.7 260 12:39 15.07.2019
5125 Clouds 26 1005 74 10000 6.7 260 12:20 15.07.2019
5126 Clouds 26 1005 74 10000 5.7 260 11:41 15.07.2019
5127 Clouds 26 1005 74 10000 6.2 260 11:21 15.07.2019
5128 Clouds 26 1006 74 10000 6.2 240 10:43 15.07.2019
5129 Clouds 26 1006 74 10000 6.2 240 10:24 15.07.2019
5130 Clouds 26 1005 69 10000 6.2 220 09:44 15.07.2019
5131 Clouds 25 1005 69 10000 6.2 220 09:25 15.07.2019
5132 Clouds 24 1004 61 10000 8.2 200 08:49 15.07.2019
5133 Clouds 24 1004 61 10000 8.2 200 08:27 15.07.2019
5134 Clouds 24 1005 65 10000 6.7 210 07:58 15.07.2019
5135 Clouds 23 1005 69 10000 6.2 180 07:36 15.07.2019
5136 Clear 23 1005 73 10000 6.7 200 06:51 15.07.2019
5137 Clear 23 1005 83 10000 7.7 210 06:32 15.07.2019
5138 Clear 23 1005 78 10000 6.7 210 05:44 15.07.2019
5139 Clear 23 1005 78 10000 6.7 210 05:19 15.07.2019
5140 Rain 22 1006 83 10000 3.6 230 04:41 15.07.2019
5141 Rain 22 1006 88 7000 5.7 200 03:33 15.07.2019
5142 Rain 23 1005 88 7000 4.6 220 02:32 15.07.2019
5143 Rain 24 1006 78 10000 2.1 200 01:39 15.07.2019
5144 Clear 24 1006 78 10000 2.1 200 01:20 15.07.2019
5145 Clear 24 1007 78 10000 3.1 250 00:46 15.07.2019
5146 Clear 24 1007 69 10000 1.5 80 00:19 15.07.2019
5147 Clear 25 1007 74 10000 2.1 50 23:42 14.07.2019
5148 Clear 25 1007 74 10000 2.1 50 23:21 14.07.2019
5149 Clear 25 1007 78 10000 3.1 60 22:59 14.07.2019
5150 Clear 25 1008 78 10000 3.6 80 22:40 14.07.2019
5151 Clear 25 1008 78 10000 3.6 80 22:21 14.07.2019
5152 Clear 25 1008 74 10000 5.1 50 21:57 14.07.2019
5153 Clear 25 1008 74 10000 5.1 50 21:57 14.07.2019
5154 Clear 26 1007 74 10000 4.1 50 21:39 14.07.2019
5155 Clear 26 1007 74 10000 4.1 50 21:18 14.07.2019
5156 Clear 26 1007 74 10000 4.1 50 20:54 14.07.2019
5157 Clear 27 1007 69 10000 4.1 50 20:36 14.07.2019
5158 Clear 27 1006 62 10000 6.2 70 20:18 14.07.2019
5159 Clear 29 1006 62 10000 7.2 60 19:41 14.07.2019
5160 Clear 29 1006 62 10000 7.2 60 19:22 14.07.2019
5161 Clear 30 1006 66 10000 8.2 60 18:45 14.07.2019
5162 Clear 30 1006 66 10000 8.2 60 18:27 14.07.2019
5163 Clear 30 1007 66 10000 8.7 60 17:59 14.07.2019
5164 Clear 30 1007 69 10000 9.3 50 17:39 14.07.2019
5165 Clear 30 1008 69 10000 8.7 50 17:18 14.07.2019
5166 Clear 30 1008 69 10000 8.7 50 16:46 14.07.2019
5167 Clear 29 1008 69 10000 7.2 50 16:23 14.07.2019
5168 Clear 29 1008 69 10000 7.2 50 16:23 14.07.2019
5169 Clear 29 1009 74 10000 6.2 30 15:49 14.07.2019
5170 Clear 29 1009 74 10000 6.2 30 15:27 14.07.2019
5171 Clear 30 1009 69 10000 4.1 30 14:48 14.07.2019
5172 Clear 30 1009 69 10000 4.1 30 14:21 14.07.2019
5173 Clear 30 1010 69 10000 4.1 10 13:49 14.07.2019
5174 Clouds 30 1010 69 10000 3.6 360 13:25 14.07.2019
5175 Clouds 29 1009 74 10000 3.6 10 12:58 14.07.2019
5176 Clouds 29 1009 69 10000 3.1 350 12:40 14.07.2019
5177 Clouds 28 1009 69 10000 3.1 350 12:19 14.07.2019
5178 Clouds 28 1010 74 10000 3.1 300 11:51 14.07.2019
5179 Clouds 28 1010 74 10000 3.1 300 11:22 14.07.2019
5180 Clouds 27 1009 78 10000 2.6 260 10:49 14.07.2019
5181 Clouds 27 1009 78 10000 2.6 260 10:22 14.07.2019
5182 Clouds 27 1009 74 10000 1.5 270 09:51 14.07.2019
5183 Clouds 27 1009 74 10000 1.5 260 09:30 14.07.2019
5184 Clouds 26 1009 78 10000 2.1 250 08:57 14.07.2019
5185 Clouds 26 1008 78 10000 3.1 210 08:39 14.07.2019
5186 Clouds 25 1008 78 10000 1.5 240 07:47 14.07.2019
5187 Clouds 24 1008 78 10000 1.5 240 07:22 14.07.2019
5188 Clear 24 1008 65 10000 2.6 180 05:47 14.07.2019
5189 Clear 24 1008 65 10000 2.6 180 05:25 14.07.2019
5190 Clear 24 1008 61 10000 4.1 230 03:44 14.07.2019
5191 Clear 24 1008 61 10000 4.1 230 03:25 14.07.2019
5192 Clear 25 1009 54 10000 5.1 220 02:24 14.07.2019
5193 Clear 25 1009 58 10000 5.1 220 01:57 14.07.2019
5194 Clear 25 1009 54 10000 5.1 220 01:30 14.07.2019
5195 Clear 26 1009 45 10000 4.6 210 00:42 14.07.2019
5196 Clear 26 1009 45 10000 4.1 210 00:21 14.07.2019
5197 Clear 26 1009 45 10000 4.1 210 23:59 13.07.2019
5198 Clear 25 1009 48 10000 4.6 200 23:41 13.07.2019
5199 Clear 26 1009 48 10000 4.6 200 23:22 13.07.2019
5200 Clear 26 1009 45 10000 3.6 190 22:42 13.07.2019
5201 Clear 26 1009 45 10000 3.6 190 22:22 13.07.2019
5202 Clear 26 1009 48 10000 3.1 210 21:49 13.07.2019
5203 Clear 26 1009 48 10000 3.1 210 21:22 13.07.2019
5204 Clear 26 1009 74 10000 2.1 260 20:53 13.07.2019
5205 Clear 26 1009 74 10000 2.1 260 20:33 13.07.2019
5206 Clear 27 1009 69 10000 2.6 260 19:53 13.07.2019
5207 Clear 28 1009 69 10000 5.1 270 19:31 13.07.2019
5208 Clear 28 1009 61 10000 6.7 270 18:56 13.07.2019
5209 Clear 29 1010 69 10000 5.7 260 18:38 13.07.2019
5210 Clear 29 1010 74 10000 5.7 260 18:18 13.07.2019
5211 Clear 29 1010 65 10000 4.6 260 17:37 13.07.2019
5212 Clear 29 1010 65 10000 4.6 260 17:19 13.07.2019
5213 Clear 29 1011 69 10000 7.7 280 16:43 13.07.2019
5214 Clear 29 1011 69 10000 7.7 280 16:24 13.07.2019
5215 Clear 30 1011 47 0 4.92 324 15:48 13.07.2019
5216 Clear 30 1011 43 0 4.47 331 15:24 13.07.2019
5217 Clear 30 1011 78 10000 7.2 280 14:56 13.07.2019
5218 Clouds 30 1011 74 10000 8.2 280 14:37 13.07.2019
5219 Clouds 30 1012 83 10000 7.7 280 14:18 13.07.2019
5220 Clouds 30 1012 83 10000 8.2 280 13:42 13.07.2019
5221 Clouds 30 1012 83 10000 8.2 280 13:19 13.07.2019
5222 Clear 30 1011 78 10000 6.7 290 12:41 13.07.2019
5223 Clear 29 1011 78 10000 6.7 290 12:23 13.07.2019
5224 Clear 29 1011 70 10000 2.6 320 11:57 13.07.2019
5225 Clear 29 1011 65 10000 2.1 360 11:20 13.07.2019
5226 Clear 29 1011 65 10000 2.1 360 11:20 13.07.2019
5227 Clear 29 1011 65 10000 2.6 20 10:58 13.07.2019
5228 Clear 28 1011 65 10000 4.6 30 10:39 13.07.2019
5229 Clear 28 1011 65 10000 4.6 30 10:20 13.07.2019
5230 Clear 28 1011 45 10000 2.1 230 09:41 13.07.2019
5231 Clear 27 1011 45 10000 2.1 230 09:23 13.07.2019
5232 Clear 26 1011 54 10000 3.1 200 08:47 13.07.2019
5233 Clear 26 1011 54 10000 3.1 200 08:26 13.07.2019
5234 Clear 24 1011 57 10000 2.6 180 07:31 13.07.2019
5235 Clear 23 1011 60 10000 4.6 220 06:55 13.07.2019
5236 Clear 23 1011 53 10000 1 0 06:29 13.07.2019
5237 Clear 22 1011 60 10000 1.5 230 05:43 13.07.2019
5238 Clear 23 1011 60 10000 0.5 0 04:39 13.07.2019
5239 Clear 23 1012 47 10000 0.5 0 04:18 13.07.2019
5240 Clear 23 1012 47 10000 1.5 180 03:40 13.07.2019
5241 Clear 24 1012 50 10000 1 0 02:41 13.07.2019
5242 Clear 24 1013 65 10000 1.5 160 01:46 13.07.2019
5243 Clear 24 1013 65 10000 1.5 160 01:21 13.07.2019
5244 Clear 24 1013 83 10000 1.5 190 00:58 13.07.2019
5245 Clear 24 1013 83 10000 3.1 260 00:21 13.07.2019
5246 Clear 24 1014 83 10000 3.6 250 23:49 12.07.2019
5247 Clear 24 1014 83 10000 3.6 250 23:30 12.07.2019
5248 Clear 24 1013 83 10000 3.6 280 22:57 12.07.2019
5249 Clear 25 1013 83 10000 3.6 270 22:38 12.07.2019
5250 Clear 24 1013 83 10000 3.6 270 22:20 12.07.2019
5251 Clear 24 1012 83 10000 3.6 280 21:41 12.07.2019
5252 Clear 25 1012 78 10000 6.7 290 21:19 12.07.2019
5253 Clear 25 1012 83 10000 8.2 300 20:44 12.07.2019
5254 Clear 26 1012 83 10000 8.2 300 20:23 12.07.2019
5255 Clear 26 1012 78 10000 8.2 290 19:43 12.07.2019
5256 Clear 27 1012 78 10000 8.2 290 19:25 12.07.2019
5257 Clear 27 1012 74 10000 7.7 280 18:56 12.07.2019
5258 Clear 27 1012 78 10000 7.7 290 18:36 12.07.2019
5259 Clear 27 1012 78 10000 7.7 290 18:18 12.07.2019
5260 Clear 27 1013 69 10000 4.6 290 17:42 12.07.2019
5261 Clear 27 1013 69 10000 4.6 290 17:23 12.07.2019
5262 Clouds 28 1013 74 10000 4.6 310 16:37 12.07.2019
5263 Clouds 28 1013 74 10000 4.6 310 16:37 12.07.2019
5264 Clouds 28 1013 74 10000 5.7 300 16:18 12.07.2019
5265 Clouds 28 1013 83 10000 7.2 300 15:39 12.07.2019
5266 Clouds 28 1013 83 10000 7.2 300 15:19 12.07.2019
5267 Clouds 28 1013 74 10000 4.1 320 14:45 12.07.2019
5268 Clouds 29 1013 74 10000 4.1 320 14:21 12.07.2019
5269 Clouds 29 1013 78 10000 4.1 320 13:53 12.07.2019
5270 Clouds 29 1013 78 10000 3.6 310 13:32 12.07.2019
5271 Clear 29 1013 74 10000 3.1 320 12:44 12.07.2019
5272 Clear 28 1013 74 10000 3.1 320 12:24 12.07.2019
5273 Clouds 28 1014 74 10000 2.6 300 11:58 12.07.2019
5274 Clouds 28 1014 78 10000 2.6 280 11:39 12.07.2019
5275 Clouds 27 1014 74 10000 3.1 280 11:19 12.07.2019
5276 Clouds 27 1013 74 10000 2.1 280 10:41 12.07.2019
5277 Clouds 27 1013 78 10000 1.5 280 10:23 12.07.2019
5278 Clouds 27 1013 78 10000 1.5 280 09:53 12.07.2019
5279 Clouds 26 1013 78 10000 1 0 09:29 12.07.2019
5280 Clouds 26 1013 78 10000 1 0 09:29 12.07.2019
5281 Clear 26 1013 74 10000 1 0 08:52 12.07.2019
5282 Clear 25 1013 74 10000 1.5 180 08:25 12.07.2019
5283 Clear 25 1013 73 10000 1.5 180 07:54 12.07.2019
5284 Clear 24 1013 64 10000 2.6 180 07:32 12.07.2019
5285 Clear 23 1013 64 10000 2.1 190 06:44 12.07.2019
5286 Clear 22 1013 64 10000 2.1 190 06:25 12.07.2019
5287 Clear 23 1013 73 10000 1.5 170 04:55 12.07.2019
5288 Clear 23 1013 69 10000 1 190 03:20 12.07.2019
5289 Clear 23 1013 73 10000 2.1 170 01:38 12.07.2019
5290 Clear 23 1013 78 10000 2.1 170 00:49 12.07.2019
5291 Clear 23 1013 78 10000 1.5 180 00:20 12.07.2019
5292 Clear 23 1013 83 10000 1 220 23:43 11.07.2019
5293 Clear 23 1013 83 10000 1 220 23:24 11.07.2019
5294 Clear 23 1013 74 10000 1 220 22:52 11.07.2019
5295 Clear 24 1013 74 10000 0.5 0 22:26 11.07.2019
5296 Clear 24 1013 74 10000 0.5 0 22:26 11.07.2019
5297 Clouds 24 1013 74 10000 1 0 21:56 11.07.2019
5298 Clouds 24 1013 74 10000 0.5 0 21:38 11.07.2019
5299 Clear 24 1013 74 10000 1.5 40 21:18 11.07.2019
5300 Clear 25 1012 74 10000 2.1 30 20:42 11.07.2019
5301 Clear 25 1012 74 10000 2.1 30 20:23 11.07.2019
5302 Clear 26 1012 74 10000 3.1 30 19:57 11.07.2019
5303 Clear 26 1012 69 10000 3.1 40 19:39 11.07.2019
5304 Clear 26 1012 69 10000 3.1 30 19:20 11.07.2019
5305 Clouds 27 1012 69 10000 2.6 30 18:42 11.07.2019
5306 Clouds 28 1012 69 10000 2.6 30 18:24 11.07.2019
5307 Clear 28 1012 65 10000 2.6 30 17:49 11.07.2019
5308 Clear 28 1012 65 10000 2.6 30 17:31 11.07.2019
5309 Clear 28 1012 69 10000 3.1 40 16:55 11.07.2019
5310 Clear 28 1012 69 10000 3.6 30 16:37 11.07.2019
5311 Clear 28 1012 69 10000 3.6 30 16:18 11.07.2019
5312 Clear 28 1013 69 10000 3.1 20 15:40 11.07.2019
5313 Clear 28 1013 69 10000 3.1 20 15:20 11.07.2019
5314 Clear 29 1013 65 10000 3.6 360 14:45 11.07.2019
5315 Clear 29 1013 65 10000 3.6 360 14:25 11.07.2019
5316 Clear 29 1013 65 10000 2.6 340 13:56 11.07.2019
5317 Clear 29 1013 65 10000 2.6 340 13:37 11.07.2019
5318 Clear 29 1013 65 10000 2.6 340 13:18 11.07.2019
5319 Clear 28 1013 65 10000 1.5 310 12:38 11.07.2019
5320 Clear 28 1013 69 10000 1.5 310 12:19 11.07.2019
5321 Clear 28 1012 69 10000 1.5 320 11:45 11.07.2019
5322 Clear 27 1012 69 10000 1.5 320 11:24 11.07.2019
5323 Clear 27 1012 74 10000 2.1 360 10:51 11.07.2019
5324 Clear 27 1012 74 10000 2.1 20 10:20 11.07.2019
5325 Clear 27 1012 74 10000 2.6 20 09:52 11.07.2019
5326 Clear 27 1012 74 10000 3.1 30 09:31 11.07.2019
5327 Clouds 25 1012 78 10000 2.6 30 08:59 11.07.2019
5328 Clouds 25 1011 78 10000 3.1 30 08:39 11.07.2019
5329 Clouds 25 1011 78 10000 3.1 30 08:19 11.07.2019
5330 Clouds 25 1011 83 9000 4.6 40 07:43 11.07.2019
5331 Clouds 24 1010 78 8000 1.5 350 06:55 11.07.2019
5332 Clouds 24 1010 78 8000 1.5 350 06:18 11.07.2019
5333 Clouds 23 1010 78 10000 3.1 340 05:32 11.07.2019
5334 Clouds 23 1010 88 10000 2.1 330 04:56 11.07.2019
5335 Clouds 23 1010 88 10000 1.5 230 03:43 11.07.2019
5336 Clouds 24 1011 88 10000 2.1 190 02:20 11.07.2019
5337 Clouds 25 1011 83 10000 2.1 210 00:35 11.07.2019
5338 Clouds 24 1011 83 10000 1.5 210 23:51 10.07.2019
5339 Clear 24 1011 83 10000 2.1 230 23:27 10.07.2019
5340 Clear 24 1011 83 10000 2.1 220 22:57 10.07.2019
5341 Clear 25 1010 83 10000 2.6 220 22:26 10.07.2019
5342 Clear 26 1010 83 10000 2.6 210 21:57 10.07.2019
5343 Clouds 26 1010 83 10000 2.6 240 21:38 10.07.2019
5344 Clouds 25 1010 83 10000 2.6 240 21:20 10.07.2019
5345 Clouds 26 1010 83 10000 2.6 210 20:46 10.07.2019
5346 Clouds 26 1010 83 10000 2.6 210 20:26 10.07.2019
5347 Clouds 26 1010 83 10000 5.1 270 19:58 10.07.2019
5348 Clouds 26 1010 83 10000 6.2 280 19:40 10.07.2019
5349 Clouds 27 1010 83 10000 6.2 280 19:20 10.07.2019
5350 Clouds 27 1010 83 10000 7.7 270 18:46 10.07.2019
5351 Clouds 28 1010 83 10000 7.7 270 18:24 10.07.2019
5352 Clear 28 1010 74 10000 3.6 260 17:49 10.07.2019
5353 Clear 29 1010 65 10000 4.6 240 17:30 10.07.2019
5354 Clear 31 1010 61 10000 5.1 220 16:48 10.07.2019
5355 Clear 31 1010 65 10000 4.6 230 16:21 10.07.2019
5356 Clear 31 1010 69 10000 9.3 270 16:21 10.07.2019
5357 Clear 31 1010 74 10000 9.3 270 15:47 10.07.2019
5358 Clear 29 1010 74 10000 9.3 270 15:26 10.07.2019
5359 Clear 29 1010 74 10000 9.3 270 15:26 10.07.2019
5360 Clear 29 1010 74 10000 11.8 280 14:59 10.07.2019
5361 Clouds 28 1010 74 10000 10.3 270 14:37 10.07.2019
5362 Clouds 29 1010 74 10000 10.3 270 14:19 10.07.2019
5363 Clouds 29 1009 83 10000 11.3 280 13:41 10.07.2019
5364 Clear 32 1010 83 10000 9.8 280 13:18 10.07.2019
5365 Clear 32 1010 54 10000 6.2 290 12:41 10.07.2019
5366 Clear 31 1009 65 10000 5.7 250 12:22 10.07.2019
5367 Clear 32 1009 65 10000 5.7 250 11:51 10.07.2019
5368 Clear 31 1009 65 10000 8.7 260 11:22 10.07.2019
5369 Clear 31 1009 52 10000 4.6 210 10:58 10.07.2019
5370 Clear 31 1009 52 10000 4.6 210 10:58 10.07.2019
5371 Clear 31 1009 62 10000 9.3 230 10:36 10.07.2019
5372 Clear 30 1009 45 10000 8.7 210 10:18 10.07.2019
5373 Clouds 31 1009 38 10000 7.7 200 09:41 10.07.2019
5374 Clouds 30 1009 38 10000 7.7 200 09:20 10.07.2019
5375 Clouds 30 1009 40 10000 8.2 210 08:49 10.07.2019
5376 Clear 29 1009 35 10000 8.2 210 08:27 10.07.2019
5377 Clear 29 1009 33 10000 7.7 210 07:53 10.07.2019
5378 Clear 29 1008 51 10000 10.3 230 07:24 10.07.2019
5379 Clear 29 1008 33 10000 9.8 210 06:41 10.07.2019
5380 Clear 30 1007 19 10000 9.3 170 05:42 10.07.2019
5381 Clear 29 1009 24 10000 8.2 200 04:34 10.07.2019
5382 Clear 30 1009 21 10000 9.3 200 02:40 10.07.2019
5383 Clear 30 1011 35 10000 7.7 220 00:45 10.07.2019
5384 Clear 30 1011 45 10000 6.7 220 23:58 09.07.2019
5385 Clear 29 1011 45 10000 5.1 220 23:39 09.07.2019
5386 Clear 30 1011 45 10000 5.1 220 23:20 09.07.2019
5387 Clear 29 1011 58 10000 1.5 260 22:40 09.07.2019
5388 Clear 29 1011 62 10000 1 0 22:22 09.07.2019
5389 Clear 30 1011 62 10000 1 0 21:54 09.07.2019
5390 Clear 30 1011 62 10000 1 0 21:54 09.07.2019
5391 Clear 30 1010 45 10000 2.1 80 21:36 09.07.2019
5392 Clear 30 1010 51 10000 3.6 50 21:18 09.07.2019
5393 Clear 31 1010 69 10000 2.6 40 20:42 09.07.2019
5394 Clear 30 1010 69 10000 2.6 40 20:24 09.07.2019
5395 Clear 31 1010 58 10000 5.1 240 19:39 09.07.2019
5396 Clear 31 1010 58 10000 5.1 240 19:20 09.07.2019
5397 Clouds 32 1011 39 0 3.13 98 18:44 09.07.2019
5398 Clear 32 1011 78 10000 6.2 250 18:23 09.07.2019
5399 Clear 32 1011 49 10000 4.6 70 17:54 09.07.2019
5400 Clear 32 1012 59 10000 7.7 70 17:36 09.07.2019
5401 Clear 32 1012 59 10000 7.7 70 17:18 09.07.2019
5402 Clear 33 1014 34 10000 3.1 50 16:41 09.07.2019
5403 Clear 33 1014 46 10000 3.1 40 16:23 09.07.2019
5404 Clear 33 1014 74 10000 4.1 40 15:44 09.07.2019
5405 Clouds 35 1015 35 0 1.79 53 15:26 09.07.2019
5406 Clouds 34 1022 30 0 3.58 315 14:47 09.07.2019
5407 Clear 34 1013 74 10000 6.7 40 14:24 09.07.2019
5408 Clear 33 1013 59 10000 4.1 60 13:59 09.07.2019
5409 Clear 33 1013 59 10000 4.1 60 13:39 09.07.2019
5410 Clear 33 1013 59 10000 4.1 60 13:20 09.07.2019
5411 Clear 33 1012 74 10000 3.6 20 12:40 09.07.2019
5412 Clear 33 1012 74 10000 3.6 20 12:19 09.07.2019
5413 Clear 33 1012 55 10000 4.1 40 11:57 09.07.2019
5414 Clear 32 1013 62 10000 1.5 310 11:38 09.07.2019
5415 Clear 32 1013 62 10000 1.5 310 11:20 09.07.2019
5416 Clear 33 1013 78 10000 2.1 260 10:48 09.07.2019
5417 Clear 31 1013 74 10000 2.1 280 10:26 09.07.2019
5418 Clear 30 1013 69 10000 1 0 09:39 09.07.2019
5419 Clear 29 1013 69 10000 1 0 09:20 09.07.2019
5420 Clear 29 1013 69 10000 1 0 09:20 09.07.2019
5421 Clear 29 1014 74 10000 2.6 240 08:45 09.07.2019
5422 Clear 29 1014 74 10000 2.6 240 08:22 09.07.2019
5423 Clear 25 1016 57 10000 2.1 160 03:54 05.07.2019
5424 Clear 25 1016 47 10000 2.1 190 03:25 05.07.2019
5425 Clear 24 1016 50 10000 1.5 200 02:59 05.07.2019
5426 Clear 24 1016 60 10000 1.5 190 02:37 05.07.2019
5427 Clear 25 1016 69 10000 1 190 01:37 05.07.2019
5428 Clear 25 1016 88 10000 1.5 230 01:18 05.07.2019
5429 Clear 25 1016 94 10000 3.1 220 00:40 05.07.2019
5430 Clear 25 1016 94 10000 3.1 220 23:51 04.07.2019
5431 Clear 26 1016 88 10000 3.6 230 23:21 04.07.2019
5432 Clear 26 1016 78 10000 2.6 230 22:44 04.07.2019
5433 Clear 26 1016 78 10000 2.6 230 22:24 04.07.2019
5434 Clear 26 1015 57 10000 2.6 50 21:57 04.07.2019
5435 Clear 26 1015 78 10000 3.1 40 21:39 04.07.2019
5436 Clear 27 1015 78 10000 3.1 40 21:21 04.07.2019
5437 Clear 27 1015 88 10000 4.1 40 20:40 04.07.2019
5438 Clear 27 1015 88 10000 4.1 40 20:22 04.07.2019
5439 Clear 28 1015 83 10000 4.1 40 19:57 04.07.2019
5440 Clear 29 1015 83 10000 5.1 30 19:38 04.07.2019
5441 Clear 29 1015 83 10000 5.1 30 19:20 04.07.2019
5442 Clear 29 1015 74 10000 4.6 40 18:43 04.07.2019
5443 Clear 30 1015 74 10000 4.6 40 18:25 04.07.2019
5444 Clear 31 1015 43 10000 4.1 50 17:46 04.07.2019
5445 Clear 31 1015 66 10000 5.7 40 17:19 04.07.2019
5446 Clear 31 1016 48 10000 3.6 40 15:59 04.07.2019
5447 Clear 32 1016 33 10000 4.1 50 15:40 04.07.2019
5448 Clear 32 1016 33 10000 4.1 50 15:22 04.07.2019
5449 Clear 32 1016 55 10000 5.1 40 14:55 04.07.2019
5450 Clear 32 1016 52 10000 4.6 50 14:37 04.07.2019
5451 Clear 32 1016 52 10000 4.6 50 14:18 04.07.2019
5452 Clear 32 1016 52 10000 4.6 50 14:18 04.07.2019
5453 Clear 32 1016 69 10000 4.6 30 13:54 04.07.2019
5454 Clear 32 1016 69 10000 4.6 30 13:54 04.07.2019
5455 Clear 32 1016 69 10000 4.6 30 13:36 04.07.2019
5456 Clear 32 1016 55 10000 4.6 30 13:18 04.07.2019
5457 Clear 31 1016 66 10000 4.1 40 12:37 04.07.2019
5458 Clear 31 1016 66 10000 4.1 40 12:37 04.07.2019
5459 Clear 31 1016 58 10000 3.6 40 12:19 04.07.2019
5460 Clear 31 1015 74 10000 3.6 30 11:39 04.07.2019
5461 Clear 30 1015 74 10000 3.6 30 11:19 04.07.2019
5462 Clear 30 1015 74 10000 3.6 30 11:19 04.07.2019
5463 Clear 30 1015 78 10000 3.1 30 10:40 04.07.2019
5464 Clear 29 1015 78 10000 3.1 30 10:22 04.07.2019
5465 Clear 29 1015 78 10000 4.1 30 09:45 04.07.2019
5466 Clear 28 1015 78 10000 4.1 30 09:26 04.07.2019
5467 Clear 28 1015 65 10000 3.1 40 08:57 04.07.2019
5468 Clear 27 1015 69 10000 2.1 180 08:28 04.07.2019
5469 Clear 27 995 57 0 0.8 131.367 07:46 04.07.2019
5470 Clear 26 1014 73 10000 1.5 10 07:23 04.07.2019
5471 Clear 24 1015 73 10000 2.6 220 06:55 04.07.2019
5472 Clear 24 1014 78 10000 1.5 180 05:55 04.07.2019
5473 Clear 24 1014 83 10000 2.6 180 05:36 04.07.2019
5474 Clear 24 1014 83 10000 0.5 0 03:30 04.07.2019
5475 Clear 25 1014 78 10000 0.5 0 01:45 04.07.2019
5476 Clear 25 1014 78 10000 0.5 0 01:23 04.07.2019
5477 Clear 25 1014 83 10000 3.1 210 00:28 04.07.2019
5478 Clear 24 1014 78 10000 3.1 240 23:47 03.07.2019
5479 Clear 25 1014 78 10000 3.1 240 23:20 03.07.2019
5480 Clear 25 1014 74 10000 2.1 90 22:55 03.07.2019
5481 Clear 25 1014 74 10000 3.6 80 22:36 03.07.2019
5482 Clear 25 1014 74 10000 3.1 100 22:18 03.07.2019
5483 Clear 26 1013 74 10000 5.7 80 21:46 03.07.2019
5484 Clear 26 1013 74 10000 5.7 80 21:28 03.07.2019
5485 Clear 27 1013 74 10000 7.2 50 20:46 03.07.2019
5486 Clear 27 1013 74 10000 7.2 50 20:27 03.07.2019
5487 Clear 27 1013 69 10000 7.7 50 19:54 03.07.2019
5488 Clear 28 1013 69 10000 7.7 50 19:35 03.07.2019
5489 Clear 28 1013 78 10000 7.7 30 18:55 03.07.2019
5490 Clear 29 1013 69 10000 8.2 50 18:37 03.07.2019
5491 Clear 29 1013 69 10000 8.7 40 18:18 03.07.2019
5492 Clear 29 1013 66 10000 8.7 50 17:45 03.07.2019
5493 Clear 29 1013 69 10000 8.7 40 17:18 03.07.2019
5494 Clear 30 1014 69 10000 8.7 40 16:44 03.07.2019
5495 Clear 30 1014 69 10000 8.7 40 16:23 03.07.2019
5496 Clear 30 1013 62 10000 9.3 50 15:52 03.07.2019
5497 Clear 30 1013 62 10000 9.3 50 15:52 03.07.2019
5498 Clear 30 1013 62 10000 9.3 50 15:32 03.07.2019
5499 Clear 30 1014 62 10000 8.7 50 14:59 03.07.2019
5500 Clear 30 1014 65 10000 8.7 40 14:41 03.07.2019
5501 Clear 30 1014 65 10000 8.7 40 14:19 03.07.2019
5502 Clear 31 1014 66 10000 8.2 50 13:43 03.07.2019
5503 Clear 31 1014 66 10000 8.2 50 13:24 03.07.2019
5504 Clear 31 1014 65 10000 6.7 40 12:46 03.07.2019
5505 Clear 30 1014 74 10000 4.1 30 12:18 03.07.2019
5506 Clear 30 1014 74 10000 3.1 20 11:43 03.07.2019
5507 Clear 29 1014 74 10000 3.1 20 11:23 03.07.2019
5508 Clear 29 1014 74 10000 2.6 330 10:57 03.07.2019
5509 Clear 28 1014 78 10000 2.6 310 10:36 03.07.2019
5510 Clear 29 1014 78 10000 2.1 290 10:18 03.07.2019
5511 Clear 27 1014 73 10000 3.1 250 09:39 03.07.2019
5512 Clear 27 1014 73 10000 3.1 250 09:20 03.07.2019
5513 Clear 27 1014 78 10000 2.6 240 08:50 03.07.2019
5514 Clear 26 1013 69 10000 1 0 08:26 03.07.2019
5515 Clear 25 993 63 0 1.11 350.783 07:40 03.07.2019
5516 Clear 25 1013 73 10000 1 220 07:20 03.07.2019
5517 Clear 23 1013 73 10000 0.5 0 06:25 03.07.2019
5518 Clear 23 1013 73 10000 1 0 05:34 03.07.2019
5519 Clear 23 1013 69 10000 1 0 04:38 03.07.2019
5520 Clear 23 1013 65 10000 1.5 70 03:24 03.07.2019
5521 Clear 23 1014 61 10000 1.5 200 01:49 03.07.2019
5522 Clear 24 1014 69 10000 1 0 01:21 03.07.2019
5523 Clear 23 1014 73 10000 2.1 50 00:45 03.07.2019
5524 Clear 23 1014 61 10000 1.5 360 00:18 03.07.2019
5525 Clear 24 1014 69 10000 4.1 80 23:38 02.07.2019
5526 Clear 24 1013 69 10000 5.7 60 23:20 02.07.2019
5527 Clear 24 1013 69 10000 5.7 60 22:56 02.07.2019
5528 Clear 24 1013 65 10000 5.7 60 22:38 02.07.2019
5529 Clear 25 1013 65 10000 5.7 70 22:19 02.07.2019
5530 Clear 25 1013 65 10000 6.2 70 21:43 02.07.2019
5531 Clear 25 1013 65 10000 6.2 70 21:23 02.07.2019
5532 Clear 25 1013 65 10000 6.2 60 20:58 02.07.2019
5533 Clear 26 1013 65 10000 6.2 60 20:39 02.07.2019
5534 Clear 26 1013 65 10000 6.7 50 20:21 02.07.2019
5535 Clear 26 1013 61 10000 7.2 50 19:43 02.07.2019
5536 Clear 27 1013 61 10000 6.2 40 19:23 02.07.2019
5537 Clear 28 1013 61 10000 6.2 40 18:50 02.07.2019
5538 Clear 28 1013 69 10000 6.2 30 18:19 02.07.2019
5539 Clear 28 1013 61 10000 6.7 40 17:45 02.07.2019
5540 Clear 28 1013 61 10000 6.7 40 17:45 02.07.2019
5541 Clear 28 1014 74 10000 6.2 30 17:24 02.07.2019
5542 Clear 28 1014 74 10000 6.2 30 16:57 02.07.2019
5543 Clear 29 1014 74 10000 6.2 30 16:39 02.07.2019
5544 Clear 29 1014 69 10000 6.7 30 16:21 02.07.2019
5545 Clear 29 1014 69 10000 6.7 40 15:40 02.07.2019
5546 Clear 29 1014 69 10000 6.7 40 15:21 02.07.2019
5547 Clear 29 1014 69 10000 7.2 40 14:45 02.07.2019
5548 Clear 29 1014 69 10000 7.2 40 14:25 02.07.2019
5549 Clear 29 1015 69 10000 4.6 30 13:43 02.07.2019
5550 Clear 29 1015 69 10000 4.6 30 13:19 02.07.2019
5551 Clear 29 1015 74 10000 3.6 340 12:45 02.07.2019
5552 Clear 28 1015 74 10000 3.6 340 12:24 02.07.2019
5553 Clear 28 1015 74 10000 3.6 340 11:55 02.07.2019
5554 Clear 27 1015 74 10000 2.6 310 11:37 02.07.2019
5555 Clear 27 1015 73 10000 2.6 290 11:18 02.07.2019
5556 Clear 27 1015 73 10000 2.1 280 10:42 02.07.2019
5557 Clear 27 1015 73 10000 2.1 280 10:23 02.07.2019
5558 Clear 27 1015 78 10000 2.1 270 09:43 02.07.2019
5559 Clear 26 1015 69 10000 1 270 09:20 02.07.2019
5560 Clear 26 1015 73 10000 1 230 08:41 02.07.2019
5561 Clear 25 1015 73 10000 1 230 08:20 02.07.2019
5562 Clear 24 1015 78 10000 1 180 07:53 02.07.2019
5563 Clear 24 1015 78 10000 1 170 07:21 02.07.2019
5564 Clear 24 1015 78 10000 1 170 07:21 02.07.2019
5565 Clear 23 1015 73 10000 1 150 06:47 02.07.2019
5566 Clear 23 1015 73 10000 0.5 0 05:58 02.07.2019
5567 Clear 23 1015 69 10000 1 200 04:39 02.07.2019
5568 Clear 23 1016 83 10000 2.1 230 01:27 02.07.2019
5569 Clear 24 1016 83 10000 2.6 240 23:49 01.07.2019
5570 Clear 24 1016 83 10000 2.6 240 23:22 01.07.2019
5571 Clear 24 1016 78 10000 3.1 50 22:46 01.07.2019
5572 Clear 24 1016 78 10000 3.1 50 22:27 01.07.2019
5573 Clear 25 1016 78 10000 4.6 40 21:47 01.07.2019
5574 Clear 25 1016 78 10000 4.6 40 21:26 01.07.2019
5575 Clear 25 1016 74 10000 6.2 50 20:51 01.07.2019
5576 Clear 26 1015 65 10000 7.7 60 20:22 01.07.2019
5577 Clear 26 1015 65 10000 7.7 60 20:22 01.07.2019
5578 Clear 26 1015 65 10000 7.7 60 19:59 01.07.2019
5579 Clear 27 1015 65 10000 7.7 60 19:40 01.07.2019
5580 Clear 27 1015 65 10000 8.2 50 19:22 01.07.2019
5581 Clear 27 1015 65 10000 8.2 50 18:53 01.07.2019
5582 Clear 28 1016 62 10000 8.2 60 18:31 01.07.2019
5583 Clear 29 1016 58 10000 7.7 50 17:58 01.07.2019
5584 Clear 29 1016 61 10000 8.2 50 17:40 01.07.2019
5585 Clear 29 1016 61 10000 8.2 50 17:21 01.07.2019
5586 Clear 28 1016 62 10000 8.2 40 16:46 01.07.2019
5587 Clear 29 1016 65 10000 7.7 40 16:25 01.07.2019
5588 Clear 29 1017 65 10000 7.7 40 15:47 01.07.2019
5589 Clear 29 1017 69 10000 7.7 40 15:28 01.07.2019
5590 Clear 29 1017 69 10000 6.7 40 14:59 01.07.2019
5591 Clear 29 1017 69 10000 6.7 40 14:39 01.07.2019
5592 Clear 29 1017 69 10000 6.2 40 14:19 01.07.2019
5593 Clear 29 1017 74 10000 5.1 30 13:40 01.07.2019
5594 Clear 29 1018 69 10000 4.6 30 13:21 01.07.2019
5595 Clear 29 1018 78 10000 4.6 30 12:44 01.07.2019
5596 Clear 28 1018 78 10000 5.1 30 12:23 01.07.2019
5597 Clear 28 1018 83 10000 4.1 30 11:58 01.07.2019
5598 Clear 28 1018 83 10000 4.1 30 11:38 01.07.2019
5599 Clear 28 1018 78 10000 2.1 340 11:18 01.07.2019
5600 Clear 28 1018 78 10000 2.1 300 10:45 01.07.2019
5601 Clear 27 1018 83 10000 2.6 280 10:21 01.07.2019
5602 Clear 26 1018 78 10000 2.1 270 09:45 01.07.2019
5603 Clouds 26 1018 78 10000 1.5 260 09:26 01.07.2019
5604 Clouds 26 1018 83 10000 2.1 250 08:58 01.07.2019
5605 Clouds 25 1018 83 10000 2.1 250 08:35 01.07.2019
5606 Clouds 25 1018 83 10000 1.5 200 07:35 01.07.2019
5607 Clear 23 1017 83 10000 1 170 06:51 01.07.2019
5608 Clear 22 1017 78 10000 1 170 04:45 01.07.2019
5609 Clear 23 1018 78 10000 1.5 170 01:22 01.07.2019
5610 Clear 23 1018 78 10000 1.5 170 00:43 01.07.2019
5611 Clear 23 1018 78 10000 0.5 160 00:21 01.07.2019
5612 Clear 24 1018 83 10000 0.5 0 23:26 30.06.2019
5613 Clear 24 1018 78 10000 1.5 30 22:58 30.06.2019
5614 Clear 24 1018 78 10000 1.5 30 22:38 30.06.2019
5615 Clear 24 1018 78 10000 2.1 20 22:18 30.06.2019
5616 Clear 25 1017 78 10000 1.5 340 21:41 30.06.2019
5617 Clear 24 1017 78 10000 1.5 340 21:19 30.06.2019
5618 Clear 25 1017 78 10000 1.5 340 20:54 30.06.2019
5619 Clear 25 1017 78 10000 1.5 340 20:36 30.06.2019
5620 Clear 26 1017 74 10000 3.1 340 20:18 30.06.2019
5621 Clear 27 1017 74 10000 3.1 340 19:42 30.06.2019
5622 Clear 27 1017 74 10000 3.1 340 19:24 30.06.2019
5623 Clear 28 1017 69 10000 2.6 340 18:26 30.06.2019
5624 Clear 28 1017 69 10000 2.6 340 17:56 30.06.2019
5625 Clear 28 1017 69 10000 2.6 340 17:37 30.06.2019
5626 Clear 28 1017 65 10000 2.6 340 17:18 30.06.2019
5627 Clear 28 1017 69 10000 3.1 360 16:44 30.06.2019
5628 Clear 28 1018 69 10000 3.1 20 16:25 30.06.2019
5629 Clear 29 1018 74 10000 3.6 30 15:37 30.06.2019
5630 Clear 28 1018 74 10000 4.1 30 15:18 30.06.2019
5631 Clear 29 1018 74 10000 3.6 30 14:50 30.06.2019
5632 Clear 29 1018 78 10000 4.1 30 14:29 30.06.2019
5633 Clear 29 1018 78 10000 4.1 20 13:47 30.06.2019
5634 Clear 29 1018 78 10000 3.1 10 13:28 30.06.2019
5635 Clear 28 1018 74 10000 1.5 310 12:52 30.06.2019
5636 Clear 28 1018 74 10000 1.5 310 12:28 30.06.2019
5637 Clear 28 1018 74 10000 2.1 290 11:57 30.06.2019
5638 Clear 28 1018 74 10000 2.1 290 11:38 30.06.2019
5639 Clear 27 1017 74 10000 2.6 280 11:19 30.06.2019
5640 Clear 27 1017 69 10000 3.6 270 10:44 30.06.2019
5641 Clear 27 1017 73 10000 3.6 260 10:19 30.06.2019
5642 Clear 27 1017 57 10000 3.6 230 09:57 30.06.2019
5643 Clear 27 1017 57 10000 3.6 230 09:37 30.06.2019
5644 Clear 26 1017 73 10000 4.1 240 09:18 30.06.2019
5645 Clear 26 1016 78 10000 4.1 240 08:39 30.06.2019
5646 Clear 26 1016 65 10000 1.5 210 08:19 30.06.2019
5647 Clear 26 1016 73 10000 1.5 210 07:41 30.06.2019
5648 Clear 24 1016 69 10000 1 210 07:22 30.06.2019
5649 Clear 23 1015 73 10000 2.1 200 06:31 30.06.2019
5650 Clear 23 1015 78 10000 1.5 180 03:27 30.06.2019
5651 Clear 22 1015 83 10000 4.1 70 01:50 30.06.2019
5652 Clear 23 1014 88 10000 6.2 60 00:45 30.06.2019
5653 Clouds 24 1014 88 9000 5.7 60 00:23 30.06.2019
5654 Clear 24 1014 88 10000 5.7 60 23:43 29.06.2019
5655 Clear 24 1014 74 10000 5.7 50 23:21 29.06.2019
5656 Clear 24 1014 88 10000 5.1 70 22:46 29.06.2019
5657 Clear 25 1014 88 10000 6.7 50 22:22 29.06.2019
5658 Clear 25 1013 88 10000 7.2 60 21:55 29.06.2019
5659 Clear 26 1013 83 10000 7.2 50 21:25 29.06.2019
5660 Clear 26 1013 83 10000 6.7 70 20:47 29.06.2019
5661 Clear 27 1013 78 10000 6.7 70 20:29 29.06.2019
5662 Clear 27 1013 78 10000 8.2 60 19:58 29.06.2019
5663 Clear 27 1013 78 10000 8.2 60 19:39 29.06.2019
5664 Clear 28 1013 74 10000 8.2 60 19:19 29.06.2019
5665 Clear 28 1013 74 10000 7.7 60 18:47 29.06.2019
5666 Clear 29 1013 74 10000 8.2 60 18:24 29.06.2019
5667 Clear 29 1013 79 10000 8.7 50 17:38 29.06.2019
5668 Clear 30 1013 79 10000 8.2 40 17:19 29.06.2019
5669 Clear 30 1013 70 10000 7.7 40 16:43 29.06.2019
5670 Clear 30 1013 74 10000 7.7 40 16:19 29.06.2019
5671 Clear 31 1013 78 10000 7.7 40 15:33 29.06.2019
5672 Clear 31 1013 74 10000 7.2 40 14:55 29.06.2019
5673 Clear 31 1013 74 10000 7.2 40 14:37 29.06.2019
5674 Clear 30 1013 78 10000 6.2 40 14:18 29.06.2019
5675 Clear 31 1013 78 10000 5.1 30 13:41 29.06.2019
5676 Clear 31 1013 83 10000 4.6 30 13:23 29.06.2019
5677 Clear 30 1014 83 10000 4.6 20 12:41 29.06.2019
5678 Clear 31 1013 83 10000 5.7 30 12:22 29.06.2019
5679 Clear 30 1013 83 10000 5.7 30 11:46 29.06.2019
5680 Clear 30 1013 88 10000 6.2 30 11:28 29.06.2019
5681 Clear 30 1013 83 10000 4.6 40 10:52 29.06.2019
5682 Clear 29 1013 83 10000 4.1 30 10:24 29.06.2019
5683 Clear 28 1013 83 10000 3.6 40 09:58 29.06.2019
5684 Clear 28 993 75 0 0.48 329.057 09:22 29.06.2019
5685 Clouds 27 1013 88 10000 0.5 0 08:36 29.06.2019
5686 Clouds 26 1013 94 10000 1.5 340 07:46 29.06.2019
5687 Clear 26 1012 88 10000 1 10 07:18 29.06.2019
5688 Clear 25 1012 94 10000 1 240 06:40 29.06.2019
5689 Clear 24 1012 88 10000 1.5 230 06:19 29.06.2019
5690 Clear 25 1013 94 10000 1 360 01:56 29.06.2019
5691 Clear 25 1013 94 10000 1 360 00:57 29.06.2019
5692 Clear 25 1014 88 10000 1 0 23:55 28.06.2019
5693 Clear 25 1014 94 10000 1.5 360 23:22 28.06.2019
5694 Clear 25 1013 94 10000 2.1 340 22:50 28.06.2019
5695 Clear 25 1013 88 10000 1.5 350 22:27 28.06.2019
5696 Clear 25 1013 94 10000 3.1 340 21:46 28.06.2019
5697 Clear 25 1013 88 10000 1.5 350 21:20 28.06.2019
5698 Clear 26 1013 88 10000 2.1 10 20:43 28.06.2019
5699 Clear 26 1013 88 10000 2.1 30 20:20 28.06.2019
5700 Clouds 26 1013 88 10000 2.6 10 19:43 28.06.2019
5701 Clouds 26 1013 88 10000 2.6 10 19:24 28.06.2019
5702 Clouds 27 1013 83 10000 3.1 10 18:42 28.06.2019
5703 Clear 28 1013 83 10000 3.1 360 18:22 28.06.2019
5704 Clouds 28 1013 83 10000 2.6 10 17:54 28.06.2019
5705 Clear 29 1013 83 10000 2.6 350 17:29 28.06.2019
5706 Clear 29 1013 83 10000 3.6 340 16:48 28.06.2019
5707 Clear 30 1013 83 10000 3.6 330 16:23 28.06.2019
5708 Clear 29 1013 83 10000 4.6 310 15:48 28.06.2019
5709 Clear 30 1013 78 10000 4.1 300 15:19 28.06.2019
5710 Clear 30 1013 78 10000 4.1 290 14:42 28.06.2019
5711 Clear 30 1013 78 10000 3.1 270 14:22 28.06.2019
5712 Clear 30 1013 78 10000 2.6 260 13:50 28.06.2019
5713 Clear 30 1014 83 10000 3.1 280 13:30 28.06.2019
5714 Clear 30 1014 83 10000 3.6 250 12:54 28.06.2019
5715 Clear 30 1014 83 10000 3.6 250 12:36 28.06.2019
5716 Clear 30 1014 38 0 4.02 341 11:47 28.06.2019
5717 Clear 29 1014 83 10000 4.1 250 11:19 28.06.2019
5718 Clear 29 1014 78 10000 3.6 250 10:43 28.06.2019
5719 Clear 29 1014 83 10000 2.6 260 10:21 28.06.2019
5720 Clear 28 1014 83 10000 2.6 260 09:47 28.06.2019
5721 Clear 28 1014 69 10000 2.1 250 09:29 28.06.2019
5722 Clear 27 1014 78 10000 2.6 250 08:44 28.06.2019
5723 Clear 27 1014 61 10000 2.1 260 08:24 28.06.2019
5724 Clear 27 1014 54 10000 1 0 07:45 28.06.2019
5725 Clear 25 1014 73 10000 1.5 180 06:57 28.06.2019
5726 Clear 25 1013 83 10000 1.5 200 05:42 28.06.2019
5727 Clear 25 1015 88 10000 2.6 80 01:22 28.06.2019
5728 Clear 24 1015 88 10000 3.6 60 00:33 28.06.2019
5729 Clear 25 1015 88 10000 3.6 60 23:48 27.06.2019
5730 Clear 25 1016 94 10000 3.1 40 23:25 27.06.2019
5731 Clear 25 1015 88 10000 3.6 40 22:55 27.06.2019
5732 Clear 25 1015 88 10000 3.6 40 22:36 27.06.2019
5733 Clear 25 1015 83 10000 3.6 50 22:18 27.06.2019
5734 Clear 25 1015 74 10000 4.1 60 21:47 27.06.2019
5735 Clear 26 1014 74 10000 4.6 50 21:29 27.06.2019
5736 Clear 26 1014 78 10000 5.1 50 20:55 27.06.2019
5737 Clear 27 1014 74 10000 5.7 60 20:36 27.06.2019
5738 Clear 27 1014 74 10000 5.7 60 20:18 27.06.2019
5739 Clear 27 1015 69 10000 6.2 50 19:41 27.06.2019
5740 Clear 27 1015 74 10000 5.1 80 19:23 27.06.2019
5741 Clear 27 1015 74 10000 5.7 70 18:42 27.06.2019
5742 Clear 27 1015 74 10000 4.1 80 18:19 27.06.2019
5743 Clear 28 1015 70 10000 4.6 50 17:43 27.06.2019
5744 Clear 27 1016 74 10000 2.6 30 17:22 27.06.2019
5745 Clear 27 1015 74 10000 5.1 50 16:40 27.06.2019
5746 Clear 28 1016 78 10000 5.7 40 16:19 27.06.2019
5747 Clear 28 1016 78 10000 5.7 40 16:19 27.06.2019
5748 Clear 27 1016 74 10000 5.1 40 15:55 27.06.2019
5749 Clear 27 1016 74 10000 5.1 40 15:35 27.06.2019
5750 Clear 28 1016 65 10000 7.2 40 14:58 27.06.2019
5751 Clear 28 1016 65 10000 7.2 40 14:38 27.06.2019
5752 Clear 29 1016 78 10000 6.7 40 14:18 27.06.2019
5753 Clear 29 1016 74 10000 7.2 40 13:42 27.06.2019
5754 Clear 29 1017 78 10000 6.7 40 13:24 27.06.2019
5755 Clear 28 1017 78 10000 6.2 40 12:48 27.06.2019
5756 Clear 29 1017 83 10000 5.1 30 12:24 27.06.2019
5757 Clear 29 1017 83 10000 5.1 30 11:47 27.06.2019
5758 Clear 27 1017 83 10000 3.1 10 11:23 27.06.2019
5759 Clear 27 1017 83 10000 3.1 10 11:23 27.06.2019
5760 Clear 28 1017 88 10000 2.6 340 10:58 27.06.2019
5761 Clear 28 1017 88 10000 2.6 340 10:40 27.06.2019
5762 Clear 27 1017 83 10000 2.6 300 10:19 27.06.2019
5763 Clear 27 1017 88 10000 2.6 280 09:38 27.06.2019
5764 Clear 26 1017 88 10000 3.1 260 09:20 27.06.2019
5765 Clear 26 1017 78 10000 2.1 230 08:48 27.06.2019
5766 Clear 26 1017 78 10000 2.1 230 08:48 27.06.2019
5767 Clear 26 1017 88 10000 1.5 250 08:27 27.06.2019
5768 Clear 24 1017 94 10000 1 230 07:45 27.06.2019
5769 Clear 24 1017 94 10000 2.6 290 06:57 27.06.2019
5770 Clear 24 1017 94 10000 2.6 290 06:32 27.06.2019
5771 Clear 23 1017 83 10000 4.6 60 03:51 27.06.2019
5772 Clear 24 1017 88 10000 3.6 50 02:42 27.06.2019
5773 Clear 24 1018 83 10000 5.1 40 01:29 27.06.2019
5774 Clear 24 1018 61 10000 3.1 60 00:50 27.06.2019
5775 Clear 24 1018 45 10000 4.1 80 00:26 27.06.2019
5776 Clear 24 1018 74 10000 3.1 40 23:51 26.06.2019
5777 Clear 25 1018 65 10000 5.1 80 23:23 26.06.2019
5778 Clear 25 1018 65 10000 5.1 80 23:23 26.06.2019
5779 Clear 24 1018 74 10000 5.1 80 22:58 26.06.2019
5780 Clear 25 1018 74 10000 5.1 80 22:40 26.06.2019
5781 Clear 25 1018 74 10000 5.1 80 22:40 26.06.2019
5782 Clear 25 1018 83 10000 5.7 50 22:19 26.06.2019
5783 Clear 25 1017 74 10000 4.6 80 21:42 26.06.2019
5784 Clear 25 1017 78 10000 7.2 50 21:21 26.06.2019
5785 Clear 25 1017 74 10000 8.2 60 20:57 26.06.2019
5786 Clear 25 1017 74 10000 8.2 60 20:37 26.06.2019
5787 Clear 26 1017 74 10000 8.2 60 20:19 26.06.2019
5788 Clear 26 1016 78 10000 8.7 60 19:43 26.06.2019
5789 Clear 27 1017 74 10000 7.7 70 19:23 26.06.2019
5790 Clear 27 1017 74 10000 8.2 60 18:46 26.06.2019
5791 Clear 28 1017 74 10000 7.7 60 18:23 26.06.2019
5792 Clear 28 1017 74 10000 7.7 40 17:58 26.06.2019
5793 Clear 28 1017 74 10000 7.7 40 17:38 26.06.2019
5794 Clear 28 1017 78 10000 7.2 40 17:19 26.06.2019
5795 Clear 29 1018 83 10000 5.7 30 16:46 26.06.2019
5796 Clear 29 1018 83 10000 5.1 30 16:22 26.06.2019
5797 Clear 28 1018 78 10000 5.1 30 15:40 26.06.2019
5798 Clouds 28 1018 83 10000 5.1 30 15:22 26.06.2019
5799 Clouds 28 1018 83 10000 5.1 30 14:38 26.06.2019
5800 Clouds 28 1019 83 10000 4.1 10 14:19 26.06.2019
5801 Clouds 29 1019 78 10000 3.6 360 13:43 26.06.2019
5802 Clouds 29 1019 78 10000 3.1 350 13:20 26.06.2019
5803 Clear 29 1019 78 10000 3.1 340 12:42 26.06.2019
5804 Clear 28 1019 83 10000 2.6 330 12:23 26.06.2019
5805 Clear 28 1019 78 10000 2.1 320 11:49 26.06.2019
5806 Clear 28 1019 78 10000 1.5 310 11:21 26.06.2019
5807 Clear 28 1019 78 10000 2.1 290 10:46 26.06.2019
5808 Clear 27 1019 83 10000 2.6 280 10:27 26.06.2019
5809 Clear 27 1019 78 10000 3.1 260 09:49 26.06.2019
5810 Clear 26 1019 83 10000 3.6 250 09:20 26.06.2019
5811 Clear 26 1019 73 10000 2.6 240 08:49 26.06.2019
5812 Clear 25 1019 69 10000 2.1 230 08:20 26.06.2019
5813 Clear 25 1018 69 10000 1 0 07:46 26.06.2019
5814 Clear 24 1018 73 10000 0.5 0 07:25 26.06.2019
5815 Clear 23 1018 73 10000 1 0 06:32 26.06.2019
5816 Clear 23 1018 54 10000 4.6 60 01:28 26.06.2019
5817 Clear 24 1019 57 10000 4.6 60 00:25 26.06.2019
5818 Clear 24 1018 61 10000 5.1 60 23:48 25.06.2019
5819 Clear 24 1018 54 10000 4.6 60 23:28 25.06.2019
5820 Clear 24 1018 69 10000 5.7 60 22:58 25.06.2019
5821 Clear 24 1018 69 10000 5.7 60 22:39 25.06.2019
5822 Clear 25 1018 83 10000 5.1 50 22:21 25.06.2019
5823 Clear 24 1018 78 10000 5.7 70 21:44 25.06.2019
5824 Clear 24 1017 78 10000 6.2 60 21:22 25.06.2019
5825 Clear 25 1017 83 10000 6.7 50 20:47 25.06.2019
5826 Clear 25 1017 83 10000 6.7 50 20:47 25.06.2019
5827 Clear 25 1017 83 10000 6.7 50 20:47 25.06.2019
5828 Clear 25 1017 83 10000 6.7 50 20:47 25.06.2019
5829 Clear 25 1017 83 10000 6.7 50 20:47 25.06.2019
5830 Clear 25 1017 83 10000 6.2 50 20:23 25.06.2019
5831 Clear 25 1017 83 10000 6.7 50 19:54 25.06.2019
5832 Clear 26 1017 83 10000 6.7 50 19:36 25.06.2019
5833 Clear 26 1017 83 10000 6.7 50 19:18 25.06.2019
5834 Clear 26 1017 83 10000 6.7 50 19:18 25.06.2019
5835 Clear 26 1017 78 10000 7.2 50 18:40 25.06.2019
5836 Clear 27 1018 74 10000 7.2 50 18:22 25.06.2019
5837 Clear 27 1018 74 10000 7.2 50 17:42 25.06.2019
5838 Clear 28 1018 74 10000 7.2 40 17:20 25.06.2019
5839 Clear 28 1018 74 10000 7.2 40 17:20 25.06.2019
5840 Clear 28 1018 74 10000 7.2 40 17:20 25.06.2019
5841 Clear 28 1018 74 10000 7.2 40 17:20 25.06.2019
5842 Clear 28 1018 78 10000 6.7 40 16:43 25.06.2019
5843 Clear 28 1018 83 10000 6.7 40 16:25 25.06.2019
5844 Clear 28 1018 83 10000 5.7 40 15:43 25.06.2019
5845 Clear 28 1018 88 10000 5.7 40 15:25 25.06.2019
5846 Clear 28 1018 83 10000 6.2 40 14:57 25.06.2019
5847 -273 0 0 0 0 0 14:37 25.06.2019
5848 Clear 29 1018 83 10000 5.7 40 13:59 25.06.2019
5849 Clear 29 1018 83 10000 5.7 40 13:39 25.06.2019
5850 Clear 29 1018 78 10000 4.6 30 13:19 25.06.2019
5851 Clear 29 1018 83 10000 4.6 30 12:39 25.06.2019
5852 Clear 28 1018 83 10000 3.6 30 12:21 25.06.2019
5853 Clear 29 1018 78 10000 1.5 340 11:44 25.06.2019
5854 Clear 29 1018 39 0 3.13 324 11:22 25.06.2019
5855 Clear 29 998 46 0 3.66 343.371 10:46 25.06.2019
5856 Clear 28 1018 83 10000 1.5 280 10:24 25.06.2019
5857 Clear 27 1017 83 10000 2.6 290 09:59 25.06.2019
5858 Clear 26 1017 83 10000 2.6 290 09:38 25.06.2019
5859 Clear 25 1017 88 10000 3.1 250 09:20 25.06.2019
5860 Clear 25 1017 88 10000 3.1 250 08:50 25.06.2019
5861 Clear 25 1017 83 10000 1.5 250 08:29 25.06.2019
5862 Clear 24 1017 83 10000 1 260 07:43 25.06.2019
5863 Clear 23 1016 78 10000 0.5 0 07:23 25.06.2019
5864 Clear 23 1016 77 10000 1.5 210 06:42 25.06.2019
5865 Clear 22 1016 83 10000 2.6 260 04:30 25.06.2019
5866 Clear 22 1016 64 10000 3.6 90 02:35 25.06.2019
5867 Clear 23 1016 83 10000 8.2 60 00:38 25.06.2019
5868 Clear 23 1016 83 10000 6.7 50 00:18 25.06.2019
5869 Clear 23 1016 64 10000 6.7 60 23:48 24.06.2019
5870 Clear 23 1016 73 10000 5.7 60 23:30 24.06.2019
5871 Clear 24 1016 78 10000 7.2 50 22:45 24.06.2019
5872 Clear 24 1015 83 10000 5.7 60 22:19 24.06.2019
5873 Clear 25 1015 78 10000 6.2 60 21:54 24.06.2019
5874 Clear 25 1015 78 10000 6.2 60 21:36 24.06.2019
5875 Clear 25 1015 69 10000 6.7 70 21:18 24.06.2019
5876 Clear 25 1015 73 10000 6.2 60 20:42 24.06.2019
5877 Clear 26 1015 73 10000 7.2 70 20:22 24.06.2019
5878 Clear 27 1015 74 10000 7.7 60 19:48 24.06.2019
5879 Clear 26 1014 78 10000 8.2 60 19:26 24.06.2019
5880 Clear 27 1014 83 10000 9.3 50 18:56 24.06.2019
5881 Clear 27 1014 83 10000 9.3 50 18:37 24.06.2019
5882 Clear 28 1014 65 10000 9.3 60 18:18 24.06.2019
5883 Clear 28 1014 69 10000 9.8 60 17:37 24.06.2019
5884 Clear 29 1014 78 10000 10.8 50 16:57 24.06.2019
5885 Clear 29 1014 78 10000 10.8 50 16:39 24.06.2019
5886 Clear 29 1014 78 10000 10.8 50 16:19 24.06.2019
5887 Clear 29 1014 69 10000 10.3 50 15:40 24.06.2019
5888 Clear 29 1014 78 10000 10.3 50 15:22 24.06.2019
5889 Clear 30 1014 65 10000 10.3 60 14:35 24.06.2019
5890 Clear 29 1014 78 10000 9.8 50 13:58 24.06.2019
5891 Clear 29 1014 78 10000 9.8 50 13:32 24.06.2019
5892 Clear 30 1014 78 10000 8.7 60 12:54 24.06.2019
5893 Clear 30 1014 78 10000 8.7 60 12:36 24.06.2019
5894 Clear 30 1014 74 10000 8.2 60 12:18 24.06.2019
5895 Clear 30 1014 69 10000 8.7 50 11:43 24.06.2019
5896 Clear 29 1014 69 10000 7.2 60 11:23 24.06.2019
5897 Clear 28 1014 78 10000 6.7 40 10:51 24.06.2019
5898 Clear 29 1015 69 10000 7.2 60 10:28 24.06.2019
5899 Clear 28 1015 88 10000 3.1 360 09:49 24.06.2019
5900 Clear 26 1015 88 10000 1.5 300 09:23 24.06.2019
5901 Clear 26 1015 78 10000 2.1 230 08:53 24.06.2019
5902 Clear 26 1015 78 10000 2.1 230 08:32 24.06.2019
5903 Clouds 25 995 77 0 0.96 347.847 07:47 24.06.2019
5904 Clear 24 1015 88 10000 2.1 210 07:27 24.06.2019
5905 Clear 23 1015 94 10000 3.1 200 06:52 24.06.2019
5906 Clear 22 1015 94 10000 1.5 220 06:22 24.06.2019
5907 Clear 22 1015 94 10000 2.1 220 05:28 24.06.2019
5908 Clear 23 1015 88 10000 1 0 04:31 24.06.2019
5909 Clear 23 1015 88 10000 1.5 180 03:32 24.06.2019
5910 Clear 23 1015 88 10000 1 130 02:33 24.06.2019
5911 Clear 23 1015 94 10000 1.5 270 01:54 24.06.2019
5912 Clear 23 1015 88 10000 2.6 250 01:27 24.06.2019
5913 Clear 23 1015 83 10000 3.1 240 00:42 24.06.2019
5914 Clear 23 1015 83 10000 3.6 220 00:19 24.06.2019
5915 Clear 23 1015 83 10000 3.6 220 23:46 23.06.2019
5916 Clear 23 1015 88 10000 2.1 250 23:27 23.06.2019
5917 Clear 23 1015 78 10000 1.5 0 22:44 23.06.2019
5918 Clear 24 1015 73 10000 3.6 80 22:21 23.06.2019
5919 Clear 24 1015 78 10000 4.6 70 21:58 23.06.2019
5920 Clear 25 1015 78 10000 4.6 70 21:40 23.06.2019
5921 Clear 25 1015 78 10000 5.1 60 21:21 23.06.2019
5922 Clear 25 1015 78 10000 4.6 60 20:43 23.06.2019
5923 Clear 25 1015 78 10000 5.1 50 20:25 23.06.2019
5924 Clear 27 1015 73 10000 5.1 40 19:45 23.06.2019
5925 Clear 27 1015 78 10000 5.1 40 19:21 23.06.2019
5926 Clear 28 1015 73 10000 5.1 40 18:54 23.06.2019
5927 Clear 27 1015 78 10000 4.6 40 18:24 23.06.2019
5928 Clear 27 1015 78 10000 4.6 40 17:53 23.06.2019
5929 Clear 28 1015 78 10000 4.1 30 17:27 23.06.2019
5930 Clear 28 1015 78 10000 4.6 30 16:59 23.06.2019
5931 Clear 29 1015 78 10000 4.6 30 16:41 23.06.2019
5932 Clear 29 1015 78 10000 4.6 30 16:22 23.06.2019
5933 Clear 28 1015 78 10000 3.6 20 15:41 23.06.2019
5934 Clear 28 1015 78 10000 3.1 10 15:22 23.06.2019
5935 Clear 29 1015 78 10000 2.6 360 14:42 23.06.2019
5936 Clear 29 1015 78 10000 2.1 10 14:24 23.06.2019
5937 Clear 30 1015 78 10000 3.1 10 13:59 23.06.2019
5938 Clear 30 1015 78 10000 3.1 10 13:40 23.06.2019
5939 Clear 29 1015 78 10000 3.6 10 13:19 23.06.2019
5940 Clear 29 1015 78 10000 3.6 10 13:19 23.06.2019
5941 Clear 29 1015 78 10000 3.6 10 13:19 23.06.2019
5942 Clear 29 1015 78 10000 3.6 30 12:46 23.06.2019
5943 Clear 29 1015 78 10000 5.1 40 12:23 23.06.2019
5944 Clear 31 1014 78 10000 4.1 30 11:57 23.06.2019
5945 Clear 31 1014 78 10000 4.1 30 11:38 23.06.2019
5946 Clear 33 1013 19 10000 6.2 220 11:19 23.06.2019
5947 Clear 32 1013 20 10000 6.7 200 10:44 23.06.2019
5948 Clear 32 1013 20 10000 7.2 190 10:19 23.06.2019
5949 Clear 31 1013 21 10000 6.2 200 09:42 23.06.2019
5950 Clear 29 1013 22 10000 5.7 200 09:21 23.06.2019
5951 Clouds 27 993 81 0 4.43 170.682 08:45 23.06.2019
5952 Clouds 26 993 86 0 5.19 172.887 08:27 23.06.2019
5953 Thunderstorm 26 1015 24 10000 5.7 220 07:54 23.06.2019
5954 Thunderstorm 25 1015 24 10000 5.7 220 07:21 23.06.2019
5955 Clear 25 1014 50 10000 2.1 140 06:54 23.06.2019
5956 Rain 24 994 89 0 2.12 199.983 05:55 23.06.2019
5957 Rain 24 994 89 0 2.12 199.983 04:38 23.06.2019
5958 Clear 25 1013 47 10000 3.6 260 01:57 23.06.2019
5959 Clear 25 1013 83 10000 3.6 70 01:36 23.06.2019
5960 Clear 25 1013 83 10000 7.2 70 00:36 23.06.2019
5961 Clear 26 1012 37 10000 5.7 240 23:55 22.06.2019
5962 Clear 27 1012 37 10000 5.7 240 23:37 22.06.2019
5963 Clear 27 1012 51 10000 7.2 250 23:18 22.06.2019
5964 Clear 26 1012 54 10000 6.7 260 22:38 22.06.2019
5965 Clear 28 1012 37 10000 7.7 220 22:19 22.06.2019
5966 Clear 29 1012 35 10000 8.2 260 21:37 22.06.2019
5967 Clear 30 1012 27 10000 4.1 220 21:19 22.06.2019
5968 Clear 30 1011 23 10000 5.7 210 20:50 22.06.2019
5969 Clouds 30 992 45 0 5.5 171.412 20:25 22.06.2019
5970 Clouds 30 1015 24 0 2.68 165 19:47 22.06.2019
5971 Clouds 31 1010 29 0 3.13 276 19:23 22.06.2019
5972 Clouds 31 1015 22 0 2.68 165 18:50 22.06.2019
5973 Clouds 32 1013 37 0 1.79 80 18:32 22.06.2019
5974 Clouds 32 1013 37 0 1.34 100 17:57 22.06.2019
5975 Clouds 32 1010 28 0 1.79 355 17:36 22.06.2019
5976 Clear 32 1013 58 10000 1.5 330 17:18 22.06.2019
5977 Clear 32 1013 58 10000 2.1 290 16:39 22.06.2019
5978 Clear 32 1013 36 10000 2.1 260 16:20 22.06.2019
5979 Clear 32 1014 28 10000 1 0 15:40 22.06.2019
5980 Clear 32 1014 54 10000 3.6 40 15:22 22.06.2019
5981 Clear 32 1014 48 10000 3.6 20 14:37 22.06.2019
5982 Clear 32 1014 48 10000 3.6 20 14:18 22.06.2019
5983 Clear 31 1015 45 10000 1.5 330 13:42 22.06.2019
5984 Clear 31 1015 51 10000 1 0 13:22 22.06.2019
5985 Clear 31 1015 51 10000 2.1 240 12:53 22.06.2019
5986 Clear 31 1015 58 10000 3.6 260 12:34 22.06.2019
5987 Clear 30 1014 43 10000 3.6 0 11:58 22.06.2019
5988 Clouds 30 1015 48 10000 1.5 0 11:34 22.06.2019
5989 Clear 29 1016 61 10000 4.1 10 10:53 22.06.2019
5990 Clear 29 1016 54 10000 3.1 210 10:21 22.06.2019
5991 Clear 28 1016 45 10000 3.6 100 09:55 22.06.2019
5992 Clear 27 1016 57 10000 7.2 80 09:23 22.06.2019
5993 Clear 26 1017 65 10000 6.7 60 08:44 22.06.2019
5994 Clear 26 1016 73 10000 6.7 60 08:25 22.06.2019
5995 Clear 26 1016 83 10000 4.6 20 07:35 22.06.2019
5996 Clear 25 1014 78 10000 2.1 170 06:56 22.06.2019
5997 Clear 25 1012 83 10000 2.6 40 05:30 22.06.2019
5998 Clear 25 1014 57 10000 4.1 0 02:34 22.06.2019
5999 Clear 24 1015 50 10000 4.1 210 01:24 22.06.2019
6000 Clear 24 1015 83 10000 6.2 270 00:47 22.06.2019
6001 Clear 24 1015 78 10000 5.7 280 00:22 22.06.2019
6002 Clear 25 1014 73 10000 3.6 240 23:45 21.06.2019
6003 Clear 25 1014 69 10000 4.6 210 23:22 21.06.2019
6004 Clear 25 1014 69 10000 2.6 220 22:53 21.06.2019
6005 Clear 25 1014 69 10000 0.5 0 22:25 21.06.2019
6006 Clear 25 1014 73 10000 4.1 220 21:55 21.06.2019
6007 Clear 26 1014 78 10000 3.6 230 21:37 21.06.2019
6008 Clear 26 1014 78 10000 3.6 230 21:18 21.06.2019
6009 Clouds 27 994 58 0 3.02 320.541 20:45 21.06.2019
6010 Clear 28 1013 65 10000 3.1 230 20:22 21.06.2019
6011 Clear 29 1013 58 10000 1 0 19:37 21.06.2019
6012 Clear 30 1013 78 10000 4.1 270 18:54 21.06.2019
6013 Clear 30 1013 78 10000 4.1 270 18:34 21.06.2019
6014 Clear 31 1013 40 10000 6.2 80 17:48 21.06.2019
6015 Clear 31 1013 58 10000 6.7 50 17:29 21.06.2019
6016 Clear 32 1013 58 10000 8.7 60 16:42 21.06.2019
6017 Clear 31 1014 58 10000 6.2 50 16:23 21.06.2019
6018 Clear 31 1015 62 10000 6.2 50 15:45 21.06.2019
6019 Clear 31 1015 45 10000 6.2 70 15:24 21.06.2019
6020 Clouds 32 1022 46 0 1.34 135 14:53 21.06.2019
6021 Clear 31 1014 42 10000 6.2 60 14:31 21.06.2019
6022 Clear 31 1014 48 10000 7.7 70 13:59 21.06.2019
6023 Clear 31 1014 48 10000 7.7 70 13:36 21.06.2019
6024 Clear 31 1014 58 10000 7.2 40 13:18 21.06.2019
6025 Clear 30 1014 54 10000 6.7 50 12:42 21.06.2019
6026 Clear 30 1014 54 10000 6.2 40 12:22 21.06.2019
6027 Rain 30 995 63 0 6.24 319.41 11:48 21.06.2019
6028 Clear 30 1014 57 10000 4.6 40 11:27 21.06.2019
6029 Clear 29 1015 61 10000 1.5 0 10:56 21.06.2019
6030 Clear 29 1015 61 10000 1.5 0 10:38 21.06.2019
6031 Rain 28 995 69 0 6.24 319.41 10:19 21.06.2019
6032 Clear 27 1015 65 10000 1 0 09:41 21.06.2019
6033 Clouds 27 995 76 0 1.98 198.334 09:21 21.06.2019
6034 Clear 25 1015 64 10000 2.6 230 08:44 21.06.2019
6035 Clear 24 1016 64 10000 2.6 210 08:24 21.06.2019
6036 Clear 24 1016 78 10000 2.6 220 07:54 21.06.2019
6037 Clear 24 1016 78 10000 2.6 220 07:36 21.06.2019
6038 Clear 23 1014 73 10000 4.6 250 06:54 21.06.2019
6039 Clear 22 1014 72 10000 3.6 180 06:21 21.06.2019
6040 Clear 23 1013 78 10000 1 0 05:30 21.06.2019
6041 Clear 22 1013 64 10000 0.5 0 04:30 21.06.2019
6042 Clear 23 1013 78 10000 1 180 03:34 21.06.2019
6043 Clear 23 1014 73 10000 0.5 0 02:53 21.06.2019
6044 Clear 23 1014 78 10000 0.5 0 01:53 21.06.2019
6045 Clear 23 1014 83 10000 2.6 80 00:58 21.06.2019
6046 Clear 23 1014 88 10000 3.1 30 00:27 21.06.2019
6047 Clear 23 1014 88 10000 2.6 30 23:49 20.06.2019
6048 Clear 23 1014 78 10000 0.5 0 23:24 20.06.2019
6049 Clear 24 1013 78 10000 2.1 210 22:58 20.06.2019
6050 Clear 24 1013 78 10000 2.1 210 22:39 20.06.2019
6051 Clear 24 1013 83 10000 2.6 210 22:20 20.06.2019
6052 Clear 25 1013 78 10000 1 0 21:49 20.06.2019
6053 Clear 24 1013 78 10000 2.1 230 21:19 20.06.2019
6054 Clear 25 1013 83 10000 2.6 270 20:58 20.06.2019
6055 Clear 25 1013 83 10000 2.6 270 20:39 20.06.2019
6056 Clear 25 1013 83 10000 2.6 290 20:19 20.06.2019
6057 Clear 26 1013 78 10000 2.1 290 19:39 20.06.2019
6058 Clear 27 1013 78 10000 2.1 260 19:18 20.06.2019
6059 Clear 28 1013 69 10000 3.6 0 18:43 20.06.2019
6060 Clear 28 1013 54 10000 5.1 60 18:23 20.06.2019
6061 Clear 28 1013 58 10000 6.2 70 17:59 20.06.2019
6062 Clear 29 1013 58 10000 6.2 70 17:41 20.06.2019
6063 Clear 29 1012 58 10000 7.2 60 16:58 20.06.2019
6064 Clear 29 1013 54 10000 8.7 60 16:40 20.06.2019
6065 Clear 29 1013 54 10000 8.7 60 16:19 20.06.2019
6066 Clear 29 1013 58 10000 8.7 60 15:43 20.06.2019
6067 Clear 29 1013 61 10000 9.8 60 15:23 20.06.2019
6068 Clear 29 1013 61 10000 8.7 60 14:54 20.06.2019
6069 Clear 29 1013 61 10000 8.7 60 14:36 20.06.2019
6070 Clear 29 1013 61 10000 8.7 60 14:18 20.06.2019
6071 Clear 29 1014 61 10000 8.2 60 13:38 20.06.2019
6072 Clear 28 1014 65 10000 8.7 60 13:18 20.06.2019
6073 Clear 28 1014 65 10000 8.7 60 12:41 20.06.2019
6074 Clear 27 1014 65 10000 8.7 60 12:21 20.06.2019
6075 Clear 27 1013 69 10000 8.2 50 11:41 20.06.2019
6076 Clear 26 1014 73 10000 6.7 40 11:22 20.06.2019
6077 Clear 26 1014 73 10000 6.7 40 11:22 20.06.2019
6078 Clear 26 1015 78 10000 2.6 320 10:44 20.06.2019
6079 Clear 25 995 69 0 2.86 350.518 10:24 20.06.2019
6080 Clear 25 995 69 0 2.86 350.518 10:24 20.06.2019
6081 Clear 24 1015 78 10000 2.1 290 09:55 20.06.2019
6082 Clear 23 1015 78 10000 2.1 290 09:37 20.06.2019
6083 Clear 23 1015 73 10000 1.5 270 09:19 20.06.2019
6084 Clear 23 1015 77 10000 1 260 08:44 20.06.2019
6085 Clear 22 1014 77 10000 1 0 08:23 20.06.2019
6086 Clear 22 1014 73 10000 0.5 0 07:47 20.06.2019
6087 Clear 21 1014 77 10000 0.5 0 07:25 20.06.2019
6088 Clear 19 1014 88 10000 1.5 90 06:20 20.06.2019
6089 Clear 20 1014 72 10000 2.1 180 03:41 20.06.2019
6090 Clear 21 1014 82 10000 0.5 0 02:28 20.06.2019
6091 Clear 20 1015 83 10000 2.6 60 00:33 20.06.2019
6092 Clear 21 1015 83 10000 2.6 60 23:48 19.06.2019
6093 Clear 21 1014 88 10000 3.6 40 23:29 19.06.2019
6094 Clear 21 1014 78 10000 4.1 50 22:49 19.06.2019
6095 Clear 22 1014 78 10000 4.1 40 22:25 19.06.2019
6096 Clear 22 1014 83 10000 4.6 40 21:58 19.06.2019
6097 Clear 22 1014 83 10000 4.6 40 21:58 19.06.2019
6098 Clear 23 1013 83 10000 5.1 50 21:39 19.06.2019
6099 Clear 23 1013 83 10000 5.1 50 21:21 19.06.2019
6100 Clear 24 1013 83 10000 5.1 40 20:42 19.06.2019
6101 Clear 24 1013 83 10000 6.7 40 20:21 19.06.2019
6102 Clear 24 1012 78 10000 7.2 40 19:46 19.06.2019
6103 Clear 25 1012 69 10000 7.7 60 19:28 19.06.2019
6104 Clear 25 1013 73 10000 7.2 40 18:57 19.06.2019
6105 Clear 27 1013 73 10000 7.2 40 18:26 19.06.2019
6106 Clear 26 1013 73 10000 7.2 40 17:53 19.06.2019
6107 Clear 27 1013 73 10000 7.7 40 17:27 19.06.2019
6108 Clear 27 1014 69 10000 7.7 40 16:56 19.06.2019
6109 Clear 27 1014 69 10000 7.7 40 16:38 19.06.2019
6110 Clear 28 1014 73 10000 6.7 40 16:19 19.06.2019
6111 Clear 28 1014 69 10000 7.2 40 15:46 19.06.2019
6112 Clear 28 1014 69 10000 7.7 40 15:25 19.06.2019
6113 Clear 28 1014 54 10000 6.7 60 14:50 19.06.2019
6114 Clear 28 1014 61 10000 6.7 60 14:29 19.06.2019
6115 Clear 28 1015 69 10000 6.7 40 13:59 19.06.2019
6116 Clear 28 1015 69 10000 6.7 40 13:38 19.06.2019
6117 Clear 28 1015 73 10000 6.2 40 13:20 19.06.2019
6118 Clear 27 1014 73 10000 6.2 40 12:42 19.06.2019
6119 Clear 27 1014 73 10000 6.2 40 12:20 19.06.2019
6120 Clear 26 1014 73 10000 5.1 40 11:44 19.06.2019
6121 Clear 25 1014 73 10000 3.6 30 11:24 19.06.2019
6122 Clear 25 1014 83 10000 1.5 340 10:51 19.06.2019
6123 Clear 25 1014 78 10000 2.1 330 10:32 19.06.2019
6124 Clear 24 1015 83 10000 2.6 350 09:59 19.06.2019
6125 Clear 23 1015 83 10000 2.6 350 09:39 19.06.2019
6126 Clear 23 1014 83 10000 2.6 350 09:19 19.06.2019
6127 Clouds 22 1014 83 10000 1.5 320 08:48 19.06.2019
6128 Clear 22 1014 78 10000 1 250 08:28 19.06.2019
6129 Clear 22 1014 83 10000 0.5 170 07:47 19.06.2019
6130 Clouds 21 1014 82 10000 1.5 160 07:23 19.06.2019
6131 Clouds 19 1014 88 10000 1.5 140 06:52 19.06.2019
6132 Clear 19 1014 88 10000 1.5 160 06:26 19.06.2019
6133 Clear 19 1014 88 10000 0.5 0 05:49 19.06.2019
6134 Clear 19 1014 82 10000 0.5 170 04:19 19.06.2019
6135 Clear 19 1014 82 10000 1.5 180 03:27 19.06.2019
6136 Clear 20 1014 88 10000 2.1 70 01:49 19.06.2019
6137 Clear 20 1014 88 10000 2.6 80 01:18 19.06.2019
6138 Clear 20 1015 83 10000 3.6 90 00:43 19.06.2019
6139 Clear 20 1015 88 10000 4.6 60 00:20 19.06.2019
6140 Clear 20 1015 88 10000 3.6 80 23:52 18.06.2019
6141 Clear 21 1015 88 10000 4.6 60 23:27 18.06.2019
6142 Clear 21 1015 83 10000 5.1 60 22:46 18.06.2019
6143 Clear 21 1015 83 10000 5.7 60 22:24 18.06.2019
6144 Clear 22 1014 78 10000 5.7 50 21:57 18.06.2019
6145 Clear 22 1014 78 10000 5.7 50 21:38 18.06.2019
6146 Clear 22 1014 78 10000 5.7 50 21:20 18.06.2019
6147 Clear 23 1014 83 10000 5.1 40 20:43 18.06.2019
6148 Clouds 23 1014 83 10000 5.7 40 20:25 18.06.2019
6149 Clouds 24 1014 83 10000 6.2 40 19:42 18.06.2019
6150 Clouds 24 1014 83 10000 5.1 40 19:23 18.06.2019
6151 Clouds 25 1014 83 10000 5.1 30 18:59 18.06.2019
6152 Clouds 25 1014 88 10000 4.6 30 18:37 18.06.2019
6153 Clouds 25 1014 88 10000 4.6 30 18:18 18.06.2019
6154 Clouds 25 1014 78 10000 5.1 30 17:39 18.06.2019
6155 Clouds 25 1014 78 10000 5.1 30 17:19 18.06.2019
6156 Clouds 26 1014 78 10000 5.1 20 16:43 18.06.2019
6157 Clouds 26 1014 78 10000 5.1 20 16:43 18.06.2019
6158 Clouds 27 1014 78 10000 5.1 30 16:24 18.06.2019
6159 Clouds 27 1014 78 10000 5.7 20 15:43 18.06.2019
6160 Clear 28 1014 78 10000 6.2 40 15:25 18.06.2019
6161 Clear 28 1014 78 10000 6.2 30 14:59 18.06.2019
6162 Clear 27 1014 78 10000 6.2 30 14:41 18.06.2019
6163 Clouds 27 1014 78 10000 6.2 30 14:20 18.06.2019
6164 Clear 28 1014 78 10000 6.7 30 13:52 18.06.2019
6165 Clear 27 1014 78 10000 6.7 40 13:31 18.06.2019
6166 Clouds 28 1014 78 10000 7.7 40 12:56 18.06.2019
6167 Clouds 27 1014 78 10000 7.7 40 12:36 18.06.2019
6168 Clouds 27 1014 78 10000 6.7 40 12:18 18.06.2019
6169 Clouds 26 1014 83 10000 6.2 30 11:42 18.06.2019
6170 Clouds 26 1014 83 10000 6.2 30 11:21 18.06.2019
6171 Clouds 26 1014 83 10000 6.2 40 10:56 18.06.2019
6172 Clouds 25 1014 83 10000 6.2 40 10:36 18.06.2019
6173 Clouds 25 1014 83 10000 6.2 40 10:18 18.06.2019
6174 Clouds 24 1014 83 10000 6.2 40 09:37 18.06.2019
6175 Clouds 23 1014 83 10000 6.2 50 09:18 18.06.2019
6176 Clouds 23 1014 83 10000 6.2 50 08:42 18.06.2019
6177 Clouds 22 1014 83 10000 4.6 60 08:21 18.06.2019
6178 Clouds 22 1014 88 10000 5.1 40 07:37 18.06.2019
6179 Clouds 21 1014 88 10000 4.1 70 07:18 18.06.2019
6180 Clear 20 1013 88 10000 4.1 50 05:39 18.06.2019
6181 Clear 20 1013 94 10000 2.1 50 04:24 18.06.2019
6182 Clear 21 1014 83 10000 0.5 0 02:52 18.06.2019
6183 Clear 21 1013 78 10000 3.6 70 01:54 18.06.2019
6184 Clear 21 1013 83 10000 3.6 70 01:24 18.06.2019
6185 Clear 21 1013 88 10000 3.1 70 00:54 18.06.2019
6186 Clear 22 1013 78 10000 3.1 80 00:24 18.06.2019
6187 Clear 22 1013 78 10000 5.1 80 23:41 17.06.2019
6188 Clear 22 1013 83 10000 6.2 70 23:19 17.06.2019
6189 Clear 22 1013 83 10000 5.7 70 22:54 17.06.2019
6190 Clear 22 1013 83 10000 5.7 70 22:36 17.06.2019
6191 Clear 23 1013 83 10000 5.7 70 22:18 17.06.2019
6192 Clear 23 1012 83 10000 6.7 60 21:41 17.06.2019
6193 Clear 23 1013 88 10000 6.2 60 21:21 17.06.2019
6194 Clear 24 1012 78 10000 7.2 50 20:37 17.06.2019
6195 Clear 24 1012 78 10000 7.2 50 20:18 17.06.2019
6196 Clear 25 1012 78 10000 6.7 50 19:42 17.06.2019
6197 Clear 25 1012 78 10000 6.7 50 19:23 17.06.2019
6198 Clear 25 1012 88 10000 6.2 40 18:57 17.06.2019
6199 Clear 26 1013 83 10000 6.2 40 18:37 17.06.2019
6200 Clear 26 1013 83 10000 6.2 40 18:18 17.06.2019
6201 Clear 26 1013 83 10000 6.2 40 18:18 17.06.2019
6202 Clear 27 1013 83 10000 6.7 30 17:44 17.06.2019
6203 Clear 27 1013 83 10000 6.7 30 17:26 17.06.2019
6204 Clear 28 1013 83 10000 6.2 40 16:48 17.06.2019
6205 Clear 28 1013 83 10000 6.2 40 16:29 17.06.2019
6206 Clear 28 1013 83 10000 7.7 40 15:58 17.06.2019
6207 Clear 29 1013 83 10000 7.2 40 15:38 17.06.2019
6208 Clear 28 1013 83 10000 7.2 40 15:19 17.06.2019
6209 Clear 29 1013 83 10000 7.7 40 14:51 17.06.2019
6210 Clear 28 1013 83 10000 7.7 40 14:32 17.06.2019
6211 Clear 28 1013 83 10000 7.2 40 13:56 17.06.2019
6212 Clear 29 1013 78 10000 7.2 40 13:38 17.06.2019
6213 Clear 28 1013 73 10000 7.7 50 13:19 17.06.2019
6214 Clear 27 1014 73 10000 7.7 50 12:33 17.06.2019
6215 -273 0 0 0 0 0 11:58 17.06.2019
6216 Clear 26 1014 83 10000 7.2 40 11:38 17.06.2019
6217 Clear 26 1013 83 10000 7.2 50 11:18 17.06.2019
6218 Clear 26 1013 83 10000 7.2 50 10:44 17.06.2019
6219 Clear 26 1013 83 10000 7.2 50 10:25 17.06.2019
6220 Clear 26 1013 83 10000 6.7 50 09:55 17.06.2019
6221 Clear 24 1013 78 10000 5.7 50 09:31 17.06.2019
6222 Clear 23 1013 83 10000 3.6 40 08:44 17.06.2019
6223 Clear 23 1013 83 10000 1 0 08:24 17.06.2019
6224 Clear 22 1013 83 10000 1 0 07:52 17.06.2019
6225 Clear 22 1013 78 10000 5.1 90 07:32 17.06.2019
6226 Clouds 21 1013 88 8000 1 0 06:50 17.06.2019
6227 Clear 20 1013 88 10000 2.1 100 05:55 17.06.2019
6228 Clear 21 1013 83 10000 3.1 100 04:59 17.06.2019
6229 Clear 22 1013 88 10000 3.1 100 03:52 17.06.2019
6230 Clear 21 1013 94 10000 3.6 110 03:30 17.06.2019
6231 Clouds 21 1014 94 8000 3.6 290 02:43 17.06.2019
6232 Clouds 21 1014 94 8000 3.6 290 02:24 17.06.2019
6233 Clear 21 1014 88 10000 3.1 230 01:35 17.06.2019
6234 Clouds 22 1014 94 8000 2.1 80 00:48 17.06.2019
6235 Clouds 22 1014 94 8000 2.1 80 00:28 17.06.2019
6236 Clouds 23 1014 94 8000 6.7 70 23:58 16.06.2019
6237 Clear 23 1014 94 10000 4.6 80 23:39 16.06.2019
6238 Clear 23 1014 88 10000 4.1 80 23:19 16.06.2019
6239 Clear 23 1014 83 10000 3.1 90 22:44 16.06.2019
6240 Clear 23 1014 83 10000 3.1 90 22:20 16.06.2019
6241 Clear 23 1014 83 10000 3.1 90 22:20 16.06.2019
6242 Clear 23 1013 88 10000 3.6 70 21:57 16.06.2019
6243 Clear 23 1013 88 10000 6.7 80 21:39 16.06.2019
6244 Clear 24 1013 88 10000 6.7 70 21:20 16.06.2019
6245 Clear 23 1013 88 10000 6.7 80 21:20 16.06.2019
6246 Clear 24 1013 83 10000 7.7 60 20:39 16.06.2019
6247 Clear 25 1013 83 10000 9.3 60 20:19 16.06.2019
6248 Clear 25 1013 83 10000 9.3 60 20:19 16.06.2019
6249 Clear 25 1013 83 10000 9.3 60 19:58 16.06.2019
6250 Clear 26 1013 83 10000 9.3 50 19:39 16.06.2019
6251 Clear 26 1013 78 10000 9.3 60 19:19 16.06.2019
6252 Clear 27 1013 78 10000 9.3 50 18:42 16.06.2019
6253 Clear 28 1014 78 10000 9.3 50 18:21 16.06.2019
6254 Clear 28 1014 78 10000 9.3 50 17:57 16.06.2019
6255 Clear 28 1014 78 10000 9.3 50 17:57 16.06.2019
6256 Clear 28 1014 78 10000 9.3 50 17:38 16.06.2019
6257 Clear 28 1014 78 10000 9.3 50 17:20 16.06.2019
6258 Clear 28 1014 78 10000 9.3 50 16:54 16.06.2019
6259 Clear 28 1014 78 10000 9.3 50 16:36 16.06.2019
6260 Clear 28 1014 83 10000 9.3 40 16:18 16.06.2019
6261 Clear 29 1014 83 10000 8.7 40 15:38 16.06.2019
6262 Clear 28 1014 83 10000 8.7 40 15:20 16.06.2019
6263 Clear 28 1015 78 10000 8.7 40 14:39 16.06.2019
6264 Clear 28 1015 78 10000 8.2 40 14:20 16.06.2019
6265 Clear 28 1016 78 10000 8.2 40 13:48 16.06.2019
6266 Clear 28 1016 78 10000 8.2 40 13:25 16.06.2019
6267 Clear 27 1016 83 10000 7.7 40 12:46 16.06.2019
6268 Clear 27 1016 83 10000 7.7 40 12:46 16.06.2019
6269 Clouds 28 1016 83 10000 7.2 40 12:23 16.06.2019
6270 Clouds 28 1016 83 10000 7.2 40 11:59 16.06.2019
6271 Clouds 28 1016 83 10000 5.7 30 11:38 16.06.2019
6272 Clouds 27 1016 83 10000 5.7 30 11:19 16.06.2019
6273 Clear 26 1015 88 10000 5.1 30 10:45 16.06.2019
6274 Clear 25 1015 88 10000 5.1 30 10:20 16.06.2019
6275 Clouds 25 1015 88 7000 5.1 40 09:46 16.06.2019
6276 Clouds 25 1015 88 6000 5.7 30 09:25 16.06.2019
6277 Clouds 25 1015 88 6000 5.7 30 08:50 16.06.2019
6278 Clouds 24 1015 88 7000 5.7 40 08:22 16.06.2019
6279 Clouds 23 1015 94 6000 3.6 50 07:49 16.06.2019
6280 Clouds 23 1015 94 6000 3.6 50 07:49 16.06.2019
6281 Clouds 23 1015 94 6000 3.6 50 07:49 16.06.2019
6282 Clouds 23 1015 94 6000 3.6 50 07:31 16.06.2019
6283 Mist 22 1015 94 5000 2.1 50 06:55 16.06.2019
6284 Clouds 22 1015 88 6000 3.1 20 06:20 16.06.2019
6285 Clouds 22 1015 88 8000 3.6 20 05:28 16.06.2019
6286 Clear 22 1015 88 10000 2.1 20 04:33 16.06.2019
6287 Clear 22 1015 88 10000 1.5 360 03:45 16.06.2019
6288 Clear 22 1015 88 10000 1.5 360 03:26 16.06.2019
6289 Clouds 22 1016 94 8000 0.5 0 01:55 16.06.2019
6290 Clouds 22 1016 88 8000 1 0 01:37 16.06.2019
6291 Clouds 22 1016 94 8000 0.5 0 01:18 16.06.2019
6292 Clouds 23 1016 88 10000 2.1 290 00:39 16.06.2019
6293 Clear 23 1016 94 10000 4.1 250 00:19 16.06.2019
6294 Clear 23 1015 88 10000 4.1 210 23:40 15.06.2019
6295 Clear 23 1015 88 10000 4.1 210 23:21 15.06.2019
6296 Clear 23 1015 94 10000 1.5 120 22:49 15.06.2019
6297 Clear 23 1015 94 10000 1.5 120 22:26 15.06.2019
6298 Clear 23 1015 88 10000 1 0 21:45 15.06.2019
6299 Clear 24 1015 88 10000 1 0 21:27 15.06.2019
6300 Clear 24 1015 88 10000 1 0 21:27 15.06.2019
6301 Clear 24 1015 88 10000 2.1 350 20:46 15.06.2019
6302 Clear 25 1015 88 10000 2.1 350 20:27 15.06.2019
6303 Clear 25 1015 88 10000 2.1 340 19:57 15.06.2019
6304 Clear 26 1014 83 10000 1.5 340 19:38 15.06.2019
6305 Clear 26 1015 83 10000 1.5 330 19:20 15.06.2019
6306 Clear 27 1015 88 10000 3.6 320 18:37 15.06.2019
6307 Clear 27 1015 88 10000 3.6 300 18:19 15.06.2019
6308 Clear 27 1015 83 10000 3.6 320 17:43 15.06.2019
6309 Clear 27 1015 83 10000 3.6 320 17:21 15.06.2019
6310 Clear 28 1016 83 10000 4.1 310 16:45 15.06.2019
6311 Clear 27 1016 83 10000 4.1 310 16:19 15.06.2019
6312 Clear 28 1016 78 10000 2.6 320 15:42 15.06.2019
6313 Clear 29 1016 78 10000 2.6 320 15:23 15.06.2019
6314 Clear 29 1016 78 10000 2.6 320 15:23 15.06.2019
6315 Clouds 30 1016 78 8000 2.6 330 14:42 15.06.2019
6316 Clouds 30 1016 83 8000 3.1 340 14:19 15.06.2019
6317 Clouds 30 1016 83 8000 3.1 340 13:56 15.06.2019
6318 Clouds 30 1016 83 8000 2.6 360 13:38 15.06.2019
6319 Clouds 30 1016 83 8000 3.1 320 13:18 15.06.2019
6320 Clouds 30 1016 83 8000 4.1 310 12:47 15.06.2019
6321 Rain 29 1016 88 8000 4.6 310 12:23 15.06.2019
6322 Rain 30 1016 88 8000 4.6 310 11:51 15.06.2019
6323 Rain 30 1015 88 9000 4.1 310 11:32 15.06.2019
6324 Clouds 30 1023 46 0 1.79 180 10:47 15.06.2019
6325 Clouds 28 1015 88 9000 3.6 290 10:26 15.06.2019
6326 Clear 28 1015 83 10000 2.1 270 09:56 15.06.2019
6327 Clouds 28 995 56 0 2.07 0.111 09:38 15.06.2019
6328 Clear 27 1015 83 10000 0.5 0 09:18 15.06.2019
6329 Clear 26 1015 88 10000 2.6 20 08:41 15.06.2019
6330 Clear 26 1015 73 10000 1 0 08:18 15.06.2019
6331 Clouds 25 1022 62 0 0.45 225 07:26 15.06.2019
6332 Clear 23 1015 78 10000 2.6 100 06:49 15.06.2019
6333 Clear 23 1015 78 10000 2.6 100 06:30 15.06.2019
6334 Clear 23 1015 94 10000 2.6 40 05:40 15.06.2019
6335 Clear 23 1015 94 10000 2.1 40 04:59 15.06.2019
6336 Clear 23 1016 88 10000 1.5 350 04:29 15.06.2019
6337 Clear 24 1016 69 10000 1 0 03:33 15.06.2019
6338 Clear 24 1016 69 10000 1 0 03:33 15.06.2019
6339 Clear 25 1016 65 10000 8.2 270 02:37 15.06.2019
6340 Clear 27 1014 51 10000 4.1 70 01:58 15.06.2019
6341 Clear 25 1014 57 10000 5.7 70 01:25 15.06.2019
6342 Clear 25 1017 54 10000 3.6 170 00:43 15.06.2019
6343 Clear 25 1017 54 10000 3.6 170 00:25 15.06.2019
6344 Clear 25 1016 78 10000 4.1 10 23:51 14.06.2019
6345 Clouds 25 1017 75 0 3.13 114 23:21 14.06.2019
6346 Clear 26 1015 51 10000 2.6 30 22:42 14.06.2019
6347 Clear 26 1015 51 10000 2.6 30 22:22 14.06.2019
6348 Clear 26 1016 57 10000 6.7 150 21:49 14.06.2019
6349 Clear 26 1016 57 10000 6.7 150 21:30 14.06.2019
6350 Clear 26 1017 78 10000 3.6 240 20:58 14.06.2019
6351 Clear 25 1017 78 10000 3.1 210 20:39 14.06.2019
6352 Clear 25 1017 78 10000 3.1 210 20:18 14.06.2019
6353 Clear 26 1016 57 10000 2.6 200 19:43 14.06.2019
6354 Clear 27 1016 57 10000 2.6 200 19:23 14.06.2019
6355 Clear 28 1015 57 10000 2.6 230 18:56 14.06.2019
6356 Clear 29 1015 57 10000 2.6 230 18:37 14.06.2019
6357 Clear 29 1015 57 10000 2.6 250 18:19 14.06.2019
6358 Clear 30 1015 61 10000 2.6 260 17:46 14.06.2019
6359 Clear 31 1015 65 10000 1.5 280 17:24 14.06.2019
6360 Clear 31 1015 65 10000 1.5 280 16:54 14.06.2019
6361 Clear 31 1015 73 10000 2.1 290 16:28 14.06.2019
6362 Clear 31 1015 73 10000 4.6 290 15:59 14.06.2019
6363 Clear 32 1015 65 10000 3.1 20 15:39 14.06.2019
6364 Clear 31 1014 58 10000 4.6 40 15:20 14.06.2019
6365 Clear 31 1015 65 10000 4.6 50 14:50 14.06.2019
6366 Clear 31 1015 65 10000 4.6 50 14:31 14.06.2019
6367 Clear 31 1015 65 10000 4.6 50 14:31 14.06.2019
6368 Clear 31 1015 48 10000 6.2 40 13:54 14.06.2019
6369 Clear 32 1015 36 10000 6.7 50 13:36 14.06.2019
6370 Clear 32 1015 35 10000 7.7 60 13:18 14.06.2019
6371 Clear 32 1015 38 10000 5.7 50 12:40 14.06.2019
6372 Clear 31 1016 42 10000 4.1 40 12:22 14.06.2019
6373 Clear 31 1016 45 10000 3.1 40 11:44 14.06.2019
6374 Clear 30 1016 45 10000 3.1 40 11:24 14.06.2019
6375 Clear 28 1015 78 10000 2.1 20 10:50 14.06.2019
6376 Clear 28 1015 78 10000 2.1 20 10:23 14.06.2019
6377 Clear 28 1015 73 10000 2.6 0 09:58 14.06.2019
6378 Clear 28 1015 83 10000 3.1 40 09:38 14.06.2019
6379 Clear 27 1015 83 10000 3.1 40 09:20 14.06.2019
6380 Clear 26 1015 83 10000 3.1 40 08:41 14.06.2019
6381 Clear 26 1015 83 10000 0.5 0 08:18 14.06.2019
6382 Clear 26 996 75 0 1.91 184.739 07:46 14.06.2019
6383 Clear 24 1014 82 10000 2.1 70 07:19 14.06.2019
6384 Clear 23 1014 82 10000 0.5 0 06:27 14.06.2019
6385 Clear 23 1014 88 7000 1.5 210 05:54 14.06.2019
6386 Clear 23 1014 93 7000 2.6 200 04:56 14.06.2019
6387 Clear 23 1014 94 7000 3.1 220 04:36 14.06.2019
6388 Clear 23 1014 94 7000 1 0 03:49 14.06.2019
6389 Clear 23 1014 94 7000 2.1 70 03:24 14.06.2019
6390 Mist 23 1015 88 5000 1 0 02:45 14.06.2019
6391 Mist 23 1015 94 5000 1.5 240 01:56 14.06.2019
6392 Clear 22 1015 94 7000 1.5 0 00:49 14.06.2019
6393 Clear 23 1015 94 8000 1 0 00:22 14.06.2019
6394 Clear 23 1015 94 8000 1 0 23:53 13.06.2019
6395 Clear 22 1015 94 8000 2.1 200 23:27 13.06.2019
6396 Clear 23 1014 88 8000 3.1 250 22:59 13.06.2019
6397 Clear 23 1014 88 9000 3.1 220 22:39 13.06.2019
6398 Clear 23 1014 88 9000 3.1 240 22:20 13.06.2019
6399 Clear 23 1014 83 9000 3.6 230 21:39 13.06.2019
6400 Clear 25 1014 78 9000 5.7 70 21:20 13.06.2019
6401 Clear 25 1014 78 8000 4.1 70 20:45 13.06.2019
6402 Clear 26 1014 78 8000 6.2 70 20:22 13.06.2019
6403 Clear 26 1014 78 8000 6.2 70 19:57 13.06.2019
6404 Clear 26 1013 78 8000 7.2 70 19:37 13.06.2019
6405 Clear 27 1014 73 8000 7.2 60 19:19 13.06.2019
6406 Clear 28 1014 73 9000 7.7 60 18:54 13.06.2019
6407 Clear 28 1014 73 9000 7.7 60 18:36 13.06.2019
6408 Clear 29 1014 73 9000 7.7 60 18:18 13.06.2019
6409 Clear 29 1014 73 9000 8.2 60 17:41 13.06.2019
6410 Clear 30 1014 73 9000 8.2 60 17:20 13.06.2019
6411 Clear 30 1014 73 9000 9.8 60 16:46 13.06.2019
6412 Clear 30 1014 73 9000 9.8 60 16:21 13.06.2019
6413 Clear 30 1014 73 8000 9.8 50 15:56 13.06.2019
6414 Clear 30 1014 78 8000 9.3 50 15:38 13.06.2019
6415 Clear 30 1014 78 8000 9.3 50 15:18 13.06.2019
6416 Clear 30 1014 78 8000 8.2 50 14:44 13.06.2019
6417 Clear 31 1014 78 8000 8.2 50 14:23 13.06.2019
6418 Clear 30 1014 78 10000 5.7 30 13:46 13.06.2019
6419 Clear 30 1014 78 10000 5.7 30 13:21 13.06.2019
6420 Clear 29 1014 78 10000 6.2 40 12:44 13.06.2019
6421 Clear 28 1014 78 10000 6.2 40 12:23 13.06.2019
6422 Clear 28 1014 83 10000 6.2 40 11:59 13.06.2019
6423 Clear 28 1014 73 10000 6.2 50 11:41 13.06.2019
6424 Clear 28 1014 73 10000 6.7 50 11:21 13.06.2019
6425 Clear 27 1014 78 8000 6.2 50 10:46 13.06.2019
6426 Clear 27 1014 78 8000 6.2 50 10:27 13.06.2019
6427 Clear 27 1014 78 8000 6.2 50 10:27 13.06.2019
6428 Clear 26 1015 78 10000 5.1 60 09:45 13.06.2019
6429 Clear 25 1015 78 10000 5.1 60 09:25 13.06.2019
6430 Clouds 24 1015 83 10000 4.6 50 08:50 13.06.2019
6431 Clouds 23 1014 83 9000 4.6 50 08:29 13.06.2019
6432 Clouds 23 1014 88 8000 4.1 40 07:59 13.06.2019
6433 Clouds 22 1014 83 8000 4.6 70 07:30 13.06.2019
6434 Clouds 21 1014 88 9000 4.1 60 06:52 13.06.2019
6435 Clouds 21 1014 88 9000 3.1 60 06:24 13.06.2019
6436 Clouds 21 1014 88 9000 2.6 70 05:57 13.06.2019
6437 Clouds 21 1014 88 9000 2.1 100 05:37 13.06.2019
6438 Clouds 21 1014 88 9000 1.5 100 05:18 13.06.2019
6439 Clouds 21 1014 88 9000 2.1 50 03:36 13.06.2019
6440 Clouds 22 1014 94 9000 1.5 30 01:43 13.06.2019
6441 Clouds 21 1014 94 9000 1.5 290 00:29 13.06.2019
6442 Clear 21 1014 94 9000 1 260 23:26 12.06.2019
6443 Clear 21 1013 94 9000 2.1 280 22:47 12.06.2019
6444 Clear 21 1013 94 9000 1.5 220 22:28 12.06.2019
6445 Clear 22 1012 94 9000 2.1 240 21:59 12.06.2019
6446 Clear 22 1012 88 9000 1.5 300 21:40 12.06.2019
6447 Clear 22 1012 88 9000 1.5 300 21:40 12.06.2019
6448 Clear 22 1012 88 9000 1.5 300 21:22 12.06.2019
6449 Clouds 23 1012 88 10000 0.5 0 20:48 12.06.2019
6450 Clouds 23 1012 88 10000 0.5 0 20:29 12.06.2019
6451 Clouds 24 1012 88 9000 1 310 19:57 12.06.2019
6452 Clouds 24 1012 88 9000 1.5 360 19:37 12.06.2019
6453 Clouds 24 1012 88 9000 1.5 360 19:19 12.06.2019
6454 Clouds 25 1012 83 9000 2.6 350 18:42 12.06.2019
6455 Clouds 26 1012 83 9000 2.6 350 18:23 12.06.2019
6456 Clouds 26 1012 83 9000 3.6 360 17:45 12.06.2019
6457 Clouds 26 1011 78 10000 3.6 360 17:21 12.06.2019
6458 Clouds 27 1011 83 10000 3.6 360 16:43 12.06.2019
6459 Clouds 27 1011 83 10000 3.6 360 16:25 12.06.2019
6460 Clouds 27 1011 83 10000 3.6 350 15:58 12.06.2019
6461 Clouds 27 1011 83 10000 3.6 350 15:33 12.06.2019
6462 Clouds 27 1011 83 10000 3.6 310 14:55 12.06.2019
6463 Clouds 27 1011 83 10000 3.6 310 14:32 12.06.2019
6464 Clear 27 1011 78 10000 3.1 310 13:57 12.06.2019
6465 Clear 27 1011 78 10000 3.1 310 13:38 12.06.2019
6466 Clear 27 1011 78 10000 3.1 330 13:19 12.06.2019
6467 Clear 27 1011 78 10000 3.6 330 12:40 12.06.2019
6468 Clear 27 1011 78 10000 3.6 330 12:21 12.06.2019
6469 Clear 27 1011 78 10000 3.1 10 11:48 12.06.2019
6470 Clear 27 1011 78 10000 3.1 10 11:30 12.06.2019
6471 Clear 27 1010 78 10000 3.6 10 10:58 12.06.2019
6472 Clear 27 1010 78 10000 3.6 20 10:39 12.06.2019
6473 Clear 27 1010 73 10000 3.6 20 10:18 12.06.2019
6474 Clear 26 1010 64 10000 2.6 40 09:41 12.06.2019
6475 Clear 26 1010 64 10000 2.6 40 09:21 12.06.2019
6476 Clear 25 1010 69 10000 2.6 50 08:29 12.06.2019
6477 Clear 24 1009 69 10000 3.1 60 07:58 12.06.2019
6478 Clear 24 990 66 0 2.1 107.917 07:18 12.06.2019
6479 Clear 24 990 64 0 2.1 107.917 06:39 12.06.2019
6480 Clear 24 1009 73 10000 2.1 90 05:25 12.06.2019
6481 Clear 26 1009 73 10000 1 0 02:22 12.06.2019
6482 Clear 27 1007 57 10000 2.1 0 00:47 12.06.2019
6483 Clear 27 988 53 0 3.24 129.237 00:19 12.06.2019
6484 Clear 26 1008 83 10000 1 0 23:42 11.06.2019
6485 Clear 27 1008 83 10000 1 0 23:23 11.06.2019
6486 Clear 26 1008 69 10000 1.5 0 22:42 11.06.2019
6487 Clear 27 1008 78 10000 2.6 40 22:18 11.06.2019
6488 Clear 27 1008 78 10000 2.6 40 21:55 11.06.2019
6489 Clear 26 1008 83 10000 2.6 210 21:36 11.06.2019
6490 Clear 26 1008 83 10000 2.6 240 21:18 11.06.2019
6491 Clear 27 1008 83 10000 2.6 210 20:42 11.06.2019
6492 Clear 27 1008 83 10000 2.1 250 20:22 11.06.2019
6493 Clear 27 1007 88 10000 1.5 10 19:51 11.06.2019
6494 -273 0 0 0 0 0 19:29 11.06.2019
6495 Clear 27 1007 88 10000 1.5 10 19:29 11.06.2019
6496 Clear 28 1008 88 10000 2.6 20 18:53 11.06.2019
6497 Clear 28 1008 83 10000 4.1 240 18:20 11.06.2019
6498 Clear 28 1008 78 10000 3.6 240 17:42 11.06.2019
6499 Clear 28 1008 78 10000 3.6 240 17:22 11.06.2019
6500 Clear 28 1009 78 10000 6.2 210 16:46 11.06.2019
6501 Clear 28 1009 78 10000 6.2 210 16:24 11.06.2019
6502 Clear 28 1009 69 10000 4.1 80 15:59 11.06.2019
6503 Clear 29 1010 73 10000 6.2 40 15:41 11.06.2019
6504 Clear 29 1010 78 10000 4.1 30 15:20 11.06.2019
6505 Clear 29 1010 78 10000 2.1 10 14:44 11.06.2019
6506 -273 0 0 0 0 0 14:21 11.06.2019
6507 Clear 29 1011 73 10000 2.1 340 13:50 11.06.2019
6508 Clear 29 1010 83 10000 3.1 30 13:23 11.06.2019
6509 Clear 29 1010 78 10000 5.7 40 12:43 11.06.2019
6510 Clear 29 1010 83 10000 6.2 40 12:22 11.06.2019
6511 Clear 28 1010 83 10000 6.2 40 11:58 11.06.2019
6512 Clear 29 1010 88 10000 5.7 40 11:36 11.06.2019
6513 Clear 28 1010 88 10000 5.7 40 11:18 11.06.2019
6514 Clear 27 1011 83 10000 5.1 40 10:43 11.06.2019
6515 Clear 26 1011 83 10000 5.1 40 10:24 11.06.2019
6516 Clear 25 1010 88 10000 3.6 30 09:46 11.06.2019
6517 Clear 25 1010 88 10000 3.6 30 09:23 11.06.2019
6518 Clear 25 1010 88 10000 5.1 40 08:42 11.06.2019
6519 Clouds 25 1017 56 0 1.34 90 08:23 11.06.2019
6520 Clouds 23 1010 94 10000 3.1 350 07:37 11.06.2019
6521 Clouds 22 1010 88 10000 2.6 330 06:54 11.06.2019
6522 Clear 22 1011 83 10000 2.6 280 06:24 11.06.2019
6523 Clear 22 1010 94 10000 2.6 260 04:49 11.06.2019
6524 Clear 23 1010 94 10000 2.6 200 02:49 11.06.2019
6525 Clear 24 1011 88 10000 1 20 01:23 11.06.2019
6526 Clear 24 1011 88 10000 2.1 100 00:45 11.06.2019
6527 Clear 24 1011 88 10000 1.5 50 23:47 10.06.2019
6528 Clear 24 1011 88 10000 1.5 50 23:21 10.06.2019
6529 Clear 25 1012 83 10000 3.1 240 22:49 10.06.2019
6530 Clear 24 1012 83 10000 3.1 240 22:31 10.06.2019
6531 Clear 25 1011 57 10000 5.7 270 21:59 10.06.2019
6532 Clear 26 1010 69 10000 2.6 260 21:39 10.06.2019
6533 Clear 26 1010 69 10000 2.6 260 21:21 10.06.2019
6534 Clear 26 1010 69 10000 2.1 230 20:45 10.06.2019
6535 Clear 27 1010 69 10000 2.1 230 20:23 10.06.2019
6536 Clear 28 1010 57 10000 3.1 220 19:53 10.06.2019
6537 Clear 29 1010 65 10000 2.1 50 19:27 10.06.2019
6538 Clear 29 1010 65 10000 2.6 290 18:59 10.06.2019
6539 Clear 29 1011 69 10000 4.1 40 18:40 10.06.2019
6540 Clear 30 1010 42 10000 6.2 70 18:20 10.06.2019
6541 Clear 31 1010 42 10000 6.2 70 17:58 10.06.2019
6542 Clear 30 1011 40 10000 6.7 60 17:37 10.06.2019
6543 Clear 31 1011 40 10000 6.7 60 17:19 10.06.2019
6544 Clear 31 1012 51 10000 9.3 70 16:42 10.06.2019
6545 Clear 31 1012 51 10000 9.3 70 16:22 10.06.2019
6546 Clear 32 1012 48 10000 5.1 40 15:42 10.06.2019
6547 Clear 31 1012 48 10000 5.1 40 15:24 10.06.2019
6548 Clear 31 1012 51 10000 5.7 40 14:49 10.06.2019
6549 Clear 32 1012 51 10000 5.7 40 14:31 10.06.2019
6550 Clear 31 1013 57 10000 6.2 40 13:59 10.06.2019
6551 Clear 31 1013 51 10000 5.1 40 13:40 10.06.2019
6552 Clear 30 1013 57 10000 5.1 40 13:21 10.06.2019
6553 Clear 30 1013 61 10000 4.1 30 12:42 10.06.2019
6554 Clear 29 1013 61 10000 4.1 30 12:23 10.06.2019
6555 Clear 30 1013 61 10000 1.5 10 11:44 10.06.2019
6556 Clear 30 1013 61 10000 1.5 10 11:24 10.06.2019
6557 Clouds 31 993 23 0 3.41 210.843 10:42 10.06.2019
6558 Clear 30 1013 61 10000 2.1 270 10:21 10.06.2019
6559 Clouds 31 993 22 0 3.41 210.843 09:57 10.06.2019
6560 Clouds 31 993 23 0 3.41 210.843 09:38 10.06.2019
6561 Clear 29 1013 57 10000 1 0 09:19 10.06.2019
6562 Clouds 29 1013 21 0 1.79 203 08:44 10.06.2019
6563 Clear 28 1013 64 10000 1 320 08:23 10.06.2019
6564 Clouds 26 994 37 0 2.27 172.944 06:56 10.06.2019
6565 Clear 25 1013 56 10000 1.5 170 04:29 10.06.2019
6566 Clear 26 1015 57 10000 1 220 01:59 10.06.2019
6567 Clear 26 1015 53 10000 0.5 0 01:26 10.06.2019
6568 Clear 26 1015 60 10000 0.5 0 00:56 10.06.2019
6569 Clear 26 1016 64 10000 1 0 00:19 10.06.2019
6570 Clear 26 1016 73 10000 0.5 0 23:42 09.06.2019
6571 Clear 26 1016 69 10000 1 70 23:19 09.06.2019
6572 Clear 26 1016 78 10000 0.5 0 22:44 09.06.2019
6573 Clear 25 1016 78 10000 0.5 0 22:25 09.06.2019
6574 Clear 26 1016 65 10000 1 200 21:45 09.06.2019
6575 Clear 27 1016 65 10000 1 200 21:23 09.06.2019
6576 Clear 27 1016 78 10000 2.6 240 20:43 09.06.2019
6577 Clear 28 1016 78 10000 2.6 240 20:23 09.06.2019
6578 Clear 28 1017 78 10000 2.6 250 19:48 09.06.2019
6579 Clear 29 1017 78 10000 2.1 240 19:19 09.06.2019
6580 Clear 30 1017 78 10000 2.1 240 18:59 09.06.2019
6581 Clear 30 1017 83 10000 3.1 250 18:41 09.06.2019
6582 Clear 30 1017 83 10000 3.1 250 18:23 09.06.2019
6583 Clear 32 1018 23 0 2.24 73 17:47 09.06.2019
6584 Clear 31 1017 73 10000 3.1 340 17:27 09.06.2019
6585 Clear 31 1018 78 10000 3.1 350 16:55 09.06.2019
6586 Clear 31 1018 78 10000 4.1 30 16:36 09.06.2019
6587 Clear 32 1018 78 10000 3.6 30 16:18 09.06.2019
6588 Clear 32 1018 73 10000 1.5 330 15:44 09.06.2019
6589 Clear 33 1018 73 10000 1.5 330 15:26 09.06.2019
6590 Clear 33 1019 73 10000 4.1 30 14:46 09.06.2019
6591 Clear 33 1019 73 10000 4.1 30 14:26 09.06.2019
6592 Clear 33 1019 65 10000 2.1 350 13:56 09.06.2019
6593 Clear 32 1020 65 10000 1 0 13:35 09.06.2019
6594 Clear 33 1027 16 0 0.89 225 12:43 09.06.2019
6595 Clear 33 1027 18 0 1.99 315.163 12:25 09.06.2019
6596 Clear 33 1027 21 0 2.68 90 11:48 09.06.2019
6597 Clear 34 1027 15 0 2.68 90 11:29 09.06.2019
6598 Clear 32 1019 78 10000 1.5 260 10:47 09.06.2019
6599 Clear 32 1019 78 10000 1.5 260 10:24 09.06.2019
6600 Clear 32 1019 78 10000 1.5 260 10:24 09.06.2019
6601 Clear 32 1020 26 0 1.34 82 09:42 09.06.2019
6602 Clear 31 1020 30 0 0.89 87 09:24 09.06.2019
6603 Clear 30 1019 34 10000 2.6 70 08:58 09.06.2019
6604 Clear 29 1019 50 10000 3.1 70 08:40 09.06.2019
6605 Clear 28 1000 35 0 1.57 171.88 07:50 09.06.2019
6606 Clear 25 1019 43 10000 1.5 220 06:30 09.06.2019
6607 Clear 25 1019 43 10000 2.1 180 05:35 09.06.2019
6608 Clear 25 1020 43 10000 1.5 220 02:52 09.06.2019
6609 Clear 26 1020 44 10000 0.5 0 01:36 09.06.2019
6610 Clear 26 1020 56 10000 1.5 80 01:18 09.06.2019
6611 Clear 26 1021 60 10000 2.1 220 00:22 09.06.2019
6612 Clear 26 1020 57 10000 1 0 23:40 08.06.2019
6613 Clear 26 1020 57 10000 1 0 23:22 08.06.2019
6614 Clear 26 1020 64 10000 2.1 70 22:44 08.06.2019
6615 Clear 26 1020 64 10000 2.1 70 22:25 08.06.2019
6616 Clear 26 1020 60 10000 1.5 40 21:56 08.06.2019
6617 Clear 26 1020 60 10000 0.5 190 21:38 08.06.2019
6618 Clear 26 1020 60 10000 0.5 190 21:38 08.06.2019
6619 Clear 27 1020 41 10000 1.5 220 21:19 08.06.2019
6620 Clear 27 1020 47 10000 2.6 200 20:42 08.06.2019
6621 Clear 27 1020 69 10000 4.1 240 20:21 08.06.2019
6622 Clear 28 1020 69 10000 5.1 240 19:43 08.06.2019
6623 Clear 29 1020 69 10000 5.1 240 19:23 08.06.2019
6624 Clear 29 1020 54 10000 5.1 230 18:59 08.06.2019
6625 Clear 29 1020 65 10000 6.2 40 18:40 08.06.2019
6626 Clear 30 1020 65 10000 6.2 40 18:20 08.06.2019
6627 Clear 31 1020 42 10000 6.2 50 17:42 08.06.2019
6628 Clear 31 1021 27 10000 7.7 60 17:19 08.06.2019
6629 Clear 31 1021 42 10000 7.2 50 16:45 08.06.2019
6630 Clear 31 1021 42 10000 7.2 50 16:26 08.06.2019
6631 Clear 32 1021 25 10000 4.1 60 15:42 08.06.2019
6632 Clear 31 1022 27 10000 5.1 60 15:22 08.06.2019
6633 Clear 31 1022 37 10000 3.1 70 14:47 08.06.2019
6634 Clear 31 1022 37 10000 3.1 70 14:27 08.06.2019
6635 Clear 31 1021 61 10000 4.1 30 13:40 08.06.2019
6636 Clear 30 1021 54 10000 2.1 10 12:52 08.06.2019
6637 Clear 29 1021 61 10000 1 0 12:32 08.06.2019
6638 Clear 29 1021 61 10000 1 0 12:32 08.06.2019
6639 Clear 29 1021 64 10000 1.5 350 11:44 08.06.2019
6640 Clear 29 1021 64 10000 1.5 350 11:44 08.06.2019
6641 Clear 29 1021 64 10000 1.5 350 11:25 08.06.2019
6642 Clear 30 1001 37 0 1.45 203.584 10:46 08.06.2019
6643 Clear 30 1001 38 0 1.45 203.584 10:24 08.06.2019
6644 Clear 29 1021 57 10000 1 0 09:52 08.06.2019
6645 Clear 28 1020 64 10000 2.6 40 09:28 08.06.2019
6646 Clear 27 1019 60 10000 1 0 08:39 08.06.2019
6647 Clear 27 1019 73 10000 0.5 0 08:18 08.06.2019
6648 Clear 25 1019 56 10000 1.5 100 06:51 08.06.2019
6649 Clear 24 1019 64 10000 2.1 90 05:56 08.06.2019
6650 Clear 26 1018 41 10000 2.1 200 03:34 08.06.2019
6651 Clear 26 1018 39 10000 5.7 220 01:59 08.06.2019
6652 Clear 25 1019 44 10000 3.6 210 00:29 08.06.2019
6653 Clear 25 1019 53 10000 2.1 200 23:52 07.06.2019
6654 Clear 25 1019 73 10000 1 0 23:21 07.06.2019
6655 Clear 25 1019 73 10000 1 0 23:21 07.06.2019
6656 Clear 25 1019 65 10000 1.5 220 22:50 07.06.2019
6657 Clear 25 1019 65 10000 1.5 220 22:31 07.06.2019
6658 Clear 23 1018 73 10000 1.5 190 21:54 07.06.2019
6659 Clear 25 1018 69 10000 1 210 21:31 07.06.2019
6660 Clear 25 1018 73 10000 0.5 0 20:58 07.06.2019
6661 Clear 26 1018 73 10000 1.5 230 20:38 07.06.2019
6662 Clear 26 1017 83 10000 4.1 250 19:52 07.06.2019
6663 Clear 26 1018 69 10000 3.1 240 19:30 07.06.2019
6664 Clear 27 1017 73 10000 2.6 240 18:59 07.06.2019
6665 Clear 28 1017 69 10000 3.1 0 18:38 07.06.2019
6666 Clear 29 1017 69 10000 3.1 0 18:20 07.06.2019
6667 Clear 29 1017 61 10000 4.1 40 17:42 07.06.2019
6668 Clear 29 1017 61 10000 4.1 40 17:19 07.06.2019
6669 Clear 29 1017 57 10000 7.7 60 16:41 07.06.2019
6670 Clear 29 1017 54 10000 8.2 70 15:56 07.06.2019
6671 Clear 29 1017 51 10000 6.2 60 15:38 07.06.2019
6672 Clear 30 1017 51 10000 6.7 70 15:18 07.06.2019
6673 Clear 30 1017 51 10000 6.2 60 14:39 07.06.2019
6674 Clear 31 1017 51 10000 6.2 60 14:19 07.06.2019
6675 Clear 30 1017 51 10000 6.2 60 13:27 07.06.2019
6676 Clear 30 1017 65 10000 5.1 50 12:51 07.06.2019
6677 Clear 28 1017 83 10000 5.1 40 12:29 07.06.2019
6678 Clear 28 1017 78 10000 3.1 30 11:57 07.06.2019
6679 Clear 27 1017 83 10000 2.1 10 11:34 07.06.2019
6680 Clear 28 998 49 0 1.55 167.559 10:59 07.06.2019
6681 Clear 28 1025 43 0 1.34 90 10:41 07.06.2019
6682 Clear 27 998 52 0 1.55 167.559 10:19 07.06.2019
6683 Clear 27 998 57 0 1.55 167.559 09:46 07.06.2019
6684 Clouds 26 1024 40 0 1.34 90 09:21 07.06.2019
6685 Clouds 25 1017 52 0 0.89 146 08:45 07.06.2019
6686 Clouds 24 998 69 0 0.91 206.678 08:26 07.06.2019
6687 Clouds 23 998 77 0 0.91 206.678 07:48 07.06.2019
6688 Clouds 22 998 79 0 0.91 206.678 07:22 07.06.2019
6689 Clear 21 1016 93 10000 2.6 230 06:47 07.06.2019
6690 Clear 21 1016 93 10000 2.6 230 06:23 07.06.2019
6691 Clear 21 997 81 0 2.03 137.413 05:43 07.06.2019
6692 Clear 21 1016 93 10000 1 210 02:41 07.06.2019
6693 Clear 21 1017 93 10000 2.1 360 01:37 07.06.2019
6694 Clear